<?xml version="1.0" encoding="UTF-8" ?>
<gpx xmlns="http://www.topografix.com/GPX/1/1" version="1.1" creator="RouteGadget GPS Tracking" xmlns:xsi="http://www.w3.org/2001/XMLSchema-instance" xmlns:tp1="http://www.garmin.com/xmlschemas/TrackPointExtension/v1" xsi:schemaLocation="http://www.topografix.com/GPX/1/1 http://www.topografix.com/GPX/1/1/gpx.xsd http://www.garmin.com/xmlschemas/TrackPointExtension/v1 http://www.garmin.com/xmlschemas/TrackPointExtensionv1.xsd">
<trk>
<trkseg><trkpt lat="61.012697" lon="25.801611">
<time>2020-09-13T09:59:54Z</time>
</trkpt>
<trkpt lat="61.012697" lon="25.801611">
<time>2020-09-13T09:59:55Z</time>
</trkpt>
<trkpt lat="61.012698" lon="25.80161">
<time>2020-09-13T09:59:56Z</time>
</trkpt>
<trkpt lat="61.012697" lon="25.801608">
<time>2020-09-13T09:59:57Z</time>
</trkpt>
<trkpt lat="61.012696" lon="25.801616">
<time>2020-09-13T09:59:58Z</time>
</trkpt>
<trkpt lat="61.012695" lon="25.801639">
<time>2020-09-13T09:59:59Z</time>
</trkpt>
<trkpt lat="61.012698" lon="25.801687">
<time>2020-09-13T10:00:00Z</time>
</trkpt>
<trkpt lat="61.012707" lon="25.801756">
<time>2020-09-13T10:00:01Z</time>
</trkpt>
<trkpt lat="61.01272" lon="25.801842">
<time>2020-09-13T10:00:02Z</time>
</trkpt>
<trkpt lat="61.012731" lon="25.801936">
<time>2020-09-13T10:00:03Z</time>
</trkpt>
<trkpt lat="61.012743" lon="25.802036">
<time>2020-09-13T10:00:04Z</time>
</trkpt>
<trkpt lat="61.012758" lon="25.802138">
<time>2020-09-13T10:00:05Z</time>
</trkpt>
<trkpt lat="61.012774" lon="25.802247">
<time>2020-09-13T10:00:06Z</time>
</trkpt>
<trkpt lat="61.012789" lon="25.802378">
<time>2020-09-13T10:00:07Z</time>
</trkpt>
<trkpt lat="61.012801" lon="25.802523">
<time>2020-09-13T10:00:08Z</time>
</trkpt>
<trkpt lat="61.012805" lon="25.802678">
<time>2020-09-13T10:00:09Z</time>
</trkpt>
<trkpt lat="61.012803" lon="25.802821">
<time>2020-09-13T10:00:10Z</time>
</trkpt>
<trkpt lat="61.012796" lon="25.802947">
<time>2020-09-13T10:00:11Z</time>
</trkpt>
<trkpt lat="61.012791" lon="25.803052">
<time>2020-09-13T10:00:12Z</time>
</trkpt>
<trkpt lat="61.012797" lon="25.803142">
<time>2020-09-13T10:00:13Z</time>
</trkpt>
<trkpt lat="61.012813" lon="25.803232">
<time>2020-09-13T10:00:14Z</time>
</trkpt>
<trkpt lat="61.012842" lon="25.803323">
<time>2020-09-13T10:00:15Z</time>
</trkpt>
<trkpt lat="61.012883" lon="25.803408">
<time>2020-09-13T10:00:16Z</time>
</trkpt>
<trkpt lat="61.01295" lon="25.803472">
<time>2020-09-13T10:00:17Z</time>
</trkpt>
<trkpt lat="61.013029" lon="25.803509">
<time>2020-09-13T10:00:18Z</time>
</trkpt>
<trkpt lat="61.01311" lon="25.803512">
<time>2020-09-13T10:00:19Z</time>
</trkpt>
<trkpt lat="61.013174" lon="25.803502">
<time>2020-09-13T10:00:20Z</time>
</trkpt>
<trkpt lat="61.013229" lon="25.803483">
<time>2020-09-13T10:00:21Z</time>
</trkpt>
<trkpt lat="61.013284" lon="25.803469">
<time>2020-09-13T10:00:22Z</time>
</trkpt>
<trkpt lat="61.013341" lon="25.80346">
<time>2020-09-13T10:00:23Z</time>
</trkpt>
<trkpt lat="61.013403" lon="25.803476">
<time>2020-09-13T10:00:24Z</time>
</trkpt>
<trkpt lat="61.013465" lon="25.803517">
<time>2020-09-13T10:00:25Z</time>
</trkpt>
<trkpt lat="61.013525" lon="25.803575">
<time>2020-09-13T10:00:26Z</time>
</trkpt>
<trkpt lat="61.013582" lon="25.80364">
<time>2020-09-13T10:00:27Z</time>
</trkpt>
<trkpt lat="61.013635" lon="25.803716">
<time>2020-09-13T10:00:28Z</time>
</trkpt>
<trkpt lat="61.01368" lon="25.803815">
<time>2020-09-13T10:00:29Z</time>
</trkpt>
<trkpt lat="61.01372" lon="25.80392">
<time>2020-09-13T10:00:30Z</time>
</trkpt>
<trkpt lat="61.013756" lon="25.804028">
<time>2020-09-13T10:00:31Z</time>
</trkpt>
<trkpt lat="61.01379" lon="25.804128">
<time>2020-09-13T10:00:32Z</time>
</trkpt>
<trkpt lat="61.013817" lon="25.80423">
<time>2020-09-13T10:00:33Z</time>
</trkpt>
<trkpt lat="61.013838" lon="25.80433">
<time>2020-09-13T10:00:34Z</time>
</trkpt>
<trkpt lat="61.013854" lon="25.804429">
<time>2020-09-13T10:00:35Z</time>
</trkpt>
<trkpt lat="61.013867" lon="25.80452">
<time>2020-09-13T10:00:36Z</time>
</trkpt>
<trkpt lat="61.013876" lon="25.804609">
<time>2020-09-13T10:00:37Z</time>
</trkpt>
<trkpt lat="61.013884" lon="25.804696">
<time>2020-09-13T10:00:38Z</time>
</trkpt>
<trkpt lat="61.013888" lon="25.804785">
<time>2020-09-13T10:00:39Z</time>
</trkpt>
<trkpt lat="61.01389" lon="25.804875">
<time>2020-09-13T10:00:40Z</time>
</trkpt>
<trkpt lat="61.013891" lon="25.804967">
<time>2020-09-13T10:00:41Z</time>
</trkpt>
<trkpt lat="61.013891" lon="25.805059">
<time>2020-09-13T10:00:42Z</time>
</trkpt>
<trkpt lat="61.013891" lon="25.805151">
<time>2020-09-13T10:00:43Z</time>
</trkpt>
<trkpt lat="61.013894" lon="25.805243">
<time>2020-09-13T10:00:44Z</time>
</trkpt>
<trkpt lat="61.013899" lon="25.805336">
<time>2020-09-13T10:00:45Z</time>
</trkpt>
<trkpt lat="61.013905" lon="25.805434">
<time>2020-09-13T10:00:46Z</time>
</trkpt>
<trkpt lat="61.013911" lon="25.805534">
<time>2020-09-13T10:00:47Z</time>
</trkpt>
<trkpt lat="61.01392" lon="25.805633">
<time>2020-09-13T10:00:48Z</time>
</trkpt>
<trkpt lat="61.013929" lon="25.805732">
<time>2020-09-13T10:00:49Z</time>
</trkpt>
<trkpt lat="61.013939" lon="25.805832">
<time>2020-09-13T10:00:50Z</time>
</trkpt>
<trkpt lat="61.013952" lon="25.805933">
<time>2020-09-13T10:00:51Z</time>
</trkpt>
<trkpt lat="61.013969" lon="25.806032">
<time>2020-09-13T10:00:52Z</time>
</trkpt>
<trkpt lat="61.01399" lon="25.806127">
<time>2020-09-13T10:00:53Z</time>
</trkpt>
<trkpt lat="61.014013" lon="25.806221">
<time>2020-09-13T10:00:54Z</time>
</trkpt>
<trkpt lat="61.014041" lon="25.806314">
<time>2020-09-13T10:00:55Z</time>
</trkpt>
<trkpt lat="61.014073" lon="25.806399">
<time>2020-09-13T10:00:56Z</time>
</trkpt>
<trkpt lat="61.014109" lon="25.806475">
<time>2020-09-13T10:00:57Z</time>
</trkpt>
<trkpt lat="61.014146" lon="25.806544">
<time>2020-09-13T10:00:58Z</time>
</trkpt>
<trkpt lat="61.014185" lon="25.806612">
<time>2020-09-13T10:00:59Z</time>
</trkpt>
<trkpt lat="61.014224" lon="25.80668">
<time>2020-09-13T10:01:00Z</time>
</trkpt>
<trkpt lat="61.014265" lon="25.806747">
<time>2020-09-13T10:01:01Z</time>
</trkpt>
<trkpt lat="61.014306" lon="25.806816">
<time>2020-09-13T10:01:02Z</time>
</trkpt>
<trkpt lat="61.014348" lon="25.806885">
<time>2020-09-13T10:01:03Z</time>
</trkpt>
<trkpt lat="61.014391" lon="25.806957">
<time>2020-09-13T10:01:04Z</time>
</trkpt>
<trkpt lat="61.014437" lon="25.80703">
<time>2020-09-13T10:01:05Z</time>
</trkpt>
<trkpt lat="61.014486" lon="25.807104">
<time>2020-09-13T10:01:06Z</time>
</trkpt>
<trkpt lat="61.014535" lon="25.807179">
<time>2020-09-13T10:01:07Z</time>
</trkpt>
<trkpt lat="61.014582" lon="25.807261">
<time>2020-09-13T10:01:08Z</time>
</trkpt>
<trkpt lat="61.014628" lon="25.80735">
<time>2020-09-13T10:01:09Z</time>
</trkpt>
<trkpt lat="61.014673" lon="25.807439">
<time>2020-09-13T10:01:10Z</time>
</trkpt>
<trkpt lat="61.014717" lon="25.807528">
<time>2020-09-13T10:01:11Z</time>
</trkpt>
<trkpt lat="61.01476" lon="25.807615">
<time>2020-09-13T10:01:12Z</time>
</trkpt>
<trkpt lat="61.014804" lon="25.807699">
<time>2020-09-13T10:01:13Z</time>
</trkpt>
<trkpt lat="61.014851" lon="25.807777">
<time>2020-09-13T10:01:14Z</time>
</trkpt>
<trkpt lat="61.014901" lon="25.807845">
<time>2020-09-13T10:01:15Z</time>
</trkpt>
<trkpt lat="61.014952" lon="25.807903">
<time>2020-09-13T10:01:16Z</time>
</trkpt>
<trkpt lat="61.015006" lon="25.80795">
<time>2020-09-13T10:01:17Z</time>
</trkpt>
<trkpt lat="61.015058" lon="25.80799">
<time>2020-09-13T10:01:18Z</time>
</trkpt>
<trkpt lat="61.015108" lon="25.808025">
<time>2020-09-13T10:01:19Z</time>
</trkpt>
<trkpt lat="61.015152" lon="25.808061">
<time>2020-09-13T10:01:20Z</time>
</trkpt>
<trkpt lat="61.015193" lon="25.8081">
<time>2020-09-13T10:01:21Z</time>
</trkpt>
<trkpt lat="61.015233" lon="25.808143">
<time>2020-09-13T10:01:22Z</time>
</trkpt>
<trkpt lat="61.015273" lon="25.808183">
<time>2020-09-13T10:01:23Z</time>
</trkpt>
<trkpt lat="61.015312" lon="25.808222">
<time>2020-09-13T10:01:24Z</time>
</trkpt>
<trkpt lat="61.015349" lon="25.808259">
<time>2020-09-13T10:01:25Z</time>
</trkpt>
<trkpt lat="61.015384" lon="25.808299">
<time>2020-09-13T10:01:26Z</time>
</trkpt>
<trkpt lat="61.015417" lon="25.808342">
<time>2020-09-13T10:01:27Z</time>
</trkpt>
<trkpt lat="61.015448" lon="25.808392">
<time>2020-09-13T10:01:28Z</time>
</trkpt>
<trkpt lat="61.015478" lon="25.80844">
<time>2020-09-13T10:01:29Z</time>
</trkpt>
<trkpt lat="61.015506" lon="25.808486">
<time>2020-09-13T10:01:30Z</time>
</trkpt>
<trkpt lat="61.015535" lon="25.808525">
<time>2020-09-13T10:01:31Z</time>
</trkpt>
<trkpt lat="61.015564" lon="25.808557">
<time>2020-09-13T10:01:32Z</time>
</trkpt>
<trkpt lat="61.015597" lon="25.808582">
<time>2020-09-13T10:01:33Z</time>
</trkpt>
<trkpt lat="61.015632" lon="25.808599">
<time>2020-09-13T10:01:34Z</time>
</trkpt>
<trkpt lat="61.015671" lon="25.808611">
<time>2020-09-13T10:01:35Z</time>
</trkpt>
<trkpt lat="61.015714" lon="25.808617">
<time>2020-09-13T10:01:36Z</time>
</trkpt>
<trkpt lat="61.015758" lon="25.808623">
<time>2020-09-13T10:01:37Z</time>
</trkpt>
<trkpt lat="61.015803" lon="25.808631">
<time>2020-09-13T10:01:38Z</time>
</trkpt>
<trkpt lat="61.015845" lon="25.808643">
<time>2020-09-13T10:01:39Z</time>
</trkpt>
<trkpt lat="61.015886" lon="25.808653">
<time>2020-09-13T10:01:40Z</time>
</trkpt>
<trkpt lat="61.015926" lon="25.808665">
<time>2020-09-13T10:01:41Z</time>
</trkpt>
<trkpt lat="61.015961" lon="25.808678">
<time>2020-09-13T10:01:42Z</time>
</trkpt>
<trkpt lat="61.015991" lon="25.808691">
<time>2020-09-13T10:01:43Z</time>
</trkpt>
<trkpt lat="61.016019" lon="25.8087">
<time>2020-09-13T10:01:44Z</time>
</trkpt>
<trkpt lat="61.016044" lon="25.808709">
<time>2020-09-13T10:01:45Z</time>
</trkpt>
<trkpt lat="61.016067" lon="25.80872">
<time>2020-09-13T10:01:46Z</time>
</trkpt>
<trkpt lat="61.016093" lon="25.808728">
<time>2020-09-13T10:01:47Z</time>
</trkpt>
<trkpt lat="61.016123" lon="25.808726">
<time>2020-09-13T10:01:48Z</time>
</trkpt>
<trkpt lat="61.016156" lon="25.808719">
<time>2020-09-13T10:01:49Z</time>
</trkpt>
<trkpt lat="61.016193" lon="25.808709">
<time>2020-09-13T10:01:50Z</time>
</trkpt>
<trkpt lat="61.016231" lon="25.808701">
<time>2020-09-13T10:01:51Z</time>
</trkpt>
<trkpt lat="61.016269" lon="25.808693">
<time>2020-09-13T10:01:52Z</time>
</trkpt>
<trkpt lat="61.016306" lon="25.808686">
<time>2020-09-13T10:01:53Z</time>
</trkpt>
<trkpt lat="61.016341" lon="25.808678">
<time>2020-09-13T10:01:54Z</time>
</trkpt>
<trkpt lat="61.016373" lon="25.808668">
<time>2020-09-13T10:01:55Z</time>
</trkpt>
<trkpt lat="61.016404" lon="25.808658">
<time>2020-09-13T10:01:56Z</time>
</trkpt>
<trkpt lat="61.016433" lon="25.808642">
<time>2020-09-13T10:01:57Z</time>
</trkpt>
<trkpt lat="61.016462" lon="25.808622">
<time>2020-09-13T10:01:58Z</time>
</trkpt>
<trkpt lat="61.016491" lon="25.808591">
<time>2020-09-13T10:01:59Z</time>
</trkpt>
<trkpt lat="61.01652" lon="25.808555">
<time>2020-09-13T10:02:00Z</time>
</trkpt>
<trkpt lat="61.01655" lon="25.808513">
<time>2020-09-13T10:02:01Z</time>
</trkpt>
<trkpt lat="61.016582" lon="25.808464">
<time>2020-09-13T10:02:02Z</time>
</trkpt>
<trkpt lat="61.016614" lon="25.808411">
<time>2020-09-13T10:02:03Z</time>
</trkpt>
<trkpt lat="61.016644" lon="25.808359">
<time>2020-09-13T10:02:04Z</time>
</trkpt>
<trkpt lat="61.01667" lon="25.808318">
<time>2020-09-13T10:02:05Z</time>
</trkpt>
<trkpt lat="61.016691" lon="25.808296">
<time>2020-09-13T10:02:06Z</time>
</trkpt>
<trkpt lat="61.0167" lon="25.808291">
<time>2020-09-13T10:02:07Z</time>
</trkpt>
<trkpt lat="61.0167" lon="25.808299">
<time>2020-09-13T10:02:08Z</time>
</trkpt>
<trkpt lat="61.016695" lon="25.808302">
<time>2020-09-13T10:02:09Z</time>
</trkpt>
<trkpt lat="61.016693" lon="25.8083">
<time>2020-09-13T10:02:10Z</time>
</trkpt>
<trkpt lat="61.016695" lon="25.808304">
<time>2020-09-13T10:02:11Z</time>
</trkpt>
<trkpt lat="61.016701" lon="25.808319">
<time>2020-09-13T10:02:12Z</time>
</trkpt>
<trkpt lat="61.016711" lon="25.808346">
<time>2020-09-13T10:02:13Z</time>
</trkpt>
<trkpt lat="61.016724" lon="25.808395">
<time>2020-09-13T10:02:14Z</time>
</trkpt>
<trkpt lat="61.016738" lon="25.808459">
<time>2020-09-13T10:02:15Z</time>
</trkpt>
<trkpt lat="61.01675" lon="25.808544">
<time>2020-09-13T10:02:16Z</time>
</trkpt>
<trkpt lat="61.016751" lon="25.808631">
<time>2020-09-13T10:02:17Z</time>
</trkpt>
<trkpt lat="61.016743" lon="25.80872">
<time>2020-09-13T10:02:18Z</time>
</trkpt>
<trkpt lat="61.016727" lon="25.808805">
<time>2020-09-13T10:02:19Z</time>
</trkpt>
<trkpt lat="61.016713" lon="25.808887">
<time>2020-09-13T10:02:20Z</time>
</trkpt>
<trkpt lat="61.016703" lon="25.808974">
<time>2020-09-13T10:02:21Z</time>
</trkpt>
<trkpt lat="61.016695" lon="25.809063">
<time>2020-09-13T10:02:22Z</time>
</trkpt>
<trkpt lat="61.016682" lon="25.809155">
<time>2020-09-13T10:02:23Z</time>
</trkpt>
<trkpt lat="61.016668" lon="25.809246">
<time>2020-09-13T10:02:24Z</time>
</trkpt>
<trkpt lat="61.016652" lon="25.809335">
<time>2020-09-13T10:02:25Z</time>
</trkpt>
<trkpt lat="61.016637" lon="25.809413">
<time>2020-09-13T10:02:26Z</time>
</trkpt>
<trkpt lat="61.016618" lon="25.80948">
<time>2020-09-13T10:02:27Z</time>
</trkpt>
<trkpt lat="61.016597" lon="25.809543">
<time>2020-09-13T10:02:28Z</time>
</trkpt>
<trkpt lat="61.016583" lon="25.809605">
<time>2020-09-13T10:02:29Z</time>
</trkpt>
<trkpt lat="61.016578" lon="25.809662">
<time>2020-09-13T10:02:30Z</time>
</trkpt>
<trkpt lat="61.016585" lon="25.80971">
<time>2020-09-13T10:02:31Z</time>
</trkpt>
<trkpt lat="61.016602" lon="25.809763">
<time>2020-09-13T10:02:32Z</time>
</trkpt>
<trkpt lat="61.016626" lon="25.809823">
<time>2020-09-13T10:02:33Z</time>
</trkpt>
<trkpt lat="61.016651" lon="25.809895">
<time>2020-09-13T10:02:34Z</time>
</trkpt>
<trkpt lat="61.016674" lon="25.809964">
<time>2020-09-13T10:02:35Z</time>
</trkpt>
<trkpt lat="61.016694" lon="25.810032">
<time>2020-09-13T10:02:36Z</time>
</trkpt>
<trkpt lat="61.016713" lon="25.810098">
<time>2020-09-13T10:02:37Z</time>
</trkpt>
<trkpt lat="61.016733" lon="25.810163">
<time>2020-09-13T10:02:38Z</time>
</trkpt>
<trkpt lat="61.016755" lon="25.810231">
<time>2020-09-13T10:02:39Z</time>
</trkpt>
<trkpt lat="61.016779" lon="25.810298">
<time>2020-09-13T10:02:40Z</time>
</trkpt>
<trkpt lat="61.016809" lon="25.810374">
<time>2020-09-13T10:02:41Z</time>
</trkpt>
<trkpt lat="61.016846" lon="25.810454">
<time>2020-09-13T10:02:42Z</time>
</trkpt>
<trkpt lat="61.016892" lon="25.810542">
<time>2020-09-13T10:02:43Z</time>
</trkpt>
<trkpt lat="61.016932" lon="25.810636">
<time>2020-09-13T10:02:44Z</time>
</trkpt>
<trkpt lat="61.016953" lon="25.810745">
<time>2020-09-13T10:02:45Z</time>
</trkpt>
<trkpt lat="61.016951" lon="25.810864">
<time>2020-09-13T10:02:46Z</time>
</trkpt>
<trkpt lat="61.016943" lon="25.810975">
<time>2020-09-13T10:02:47Z</time>
</trkpt>
<trkpt lat="61.016943" lon="25.81108">
<time>2020-09-13T10:02:48Z</time>
</trkpt>
<trkpt lat="61.016953" lon="25.811175">
<time>2020-09-13T10:02:49Z</time>
</trkpt>
<trkpt lat="61.016968" lon="25.811275">
<time>2020-09-13T10:02:50Z</time>
</trkpt>
<trkpt lat="61.016985" lon="25.811377">
<time>2020-09-13T10:02:51Z</time>
</trkpt>
<trkpt lat="61.017002" lon="25.811484">
<time>2020-09-13T10:02:52Z</time>
</trkpt>
<trkpt lat="61.01702" lon="25.811595">
<time>2020-09-13T10:02:53Z</time>
</trkpt>
<trkpt lat="61.017046" lon="25.811714">
<time>2020-09-13T10:02:54Z</time>
</trkpt>
<trkpt lat="61.017075" lon="25.811831">
<time>2020-09-13T10:02:55Z</time>
</trkpt>
<trkpt lat="61.017103" lon="25.811945">
<time>2020-09-13T10:02:56Z</time>
</trkpt>
<trkpt lat="61.017129" lon="25.812046">
<time>2020-09-13T10:02:57Z</time>
</trkpt>
<trkpt lat="61.017157" lon="25.812147">
<time>2020-09-13T10:02:58Z</time>
</trkpt>
<trkpt lat="61.017198" lon="25.812254">
<time>2020-09-13T10:02:59Z</time>
</trkpt>
<trkpt lat="61.017248" lon="25.812371">
<time>2020-09-13T10:03:00Z</time>
</trkpt>
<trkpt lat="61.017304" lon="25.812489">
<time>2020-09-13T10:03:01Z</time>
</trkpt>
<trkpt lat="61.017354" lon="25.812603">
<time>2020-09-13T10:03:02Z</time>
</trkpt>
<trkpt lat="61.017399" lon="25.812707">
<time>2020-09-13T10:03:03Z</time>
</trkpt>
<trkpt lat="61.017446" lon="25.812813">
<time>2020-09-13T10:03:04Z</time>
</trkpt>
<trkpt lat="61.017495" lon="25.812925">
<time>2020-09-13T10:03:05Z</time>
</trkpt>
<trkpt lat="61.017553" lon="25.813032">
<time>2020-09-13T10:03:06Z</time>
</trkpt>
<trkpt lat="61.017616" lon="25.813133">
<time>2020-09-13T10:03:07Z</time>
</trkpt>
<trkpt lat="61.017679" lon="25.813226">
<time>2020-09-13T10:03:08Z</time>
</trkpt>
<trkpt lat="61.017735" lon="25.813326">
<time>2020-09-13T10:03:09Z</time>
</trkpt>
<trkpt lat="61.017786" lon="25.813435">
<time>2020-09-13T10:03:10Z</time>
</trkpt>
<trkpt lat="61.017839" lon="25.813546">
<time>2020-09-13T10:03:11Z</time>
</trkpt>
<trkpt lat="61.017894" lon="25.813656">
<time>2020-09-13T10:03:12Z</time>
</trkpt>
<trkpt lat="61.017954" lon="25.813757">
<time>2020-09-13T10:03:13Z</time>
</trkpt>
<trkpt lat="61.018013" lon="25.813849">
<time>2020-09-13T10:03:14Z</time>
</trkpt>
<trkpt lat="61.018073" lon="25.813928">
<time>2020-09-13T10:03:15Z</time>
</trkpt>
<trkpt lat="61.018131" lon="25.813994">
<time>2020-09-13T10:03:16Z</time>
</trkpt>
<trkpt lat="61.018193" lon="25.814047">
<time>2020-09-13T10:03:17Z</time>
</trkpt>
<trkpt lat="61.018261" lon="25.814077">
<time>2020-09-13T10:03:18Z</time>
</trkpt>
<trkpt lat="61.018329" lon="25.814088">
<time>2020-09-13T10:03:19Z</time>
</trkpt>
<trkpt lat="61.018403" lon="25.814069">
<time>2020-09-13T10:03:20Z</time>
</trkpt>
<trkpt lat="61.018478" lon="25.814032">
<time>2020-09-13T10:03:21Z</time>
</trkpt>
<trkpt lat="61.018557" lon="25.81398">
<time>2020-09-13T10:03:22Z</time>
</trkpt>
<trkpt lat="61.018634" lon="25.813928">
<time>2020-09-13T10:03:23Z</time>
</trkpt>
<trkpt lat="61.018709" lon="25.813871">
<time>2020-09-13T10:03:24Z</time>
</trkpt>
<trkpt lat="61.018784" lon="25.813804">
<time>2020-09-13T10:03:25Z</time>
</trkpt>
<trkpt lat="61.018859" lon="25.813732">
<time>2020-09-13T10:03:26Z</time>
</trkpt>
<trkpt lat="61.018932" lon="25.813655">
<time>2020-09-13T10:03:27Z</time>
</trkpt>
<trkpt lat="61.019001" lon="25.813577">
<time>2020-09-13T10:03:28Z</time>
</trkpt>
<trkpt lat="61.019069" lon="25.813502">
<time>2020-09-13T10:03:29Z</time>
</trkpt>
<trkpt lat="61.019142" lon="25.813448">
<time>2020-09-13T10:03:30Z</time>
</trkpt>
<trkpt lat="61.019218" lon="25.813412">
<time>2020-09-13T10:03:31Z</time>
</trkpt>
<trkpt lat="61.019295" lon="25.813392">
<time>2020-09-13T10:03:32Z</time>
</trkpt>
<trkpt lat="61.01937" lon="25.81338">
<time>2020-09-13T10:03:33Z</time>
</trkpt>
<trkpt lat="61.019444" lon="25.813374">
<time>2020-09-13T10:03:34Z</time>
</trkpt>
<trkpt lat="61.019516" lon="25.813372">
<time>2020-09-13T10:03:35Z</time>
</trkpt>
<trkpt lat="61.019587" lon="25.813369">
<time>2020-09-13T10:03:36Z</time>
</trkpt>
<trkpt lat="61.019658" lon="25.813361">
<time>2020-09-13T10:03:37Z</time>
</trkpt>
<trkpt lat="61.019727" lon="25.813347">
<time>2020-09-13T10:03:38Z</time>
</trkpt>
<trkpt lat="61.019797" lon="25.813333">
<time>2020-09-13T10:03:39Z</time>
</trkpt>
<trkpt lat="61.019868" lon="25.813329">
<time>2020-09-13T10:03:40Z</time>
</trkpt>
<trkpt lat="61.01994" lon="25.813331">
<time>2020-09-13T10:03:41Z</time>
</trkpt>
<trkpt lat="61.020013" lon="25.813338">
<time>2020-09-13T10:03:42Z</time>
</trkpt>
<trkpt lat="61.020087" lon="25.813343">
<time>2020-09-13T10:03:43Z</time>
</trkpt>
<trkpt lat="61.020158" lon="25.813349">
<time>2020-09-13T10:03:44Z</time>
</trkpt>
<trkpt lat="61.020229" lon="25.813361">
<time>2020-09-13T10:03:45Z</time>
</trkpt>
<trkpt lat="61.020296" lon="25.813381">
<time>2020-09-13T10:03:46Z</time>
</trkpt>
<trkpt lat="61.020362" lon="25.813422">
<time>2020-09-13T10:03:47Z</time>
</trkpt>
<trkpt lat="61.020431" lon="25.81348">
<time>2020-09-13T10:03:48Z</time>
</trkpt>
<trkpt lat="61.020503" lon="25.81356">
<time>2020-09-13T10:03:49Z</time>
</trkpt>
<trkpt lat="61.020578" lon="25.813639">
<time>2020-09-13T10:03:50Z</time>
</trkpt>
<trkpt lat="61.02065" lon="25.813715">
<time>2020-09-13T10:03:51Z</time>
</trkpt>
<trkpt lat="61.020723" lon="25.813776">
<time>2020-09-13T10:03:52Z</time>
</trkpt>
<trkpt lat="61.020799" lon="25.813821">
<time>2020-09-13T10:03:53Z</time>
</trkpt>
<trkpt lat="61.020882" lon="25.813848">
<time>2020-09-13T10:03:54Z</time>
</trkpt>
<trkpt lat="61.020968" lon="25.813867">
<time>2020-09-13T10:03:55Z</time>
</trkpt>
<trkpt lat="61.021056" lon="25.813875">
<time>2020-09-13T10:03:56Z</time>
</trkpt>
<trkpt lat="61.021144" lon="25.813881">
<time>2020-09-13T10:03:57Z</time>
</trkpt>
<trkpt lat="61.021236" lon="25.813884">
<time>2020-09-13T10:03:58Z</time>
</trkpt>
<trkpt lat="61.021323" lon="25.813899">
<time>2020-09-13T10:03:59Z</time>
</trkpt>
<trkpt lat="61.021405" lon="25.813919">
<time>2020-09-13T10:04:00Z</time>
</trkpt>
<trkpt lat="61.021481" lon="25.813939">
<time>2020-09-13T10:04:01Z</time>
</trkpt>
<trkpt lat="61.021554" lon="25.813955">
<time>2020-09-13T10:04:02Z</time>
</trkpt>
<trkpt lat="61.021622" lon="25.813982">
<time>2020-09-13T10:04:03Z</time>
</trkpt>
<trkpt lat="61.021688" lon="25.814018">
<time>2020-09-13T10:04:04Z</time>
</trkpt>
<trkpt lat="61.021753" lon="25.814053">
<time>2020-09-13T10:04:05Z</time>
</trkpt>
<trkpt lat="61.021818" lon="25.814071">
<time>2020-09-13T10:04:06Z</time>
</trkpt>
<trkpt lat="61.021882" lon="25.814082">
<time>2020-09-13T10:04:07Z</time>
</trkpt>
<trkpt lat="61.02194" lon="25.814098">
<time>2020-09-13T10:04:08Z</time>
</trkpt>
<trkpt lat="61.02199" lon="25.814127">
<time>2020-09-13T10:04:09Z</time>
</trkpt>
<trkpt lat="61.022032" lon="25.814157">
<time>2020-09-13T10:04:10Z</time>
</trkpt>
<trkpt lat="61.022071" lon="25.814182">
<time>2020-09-13T10:04:11Z</time>
</trkpt>
<trkpt lat="61.022105" lon="25.814196">
<time>2020-09-13T10:04:12Z</time>
</trkpt>
<trkpt lat="61.022134" lon="25.814192">
<time>2020-09-13T10:04:13Z</time>
</trkpt>
<trkpt lat="61.022152" lon="25.814169">
<time>2020-09-13T10:04:14Z</time>
</trkpt>
<trkpt lat="61.022164" lon="25.814108">
<time>2020-09-13T10:04:15Z</time>
</trkpt>
<trkpt lat="61.022172" lon="25.814039">
<time>2020-09-13T10:04:16Z</time>
</trkpt>
<trkpt lat="61.022179" lon="25.813964">
<time>2020-09-13T10:04:17Z</time>
</trkpt>
<trkpt lat="61.022186" lon="25.813905">
<time>2020-09-13T10:04:18Z</time>
</trkpt>
<trkpt lat="61.022193" lon="25.813842">
<time>2020-09-13T10:04:19Z</time>
</trkpt>
<trkpt lat="61.022197" lon="25.813773">
<time>2020-09-13T10:04:20Z</time>
</trkpt>
<trkpt lat="61.022198" lon="25.813709">
<time>2020-09-13T10:04:21Z</time>
</trkpt>
<trkpt lat="61.022199" lon="25.813644">
<time>2020-09-13T10:04:22Z</time>
</trkpt>
<trkpt lat="61.022203" lon="25.813575">
<time>2020-09-13T10:04:23Z</time>
</trkpt>
<trkpt lat="61.022206" lon="25.813503">
<time>2020-09-13T10:04:24Z</time>
</trkpt>
<trkpt lat="61.022207" lon="25.813432">
<time>2020-09-13T10:04:25Z</time>
</trkpt>
<trkpt lat="61.022209" lon="25.813365">
<time>2020-09-13T10:04:26Z</time>
</trkpt>
<trkpt lat="61.022215" lon="25.813298">
<time>2020-09-13T10:04:27Z</time>
</trkpt>
<trkpt lat="61.022227" lon="25.813235">
<time>2020-09-13T10:04:28Z</time>
</trkpt>
<trkpt lat="61.022242" lon="25.813177">
<time>2020-09-13T10:04:29Z</time>
</trkpt>
<trkpt lat="61.022257" lon="25.813128">
<time>2020-09-13T10:04:30Z</time>
</trkpt>
<trkpt lat="61.022269" lon="25.813082">
<time>2020-09-13T10:04:31Z</time>
</trkpt>
<trkpt lat="61.022281" lon="25.813038">
<time>2020-09-13T10:04:32Z</time>
</trkpt>
<trkpt lat="61.022296" lon="25.812994">
<time>2020-09-13T10:04:33Z</time>
</trkpt>
<trkpt lat="61.022314" lon="25.812952">
<time>2020-09-13T10:04:34Z</time>
</trkpt>
<trkpt lat="61.022333" lon="25.812912">
<time>2020-09-13T10:04:35Z</time>
</trkpt>
<trkpt lat="61.022351" lon="25.812877">
<time>2020-09-13T10:04:36Z</time>
</trkpt>
<trkpt lat="61.022368" lon="25.812847">
<time>2020-09-13T10:04:37Z</time>
</trkpt>
<trkpt lat="61.022386" lon="25.81282">
<time>2020-09-13T10:04:38Z</time>
</trkpt>
<trkpt lat="61.022404" lon="25.812793">
<time>2020-09-13T10:04:39Z</time>
</trkpt>
<trkpt lat="61.022424" lon="25.812769">
<time>2020-09-13T10:04:40Z</time>
</trkpt>
<trkpt lat="61.022448" lon="25.812746">
<time>2020-09-13T10:04:41Z</time>
</trkpt>
<trkpt lat="61.022475" lon="25.812724">
<time>2020-09-13T10:04:42Z</time>
</trkpt>
<trkpt lat="61.022504" lon="25.812705">
<time>2020-09-13T10:04:43Z</time>
</trkpt>
<trkpt lat="61.022535" lon="25.812697">
<time>2020-09-13T10:04:44Z</time>
</trkpt>
<trkpt lat="61.022568" lon="25.812696">
<time>2020-09-13T10:04:45Z</time>
</trkpt>
<trkpt lat="61.022602" lon="25.8127">
<time>2020-09-13T10:04:46Z</time>
</trkpt>
<trkpt lat="61.022639" lon="25.812706">
<time>2020-09-13T10:04:47Z</time>
</trkpt>
<trkpt lat="61.022679" lon="25.812713">
<time>2020-09-13T10:04:48Z</time>
</trkpt>
<trkpt lat="61.022722" lon="25.812717">
<time>2020-09-13T10:04:49Z</time>
</trkpt>
<trkpt lat="61.022765" lon="25.812714">
<time>2020-09-13T10:04:50Z</time>
</trkpt>
<trkpt lat="61.02281" lon="25.812707">
<time>2020-09-13T10:04:51Z</time>
</trkpt>
<trkpt lat="61.022855" lon="25.812699">
<time>2020-09-13T10:04:52Z</time>
</trkpt>
<trkpt lat="61.022903" lon="25.812689">
<time>2020-09-13T10:04:53Z</time>
</trkpt>
<trkpt lat="61.022952" lon="25.812681">
<time>2020-09-13T10:04:54Z</time>
</trkpt>
<trkpt lat="61.023001" lon="25.812675">
<time>2020-09-13T10:04:55Z</time>
</trkpt>
<trkpt lat="61.023052" lon="25.812675">
<time>2020-09-13T10:04:56Z</time>
</trkpt>
<trkpt lat="61.023102" lon="25.812678">
<time>2020-09-13T10:04:57Z</time>
</trkpt>
<trkpt lat="61.023155" lon="25.81268">
<time>2020-09-13T10:04:58Z</time>
</trkpt>
<trkpt lat="61.023209" lon="25.81267">
<time>2020-09-13T10:04:59Z</time>
</trkpt>
<trkpt lat="61.023259" lon="25.812645">
<time>2020-09-13T10:05:00Z</time>
</trkpt>
<trkpt lat="61.023298" lon="25.812605">
<time>2020-09-13T10:05:01Z</time>
</trkpt>
<trkpt lat="61.023325" lon="25.812554">
<time>2020-09-13T10:05:02Z</time>
</trkpt>
<trkpt lat="61.023342" lon="25.812485">
<time>2020-09-13T10:05:03Z</time>
</trkpt>
<trkpt lat="61.023348" lon="25.812403">
<time>2020-09-13T10:05:04Z</time>
</trkpt>
<trkpt lat="61.023345" lon="25.812315">
<time>2020-09-13T10:05:05Z</time>
</trkpt>
<trkpt lat="61.02334" lon="25.812223">
<time>2020-09-13T10:05:06Z</time>
</trkpt>
<trkpt lat="61.023334" lon="25.812128">
<time>2020-09-13T10:05:07Z</time>
</trkpt>
<trkpt lat="61.023323" lon="25.812022">
<time>2020-09-13T10:05:08Z</time>
</trkpt>
<trkpt lat="61.023302" lon="25.811913">
<time>2020-09-13T10:05:09Z</time>
</trkpt>
<trkpt lat="61.023271" lon="25.811793">
<time>2020-09-13T10:05:10Z</time>
</trkpt>
<trkpt lat="61.023238" lon="25.811662">
<time>2020-09-13T10:05:11Z</time>
</trkpt>
<trkpt lat="61.023208" lon="25.811525">
<time>2020-09-13T10:05:12Z</time>
</trkpt>
<trkpt lat="61.02318" lon="25.811389">
<time>2020-09-13T10:05:13Z</time>
</trkpt>
<trkpt lat="61.023153" lon="25.811257">
<time>2020-09-13T10:05:14Z</time>
</trkpt>
<trkpt lat="61.023124" lon="25.811131">
<time>2020-09-13T10:05:15Z</time>
</trkpt>
<trkpt lat="61.023092" lon="25.811009">
<time>2020-09-13T10:05:16Z</time>
</trkpt>
<trkpt lat="61.023055" lon="25.810892">
<time>2020-09-13T10:05:17Z</time>
</trkpt>
<trkpt lat="61.02301" lon="25.810779">
<time>2020-09-13T10:05:18Z</time>
</trkpt>
<trkpt lat="61.022964" lon="25.810665">
<time>2020-09-13T10:05:19Z</time>
</trkpt>
<trkpt lat="61.02292" lon="25.810551">
<time>2020-09-13T10:05:20Z</time>
</trkpt>
<trkpt lat="61.022879" lon="25.810436">
<time>2020-09-13T10:05:21Z</time>
</trkpt>
<trkpt lat="61.022837" lon="25.810323">
<time>2020-09-13T10:05:22Z</time>
</trkpt>
<trkpt lat="61.022796" lon="25.810211">
<time>2020-09-13T10:05:23Z</time>
</trkpt>
<trkpt lat="61.022757" lon="25.810095">
<time>2020-09-13T10:05:24Z</time>
</trkpt>
<trkpt lat="61.022724" lon="25.809972">
<time>2020-09-13T10:05:25Z</time>
</trkpt>
<trkpt lat="61.022701" lon="25.809841">
<time>2020-09-13T10:05:26Z</time>
</trkpt>
<trkpt lat="61.022688" lon="25.809703">
<time>2020-09-13T10:05:27Z</time>
</trkpt>
<trkpt lat="61.022688" lon="25.809563">
<time>2020-09-13T10:05:28Z</time>
</trkpt>
<trkpt lat="61.022693" lon="25.809424">
<time>2020-09-13T10:05:29Z</time>
</trkpt>
<trkpt lat="61.022697" lon="25.809293">
<time>2020-09-13T10:05:30Z</time>
</trkpt>
<trkpt lat="61.022689" lon="25.809175">
<time>2020-09-13T10:05:31Z</time>
</trkpt>
<trkpt lat="61.022669" lon="25.809073">
<time>2020-09-13T10:05:32Z</time>
</trkpt>
<trkpt lat="61.022634" lon="25.808983">
<time>2020-09-13T10:05:33Z</time>
</trkpt>
<trkpt lat="61.022596" lon="25.808898">
<time>2020-09-13T10:05:34Z</time>
</trkpt>
<trkpt lat="61.022554" lon="25.80881">
<time>2020-09-13T10:05:35Z</time>
</trkpt>
<trkpt lat="61.022514" lon="25.808719">
<time>2020-09-13T10:05:36Z</time>
</trkpt>
<trkpt lat="61.022467" lon="25.808631">
<time>2020-09-13T10:05:37Z</time>
</trkpt>
<trkpt lat="61.022412" lon="25.808559">
<time>2020-09-13T10:05:38Z</time>
</trkpt>
<trkpt lat="61.02235" lon="25.80851">
<time>2020-09-13T10:05:39Z</time>
</trkpt>
<trkpt lat="61.022284" lon="25.808485">
<time>2020-09-13T10:05:40Z</time>
</trkpt>
<trkpt lat="61.022219" lon="25.808473">
<time>2020-09-13T10:05:41Z</time>
</trkpt>
<trkpt lat="61.022152" lon="25.808454">
<time>2020-09-13T10:05:42Z</time>
</trkpt>
<trkpt lat="61.022084" lon="25.808426">
<time>2020-09-13T10:05:43Z</time>
</trkpt>
<trkpt lat="61.02201" lon="25.808398">
<time>2020-09-13T10:05:44Z</time>
</trkpt>
<trkpt lat="61.021934" lon="25.808378">
<time>2020-09-13T10:05:45Z</time>
</trkpt>
<trkpt lat="61.021853" lon="25.808357">
<time>2020-09-13T10:05:46Z</time>
</trkpt>
<trkpt lat="61.021776" lon="25.808331">
<time>2020-09-13T10:05:47Z</time>
</trkpt>
<trkpt lat="61.021706" lon="25.808291">
<time>2020-09-13T10:05:48Z</time>
</trkpt>
<trkpt lat="61.021643" lon="25.808229">
<time>2020-09-13T10:05:49Z</time>
</trkpt>
<trkpt lat="61.02159" lon="25.808135">
<time>2020-09-13T10:05:50Z</time>
</trkpt>
<trkpt lat="61.021542" lon="25.808029">
<time>2020-09-13T10:05:51Z</time>
</trkpt>
<trkpt lat="61.021494" lon="25.807921">
<time>2020-09-13T10:05:52Z</time>
</trkpt>
<trkpt lat="61.021442" lon="25.807823">
<time>2020-09-13T10:05:53Z</time>
</trkpt>
<trkpt lat="61.02139" lon="25.807729">
<time>2020-09-13T10:05:54Z</time>
</trkpt>
<trkpt lat="61.021341" lon="25.807633">
<time>2020-09-13T10:05:55Z</time>
</trkpt>
<trkpt lat="61.021297" lon="25.807535">
<time>2020-09-13T10:05:56Z</time>
</trkpt>
<trkpt lat="61.021258" lon="25.807435">
<time>2020-09-13T10:05:57Z</time>
</trkpt>
<trkpt lat="61.021219" lon="25.807331">
<time>2020-09-13T10:05:58Z</time>
</trkpt>
<trkpt lat="61.021181" lon="25.807222">
<time>2020-09-13T10:05:59Z</time>
</trkpt>
<trkpt lat="61.02115" lon="25.807112">
<time>2020-09-13T10:06:00Z</time>
</trkpt>
<trkpt lat="61.021151" lon="25.806998">
<time>2020-09-13T10:06:01Z</time>
</trkpt>
<trkpt lat="61.021165" lon="25.806883">
<time>2020-09-13T10:06:02Z</time>
</trkpt>
<trkpt lat="61.021186" lon="25.806771">
<time>2020-09-13T10:06:03Z</time>
</trkpt>
<trkpt lat="61.021192" lon="25.80666">
<time>2020-09-13T10:06:04Z</time>
</trkpt>
<trkpt lat="61.021202" lon="25.806547">
<time>2020-09-13T10:06:05Z</time>
</trkpt>
<trkpt lat="61.021215" lon="25.806424">
<time>2020-09-13T10:06:06Z</time>
</trkpt>
<trkpt lat="61.021236" lon="25.806299">
<time>2020-09-13T10:06:07Z</time>
</trkpt>
<trkpt lat="61.021267" lon="25.806185">
<time>2020-09-13T10:06:08Z</time>
</trkpt>
<trkpt lat="61.021311" lon="25.806084">
<time>2020-09-13T10:06:09Z</time>
</trkpt>
<trkpt lat="61.021355" lon="25.80599">
<time>2020-09-13T10:06:10Z</time>
</trkpt>
<trkpt lat="61.02139" lon="25.805891">
<time>2020-09-13T10:06:11Z</time>
</trkpt>
<trkpt lat="61.021419" lon="25.805787">
<time>2020-09-13T10:06:12Z</time>
</trkpt>
<trkpt lat="61.021444" lon="25.805676">
<time>2020-09-13T10:06:13Z</time>
</trkpt>
<trkpt lat="61.02147" lon="25.805562">
<time>2020-09-13T10:06:14Z</time>
</trkpt>
<trkpt lat="61.021498" lon="25.805451">
<time>2020-09-13T10:06:15Z</time>
</trkpt>
<trkpt lat="61.021533" lon="25.80535">
<time>2020-09-13T10:06:16Z</time>
</trkpt>
<trkpt lat="61.021568" lon="25.805246">
<time>2020-09-13T10:06:17Z</time>
</trkpt>
<trkpt lat="61.021603" lon="25.805137">
<time>2020-09-13T10:06:18Z</time>
</trkpt>
<trkpt lat="61.021635" lon="25.80502">
<time>2020-09-13T10:06:19Z</time>
</trkpt>
<trkpt lat="61.021668" lon="25.804906">
<time>2020-09-13T10:06:20Z</time>
</trkpt>
<trkpt lat="61.021705" lon="25.804797">
<time>2020-09-13T10:06:21Z</time>
</trkpt>
<trkpt lat="61.021752" lon="25.804696">
<time>2020-09-13T10:06:22Z</time>
</trkpt>
<trkpt lat="61.021804" lon="25.804606">
<time>2020-09-13T10:06:23Z</time>
</trkpt>
<trkpt lat="61.021854" lon="25.804518">
<time>2020-09-13T10:06:24Z</time>
</trkpt>
<trkpt lat="61.021898" lon="25.804433">
<time>2020-09-13T10:06:25Z</time>
</trkpt>
<trkpt lat="61.021942" lon="25.804346">
<time>2020-09-13T10:06:26Z</time>
</trkpt>
<trkpt lat="61.021987" lon="25.804254">
<time>2020-09-13T10:06:27Z</time>
</trkpt>
<trkpt lat="61.022032" lon="25.804147">
<time>2020-09-13T10:06:28Z</time>
</trkpt>
<trkpt lat="61.022076" lon="25.804027">
<time>2020-09-13T10:06:29Z</time>
</trkpt>
<trkpt lat="61.02212" lon="25.803903">
<time>2020-09-13T10:06:30Z</time>
</trkpt>
<trkpt lat="61.022169" lon="25.803786">
<time>2020-09-13T10:06:31Z</time>
</trkpt>
<trkpt lat="61.022222" lon="25.803679">
<time>2020-09-13T10:06:32Z</time>
</trkpt>
<trkpt lat="61.022277" lon="25.803578">
<time>2020-09-13T10:06:33Z</time>
</trkpt>
<trkpt lat="61.02233" lon="25.803483">
<time>2020-09-13T10:06:34Z</time>
</trkpt>
<trkpt lat="61.022382" lon="25.80339">
<time>2020-09-13T10:06:35Z</time>
</trkpt>
<trkpt lat="61.022432" lon="25.803303">
<time>2020-09-13T10:06:36Z</time>
</trkpt>
<trkpt lat="61.022478" lon="25.803222">
<time>2020-09-13T10:06:37Z</time>
</trkpt>
<trkpt lat="61.022519" lon="25.803151">
<time>2020-09-13T10:06:38Z</time>
</trkpt>
<trkpt lat="61.022552" lon="25.803084">
<time>2020-09-13T10:06:39Z</time>
</trkpt>
<trkpt lat="61.022574" lon="25.803014">
<time>2020-09-13T10:06:40Z</time>
</trkpt>
<trkpt lat="61.022589" lon="25.802936">
<time>2020-09-13T10:06:41Z</time>
</trkpt>
<trkpt lat="61.022594" lon="25.802852">
<time>2020-09-13T10:06:42Z</time>
</trkpt>
<trkpt lat="61.0226" lon="25.802764">
<time>2020-09-13T10:06:43Z</time>
</trkpt>
<trkpt lat="61.022601" lon="25.802671">
<time>2020-09-13T10:06:44Z</time>
</trkpt>
<trkpt lat="61.022603" lon="25.802576">
<time>2020-09-13T10:06:45Z</time>
</trkpt>
<trkpt lat="61.022603" lon="25.802478">
<time>2020-09-13T10:06:46Z</time>
</trkpt>
<trkpt lat="61.022608" lon="25.802379">
<time>2020-09-13T10:06:47Z</time>
</trkpt>
<trkpt lat="61.022615" lon="25.802279">
<time>2020-09-13T10:06:48Z</time>
</trkpt>
<trkpt lat="61.022626" lon="25.802182">
<time>2020-09-13T10:06:49Z</time>
</trkpt>
<trkpt lat="61.022642" lon="25.802084">
<time>2020-09-13T10:06:50Z</time>
</trkpt>
<trkpt lat="61.022661" lon="25.801992">
<time>2020-09-13T10:06:51Z</time>
</trkpt>
<trkpt lat="61.02268" lon="25.801896">
<time>2020-09-13T10:06:52Z</time>
</trkpt>
<trkpt lat="61.022696" lon="25.801802">
<time>2020-09-13T10:06:53Z</time>
</trkpt>
<trkpt lat="61.022712" lon="25.801702">
<time>2020-09-13T10:06:54Z</time>
</trkpt>
<trkpt lat="61.022727" lon="25.801602">
<time>2020-09-13T10:06:55Z</time>
</trkpt>
<trkpt lat="61.022743" lon="25.801496">
<time>2020-09-13T10:06:56Z</time>
</trkpt>
<trkpt lat="61.022759" lon="25.801391">
<time>2020-09-13T10:06:57Z</time>
</trkpt>
<trkpt lat="61.022772" lon="25.801284">
<time>2020-09-13T10:06:58Z</time>
</trkpt>
<trkpt lat="61.022779" lon="25.801182">
<time>2020-09-13T10:06:59Z</time>
</trkpt>
<trkpt lat="61.022781" lon="25.801079">
<time>2020-09-13T10:07:00Z</time>
</trkpt>
<trkpt lat="61.022782" lon="25.80098">
<time>2020-09-13T10:07:01Z</time>
</trkpt>
<trkpt lat="61.022788" lon="25.800877">
<time>2020-09-13T10:07:02Z</time>
</trkpt>
<trkpt lat="61.022802" lon="25.800773">
<time>2020-09-13T10:07:03Z</time>
</trkpt>
<trkpt lat="61.022826" lon="25.800664">
<time>2020-09-13T10:07:04Z</time>
</trkpt>
<trkpt lat="61.022854" lon="25.800558">
<time>2020-09-13T10:07:05Z</time>
</trkpt>
<trkpt lat="61.02289" lon="25.80046">
<time>2020-09-13T10:07:06Z</time>
</trkpt>
<trkpt lat="61.022931" lon="25.800384">
<time>2020-09-13T10:07:07Z</time>
</trkpt>
<trkpt lat="61.022981" lon="25.800327">
<time>2020-09-13T10:07:08Z</time>
</trkpt>
<trkpt lat="61.023033" lon="25.800277">
<time>2020-09-13T10:07:09Z</time>
</trkpt>
<trkpt lat="61.023091" lon="25.800228">
<time>2020-09-13T10:07:10Z</time>
</trkpt>
<trkpt lat="61.023149" lon="25.800186">
<time>2020-09-13T10:07:11Z</time>
</trkpt>
<trkpt lat="61.023205" lon="25.800147">
<time>2020-09-13T10:07:12Z</time>
</trkpt>
<trkpt lat="61.023261" lon="25.800115">
<time>2020-09-13T10:07:13Z</time>
</trkpt>
<trkpt lat="61.02332" lon="25.800092">
<time>2020-09-13T10:07:14Z</time>
</trkpt>
<trkpt lat="61.023381" lon="25.80008">
<time>2020-09-13T10:07:15Z</time>
</trkpt>
<trkpt lat="61.023445" lon="25.800064">
<time>2020-09-13T10:07:16Z</time>
</trkpt>
<trkpt lat="61.02351" lon="25.800041">
<time>2020-09-13T10:07:17Z</time>
</trkpt>
<trkpt lat="61.02358" lon="25.800012">
<time>2020-09-13T10:07:18Z</time>
</trkpt>
<trkpt lat="61.023649" lon="25.799979">
<time>2020-09-13T10:07:19Z</time>
</trkpt>
<trkpt lat="61.02372" lon="25.799938">
<time>2020-09-13T10:07:20Z</time>
</trkpt>
<trkpt lat="61.023789" lon="25.799899">
<time>2020-09-13T10:07:21Z</time>
</trkpt>
<trkpt lat="61.023859" lon="25.799863">
<time>2020-09-13T10:07:22Z</time>
</trkpt>
<trkpt lat="61.023929" lon="25.799836">
<time>2020-09-13T10:07:23Z</time>
</trkpt>
<trkpt lat="61.023999" lon="25.799809">
<time>2020-09-13T10:07:24Z</time>
</trkpt>
<trkpt lat="61.024068" lon="25.799782">
<time>2020-09-13T10:07:25Z</time>
</trkpt>
<trkpt lat="61.024137" lon="25.799753">
<time>2020-09-13T10:07:26Z</time>
</trkpt>
<trkpt lat="61.024205" lon="25.799719">
<time>2020-09-13T10:07:27Z</time>
</trkpt>
<trkpt lat="61.024274" lon="25.799683">
<time>2020-09-13T10:07:28Z</time>
</trkpt>
<trkpt lat="61.024342" lon="25.799643">
<time>2020-09-13T10:07:29Z</time>
</trkpt>
<trkpt lat="61.024408" lon="25.799603">
<time>2020-09-13T10:07:30Z</time>
</trkpt>
<trkpt lat="61.024475" lon="25.799562">
<time>2020-09-13T10:07:31Z</time>
</trkpt>
<trkpt lat="61.024542" lon="25.79952">
<time>2020-09-13T10:07:32Z</time>
</trkpt>
<trkpt lat="61.024612" lon="25.799476">
<time>2020-09-13T10:07:33Z</time>
</trkpt>
<trkpt lat="61.024682" lon="25.799428">
<time>2020-09-13T10:07:34Z</time>
</trkpt>
<trkpt lat="61.024753" lon="25.79938">
<time>2020-09-13T10:07:35Z</time>
</trkpt>
<trkpt lat="61.024823" lon="25.799334">
<time>2020-09-13T10:07:36Z</time>
</trkpt>
<trkpt lat="61.024891" lon="25.799286">
<time>2020-09-13T10:07:37Z</time>
</trkpt>
<trkpt lat="61.024958" lon="25.799232">
<time>2020-09-13T10:07:38Z</time>
</trkpt>
<trkpt lat="61.025023" lon="25.799175">
<time>2020-09-13T10:07:39Z</time>
</trkpt>
<trkpt lat="61.025084" lon="25.799128">
<time>2020-09-13T10:07:40Z</time>
</trkpt>
<trkpt lat="61.025139" lon="25.799108">
<time>2020-09-13T10:07:41Z</time>
</trkpt>
<trkpt lat="61.025172" lon="25.799108">
<time>2020-09-13T10:07:42Z</time>
</trkpt>
<trkpt lat="61.025183" lon="25.79911">
<time>2020-09-13T10:07:43Z</time>
</trkpt>
<trkpt lat="61.025172" lon="25.799091">
<time>2020-09-13T10:07:44Z</time>
</trkpt>
<trkpt lat="61.025157" lon="25.799057">
<time>2020-09-13T10:07:45Z</time>
</trkpt>
<trkpt lat="61.025139" lon="25.799002">
<time>2020-09-13T10:07:46Z</time>
</trkpt>
<trkpt lat="61.025119" lon="25.798941">
<time>2020-09-13T10:07:47Z</time>
</trkpt>
<trkpt lat="61.025099" lon="25.798872">
<time>2020-09-13T10:07:48Z</time>
</trkpt>
<trkpt lat="61.025081" lon="25.79881">
<time>2020-09-13T10:07:49Z</time>
</trkpt>
<trkpt lat="61.025066" lon="25.798748">
<time>2020-09-13T10:07:50Z</time>
</trkpt>
<trkpt lat="61.025051" lon="25.798683">
<time>2020-09-13T10:07:51Z</time>
</trkpt>
<trkpt lat="61.025037" lon="25.79862">
<time>2020-09-13T10:07:52Z</time>
</trkpt>
<trkpt lat="61.025024" lon="25.798553">
<time>2020-09-13T10:07:53Z</time>
</trkpt>
<trkpt lat="61.025013" lon="25.798485">
<time>2020-09-13T10:07:54Z</time>
</trkpt>
<trkpt lat="61.025004" lon="25.79841">
<time>2020-09-13T10:07:55Z</time>
</trkpt>
<trkpt lat="61.025002" lon="25.798332">
<time>2020-09-13T10:07:56Z</time>
</trkpt>
<trkpt lat="61.025006" lon="25.798253">
<time>2020-09-13T10:07:57Z</time>
</trkpt>
<trkpt lat="61.025018" lon="25.798172">
<time>2020-09-13T10:07:58Z</time>
</trkpt>
<trkpt lat="61.025031" lon="25.798091">
<time>2020-09-13T10:07:59Z</time>
</trkpt>
<trkpt lat="61.025047" lon="25.798009">
<time>2020-09-13T10:08:00Z</time>
</trkpt>
<trkpt lat="61.025064" lon="25.797933">
<time>2020-09-13T10:08:01Z</time>
</trkpt>
<trkpt lat="61.025083" lon="25.797863">
<time>2020-09-13T10:08:02Z</time>
</trkpt>
<trkpt lat="61.02511" lon="25.7978">
<time>2020-09-13T10:08:03Z</time>
</trkpt>
<trkpt lat="61.025136" lon="25.797736">
<time>2020-09-13T10:08:04Z</time>
</trkpt>
<trkpt lat="61.025163" lon="25.797669">
<time>2020-09-13T10:08:05Z</time>
</trkpt>
<trkpt lat="61.025177" lon="25.797596">
<time>2020-09-13T10:08:06Z</time>
</trkpt>
<trkpt lat="61.025187" lon="25.797521">
<time>2020-09-13T10:08:07Z</time>
</trkpt>
<trkpt lat="61.025191" lon="25.797443">
<time>2020-09-13T10:08:08Z</time>
</trkpt>
<trkpt lat="61.025188" lon="25.797357">
<time>2020-09-13T10:08:09Z</time>
</trkpt>
<trkpt lat="61.025182" lon="25.797271">
<time>2020-09-13T10:08:10Z</time>
</trkpt>
<trkpt lat="61.025178" lon="25.797187">
<time>2020-09-13T10:08:11Z</time>
</trkpt>
<trkpt lat="61.025182" lon="25.797122">
<time>2020-09-13T10:08:12Z</time>
</trkpt>
<trkpt lat="61.025184" lon="25.797078">
<time>2020-09-13T10:08:13Z</time>
</trkpt>
<trkpt lat="61.025185" lon="25.797066">
<time>2020-09-13T10:08:14Z</time>
</trkpt>
<trkpt lat="61.025184" lon="25.797069">
<time>2020-09-13T10:08:15Z</time>
</trkpt>
<trkpt lat="61.025184" lon="25.797081">
<time>2020-09-13T10:08:16Z</time>
</trkpt>
<trkpt lat="61.025182" lon="25.797112">
<time>2020-09-13T10:08:17Z</time>
</trkpt>
<trkpt lat="61.02518" lon="25.797154">
<time>2020-09-13T10:08:18Z</time>
</trkpt>
<trkpt lat="61.02518" lon="25.797205">
<time>2020-09-13T10:08:19Z</time>
</trkpt>
<trkpt lat="61.025183" lon="25.797249">
<time>2020-09-13T10:08:20Z</time>
</trkpt>
<trkpt lat="61.02518" lon="25.79731">
<time>2020-09-13T10:08:21Z</time>
</trkpt>
<trkpt lat="61.025173" lon="25.79738">
<time>2020-09-13T10:08:22Z</time>
</trkpt>
<trkpt lat="61.025162" lon="25.797455">
<time>2020-09-13T10:08:23Z</time>
</trkpt>
<trkpt lat="61.025153" lon="25.797525">
<time>2020-09-13T10:08:24Z</time>
</trkpt>
<trkpt lat="61.025141" lon="25.797592">
<time>2020-09-13T10:08:25Z</time>
</trkpt>
<trkpt lat="61.025129" lon="25.797659">
<time>2020-09-13T10:08:26Z</time>
</trkpt>
<trkpt lat="61.025116" lon="25.797728">
<time>2020-09-13T10:08:27Z</time>
</trkpt>
<trkpt lat="61.025102" lon="25.797801">
<time>2020-09-13T10:08:28Z</time>
</trkpt>
<trkpt lat="61.025085" lon="25.797889">
<time>2020-09-13T10:08:29Z</time>
</trkpt>
<trkpt lat="61.02507" lon="25.797989">
<time>2020-09-13T10:08:30Z</time>
</trkpt>
<trkpt lat="61.02506" lon="25.798098">
<time>2020-09-13T10:08:31Z</time>
</trkpt>
<trkpt lat="61.025057" lon="25.798201">
<time>2020-09-13T10:08:32Z</time>
</trkpt>
<trkpt lat="61.025059" lon="25.798298">
<time>2020-09-13T10:08:33Z</time>
</trkpt>
<trkpt lat="61.025062" lon="25.798401">
<time>2020-09-13T10:08:34Z</time>
</trkpt>
<trkpt lat="61.025066" lon="25.798507">
<time>2020-09-13T10:08:35Z</time>
</trkpt>
<trkpt lat="61.025073" lon="25.798624">
<time>2020-09-13T10:08:36Z</time>
</trkpt>
<trkpt lat="61.025078" lon="25.798747">
<time>2020-09-13T10:08:37Z</time>
</trkpt>
<trkpt lat="61.02507" lon="25.798873">
<time>2020-09-13T10:08:38Z</time>
</trkpt>
<trkpt lat="61.025043" lon="25.798976">
<time>2020-09-13T10:08:39Z</time>
</trkpt>
<trkpt lat="61.025" lon="25.799048">
<time>2020-09-13T10:08:40Z</time>
</trkpt>
<trkpt lat="61.024955" lon="25.799092">
<time>2020-09-13T10:08:41Z</time>
</trkpt>
<trkpt lat="61.024906" lon="25.799132">
<time>2020-09-13T10:08:42Z</time>
</trkpt>
<trkpt lat="61.024858" lon="25.799171">
<time>2020-09-13T10:08:43Z</time>
</trkpt>
<trkpt lat="61.02481" lon="25.799214">
<time>2020-09-13T10:08:44Z</time>
</trkpt>
<trkpt lat="61.024757" lon="25.799263">
<time>2020-09-13T10:08:45Z</time>
</trkpt>
<trkpt lat="61.024701" lon="25.79931">
<time>2020-09-13T10:08:46Z</time>
</trkpt>
<trkpt lat="61.024642" lon="25.799361">
<time>2020-09-13T10:08:47Z</time>
</trkpt>
<trkpt lat="61.024585" lon="25.799406">
<time>2020-09-13T10:08:48Z</time>
</trkpt>
<trkpt lat="61.024527" lon="25.79945">
<time>2020-09-13T10:08:49Z</time>
</trkpt>
<trkpt lat="61.024467" lon="25.79949">
<time>2020-09-13T10:08:50Z</time>
</trkpt>
<trkpt lat="61.024405" lon="25.79953">
<time>2020-09-13T10:08:51Z</time>
</trkpt>
<trkpt lat="61.024341" lon="25.799573">
<time>2020-09-13T10:08:52Z</time>
</trkpt>
<trkpt lat="61.024276" lon="25.799617">
<time>2020-09-13T10:08:53Z</time>
</trkpt>
<trkpt lat="61.024213" lon="25.799659">
<time>2020-09-13T10:08:54Z</time>
</trkpt>
<trkpt lat="61.024148" lon="25.7997">
<time>2020-09-13T10:08:55Z</time>
</trkpt>
<trkpt lat="61.024079" lon="25.799742">
<time>2020-09-13T10:08:56Z</time>
</trkpt>
<trkpt lat="61.024007" lon="25.799784">
<time>2020-09-13T10:08:57Z</time>
</trkpt>
<trkpt lat="61.023936" lon="25.799829">
<time>2020-09-13T10:08:58Z</time>
</trkpt>
<trkpt lat="61.023863" lon="25.799873">
<time>2020-09-13T10:08:59Z</time>
</trkpt>
<trkpt lat="61.023784" lon="25.799909">
<time>2020-09-13T10:09:00Z</time>
</trkpt>
<trkpt lat="61.023702" lon="25.799936">
<time>2020-09-13T10:09:01Z</time>
</trkpt>
<trkpt lat="61.023619" lon="25.799958">
<time>2020-09-13T10:09:02Z</time>
</trkpt>
<trkpt lat="61.023541" lon="25.799979">
<time>2020-09-13T10:09:03Z</time>
</trkpt>
<trkpt lat="61.023464" lon="25.799998">
<time>2020-09-13T10:09:04Z</time>
</trkpt>
<trkpt lat="61.023388" lon="25.800015">
<time>2020-09-13T10:09:05Z</time>
</trkpt>
<trkpt lat="61.023314" lon="25.800037">
<time>2020-09-13T10:09:06Z</time>
</trkpt>
<trkpt lat="61.023239" lon="25.800064">
<time>2020-09-13T10:09:07Z</time>
</trkpt>
<trkpt lat="61.023164" lon="25.800096">
<time>2020-09-13T10:09:08Z</time>
</trkpt>
<trkpt lat="61.023087" lon="25.800136">
<time>2020-09-13T10:09:09Z</time>
</trkpt>
<trkpt lat="61.023007" lon="25.800177">
<time>2020-09-13T10:09:10Z</time>
</trkpt>
<trkpt lat="61.022926" lon="25.800214">
<time>2020-09-13T10:09:11Z</time>
</trkpt>
<trkpt lat="61.022843" lon="25.800245">
<time>2020-09-13T10:09:12Z</time>
</trkpt>
<trkpt lat="61.022757" lon="25.800281">
<time>2020-09-13T10:09:13Z</time>
</trkpt>
<trkpt lat="61.022668" lon="25.800323">
<time>2020-09-13T10:09:14Z</time>
</trkpt>
<trkpt lat="61.022577" lon="25.800372">
<time>2020-09-13T10:09:15Z</time>
</trkpt>
<trkpt lat="61.022485" lon="25.800409">
<time>2020-09-13T10:09:16Z</time>
</trkpt>
<trkpt lat="61.022393" lon="25.800439">
<time>2020-09-13T10:09:17Z</time>
</trkpt>
<trkpt lat="61.022304" lon="25.800458">
<time>2020-09-13T10:09:18Z</time>
</trkpt>
<trkpt lat="61.022215" lon="25.800471">
<time>2020-09-13T10:09:19Z</time>
</trkpt>
<trkpt lat="61.022126" lon="25.80048">
<time>2020-09-13T10:09:20Z</time>
</trkpt>
<trkpt lat="61.022036" lon="25.800483">
<time>2020-09-13T10:09:21Z</time>
</trkpt>
<trkpt lat="61.021943" lon="25.800481">
<time>2020-09-13T10:09:22Z</time>
</trkpt>
<trkpt lat="61.021849" lon="25.800469">
<time>2020-09-13T10:09:23Z</time>
</trkpt>
<trkpt lat="61.021756" lon="25.800446">
<time>2020-09-13T10:09:24Z</time>
</trkpt>
<trkpt lat="61.021668" lon="25.800418">
<time>2020-09-13T10:09:25Z</time>
</trkpt>
<trkpt lat="61.021582" lon="25.800389">
<time>2020-09-13T10:09:26Z</time>
</trkpt>
<trkpt lat="61.021497" lon="25.800367">
<time>2020-09-13T10:09:27Z</time>
</trkpt>
<trkpt lat="61.021411" lon="25.800351">
<time>2020-09-13T10:09:28Z</time>
</trkpt>
<trkpt lat="61.021321" lon="25.800349">
<time>2020-09-13T10:09:29Z</time>
</trkpt>
<trkpt lat="61.02123" lon="25.800359">
<time>2020-09-13T10:09:30Z</time>
</trkpt>
<trkpt lat="61.021138" lon="25.800377">
<time>2020-09-13T10:09:31Z</time>
</trkpt>
<trkpt lat="61.021047" lon="25.800405">
<time>2020-09-13T10:09:32Z</time>
</trkpt>
<trkpt lat="61.020955" lon="25.800434">
<time>2020-09-13T10:09:33Z</time>
</trkpt>
<trkpt lat="61.020861" lon="25.800462">
<time>2020-09-13T10:09:34Z</time>
</trkpt>
<trkpt lat="61.020767" lon="25.80048">
<time>2020-09-13T10:09:35Z</time>
</trkpt>
<trkpt lat="61.020675" lon="25.800493">
<time>2020-09-13T10:09:36Z</time>
</trkpt>
<trkpt lat="61.020583" lon="25.800506">
<time>2020-09-13T10:09:37Z</time>
</trkpt>
<trkpt lat="61.020493" lon="25.800518">
<time>2020-09-13T10:09:38Z</time>
</trkpt>
<trkpt lat="61.020407" lon="25.800528">
<time>2020-09-13T10:09:39Z</time>
</trkpt>
<trkpt lat="61.020324" lon="25.800532">
<time>2020-09-13T10:09:40Z</time>
</trkpt>
<trkpt lat="61.020245" lon="25.800531">
<time>2020-09-13T10:09:41Z</time>
</trkpt>
<trkpt lat="61.020167" lon="25.800518">
<time>2020-09-13T10:09:42Z</time>
</trkpt>
<trkpt lat="61.020091" lon="25.800499">
<time>2020-09-13T10:09:43Z</time>
</trkpt>
<trkpt lat="61.020011" lon="25.800479">
<time>2020-09-13T10:09:44Z</time>
</trkpt>
<trkpt lat="61.019929" lon="25.800463">
<time>2020-09-13T10:09:45Z</time>
</trkpt>
<trkpt lat="61.019844" lon="25.800448">
<time>2020-09-13T10:09:46Z</time>
</trkpt>
<trkpt lat="61.019757" lon="25.80043">
<time>2020-09-13T10:09:47Z</time>
</trkpt>
<trkpt lat="61.019666" lon="25.800413">
<time>2020-09-13T10:09:48Z</time>
</trkpt>
<trkpt lat="61.019568" lon="25.800388">
<time>2020-09-13T10:09:49Z</time>
</trkpt>
<trkpt lat="61.019466" lon="25.800358">
<time>2020-09-13T10:09:50Z</time>
</trkpt>
<trkpt lat="61.019362" lon="25.800324">
<time>2020-09-13T10:09:51Z</time>
</trkpt>
<trkpt lat="61.019261" lon="25.800287">
<time>2020-09-13T10:09:52Z</time>
</trkpt>
<trkpt lat="61.019163" lon="25.80025">
<time>2020-09-13T10:09:53Z</time>
</trkpt>
<trkpt lat="61.019067" lon="25.800216">
<time>2020-09-13T10:09:54Z</time>
</trkpt>
<trkpt lat="61.018971" lon="25.800193">
<time>2020-09-13T10:09:55Z</time>
</trkpt>
<trkpt lat="61.018877" lon="25.800181">
<time>2020-09-13T10:09:56Z</time>
</trkpt>
<trkpt lat="61.018785" lon="25.800168">
<time>2020-09-13T10:09:57Z</time>
</trkpt>
<trkpt lat="61.018694" lon="25.800162">
<time>2020-09-13T10:09:58Z</time>
</trkpt>
<trkpt lat="61.018604" lon="25.800157">
<time>2020-09-13T10:09:59Z</time>
</trkpt>
<trkpt lat="61.018514" lon="25.80016">
<time>2020-09-13T10:10:00Z</time>
</trkpt>
<trkpt lat="61.018424" lon="25.80016">
<time>2020-09-13T10:10:01Z</time>
</trkpt>
<trkpt lat="61.018336" lon="25.800156">
<time>2020-09-13T10:10:02Z</time>
</trkpt>
<trkpt lat="61.018249" lon="25.800145">
<time>2020-09-13T10:10:03Z</time>
</trkpt>
<trkpt lat="61.018164" lon="25.80013">
<time>2020-09-13T10:10:04Z</time>
</trkpt>
<trkpt lat="61.018087" lon="25.800096">
<time>2020-09-13T10:10:05Z</time>
</trkpt>
<trkpt lat="61.018025" lon="25.800047">
<time>2020-09-13T10:10:06Z</time>
</trkpt>
<trkpt lat="61.017982" lon="25.799985">
<time>2020-09-13T10:10:07Z</time>
</trkpt>
<trkpt lat="61.017957" lon="25.799928">
<time>2020-09-13T10:10:08Z</time>
</trkpt>
<trkpt lat="61.017942" lon="25.799856">
<time>2020-09-13T10:10:09Z</time>
</trkpt>
<trkpt lat="61.01793" lon="25.799777">
<time>2020-09-13T10:10:10Z</time>
</trkpt>
<trkpt lat="61.017918" lon="25.799686">
<time>2020-09-13T10:10:11Z</time>
</trkpt>
<trkpt lat="61.017902" lon="25.799598">
<time>2020-09-13T10:10:12Z</time>
</trkpt>
<trkpt lat="61.017882" lon="25.799508">
<time>2020-09-13T10:10:13Z</time>
</trkpt>
<trkpt lat="61.017855" lon="25.799418">
<time>2020-09-13T10:10:14Z</time>
</trkpt>
<trkpt lat="61.017821" lon="25.799325">
<time>2020-09-13T10:10:15Z</time>
</trkpt>
<trkpt lat="61.017784" lon="25.799229">
<time>2020-09-13T10:10:16Z</time>
</trkpt>
<trkpt lat="61.017742" lon="25.799125">
<time>2020-09-13T10:10:17Z</time>
</trkpt>
<trkpt lat="61.017702" lon="25.799017">
<time>2020-09-13T10:10:18Z</time>
</trkpt>
<trkpt lat="61.017664" lon="25.798904">
<time>2020-09-13T10:10:19Z</time>
</trkpt>
<trkpt lat="61.017632" lon="25.798789">
<time>2020-09-13T10:10:20Z</time>
</trkpt>
<trkpt lat="61.017603" lon="25.798674">
<time>2020-09-13T10:10:21Z</time>
</trkpt>
<trkpt lat="61.017578" lon="25.798556">
<time>2020-09-13T10:10:22Z</time>
</trkpt>
<trkpt lat="61.017555" lon="25.798438">
<time>2020-09-13T10:10:23Z</time>
</trkpt>
<trkpt lat="61.01753" lon="25.798328">
<time>2020-09-13T10:10:24Z</time>
</trkpt>
<trkpt lat="61.017497" lon="25.798229">
<time>2020-09-13T10:10:25Z</time>
</trkpt>
<trkpt lat="61.017458" lon="25.798142">
<time>2020-09-13T10:10:26Z</time>
</trkpt>
<trkpt lat="61.017412" lon="25.798068">
<time>2020-09-13T10:10:27Z</time>
</trkpt>
<trkpt lat="61.017367" lon="25.797996">
<time>2020-09-13T10:10:28Z</time>
</trkpt>
<trkpt lat="61.017328" lon="25.797914">
<time>2020-09-13T10:10:29Z</time>
</trkpt>
<trkpt lat="61.0173" lon="25.797821">
<time>2020-09-13T10:10:30Z</time>
</trkpt>
<trkpt lat="61.017281" lon="25.797725">
<time>2020-09-13T10:10:31Z</time>
</trkpt>
<trkpt lat="61.01727" lon="25.797645">
<time>2020-09-13T10:10:32Z</time>
</trkpt>
<trkpt lat="61.017263" lon="25.797571">
<time>2020-09-13T10:10:33Z</time>
</trkpt>
<trkpt lat="61.017255" lon="25.797501">
<time>2020-09-13T10:10:34Z</time>
</trkpt>
<trkpt lat="61.017243" lon="25.79743">
<time>2020-09-13T10:10:35Z</time>
</trkpt>
<trkpt lat="61.017229" lon="25.797361">
<time>2020-09-13T10:10:36Z</time>
</trkpt>
<trkpt lat="61.017214" lon="25.797292">
<time>2020-09-13T10:10:37Z</time>
</trkpt>
<trkpt lat="61.017199" lon="25.797225">
<time>2020-09-13T10:10:38Z</time>
</trkpt>
<trkpt lat="61.017186" lon="25.797159">
<time>2020-09-13T10:10:39Z</time>
</trkpt>
<trkpt lat="61.017177" lon="25.797093">
<time>2020-09-13T10:10:40Z</time>
</trkpt>
<trkpt lat="61.017164" lon="25.797018">
<time>2020-09-13T10:10:41Z</time>
</trkpt>
<trkpt lat="61.017145" lon="25.796939">
<time>2020-09-13T10:10:42Z</time>
</trkpt>
<trkpt lat="61.01712" lon="25.796865">
<time>2020-09-13T10:10:43Z</time>
</trkpt>
<trkpt lat="61.017097" lon="25.796799">
<time>2020-09-13T10:10:44Z</time>
</trkpt>
<trkpt lat="61.017078" lon="25.796737">
<time>2020-09-13T10:10:45Z</time>
</trkpt>
<trkpt lat="61.017063" lon="25.796671">
<time>2020-09-13T10:10:46Z</time>
</trkpt>
<trkpt lat="61.017053" lon="25.796606">
<time>2020-09-13T10:10:47Z</time>
</trkpt>
<trkpt lat="61.017045" lon="25.796545">
<time>2020-09-13T10:10:48Z</time>
</trkpt>
<trkpt lat="61.017042" lon="25.796491">
<time>2020-09-13T10:10:49Z</time>
</trkpt>
<trkpt lat="61.017044" lon="25.796452">
<time>2020-09-13T10:10:50Z</time>
</trkpt>
<trkpt lat="61.017052" lon="25.796428">
<time>2020-09-13T10:10:51Z</time>
</trkpt>
<trkpt lat="61.017064" lon="25.796412">
<time>2020-09-13T10:10:52Z</time>
</trkpt>
<trkpt lat="61.017079" lon="25.796391">
<time>2020-09-13T10:10:53Z</time>
</trkpt>
<trkpt lat="61.017101" lon="25.796361">
<time>2020-09-13T10:10:54Z</time>
</trkpt>
<trkpt lat="61.017127" lon="25.796329">
<time>2020-09-13T10:10:55Z</time>
</trkpt>
<trkpt lat="61.01716" lon="25.796299">
<time>2020-09-13T10:10:56Z</time>
</trkpt>
<trkpt lat="61.0172" lon="25.796275">
<time>2020-09-13T10:10:57Z</time>
</trkpt>
<trkpt lat="61.01724" lon="25.796254">
<time>2020-09-13T10:10:58Z</time>
</trkpt>
<trkpt lat="61.017279" lon="25.796238">
<time>2020-09-13T10:10:59Z</time>
</trkpt>
<trkpt lat="61.017312" lon="25.796223">
<time>2020-09-13T10:11:00Z</time>
</trkpt>
<trkpt lat="61.017341" lon="25.79621">
<time>2020-09-13T10:11:01Z</time>
</trkpt>
<trkpt lat="61.017363" lon="25.796185">
<time>2020-09-13T10:11:02Z</time>
</trkpt>
<trkpt lat="61.017373" lon="25.796148">
<time>2020-09-13T10:11:03Z</time>
</trkpt>
<trkpt lat="61.017376" lon="25.796101">
<time>2020-09-13T10:11:04Z</time>
</trkpt>
<trkpt lat="61.017373" lon="25.796052">
<time>2020-09-13T10:11:05Z</time>
</trkpt>
<trkpt lat="61.017371" lon="25.796006">
<time>2020-09-13T10:11:06Z</time>
</trkpt>
<trkpt lat="61.01737" lon="25.795975">
<time>2020-09-13T10:11:07Z</time>
</trkpt>
<trkpt lat="61.017373" lon="25.795965">
<time>2020-09-13T10:11:08Z</time>
</trkpt>
<trkpt lat="61.017378" lon="25.795968">
<time>2020-09-13T10:11:09Z</time>
</trkpt>
<trkpt lat="61.017383" lon="25.795974">
<time>2020-09-13T10:11:10Z</time>
</trkpt>
<trkpt lat="61.017386" lon="25.795982">
<time>2020-09-13T10:11:11Z</time>
</trkpt>
<trkpt lat="61.017389" lon="25.795991">
<time>2020-09-13T10:11:12Z</time>
</trkpt>
<trkpt lat="61.017395" lon="25.79601">
<time>2020-09-13T10:11:13Z</time>
</trkpt>
<trkpt lat="61.017402" lon="25.796033">
<time>2020-09-13T10:11:14Z</time>
</trkpt>
<trkpt lat="61.017409" lon="25.796074">
<time>2020-09-13T10:11:15Z</time>
</trkpt>
<trkpt lat="61.017413" lon="25.796118">
<time>2020-09-13T10:11:16Z</time>
</trkpt>
<trkpt lat="61.017408" lon="25.796165">
<time>2020-09-13T10:11:17Z</time>
</trkpt>
<trkpt lat="61.017393" lon="25.7962">
<time>2020-09-13T10:11:18Z</time>
</trkpt>
<trkpt lat="61.017366" lon="25.796231">
<time>2020-09-13T10:11:19Z</time>
</trkpt>
<trkpt lat="61.017334" lon="25.796254">
<time>2020-09-13T10:11:20Z</time>
</trkpt>
<trkpt lat="61.0173" lon="25.796282">
<time>2020-09-13T10:11:21Z</time>
</trkpt>
<trkpt lat="61.017269" lon="25.796309">
<time>2020-09-13T10:11:22Z</time>
</trkpt>
<trkpt lat="61.017236" lon="25.796341">
<time>2020-09-13T10:11:23Z</time>
</trkpt>
<trkpt lat="61.017201" lon="25.79637">
<time>2020-09-13T10:11:24Z</time>
</trkpt>
<trkpt lat="61.017169" lon="25.796401">
<time>2020-09-13T10:11:25Z</time>
</trkpt>
<trkpt lat="61.017145" lon="25.796449">
<time>2020-09-13T10:11:26Z</time>
</trkpt>
<trkpt lat="61.01713" lon="25.79651">
<time>2020-09-13T10:11:27Z</time>
</trkpt>
<trkpt lat="61.017123" lon="25.796584">
<time>2020-09-13T10:11:28Z</time>
</trkpt>
<trkpt lat="61.017122" lon="25.796649">
<time>2020-09-13T10:11:29Z</time>
</trkpt>
<trkpt lat="61.017132" lon="25.79672">
<time>2020-09-13T10:11:30Z</time>
</trkpt>
<trkpt lat="61.01715" lon="25.796798">
<time>2020-09-13T10:11:31Z</time>
</trkpt>
<trkpt lat="61.017165" lon="25.796902">
<time>2020-09-13T10:11:32Z</time>
</trkpt>
<trkpt lat="61.017173" lon="25.797022">
<time>2020-09-13T10:11:33Z</time>
</trkpt>
<trkpt lat="61.017179" lon="25.79715">
<time>2020-09-13T10:11:34Z</time>
</trkpt>
<trkpt lat="61.017193" lon="25.797278">
<time>2020-09-13T10:11:35Z</time>
</trkpt>
<trkpt lat="61.01721" lon="25.797405">
<time>2020-09-13T10:11:36Z</time>
</trkpt>
<trkpt lat="61.017228" lon="25.797538">
<time>2020-09-13T10:11:37Z</time>
</trkpt>
<trkpt lat="61.017245" lon="25.797667">
<time>2020-09-13T10:11:38Z</time>
</trkpt>
<trkpt lat="61.017265" lon="25.797785">
<time>2020-09-13T10:11:39Z</time>
</trkpt>
<trkpt lat="61.017296" lon="25.79789">
<time>2020-09-13T10:11:40Z</time>
</trkpt>
<trkpt lat="61.017337" lon="25.797985">
<time>2020-09-13T10:11:41Z</time>
</trkpt>
<trkpt lat="61.017383" lon="25.798076">
<time>2020-09-13T10:11:42Z</time>
</trkpt>
<trkpt lat="61.017424" lon="25.798169">
<time>2020-09-13T10:11:43Z</time>
</trkpt>
<trkpt lat="61.017465" lon="25.798271">
<time>2020-09-13T10:11:44Z</time>
</trkpt>
<trkpt lat="61.0175" lon="25.798389">
<time>2020-09-13T10:11:45Z</time>
</trkpt>
<trkpt lat="61.017535" lon="25.798527">
<time>2020-09-13T10:11:46Z</time>
</trkpt>
<trkpt lat="61.01757" lon="25.798667">
<time>2020-09-13T10:11:47Z</time>
</trkpt>
<trkpt lat="61.017608" lon="25.798806">
<time>2020-09-13T10:11:48Z</time>
</trkpt>
<trkpt lat="61.017648" lon="25.798935">
<time>2020-09-13T10:11:49Z</time>
</trkpt>
<trkpt lat="61.017689" lon="25.799058">
<time>2020-09-13T10:11:50Z</time>
</trkpt>
<trkpt lat="61.01773" lon="25.799173">
<time>2020-09-13T10:11:51Z</time>
</trkpt>
<trkpt lat="61.017772" lon="25.799276">
<time>2020-09-13T10:11:52Z</time>
</trkpt>
<trkpt lat="61.017815" lon="25.799373">
<time>2020-09-13T10:11:53Z</time>
</trkpt>
<trkpt lat="61.017854" lon="25.799475">
<time>2020-09-13T10:11:54Z</time>
</trkpt>
<trkpt lat="61.017885" lon="25.799583">
<time>2020-09-13T10:11:55Z</time>
</trkpt>
<trkpt lat="61.017902" lon="25.799698">
<time>2020-09-13T10:11:56Z</time>
</trkpt>
<trkpt lat="61.017916" lon="25.799809">
<time>2020-09-13T10:11:57Z</time>
</trkpt>
<trkpt lat="61.017929" lon="25.799915">
<time>2020-09-13T10:11:58Z</time>
</trkpt>
<trkpt lat="61.017951" lon="25.800019">
<time>2020-09-13T10:11:59Z</time>
</trkpt>
<trkpt lat="61.017978" lon="25.800127">
<time>2020-09-13T10:12:00Z</time>
</trkpt>
<trkpt lat="61.018005" lon="25.800239">
<time>2020-09-13T10:12:01Z</time>
</trkpt>
<trkpt lat="61.018027" lon="25.800353">
<time>2020-09-13T10:12:02Z</time>
</trkpt>
<trkpt lat="61.01805" lon="25.800469">
<time>2020-09-13T10:12:03Z</time>
</trkpt>
<trkpt lat="61.018079" lon="25.800588">
<time>2020-09-13T10:12:04Z</time>
</trkpt>
<trkpt lat="61.018114" lon="25.800703">
<time>2020-09-13T10:12:05Z</time>
</trkpt>
<trkpt lat="61.018151" lon="25.800815">
<time>2020-09-13T10:12:06Z</time>
</trkpt>
<trkpt lat="61.018185" lon="25.800927">
<time>2020-09-13T10:12:07Z</time>
</trkpt>
<trkpt lat="61.018216" lon="25.80104">
<time>2020-09-13T10:12:08Z</time>
</trkpt>
<trkpt lat="61.018246" lon="25.801154">
<time>2020-09-13T10:12:09Z</time>
</trkpt>
<trkpt lat="61.018277" lon="25.801268">
<time>2020-09-13T10:12:10Z</time>
</trkpt>
<trkpt lat="61.018307" lon="25.80138">
<time>2020-09-13T10:12:11Z</time>
</trkpt>
<trkpt lat="61.018337" lon="25.80149">
<time>2020-09-13T10:12:12Z</time>
</trkpt>
<trkpt lat="61.018367" lon="25.801598">
<time>2020-09-13T10:12:13Z</time>
</trkpt>
<trkpt lat="61.018399" lon="25.801705">
<time>2020-09-13T10:12:14Z</time>
</trkpt>
<trkpt lat="61.018433" lon="25.801811">
<time>2020-09-13T10:12:15Z</time>
</trkpt>
<trkpt lat="61.018468" lon="25.801918">
<time>2020-09-13T10:12:16Z</time>
</trkpt>
<trkpt lat="61.0185" lon="25.802029">
<time>2020-09-13T10:12:17Z</time>
</trkpt>
<trkpt lat="61.018533" lon="25.802142">
<time>2020-09-13T10:12:18Z</time>
</trkpt>
<trkpt lat="61.018564" lon="25.802253">
<time>2020-09-13T10:12:19Z</time>
</trkpt>
<trkpt lat="61.018595" lon="25.80236">
<time>2020-09-13T10:12:20Z</time>
</trkpt>
<trkpt lat="61.018625" lon="25.802466">
<time>2020-09-13T10:12:21Z</time>
</trkpt>
<trkpt lat="61.018657" lon="25.802574">
<time>2020-09-13T10:12:22Z</time>
</trkpt>
<trkpt lat="61.018688" lon="25.802683">
<time>2020-09-13T10:12:23Z</time>
</trkpt>
<trkpt lat="61.018719" lon="25.802792">
<time>2020-09-13T10:12:24Z</time>
</trkpt>
<trkpt lat="61.018748" lon="25.802897">
<time>2020-09-13T10:12:25Z</time>
</trkpt>
<trkpt lat="61.018776" lon="25.803">
<time>2020-09-13T10:12:26Z</time>
</trkpt>
<trkpt lat="61.018802" lon="25.803097">
<time>2020-09-13T10:12:27Z</time>
</trkpt>
<trkpt lat="61.018828" lon="25.803185">
<time>2020-09-13T10:12:28Z</time>
</trkpt>
<trkpt lat="61.018853" lon="25.803266">
<time>2020-09-13T10:12:29Z</time>
</trkpt>
<trkpt lat="61.018875" lon="25.803342">
<time>2020-09-13T10:12:30Z</time>
</trkpt>
<trkpt lat="61.018895" lon="25.803418">
<time>2020-09-13T10:12:31Z</time>
</trkpt>
<trkpt lat="61.018914" lon="25.803494">
<time>2020-09-13T10:12:32Z</time>
</trkpt>
<trkpt lat="61.018934" lon="25.803566">
<time>2020-09-13T10:12:33Z</time>
</trkpt>
<trkpt lat="61.018955" lon="25.803637">
<time>2020-09-13T10:12:34Z</time>
</trkpt>
<trkpt lat="61.018978" lon="25.803708">
<time>2020-09-13T10:12:35Z</time>
</trkpt>
<trkpt lat="61.019001" lon="25.803779">
<time>2020-09-13T10:12:36Z</time>
</trkpt>
<trkpt lat="61.019023" lon="25.803849">
<time>2020-09-13T10:12:37Z</time>
</trkpt>
<trkpt lat="61.019044" lon="25.803916">
<time>2020-09-13T10:12:38Z</time>
</trkpt>
<trkpt lat="61.019061" lon="25.803981">
<time>2020-09-13T10:12:39Z</time>
</trkpt>
<trkpt lat="61.019067" lon="25.804049">
<time>2020-09-13T10:12:40Z</time>
</trkpt>
<trkpt lat="61.01906" lon="25.804115">
<time>2020-09-13T10:12:41Z</time>
</trkpt>
<trkpt lat="61.019039" lon="25.804176">
<time>2020-09-13T10:12:42Z</time>
</trkpt>
<trkpt lat="61.019011" lon="25.804227">
<time>2020-09-13T10:12:43Z</time>
</trkpt>
<trkpt lat="61.018978" lon="25.804273">
<time>2020-09-13T10:12:44Z</time>
</trkpt>
<trkpt lat="61.018943" lon="25.804311">
<time>2020-09-13T10:12:45Z</time>
</trkpt>
<trkpt lat="61.018904" lon="25.804342">
<time>2020-09-13T10:12:46Z</time>
</trkpt>
<trkpt lat="61.018858" lon="25.804369">
<time>2020-09-13T10:12:47Z</time>
</trkpt>
<trkpt lat="61.018806" lon="25.804393">
<time>2020-09-13T10:12:48Z</time>
</trkpt>
<trkpt lat="61.018753" lon="25.804425">
<time>2020-09-13T10:12:49Z</time>
</trkpt>
<trkpt lat="61.018696" lon="25.804465">
<time>2020-09-13T10:12:50Z</time>
</trkpt>
<trkpt lat="61.018638" lon="25.804513">
<time>2020-09-13T10:12:51Z</time>
</trkpt>
<trkpt lat="61.01858" lon="25.804568">
<time>2020-09-13T10:12:52Z</time>
</trkpt>
<trkpt lat="61.018526" lon="25.804634">
<time>2020-09-13T10:12:53Z</time>
</trkpt>
<trkpt lat="61.018473" lon="25.804708">
<time>2020-09-13T10:12:54Z</time>
</trkpt>
<trkpt lat="61.018422" lon="25.804783">
<time>2020-09-13T10:12:55Z</time>
</trkpt>
<trkpt lat="61.018378" lon="25.804853">
<time>2020-09-13T10:12:56Z</time>
</trkpt>
<trkpt lat="61.018343" lon="25.804925">
<time>2020-09-13T10:12:57Z</time>
</trkpt>
<trkpt lat="61.018315" lon="25.805004">
<time>2020-09-13T10:12:58Z</time>
</trkpt>
<trkpt lat="61.018298" lon="25.805091">
<time>2020-09-13T10:12:59Z</time>
</trkpt>
<trkpt lat="61.018287" lon="25.805187">
<time>2020-09-13T10:13:00Z</time>
</trkpt>
<trkpt lat="61.018278" lon="25.805293">
<time>2020-09-13T10:13:01Z</time>
</trkpt>
<trkpt lat="61.018264" lon="25.805397">
<time>2020-09-13T10:13:02Z</time>
</trkpt>
<trkpt lat="61.018247" lon="25.805506">
<time>2020-09-13T10:13:03Z</time>
</trkpt>
<trkpt lat="61.018233" lon="25.805622">
<time>2020-09-13T10:13:04Z</time>
</trkpt>
<trkpt lat="61.018224" lon="25.805742">
<time>2020-09-13T10:13:05Z</time>
</trkpt>
<trkpt lat="61.018219" lon="25.80586">
<time>2020-09-13T10:13:06Z</time>
</trkpt>
<trkpt lat="61.018216" lon="25.805971">
<time>2020-09-13T10:13:07Z</time>
</trkpt>
<trkpt lat="61.018215" lon="25.806087">
<time>2020-09-13T10:13:08Z</time>
</trkpt>
<trkpt lat="61.018209" lon="25.806201">
<time>2020-09-13T10:13:09Z</time>
</trkpt>
<trkpt lat="61.018196" lon="25.80631">
<time>2020-09-13T10:13:10Z</time>
</trkpt>
<trkpt lat="61.018173" lon="25.806404">
<time>2020-09-13T10:13:11Z</time>
</trkpt>
<trkpt lat="61.01814" lon="25.806485">
<time>2020-09-13T10:13:12Z</time>
</trkpt>
<trkpt lat="61.018102" lon="25.806557">
<time>2020-09-13T10:13:13Z</time>
</trkpt>
<trkpt lat="61.018059" lon="25.806627">
<time>2020-09-13T10:13:14Z</time>
</trkpt>
<trkpt lat="61.018014" lon="25.806702">
<time>2020-09-13T10:13:15Z</time>
</trkpt>
<trkpt lat="61.017966" lon="25.806784">
<time>2020-09-13T10:13:16Z</time>
</trkpt>
<trkpt lat="61.017918" lon="25.806877">
<time>2020-09-13T10:13:17Z</time>
</trkpt>
<trkpt lat="61.017869" lon="25.80698">
<time>2020-09-13T10:13:18Z</time>
</trkpt>
<trkpt lat="61.01781" lon="25.807101">
<time>2020-09-13T10:13:19Z</time>
</trkpt>
<trkpt lat="61.017746" lon="25.807241">
<time>2020-09-13T10:13:20Z</time>
</trkpt>
<trkpt lat="61.017656" lon="25.807455">
<time>2020-09-13T10:13:21Z</time>
</trkpt>
<trkpt lat="61.017559" lon="25.807705">
<time>2020-09-13T10:13:22Z</time>
</trkpt>
<trkpt lat="61.017459" lon="25.807964">
<time>2020-09-13T10:13:23Z</time>
</trkpt>
<trkpt lat="61.017379" lon="25.80817">
<time>2020-09-13T10:13:24Z</time>
</trkpt>
<trkpt lat="61.017312" lon="25.808346">
<time>2020-09-13T10:13:25Z</time>
</trkpt>
<trkpt lat="61.017256" lon="25.808503">
<time>2020-09-13T10:13:26Z</time>
</trkpt>
<trkpt lat="61.017216" lon="25.808651">
<time>2020-09-13T10:13:27Z</time>
</trkpt>
<trkpt lat="61.017183" lon="25.808793">
<time>2020-09-13T10:13:28Z</time>
</trkpt>
<trkpt lat="61.017153" lon="25.808943">
<time>2020-09-13T10:13:29Z</time>
</trkpt>
<trkpt lat="61.017119" lon="25.809093">
<time>2020-09-13T10:13:30Z</time>
</trkpt>
<trkpt lat="61.017095" lon="25.809255">
<time>2020-09-13T10:13:31Z</time>
</trkpt>
<trkpt lat="61.017078" lon="25.809422">
<time>2020-09-13T10:13:32Z</time>
</trkpt>
<trkpt lat="61.017067" lon="25.809588">
<time>2020-09-13T10:13:33Z</time>
</trkpt>
<trkpt lat="61.017058" lon="25.809738">
<time>2020-09-13T10:13:34Z</time>
</trkpt>
<trkpt lat="61.017056" lon="25.809877">
<time>2020-09-13T10:13:35Z</time>
</trkpt>
<trkpt lat="61.017067" lon="25.810013">
<time>2020-09-13T10:13:36Z</time>
</trkpt>
<trkpt lat="61.017083" lon="25.810144">
<time>2020-09-13T10:13:37Z</time>
</trkpt>
<trkpt lat="61.017099" lon="25.810267">
<time>2020-09-13T10:13:38Z</time>
</trkpt>
<trkpt lat="61.017106" lon="25.810366">
<time>2020-09-13T10:13:39Z</time>
</trkpt>
<trkpt lat="61.017109" lon="25.810449">
<time>2020-09-13T10:13:40Z</time>
</trkpt>
<trkpt lat="61.01711" lon="25.810507">
<time>2020-09-13T10:13:41Z</time>
</trkpt>
<trkpt lat="61.017111" lon="25.81053">
<time>2020-09-13T10:13:42Z</time>
</trkpt>
<trkpt lat="61.017113" lon="25.810529">
<time>2020-09-13T10:13:43Z</time>
</trkpt>
<trkpt lat="61.01711" lon="25.810524">
<time>2020-09-13T10:13:44Z</time>
</trkpt>
<trkpt lat="61.017103" lon="25.810533">
<time>2020-09-13T10:13:45Z</time>
</trkpt>
<trkpt lat="61.017095" lon="25.81055">
<time>2020-09-13T10:13:46Z</time>
</trkpt>
<trkpt lat="61.017086" lon="25.810577">
<time>2020-09-13T10:13:47Z</time>
</trkpt>
<trkpt lat="61.017081" lon="25.810625">
<time>2020-09-13T10:13:48Z</time>
</trkpt>
<trkpt lat="61.017078" lon="25.810694">
<time>2020-09-13T10:13:49Z</time>
</trkpt>
<trkpt lat="61.017072" lon="25.810785">
<time>2020-09-13T10:13:50Z</time>
</trkpt>
<trkpt lat="61.017065" lon="25.810874">
<time>2020-09-13T10:13:51Z</time>
</trkpt>
<trkpt lat="61.017054" lon="25.810954">
<time>2020-09-13T10:13:52Z</time>
</trkpt>
<trkpt lat="61.01704" lon="25.810997">
<time>2020-09-13T10:13:53Z</time>
</trkpt>
<trkpt lat="61.017027" lon="25.811014">
<time>2020-09-13T10:13:54Z</time>
</trkpt>
<trkpt lat="61.017022" lon="25.811007">
<time>2020-09-13T10:13:55Z</time>
</trkpt>
<trkpt lat="61.017027" lon="25.810996">
<time>2020-09-13T10:13:56Z</time>
</trkpt>
<trkpt lat="61.017036" lon="25.810973">
<time>2020-09-13T10:13:57Z</time>
</trkpt>
<trkpt lat="61.017045" lon="25.810935">
<time>2020-09-13T10:13:58Z</time>
</trkpt>
<trkpt lat="61.017052" lon="25.810879">
<time>2020-09-13T10:13:59Z</time>
</trkpt>
<trkpt lat="61.017054" lon="25.81081">
<time>2020-09-13T10:14:00Z</time>
</trkpt>
<trkpt lat="61.017044" lon="25.810743">
<time>2020-09-13T10:14:01Z</time>
</trkpt>
<trkpt lat="61.017029" lon="25.810678">
<time>2020-09-13T10:14:02Z</time>
</trkpt>
<trkpt lat="61.017017" lon="25.810633">
<time>2020-09-13T10:14:03Z</time>
</trkpt>
<trkpt lat="61.017014" lon="25.810597">
<time>2020-09-13T10:14:04Z</time>
</trkpt>
<trkpt lat="61.017015" lon="25.810581">
<time>2020-09-13T10:14:05Z</time>
</trkpt>
<trkpt lat="61.017016" lon="25.810579">
<time>2020-09-13T10:14:06Z</time>
</trkpt>
<trkpt lat="61.017003" lon="25.810587">
<time>2020-09-13T10:14:07Z</time>
</trkpt>
<trkpt lat="61.016986" lon="25.810602">
<time>2020-09-13T10:14:08Z</time>
</trkpt>
<trkpt lat="61.016954" lon="25.810622">
<time>2020-09-13T10:14:09Z</time>
</trkpt>
<trkpt lat="61.016922" lon="25.810632">
<time>2020-09-13T10:14:10Z</time>
</trkpt>
<trkpt lat="61.016884" lon="25.810625">
<time>2020-09-13T10:14:11Z</time>
</trkpt>
<trkpt lat="61.016847" lon="25.810601">
<time>2020-09-13T10:14:12Z</time>
</trkpt>
<trkpt lat="61.016811" lon="25.810585">
<time>2020-09-13T10:14:13Z</time>
</trkpt>
<trkpt lat="61.016775" lon="25.810588">
<time>2020-09-13T10:14:14Z</time>
</trkpt>
<trkpt lat="61.016735" lon="25.810605">
<time>2020-09-13T10:14:15Z</time>
</trkpt>
<trkpt lat="61.016688" lon="25.810623">
<time>2020-09-13T10:14:16Z</time>
</trkpt>
<trkpt lat="61.016637" lon="25.810643">
<time>2020-09-13T10:14:17Z</time>
</trkpt>
<trkpt lat="61.016588" lon="25.810659">
<time>2020-09-13T10:14:18Z</time>
</trkpt>
<trkpt lat="61.01654" lon="25.810663">
<time>2020-09-13T10:14:19Z</time>
</trkpt>
<trkpt lat="61.016494" lon="25.810658">
<time>2020-09-13T10:14:20Z</time>
</trkpt>
<trkpt lat="61.016446" lon="25.81066">
<time>2020-09-13T10:14:21Z</time>
</trkpt>
<trkpt lat="61.016397" lon="25.810676">
<time>2020-09-13T10:14:22Z</time>
</trkpt>
<trkpt lat="61.016353" lon="25.810684">
<time>2020-09-13T10:14:23Z</time>
</trkpt>
<trkpt lat="61.016317" lon="25.810679">
<time>2020-09-13T10:14:24Z</time>
</trkpt>
<trkpt lat="61.016293" lon="25.810676">
<time>2020-09-13T10:14:25Z</time>
</trkpt>
<trkpt lat="61.016271" lon="25.810693">
<time>2020-09-13T10:14:26Z</time>
</trkpt>
<trkpt lat="61.016252" lon="25.8107">
<time>2020-09-13T10:14:27Z</time>
</trkpt>
<trkpt lat="61.016232" lon="25.810697">
<time>2020-09-13T10:14:28Z</time>
</trkpt>
<trkpt lat="61.016213" lon="25.810685">
<time>2020-09-13T10:14:29Z</time>
</trkpt>
<trkpt lat="61.016193" lon="25.810685">
<time>2020-09-13T10:14:30Z</time>
</trkpt>
<trkpt lat="61.016171" lon="25.810691">
<time>2020-09-13T10:14:31Z</time>
</trkpt>
<trkpt lat="61.016145" lon="25.810702">
<time>2020-09-13T10:14:32Z</time>
</trkpt>
<trkpt lat="61.016114" lon="25.81071">
<time>2020-09-13T10:14:33Z</time>
</trkpt>
<trkpt lat="61.016084" lon="25.810715">
<time>2020-09-13T10:14:34Z</time>
</trkpt>
<trkpt lat="61.01606" lon="25.810721">
<time>2020-09-13T10:14:35Z</time>
</trkpt>
<trkpt lat="61.016043" lon="25.81074">
<time>2020-09-13T10:14:36Z</time>
</trkpt>
<trkpt lat="61.016029" lon="25.810766">
<time>2020-09-13T10:14:37Z</time>
</trkpt>
<trkpt lat="61.016013" lon="25.810797">
<time>2020-09-13T10:14:38Z</time>
</trkpt>
<trkpt lat="61.015985" lon="25.81083">
<time>2020-09-13T10:14:39Z</time>
</trkpt>
<trkpt lat="61.015954" lon="25.81087">
<time>2020-09-13T10:14:40Z</time>
</trkpt>
<trkpt lat="61.01592" lon="25.810916">
<time>2020-09-13T10:14:41Z</time>
</trkpt>
<trkpt lat="61.01589" lon="25.810957">
<time>2020-09-13T10:14:42Z</time>
</trkpt>
<trkpt lat="61.015862" lon="25.810966">
<time>2020-09-13T10:14:43Z</time>
</trkpt>
<trkpt lat="61.015837" lon="25.810964">
<time>2020-09-13T10:14:44Z</time>
</trkpt>
<trkpt lat="61.015823" lon="25.810957">
<time>2020-09-13T10:14:45Z</time>
</trkpt>
<trkpt lat="61.015814" lon="25.81097">
<time>2020-09-13T10:14:46Z</time>
</trkpt>
<trkpt lat="61.01581" lon="25.810978">
<time>2020-09-13T10:14:47Z</time>
</trkpt>
<trkpt lat="61.015807" lon="25.810984">
<time>2020-09-13T10:14:48Z</time>
</trkpt>
<trkpt lat="61.015805" lon="25.810989">
<time>2020-09-13T10:14:49Z</time>
</trkpt>
<trkpt lat="61.015804" lon="25.810994">
<time>2020-09-13T10:14:50Z</time>
</trkpt>
<trkpt lat="61.0158" lon="25.810999">
<time>2020-09-13T10:14:51Z</time>
</trkpt>
<trkpt lat="61.015797" lon="25.811006">
<time>2020-09-13T10:14:52Z</time>
</trkpt>
<trkpt lat="61.015796" lon="25.811017">
<time>2020-09-13T10:14:53Z</time>
</trkpt>
<trkpt lat="61.015798" lon="25.811026">
<time>2020-09-13T10:14:54Z</time>
</trkpt>
<trkpt lat="61.015801" lon="25.811047">
<time>2020-09-13T10:14:55Z</time>
</trkpt>
<trkpt lat="61.015803" lon="25.811076">
<time>2020-09-13T10:14:56Z</time>
</trkpt>
<trkpt lat="61.015807" lon="25.811122">
<time>2020-09-13T10:14:57Z</time>
</trkpt>
<trkpt lat="61.015813" lon="25.811175">
<time>2020-09-13T10:14:58Z</time>
</trkpt>
<trkpt lat="61.015822" lon="25.811241">
<time>2020-09-13T10:14:59Z</time>
</trkpt>
<trkpt lat="61.015831" lon="25.811317">
<time>2020-09-13T10:15:00Z</time>
</trkpt>
<trkpt lat="61.015838" lon="25.811398">
<time>2020-09-13T10:15:01Z</time>
</trkpt>
<trkpt lat="61.015847" lon="25.811481">
<time>2020-09-13T10:15:02Z</time>
</trkpt>
<trkpt lat="61.015861" lon="25.811567">
<time>2020-09-13T10:15:03Z</time>
</trkpt>
<trkpt lat="61.015879" lon="25.811657">
<time>2020-09-13T10:15:04Z</time>
</trkpt>
<trkpt lat="61.015899" lon="25.811751">
<time>2020-09-13T10:15:05Z</time>
</trkpt>
<trkpt lat="61.015914" lon="25.81185">
<time>2020-09-13T10:15:06Z</time>
</trkpt>
<trkpt lat="61.015922" lon="25.811955">
<time>2020-09-13T10:15:07Z</time>
</trkpt>
<trkpt lat="61.015921" lon="25.812063">
<time>2020-09-13T10:15:08Z</time>
</trkpt>
<trkpt lat="61.015917" lon="25.812175">
<time>2020-09-13T10:15:09Z</time>
</trkpt>
<trkpt lat="61.01591" lon="25.812292">
<time>2020-09-13T10:15:10Z</time>
</trkpt>
<trkpt lat="61.015902" lon="25.812421">
<time>2020-09-13T10:15:11Z</time>
</trkpt>
<trkpt lat="61.01589" lon="25.812561">
<time>2020-09-13T10:15:12Z</time>
</trkpt>
<trkpt lat="61.015876" lon="25.812706">
<time>2020-09-13T10:15:13Z</time>
</trkpt>
<trkpt lat="61.01586" lon="25.81285">
<time>2020-09-13T10:15:14Z</time>
</trkpt>
<trkpt lat="61.015839" lon="25.812991">
<time>2020-09-13T10:15:15Z</time>
</trkpt>
<trkpt lat="61.015815" lon="25.813129">
<time>2020-09-13T10:15:16Z</time>
</trkpt>
<trkpt lat="61.01579" lon="25.813266">
<time>2020-09-13T10:15:17Z</time>
</trkpt>
<trkpt lat="61.015765" lon="25.813405">
<time>2020-09-13T10:15:18Z</time>
</trkpt>
<trkpt lat="61.015739" lon="25.813546">
<time>2020-09-13T10:15:19Z</time>
</trkpt>
<trkpt lat="61.015712" lon="25.813686">
<time>2020-09-13T10:15:20Z</time>
</trkpt>
<trkpt lat="61.015685" lon="25.813827">
<time>2020-09-13T10:15:21Z</time>
</trkpt>
<trkpt lat="61.015659" lon="25.813969">
<time>2020-09-13T10:15:22Z</time>
</trkpt>
<trkpt lat="61.015634" lon="25.814114">
<time>2020-09-13T10:15:23Z</time>
</trkpt>
<trkpt lat="61.015615" lon="25.814258">
<time>2020-09-13T10:15:24Z</time>
</trkpt>
<trkpt lat="61.015612" lon="25.814401">
<time>2020-09-13T10:15:25Z</time>
</trkpt>
<trkpt lat="61.015628" lon="25.814523">
<time>2020-09-13T10:15:26Z</time>
</trkpt>
<trkpt lat="61.01567" lon="25.814617">
<time>2020-09-13T10:15:27Z</time>
</trkpt>
<trkpt lat="61.015727" lon="25.81468">
<time>2020-09-13T10:15:28Z</time>
</trkpt>
<trkpt lat="61.015796" lon="25.814733">
<time>2020-09-13T10:15:29Z</time>
</trkpt>
<trkpt lat="61.015866" lon="25.814787">
<time>2020-09-13T10:15:30Z</time>
</trkpt>
<trkpt lat="61.015937" lon="25.814841">
<time>2020-09-13T10:15:31Z</time>
</trkpt>
<trkpt lat="61.01601" lon="25.814892">
<time>2020-09-13T10:15:32Z</time>
</trkpt>
<trkpt lat="61.016083" lon="25.81494">
<time>2020-09-13T10:15:33Z</time>
</trkpt>
<trkpt lat="61.016157" lon="25.814991">
<time>2020-09-13T10:15:34Z</time>
</trkpt>
<trkpt lat="61.016231" lon="25.815049">
<time>2020-09-13T10:15:35Z</time>
</trkpt>
<trkpt lat="61.016304" lon="25.815114">
<time>2020-09-13T10:15:36Z</time>
</trkpt>
<trkpt lat="61.016376" lon="25.815179">
<time>2020-09-13T10:15:37Z</time>
</trkpt>
<trkpt lat="61.016447" lon="25.815241">
<time>2020-09-13T10:15:38Z</time>
</trkpt>
<trkpt lat="61.016518" lon="25.815301">
<time>2020-09-13T10:15:39Z</time>
</trkpt>
<trkpt lat="61.016586" lon="25.815358">
<time>2020-09-13T10:15:40Z</time>
</trkpt>
<trkpt lat="61.016653" lon="25.815411">
<time>2020-09-13T10:15:41Z</time>
</trkpt>
<trkpt lat="61.016721" lon="25.815463">
<time>2020-09-13T10:15:42Z</time>
</trkpt>
<trkpt lat="61.016789" lon="25.815516">
<time>2020-09-13T10:15:43Z</time>
</trkpt>
<trkpt lat="61.016857" lon="25.815567">
<time>2020-09-13T10:15:44Z</time>
</trkpt>
<trkpt lat="61.016926" lon="25.815618">
<time>2020-09-13T10:15:45Z</time>
</trkpt>
<trkpt lat="61.016994" lon="25.815667">
<time>2020-09-13T10:15:46Z</time>
</trkpt>
<trkpt lat="61.017061" lon="25.81572">
<time>2020-09-13T10:15:47Z</time>
</trkpt>
<trkpt lat="61.017128" lon="25.815772">
<time>2020-09-13T10:15:48Z</time>
</trkpt>
<trkpt lat="61.017193" lon="25.815822">
<time>2020-09-13T10:15:49Z</time>
</trkpt>
<trkpt lat="61.017258" lon="25.815861">
<time>2020-09-13T10:15:50Z</time>
</trkpt>
<trkpt lat="61.017321" lon="25.815892">
<time>2020-09-13T10:15:51Z</time>
</trkpt>
<trkpt lat="61.017386" lon="25.815906">
<time>2020-09-13T10:15:52Z</time>
</trkpt>
<trkpt lat="61.017449" lon="25.8159">
<time>2020-09-13T10:15:53Z</time>
</trkpt>
<trkpt lat="61.01751" lon="25.815873">
<time>2020-09-13T10:15:54Z</time>
</trkpt>
<trkpt lat="61.017563" lon="25.815821">
<time>2020-09-13T10:15:55Z</time>
</trkpt>
<trkpt lat="61.017608" lon="25.815737">
<time>2020-09-13T10:15:56Z</time>
</trkpt>
<trkpt lat="61.017647" lon="25.815642">
<time>2020-09-13T10:15:57Z</time>
</trkpt>
<trkpt lat="61.017685" lon="25.815554">
<time>2020-09-13T10:15:58Z</time>
</trkpt>
<trkpt lat="61.017728" lon="25.815488">
<time>2020-09-13T10:15:59Z</time>
</trkpt>
<trkpt lat="61.017774" lon="25.815424">
<time>2020-09-13T10:16:00Z</time>
</trkpt>
<trkpt lat="61.017818" lon="25.815353">
<time>2020-09-13T10:16:01Z</time>
</trkpt>
<trkpt lat="61.017854" lon="25.815262">
<time>2020-09-13T10:16:02Z</time>
</trkpt>
<trkpt lat="61.017878" lon="25.815155">
<time>2020-09-13T10:16:03Z</time>
</trkpt>
<trkpt lat="61.017888" lon="25.815032">
<time>2020-09-13T10:16:04Z</time>
</trkpt>
<trkpt lat="61.01789" lon="25.814907">
<time>2020-09-13T10:16:05Z</time>
</trkpt>
<trkpt lat="61.017883" lon="25.814778">
<time>2020-09-13T10:16:06Z</time>
</trkpt>
<trkpt lat="61.017869" lon="25.81465">
<time>2020-09-13T10:16:07Z</time>
</trkpt>
<trkpt lat="61.017854" lon="25.814521">
<time>2020-09-13T10:16:08Z</time>
</trkpt>
<trkpt lat="61.017853" lon="25.814391">
<time>2020-09-13T10:16:09Z</time>
</trkpt>
<trkpt lat="61.017869" lon="25.814269">
<time>2020-09-13T10:16:10Z</time>
</trkpt>
<trkpt lat="61.017904" lon="25.814171">
<time>2020-09-13T10:16:11Z</time>
</trkpt>
<trkpt lat="61.017946" lon="25.8141">
<time>2020-09-13T10:16:12Z</time>
</trkpt>
<trkpt lat="61.017992" lon="25.81405">
<time>2020-09-13T10:16:13Z</time>
</trkpt>
<trkpt lat="61.018037" lon="25.814009">
<time>2020-09-13T10:16:14Z</time>
</trkpt>
<trkpt lat="61.018085" lon="25.813976">
<time>2020-09-13T10:16:15Z</time>
</trkpt>
<trkpt lat="61.018137" lon="25.81395">
<time>2020-09-13T10:16:16Z</time>
</trkpt>
<trkpt lat="61.018193" lon="25.813929">
<time>2020-09-13T10:16:17Z</time>
</trkpt>
<trkpt lat="61.018249" lon="25.813915">
<time>2020-09-13T10:16:18Z</time>
</trkpt>
<trkpt lat="61.018308" lon="25.813906">
<time>2020-09-13T10:16:19Z</time>
</trkpt>
<trkpt lat="61.018366" lon="25.813902">
<time>2020-09-13T10:16:20Z</time>
</trkpt>
<trkpt lat="61.018426" lon="25.8139">
<time>2020-09-13T10:16:21Z</time>
</trkpt>
<trkpt lat="61.01849" lon="25.813887">
<time>2020-09-13T10:16:22Z</time>
</trkpt>
<trkpt lat="61.018556" lon="25.813865">
<time>2020-09-13T10:16:23Z</time>
</trkpt>
<trkpt lat="61.018623" lon="25.813834">
<time>2020-09-13T10:16:24Z</time>
</trkpt>
<trkpt lat="61.018687" lon="25.8138">
<time>2020-09-13T10:16:25Z</time>
</trkpt>
<trkpt lat="61.018751" lon="25.813761">
<time>2020-09-13T10:16:26Z</time>
</trkpt>
<trkpt lat="61.018815" lon="25.813711">
<time>2020-09-13T10:16:27Z</time>
</trkpt>
<trkpt lat="61.018879" lon="25.813654">
<time>2020-09-13T10:16:28Z</time>
</trkpt>
<trkpt lat="61.018943" lon="25.813586">
<time>2020-09-13T10:16:29Z</time>
</trkpt>
<trkpt lat="61.019004" lon="25.813516">
<time>2020-09-13T10:16:30Z</time>
</trkpt>
<trkpt lat="61.019065" lon="25.813443">
<time>2020-09-13T10:16:31Z</time>
</trkpt>
<trkpt lat="61.019128" lon="25.81338">
<time>2020-09-13T10:16:32Z</time>
</trkpt>
<trkpt lat="61.019197" lon="25.813336">
<time>2020-09-13T10:16:33Z</time>
</trkpt>
<trkpt lat="61.019265" lon="25.813313">
<time>2020-09-13T10:16:34Z</time>
</trkpt>
<trkpt lat="61.019332" lon="25.813309">
<time>2020-09-13T10:16:35Z</time>
</trkpt>
<trkpt lat="61.019395" lon="25.813312">
<time>2020-09-13T10:16:36Z</time>
</trkpt>
<trkpt lat="61.01946" lon="25.813317">
<time>2020-09-13T10:16:37Z</time>
</trkpt>
<trkpt lat="61.019525" lon="25.813313">
<time>2020-09-13T10:16:38Z</time>
</trkpt>
<trkpt lat="61.019592" lon="25.813304">
<time>2020-09-13T10:16:39Z</time>
</trkpt>
<trkpt lat="61.019662" lon="25.813293">
<time>2020-09-13T10:16:40Z</time>
</trkpt>
<trkpt lat="61.019732" lon="25.813281">
<time>2020-09-13T10:16:41Z</time>
</trkpt>
<trkpt lat="61.019799" lon="25.813271">
<time>2020-09-13T10:16:42Z</time>
</trkpt>
<trkpt lat="61.019862" lon="25.813264">
<time>2020-09-13T10:16:43Z</time>
</trkpt>
<trkpt lat="61.019922" lon="25.813262">
<time>2020-09-13T10:16:44Z</time>
</trkpt>
<trkpt lat="61.019983" lon="25.813263">
<time>2020-09-13T10:16:45Z</time>
</trkpt>
<trkpt lat="61.020042" lon="25.813263">
<time>2020-09-13T10:16:46Z</time>
</trkpt>
<trkpt lat="61.020098" lon="25.813262">
<time>2020-09-13T10:16:47Z</time>
</trkpt>
<trkpt lat="61.020154" lon="25.813263">
<time>2020-09-13T10:16:48Z</time>
</trkpt>
<trkpt lat="61.02021" lon="25.813269">
<time>2020-09-13T10:16:49Z</time>
</trkpt>
<trkpt lat="61.020266" lon="25.813285">
<time>2020-09-13T10:16:50Z</time>
</trkpt>
<trkpt lat="61.020318" lon="25.813309">
<time>2020-09-13T10:16:51Z</time>
</trkpt>
<trkpt lat="61.02037" lon="25.813342">
<time>2020-09-13T10:16:52Z</time>
</trkpt>
<trkpt lat="61.020423" lon="25.81338">
<time>2020-09-13T10:16:53Z</time>
</trkpt>
<trkpt lat="61.020473" lon="25.81342">
<time>2020-09-13T10:16:54Z</time>
</trkpt>
<trkpt lat="61.020517" lon="25.813446">
<time>2020-09-13T10:16:55Z</time>
</trkpt>
<trkpt lat="61.020559" lon="25.813449">
<time>2020-09-13T10:16:56Z</time>
</trkpt>
<trkpt lat="61.020602" lon="25.813432">
<time>2020-09-13T10:16:57Z</time>
</trkpt>
<trkpt lat="61.02065" lon="25.813393">
<time>2020-09-13T10:16:58Z</time>
</trkpt>
<trkpt lat="61.020696" lon="25.813338">
<time>2020-09-13T10:16:59Z</time>
</trkpt>
<trkpt lat="61.020745" lon="25.813264">
<time>2020-09-13T10:17:00Z</time>
</trkpt>
<trkpt lat="61.020791" lon="25.813189">
<time>2020-09-13T10:17:01Z</time>
</trkpt>
<trkpt lat="61.020838" lon="25.813119">
<time>2020-09-13T10:17:02Z</time>
</trkpt>
<trkpt lat="61.020882" lon="25.813061">
<time>2020-09-13T10:17:03Z</time>
</trkpt>
<trkpt lat="61.020927" lon="25.813009">
<time>2020-09-13T10:17:04Z</time>
</trkpt>
<trkpt lat="61.020971" lon="25.812952">
<time>2020-09-13T10:17:05Z</time>
</trkpt>
<trkpt lat="61.021012" lon="25.81288">
<time>2020-09-13T10:17:06Z</time>
</trkpt>
<trkpt lat="61.02105" lon="25.812799">
<time>2020-09-13T10:17:07Z</time>
</trkpt>
<trkpt lat="61.021082" lon="25.812712">
<time>2020-09-13T10:17:08Z</time>
</trkpt>
<trkpt lat="61.021116" lon="25.812622">
<time>2020-09-13T10:17:09Z</time>
</trkpt>
<trkpt lat="61.021148" lon="25.812524">
<time>2020-09-13T10:17:10Z</time>
</trkpt>
<trkpt lat="61.021185" lon="25.812415">
<time>2020-09-13T10:17:11Z</time>
</trkpt>
<trkpt lat="61.02122" lon="25.812306">
<time>2020-09-13T10:17:12Z</time>
</trkpt>
<trkpt lat="61.021254" lon="25.812205">
<time>2020-09-13T10:17:13Z</time>
</trkpt>
<trkpt lat="61.021285" lon="25.812124">
<time>2020-09-13T10:17:14Z</time>
</trkpt>
<trkpt lat="61.021314" lon="25.812049">
<time>2020-09-13T10:17:15Z</time>
</trkpt>
<trkpt lat="61.021343" lon="25.811976">
<time>2020-09-13T10:17:16Z</time>
</trkpt>
<trkpt lat="61.021372" lon="25.811906">
<time>2020-09-13T10:17:17Z</time>
</trkpt>
<trkpt lat="61.021405" lon="25.811839">
<time>2020-09-13T10:17:18Z</time>
</trkpt>
<trkpt lat="61.021436" lon="25.811769">
<time>2020-09-13T10:17:19Z</time>
</trkpt>
<trkpt lat="61.021464" lon="25.811694">
<time>2020-09-13T10:17:20Z</time>
</trkpt>
<trkpt lat="61.021491" lon="25.811615">
<time>2020-09-13T10:17:21Z</time>
</trkpt>
<trkpt lat="61.021517" lon="25.811538">
<time>2020-09-13T10:17:22Z</time>
</trkpt>
<trkpt lat="61.021543" lon="25.81146">
<time>2020-09-13T10:17:23Z</time>
</trkpt>
<trkpt lat="61.021568" lon="25.811385">
<time>2020-09-13T10:17:24Z</time>
</trkpt>
<trkpt lat="61.021592" lon="25.811317">
<time>2020-09-13T10:17:25Z</time>
</trkpt>
<trkpt lat="61.021616" lon="25.811258">
<time>2020-09-13T10:17:26Z</time>
</trkpt>
<trkpt lat="61.021638" lon="25.811202">
<time>2020-09-13T10:17:27Z</time>
</trkpt>
<trkpt lat="61.021659" lon="25.811142">
<time>2020-09-13T10:17:28Z</time>
</trkpt>
<trkpt lat="61.021676" lon="25.811076">
<time>2020-09-13T10:17:29Z</time>
</trkpt>
<trkpt lat="61.021696" lon="25.811006">
<time>2020-09-13T10:17:30Z</time>
</trkpt>
<trkpt lat="61.021716" lon="25.810934">
<time>2020-09-13T10:17:31Z</time>
</trkpt>
<trkpt lat="61.02174" lon="25.810859">
<time>2020-09-13T10:17:32Z</time>
</trkpt>
<trkpt lat="61.021763" lon="25.810786">
<time>2020-09-13T10:17:33Z</time>
</trkpt>
<trkpt lat="61.021784" lon="25.810721">
<time>2020-09-13T10:17:34Z</time>
</trkpt>
<trkpt lat="61.021804" lon="25.810681">
<time>2020-09-13T10:17:35Z</time>
</trkpt>
<trkpt lat="61.021822" lon="25.810661">
<time>2020-09-13T10:17:36Z</time>
</trkpt>
<trkpt lat="61.021844" lon="25.810642">
<time>2020-09-13T10:17:37Z</time>
</trkpt>
<trkpt lat="61.021868" lon="25.810607">
<time>2020-09-13T10:17:38Z</time>
</trkpt>
<trkpt lat="61.021894" lon="25.810561">
<time>2020-09-13T10:17:39Z</time>
</trkpt>
<trkpt lat="61.02192" lon="25.810519">
<time>2020-09-13T10:17:40Z</time>
</trkpt>
<trkpt lat="61.021947" lon="25.810479">
<time>2020-09-13T10:17:41Z</time>
</trkpt>
<trkpt lat="61.021977" lon="25.810438">
<time>2020-09-13T10:17:42Z</time>
</trkpt>
<trkpt lat="61.022011" lon="25.810399">
<time>2020-09-13T10:17:43Z</time>
</trkpt>
<trkpt lat="61.022047" lon="25.810363">
<time>2020-09-13T10:17:44Z</time>
</trkpt>
<trkpt lat="61.022082" lon="25.810328">
<time>2020-09-13T10:17:45Z</time>
</trkpt>
<trkpt lat="61.022117" lon="25.81029">
<time>2020-09-13T10:17:46Z</time>
</trkpt>
<trkpt lat="61.022153" lon="25.810253">
<time>2020-09-13T10:17:47Z</time>
</trkpt>
<trkpt lat="61.022189" lon="25.810215">
<time>2020-09-13T10:17:48Z</time>
</trkpt>
<trkpt lat="61.022225" lon="25.810171">
<time>2020-09-13T10:17:49Z</time>
</trkpt>
<trkpt lat="61.022257" lon="25.810109">
<time>2020-09-13T10:17:50Z</time>
</trkpt>
<trkpt lat="61.022284" lon="25.810036">
<time>2020-09-13T10:17:51Z</time>
</trkpt>
<trkpt lat="61.022307" lon="25.809953">
<time>2020-09-13T10:17:52Z</time>
</trkpt>
<trkpt lat="61.02233" lon="25.809875">
<time>2020-09-13T10:17:53Z</time>
</trkpt>
<trkpt lat="61.022352" lon="25.809796">
<time>2020-09-13T10:17:54Z</time>
</trkpt>
<trkpt lat="61.022374" lon="25.80972">
<time>2020-09-13T10:17:55Z</time>
</trkpt>
<trkpt lat="61.022399" lon="25.809643">
<time>2020-09-13T10:17:56Z</time>
</trkpt>
<trkpt lat="61.02243" lon="25.809569">
<time>2020-09-13T10:17:57Z</time>
</trkpt>
<trkpt lat="61.022464" lon="25.809496">
<time>2020-09-13T10:17:58Z</time>
</trkpt>
<trkpt lat="61.022501" lon="25.809424">
<time>2020-09-13T10:17:59Z</time>
</trkpt>
<trkpt lat="61.022541" lon="25.809359">
<time>2020-09-13T10:18:00Z</time>
</trkpt>
<trkpt lat="61.022584" lon="25.809305">
<time>2020-09-13T10:18:01Z</time>
</trkpt>
<trkpt lat="61.022629" lon="25.809262">
<time>2020-09-13T10:18:02Z</time>
</trkpt>
<trkpt lat="61.022673" lon="25.809218">
<time>2020-09-13T10:18:03Z</time>
</trkpt>
<trkpt lat="61.022716" lon="25.809164">
<time>2020-09-13T10:18:04Z</time>
</trkpt>
<trkpt lat="61.022757" lon="25.809093">
<time>2020-09-13T10:18:05Z</time>
</trkpt>
<trkpt lat="61.022795" lon="25.809015">
<time>2020-09-13T10:18:06Z</time>
</trkpt>
<trkpt lat="61.022833" lon="25.808931">
<time>2020-09-13T10:18:07Z</time>
</trkpt>
<trkpt lat="61.022873" lon="25.808849">
<time>2020-09-13T10:18:08Z</time>
</trkpt>
<trkpt lat="61.022918" lon="25.808773">
<time>2020-09-13T10:18:09Z</time>
</trkpt>
<trkpt lat="61.022968" lon="25.808718">
<time>2020-09-13T10:18:10Z</time>
</trkpt>
<trkpt lat="61.023018" lon="25.808707">
<time>2020-09-13T10:18:11Z</time>
</trkpt>
<trkpt lat="61.023064" lon="25.808754">
<time>2020-09-13T10:18:12Z</time>
</trkpt>
<trkpt lat="61.02311" lon="25.808822">
<time>2020-09-13T10:18:13Z</time>
</trkpt>
<trkpt lat="61.023158" lon="25.808882">
<time>2020-09-13T10:18:14Z</time>
</trkpt>
<trkpt lat="61.023211" lon="25.808907">
<time>2020-09-13T10:18:15Z</time>
</trkpt>
<trkpt lat="61.023267" lon="25.808925">
<time>2020-09-13T10:18:16Z</time>
</trkpt>
<trkpt lat="61.023325" lon="25.808938">
<time>2020-09-13T10:18:17Z</time>
</trkpt>
<trkpt lat="61.023384" lon="25.808951">
<time>2020-09-13T10:18:18Z</time>
</trkpt>
<trkpt lat="61.023443" lon="25.808974">
<time>2020-09-13T10:18:19Z</time>
</trkpt>
<trkpt lat="61.023503" lon="25.809002">
<time>2020-09-13T10:18:20Z</time>
</trkpt>
<trkpt lat="61.023562" lon="25.809038">
<time>2020-09-13T10:18:21Z</time>
</trkpt>
<trkpt lat="61.023619" lon="25.80907">
<time>2020-09-13T10:18:22Z</time>
</trkpt>
<trkpt lat="61.023678" lon="25.809103">
<time>2020-09-13T10:18:23Z</time>
</trkpt>
<trkpt lat="61.023739" lon="25.809131">
<time>2020-09-13T10:18:24Z</time>
</trkpt>
<trkpt lat="61.023805" lon="25.809155">
<time>2020-09-13T10:18:25Z</time>
</trkpt>
<trkpt lat="61.023872" lon="25.809176">
<time>2020-09-13T10:18:26Z</time>
</trkpt>
<trkpt lat="61.023939" lon="25.809197">
<time>2020-09-13T10:18:27Z</time>
</trkpt>
<trkpt lat="61.024003" lon="25.809217">
<time>2020-09-13T10:18:28Z</time>
</trkpt>
<trkpt lat="61.024065" lon="25.809232">
<time>2020-09-13T10:18:29Z</time>
</trkpt>
<trkpt lat="61.024132" lon="25.809235">
<time>2020-09-13T10:18:30Z</time>
</trkpt>
<trkpt lat="61.024204" lon="25.809223">
<time>2020-09-13T10:18:31Z</time>
</trkpt>
<trkpt lat="61.02428" lon="25.809203">
<time>2020-09-13T10:18:32Z</time>
</trkpt>
<trkpt lat="61.024355" lon="25.809181">
<time>2020-09-13T10:18:33Z</time>
</trkpt>
<trkpt lat="61.024427" lon="25.809168">
<time>2020-09-13T10:18:34Z</time>
</trkpt>
<trkpt lat="61.0245" lon="25.809163">
<time>2020-09-13T10:18:35Z</time>
</trkpt>
<trkpt lat="61.024572" lon="25.809165">
<time>2020-09-13T10:18:36Z</time>
</trkpt>
<trkpt lat="61.024644" lon="25.809171">
<time>2020-09-13T10:18:37Z</time>
</trkpt>
<trkpt lat="61.024716" lon="25.809179">
<time>2020-09-13T10:18:38Z</time>
</trkpt>
<trkpt lat="61.02479" lon="25.809185">
<time>2020-09-13T10:18:39Z</time>
</trkpt>
<trkpt lat="61.024864" lon="25.80918">
<time>2020-09-13T10:18:40Z</time>
</trkpt>
<trkpt lat="61.024938" lon="25.80917">
<time>2020-09-13T10:18:41Z</time>
</trkpt>
<trkpt lat="61.025012" lon="25.809167">
<time>2020-09-13T10:18:42Z</time>
</trkpt>
<trkpt lat="61.02508" lon="25.809188">
<time>2020-09-13T10:18:43Z</time>
</trkpt>
<trkpt lat="61.025145" lon="25.809221">
<time>2020-09-13T10:18:44Z</time>
</trkpt>
<trkpt lat="61.025208" lon="25.809261">
<time>2020-09-13T10:18:45Z</time>
</trkpt>
<trkpt lat="61.025271" lon="25.809296">
<time>2020-09-13T10:18:46Z</time>
</trkpt>
<trkpt lat="61.025335" lon="25.809327">
<time>2020-09-13T10:18:47Z</time>
</trkpt>
<trkpt lat="61.025399" lon="25.809353">
<time>2020-09-13T10:18:48Z</time>
</trkpt>
<trkpt lat="61.025459" lon="25.809384">
<time>2020-09-13T10:18:49Z</time>
</trkpt>
<trkpt lat="61.025516" lon="25.809423">
<time>2020-09-13T10:18:50Z</time>
</trkpt>
<trkpt lat="61.025573" lon="25.809468">
<time>2020-09-13T10:18:51Z</time>
</trkpt>
<trkpt lat="61.025636" lon="25.809511">
<time>2020-09-13T10:18:52Z</time>
</trkpt>
<trkpt lat="61.0257" lon="25.809553">
<time>2020-09-13T10:18:53Z</time>
</trkpt>
<trkpt lat="61.025764" lon="25.809577">
<time>2020-09-13T10:18:54Z</time>
</trkpt>
<trkpt lat="61.025823" lon="25.809578">
<time>2020-09-13T10:18:55Z</time>
</trkpt>
<trkpt lat="61.025878" lon="25.809549">
<time>2020-09-13T10:18:56Z</time>
</trkpt>
<trkpt lat="61.02593" lon="25.809514">
<time>2020-09-13T10:18:57Z</time>
</trkpt>
<trkpt lat="61.025981" lon="25.809489">
<time>2020-09-13T10:18:58Z</time>
</trkpt>
<trkpt lat="61.026025" lon="25.809479">
<time>2020-09-13T10:18:59Z</time>
</trkpt>
<trkpt lat="61.026071" lon="25.809481">
<time>2020-09-13T10:19:00Z</time>
</trkpt>
<trkpt lat="61.026123" lon="25.809491">
<time>2020-09-13T10:19:01Z</time>
</trkpt>
<trkpt lat="61.026187" lon="25.809506">
<time>2020-09-13T10:19:02Z</time>
</trkpt>
<trkpt lat="61.026263" lon="25.809532">
<time>2020-09-13T10:19:03Z</time>
</trkpt>
<trkpt lat="61.026344" lon="25.809564">
<time>2020-09-13T10:19:04Z</time>
</trkpt>
<trkpt lat="61.026425" lon="25.809609">
<time>2020-09-13T10:19:05Z</time>
</trkpt>
<trkpt lat="61.026501" lon="25.809658">
<time>2020-09-13T10:19:06Z</time>
</trkpt>
<trkpt lat="61.026575" lon="25.809709">
<time>2020-09-13T10:19:07Z</time>
</trkpt>
<trkpt lat="61.026652" lon="25.809758">
<time>2020-09-13T10:19:08Z</time>
</trkpt>
<trkpt lat="61.026727" lon="25.809797">
<time>2020-09-13T10:19:09Z</time>
</trkpt>
<trkpt lat="61.026803" lon="25.80983">
<time>2020-09-13T10:19:10Z</time>
</trkpt>
<trkpt lat="61.026873" lon="25.809846">
<time>2020-09-13T10:19:11Z</time>
</trkpt>
<trkpt lat="61.026942" lon="25.809838">
<time>2020-09-13T10:19:12Z</time>
</trkpt>
<trkpt lat="61.027002" lon="25.809791">
<time>2020-09-13T10:19:13Z</time>
</trkpt>
<trkpt lat="61.027063" lon="25.809705">
<time>2020-09-13T10:19:14Z</time>
</trkpt>
<trkpt lat="61.02712" lon="25.809611">
<time>2020-09-13T10:19:15Z</time>
</trkpt>
<trkpt lat="61.027182" lon="25.809528">
<time>2020-09-13T10:19:16Z</time>
</trkpt>
<trkpt lat="61.02724" lon="25.809466">
<time>2020-09-13T10:19:17Z</time>
</trkpt>
<trkpt lat="61.027297" lon="25.809418">
<time>2020-09-13T10:19:18Z</time>
</trkpt>
<trkpt lat="61.027353" lon="25.809378">
<time>2020-09-13T10:19:19Z</time>
</trkpt>
<trkpt lat="61.027409" lon="25.809348">
<time>2020-09-13T10:19:20Z</time>
</trkpt>
<trkpt lat="61.027465" lon="25.809323">
<time>2020-09-13T10:19:21Z</time>
</trkpt>
<trkpt lat="61.02752" lon="25.809311">
<time>2020-09-13T10:19:22Z</time>
</trkpt>
<trkpt lat="61.027574" lon="25.8093">
<time>2020-09-13T10:19:23Z</time>
</trkpt>
<trkpt lat="61.027626" lon="25.809283">
<time>2020-09-13T10:19:24Z</time>
</trkpt>
<trkpt lat="61.027678" lon="25.809255">
<time>2020-09-13T10:19:25Z</time>
</trkpt>
<trkpt lat="61.027731" lon="25.809213">
<time>2020-09-13T10:19:26Z</time>
</trkpt>
<trkpt lat="61.027789" lon="25.809158">
<time>2020-09-13T10:19:27Z</time>
</trkpt>
<trkpt lat="61.027848" lon="25.809094">
<time>2020-09-13T10:19:28Z</time>
</trkpt>
<trkpt lat="61.027903" lon="25.809022">
<time>2020-09-13T10:19:29Z</time>
</trkpt>
<trkpt lat="61.027954" lon="25.808947">
<time>2020-09-13T10:19:30Z</time>
</trkpt>
<trkpt lat="61.028002" lon="25.808862">
<time>2020-09-13T10:19:31Z</time>
</trkpt>
<trkpt lat="61.028052" lon="25.80877">
<time>2020-09-13T10:19:32Z</time>
</trkpt>
<trkpt lat="61.028102" lon="25.808677">
<time>2020-09-13T10:19:33Z</time>
</trkpt>
<trkpt lat="61.028149" lon="25.808598">
<time>2020-09-13T10:19:34Z</time>
</trkpt>
<trkpt lat="61.028194" lon="25.808546">
<time>2020-09-13T10:19:35Z</time>
</trkpt>
<trkpt lat="61.028237" lon="25.80851">
<time>2020-09-13T10:19:36Z</time>
</trkpt>
<trkpt lat="61.02828" lon="25.808478">
<time>2020-09-13T10:19:37Z</time>
</trkpt>
<trkpt lat="61.02832" lon="25.808444">
<time>2020-09-13T10:19:38Z</time>
</trkpt>
<trkpt lat="61.028356" lon="25.808418">
<time>2020-09-13T10:19:39Z</time>
</trkpt>
<trkpt lat="61.028386" lon="25.80842">
<time>2020-09-13T10:19:40Z</time>
</trkpt>
<trkpt lat="61.028411" lon="25.808431">
<time>2020-09-13T10:19:41Z</time>
</trkpt>
<trkpt lat="61.028433" lon="25.808442">
<time>2020-09-13T10:19:42Z</time>
</trkpt>
<trkpt lat="61.028453" lon="25.808433">
<time>2020-09-13T10:19:43Z</time>
</trkpt>
<trkpt lat="61.028472" lon="25.808423">
<time>2020-09-13T10:19:44Z</time>
</trkpt>
<trkpt lat="61.028494" lon="25.808421">
<time>2020-09-13T10:19:45Z</time>
</trkpt>
<trkpt lat="61.028516" lon="25.808423">
<time>2020-09-13T10:19:46Z</time>
</trkpt>
<trkpt lat="61.028544" lon="25.808421">
<time>2020-09-13T10:19:47Z</time>
</trkpt>
<trkpt lat="61.028574" lon="25.808412">
<time>2020-09-13T10:19:48Z</time>
</trkpt>
<trkpt lat="61.028602" lon="25.808403">
<time>2020-09-13T10:19:49Z</time>
</trkpt>
<trkpt lat="61.028621" lon="25.808396">
<time>2020-09-13T10:19:50Z</time>
</trkpt>
<trkpt lat="61.028623" lon="25.808401">
<time>2020-09-13T10:19:51Z</time>
</trkpt>
<trkpt lat="61.028619" lon="25.808405">
<time>2020-09-13T10:19:52Z</time>
</trkpt>
<trkpt lat="61.028612" lon="25.808411">
<time>2020-09-13T10:19:53Z</time>
</trkpt>
<trkpt lat="61.02861" lon="25.80841">
<time>2020-09-13T10:19:54Z</time>
</trkpt>
<trkpt lat="61.028609" lon="25.808411">
<time>2020-09-13T10:19:55Z</time>
</trkpt>
<trkpt lat="61.028608" lon="25.808421">
<time>2020-09-13T10:19:56Z</time>
</trkpt>
<trkpt lat="61.028607" lon="25.808446">
<time>2020-09-13T10:19:57Z</time>
</trkpt>
<trkpt lat="61.028605" lon="25.808489">
<time>2020-09-13T10:19:58Z</time>
</trkpt>
<trkpt lat="61.028607" lon="25.80854">
<time>2020-09-13T10:19:59Z</time>
</trkpt>
<trkpt lat="61.028611" lon="25.808591">
<time>2020-09-13T10:20:00Z</time>
</trkpt>
<trkpt lat="61.028619" lon="25.808636">
<time>2020-09-13T10:20:01Z</time>
</trkpt>
<trkpt lat="61.028623" lon="25.808675">
<time>2020-09-13T10:20:02Z</time>
</trkpt>
<trkpt lat="61.028627" lon="25.808714">
<time>2020-09-13T10:20:03Z</time>
</trkpt>
<trkpt lat="61.02863" lon="25.808753">
<time>2020-09-13T10:20:04Z</time>
</trkpt>
<trkpt lat="61.028634" lon="25.808799">
<time>2020-09-13T10:20:05Z</time>
</trkpt>
<trkpt lat="61.028641" lon="25.808847">
<time>2020-09-13T10:20:06Z</time>
</trkpt>
<trkpt lat="61.028656" lon="25.808889">
<time>2020-09-13T10:20:07Z</time>
</trkpt>
<trkpt lat="61.028674" lon="25.808926">
<time>2020-09-13T10:20:08Z</time>
</trkpt>
<trkpt lat="61.028691" lon="25.808959">
<time>2020-09-13T10:20:09Z</time>
</trkpt>
<trkpt lat="61.0287" lon="25.808993">
<time>2020-09-13T10:20:10Z</time>
</trkpt>
<trkpt lat="61.028708" lon="25.809023">
<time>2020-09-13T10:20:11Z</time>
</trkpt>
<trkpt lat="61.028716" lon="25.809043">
<time>2020-09-13T10:20:12Z</time>
</trkpt>
<trkpt lat="61.028726" lon="25.809058">
<time>2020-09-13T10:20:13Z</time>
</trkpt>
<trkpt lat="61.028737" lon="25.809073">
<time>2020-09-13T10:20:14Z</time>
</trkpt>
<trkpt lat="61.02875" lon="25.809094">
<time>2020-09-13T10:20:15Z</time>
</trkpt>
<trkpt lat="61.028766" lon="25.809115">
<time>2020-09-13T10:20:16Z</time>
</trkpt>
<trkpt lat="61.028783" lon="25.809134">
<time>2020-09-13T10:20:17Z</time>
</trkpt>
<trkpt lat="61.028804" lon="25.80915">
<time>2020-09-13T10:20:18Z</time>
</trkpt>
<trkpt lat="61.028827" lon="25.809166">
<time>2020-09-13T10:20:19Z</time>
</trkpt>
<trkpt lat="61.028852" lon="25.809176">
<time>2020-09-13T10:20:20Z</time>
</trkpt>
<trkpt lat="61.028877" lon="25.809175">
<time>2020-09-13T10:20:21Z</time>
</trkpt>
<trkpt lat="61.028905" lon="25.809164">
<time>2020-09-13T10:20:22Z</time>
</trkpt>
<trkpt lat="61.028934" lon="25.809153">
<time>2020-09-13T10:20:23Z</time>
</trkpt>
<trkpt lat="61.028963" lon="25.809152">
<time>2020-09-13T10:20:24Z</time>
</trkpt>
<trkpt lat="61.028988" lon="25.80916">
<time>2020-09-13T10:20:25Z</time>
</trkpt>
<trkpt lat="61.029013" lon="25.809165">
<time>2020-09-13T10:20:26Z</time>
</trkpt>
<trkpt lat="61.029035" lon="25.809165">
<time>2020-09-13T10:20:27Z</time>
</trkpt>
<trkpt lat="61.029056" lon="25.809158">
<time>2020-09-13T10:20:28Z</time>
</trkpt>
<trkpt lat="61.029076" lon="25.809152">
<time>2020-09-13T10:20:29Z</time>
</trkpt>
<trkpt lat="61.029099" lon="25.809147">
<time>2020-09-13T10:20:30Z</time>
</trkpt>
<trkpt lat="61.029123" lon="25.809132">
<time>2020-09-13T10:20:31Z</time>
</trkpt>
<trkpt lat="61.029149" lon="25.809111">
<time>2020-09-13T10:20:32Z</time>
</trkpt>
<trkpt lat="61.029177" lon="25.809084">
<time>2020-09-13T10:20:33Z</time>
</trkpt>
<trkpt lat="61.029206" lon="25.809055">
<time>2020-09-13T10:20:34Z</time>
</trkpt>
<trkpt lat="61.029231" lon="25.809018">
<time>2020-09-13T10:20:35Z</time>
</trkpt>
<trkpt lat="61.029253" lon="25.808968">
<time>2020-09-13T10:20:36Z</time>
</trkpt>
<trkpt lat="61.029277" lon="25.808913">
<time>2020-09-13T10:20:37Z</time>
</trkpt>
<trkpt lat="61.029305" lon="25.808859">
<time>2020-09-13T10:20:38Z</time>
</trkpt>
<trkpt lat="61.029333" lon="25.808801">
<time>2020-09-13T10:20:39Z</time>
</trkpt>
<trkpt lat="61.029355" lon="25.808737">
<time>2020-09-13T10:20:40Z</time>
</trkpt>
<trkpt lat="61.029371" lon="25.808669">
<time>2020-09-13T10:20:41Z</time>
</trkpt>
<trkpt lat="61.029378" lon="25.8086">
<time>2020-09-13T10:20:42Z</time>
</trkpt>
<trkpt lat="61.029375" lon="25.80854">
<time>2020-09-13T10:20:43Z</time>
</trkpt>
<trkpt lat="61.029364" lon="25.808488">
<time>2020-09-13T10:20:44Z</time>
</trkpt>
<trkpt lat="61.029348" lon="25.808444">
<time>2020-09-13T10:20:45Z</time>
</trkpt>
<trkpt lat="61.029328" lon="25.808392">
<time>2020-09-13T10:20:46Z</time>
</trkpt>
<trkpt lat="61.029308" lon="25.808335">
<time>2020-09-13T10:20:47Z</time>
</trkpt>
<trkpt lat="61.02929" lon="25.80828">
<time>2020-09-13T10:20:48Z</time>
</trkpt>
<trkpt lat="61.029278" lon="25.808232">
<time>2020-09-13T10:20:49Z</time>
</trkpt>
<trkpt lat="61.029268" lon="25.808189">
<time>2020-09-13T10:20:50Z</time>
</trkpt>
<trkpt lat="61.029255" lon="25.808145">
<time>2020-09-13T10:20:51Z</time>
</trkpt>
<trkpt lat="61.029239" lon="25.808098">
<time>2020-09-13T10:20:52Z</time>
</trkpt>
<trkpt lat="61.02922" lon="25.808048">
<time>2020-09-13T10:20:53Z</time>
</trkpt>
<trkpt lat="61.029208" lon="25.807992">
<time>2020-09-13T10:20:54Z</time>
</trkpt>
<trkpt lat="61.029207" lon="25.80793">
<time>2020-09-13T10:20:55Z</time>
</trkpt>
<trkpt lat="61.029218" lon="25.807857">
<time>2020-09-13T10:20:56Z</time>
</trkpt>
<trkpt lat="61.029232" lon="25.807774">
<time>2020-09-13T10:20:57Z</time>
</trkpt>
<trkpt lat="61.029244" lon="25.807689">
<time>2020-09-13T10:20:58Z</time>
</trkpt>
<trkpt lat="61.029255" lon="25.80761">
<time>2020-09-13T10:20:59Z</time>
</trkpt>
<trkpt lat="61.029275" lon="25.807545">
<time>2020-09-13T10:21:00Z</time>
</trkpt>
<trkpt lat="61.02931" lon="25.807486">
<time>2020-09-13T10:21:01Z</time>
</trkpt>
<trkpt lat="61.029353" lon="25.807426">
<time>2020-09-13T10:21:02Z</time>
</trkpt>
<trkpt lat="61.029401" lon="25.807353">
<time>2020-09-13T10:21:03Z</time>
</trkpt>
<trkpt lat="61.029446" lon="25.807265">
<time>2020-09-13T10:21:04Z</time>
</trkpt>
<trkpt lat="61.029491" lon="25.80717">
<time>2020-09-13T10:21:05Z</time>
</trkpt>
<trkpt lat="61.029538" lon="25.807068">
<time>2020-09-13T10:21:06Z</time>
</trkpt>
<trkpt lat="61.029583" lon="25.806964">
<time>2020-09-13T10:21:07Z</time>
</trkpt>
<trkpt lat="61.029628" lon="25.806854">
<time>2020-09-13T10:21:08Z</time>
</trkpt>
<trkpt lat="61.029672" lon="25.806745">
<time>2020-09-13T10:21:09Z</time>
</trkpt>
<trkpt lat="61.029717" lon="25.80663">
<time>2020-09-13T10:21:10Z</time>
</trkpt>
<trkpt lat="61.02976" lon="25.806512">
<time>2020-09-13T10:21:11Z</time>
</trkpt>
<trkpt lat="61.029805" lon="25.806394">
<time>2020-09-13T10:21:12Z</time>
</trkpt>
<trkpt lat="61.029852" lon="25.806281">
<time>2020-09-13T10:21:13Z</time>
</trkpt>
<trkpt lat="61.029903" lon="25.806176">
<time>2020-09-13T10:21:14Z</time>
</trkpt>
<trkpt lat="61.029964" lon="25.806081">
<time>2020-09-13T10:21:15Z</time>
</trkpt>
<trkpt lat="61.030028" lon="25.806">
<time>2020-09-13T10:21:16Z</time>
</trkpt>
<trkpt lat="61.030097" lon="25.805924">
<time>2020-09-13T10:21:17Z</time>
</trkpt>
<trkpt lat="61.030167" lon="25.80585">
<time>2020-09-13T10:21:18Z</time>
</trkpt>
<trkpt lat="61.030245" lon="25.805778">
<time>2020-09-13T10:21:19Z</time>
</trkpt>
<trkpt lat="61.030328" lon="25.805715">
<time>2020-09-13T10:21:20Z</time>
</trkpt>
<trkpt lat="61.030412" lon="25.80566">
<time>2020-09-13T10:21:21Z</time>
</trkpt>
<trkpt lat="61.030493" lon="25.805607">
<time>2020-09-13T10:21:22Z</time>
</trkpt>
<trkpt lat="61.030574" lon="25.805557">
<time>2020-09-13T10:21:23Z</time>
</trkpt>
<trkpt lat="61.030657" lon="25.805515">
<time>2020-09-13T10:21:24Z</time>
</trkpt>
<trkpt lat="61.030743" lon="25.805486">
<time>2020-09-13T10:21:25Z</time>
</trkpt>
<trkpt lat="61.030828" lon="25.805469">
<time>2020-09-13T10:21:26Z</time>
</trkpt>
<trkpt lat="61.030912" lon="25.805452">
<time>2020-09-13T10:21:27Z</time>
</trkpt>
<trkpt lat="61.030994" lon="25.80543">
<time>2020-09-13T10:21:28Z</time>
</trkpt>
<trkpt lat="61.031076" lon="25.805397">
<time>2020-09-13T10:21:29Z</time>
</trkpt>
<trkpt lat="61.031155" lon="25.805358">
<time>2020-09-13T10:21:30Z</time>
</trkpt>
<trkpt lat="61.031232" lon="25.805311">
<time>2020-09-13T10:21:31Z</time>
</trkpt>
<trkpt lat="61.031308" lon="25.805264">
<time>2020-09-13T10:21:32Z</time>
</trkpt>
<trkpt lat="61.031382" lon="25.805217">
<time>2020-09-13T10:21:33Z</time>
</trkpt>
<trkpt lat="61.031452" lon="25.805172">
<time>2020-09-13T10:21:34Z</time>
</trkpt>
<trkpt lat="61.031518" lon="25.805126">
<time>2020-09-13T10:21:35Z</time>
</trkpt>
<trkpt lat="61.031577" lon="25.80508">
<time>2020-09-13T10:21:36Z</time>
</trkpt>
<trkpt lat="61.031631" lon="25.805025">
<time>2020-09-13T10:21:37Z</time>
</trkpt>
<trkpt lat="61.031682" lon="25.80496">
<time>2020-09-13T10:21:38Z</time>
</trkpt>
<trkpt lat="61.031735" lon="25.804883">
<time>2020-09-13T10:21:39Z</time>
</trkpt>
<trkpt lat="61.031789" lon="25.804787">
<time>2020-09-13T10:21:40Z</time>
</trkpt>
<trkpt lat="61.031845" lon="25.804679">
<time>2020-09-13T10:21:41Z</time>
</trkpt>
<trkpt lat="61.031904" lon="25.804566">
<time>2020-09-13T10:21:42Z</time>
</trkpt>
<trkpt lat="61.031964" lon="25.804457">
<time>2020-09-13T10:21:43Z</time>
</trkpt>
<trkpt lat="61.032025" lon="25.80435">
<time>2020-09-13T10:21:44Z</time>
</trkpt>
<trkpt lat="61.032086" lon="25.804239">
<time>2020-09-13T10:21:45Z</time>
</trkpt>
<trkpt lat="61.032148" lon="25.804126">
<time>2020-09-13T10:21:46Z</time>
</trkpt>
<trkpt lat="61.032209" lon="25.804007">
<time>2020-09-13T10:21:47Z</time>
</trkpt>
<trkpt lat="61.032274" lon="25.803884">
<time>2020-09-13T10:21:48Z</time>
</trkpt>
<trkpt lat="61.032343" lon="25.803759">
<time>2020-09-13T10:21:49Z</time>
</trkpt>
<trkpt lat="61.03242" lon="25.803635">
<time>2020-09-13T10:21:50Z</time>
</trkpt>
<trkpt lat="61.032498" lon="25.803513">
<time>2020-09-13T10:21:51Z</time>
</trkpt>
<trkpt lat="61.032575" lon="25.803388">
<time>2020-09-13T10:21:52Z</time>
</trkpt>
<trkpt lat="61.032647" lon="25.803259">
<time>2020-09-13T10:21:53Z</time>
</trkpt>
<trkpt lat="61.032719" lon="25.803132">
<time>2020-09-13T10:21:54Z</time>
</trkpt>
<trkpt lat="61.032791" lon="25.803011">
<time>2020-09-13T10:21:55Z</time>
</trkpt>
<trkpt lat="61.032869" lon="25.802904">
<time>2020-09-13T10:21:56Z</time>
</trkpt>
<trkpt lat="61.032953" lon="25.80282">
<time>2020-09-13T10:21:57Z</time>
</trkpt>
<trkpt lat="61.03304" lon="25.80276">
<time>2020-09-13T10:21:58Z</time>
</trkpt>
<trkpt lat="61.033127" lon="25.802716">
<time>2020-09-13T10:21:59Z</time>
</trkpt>
<trkpt lat="61.033211" lon="25.802676">
<time>2020-09-13T10:22:00Z</time>
</trkpt>
<trkpt lat="61.033291" lon="25.802629">
<time>2020-09-13T10:22:01Z</time>
</trkpt>
<trkpt lat="61.03337" lon="25.802575">
<time>2020-09-13T10:22:02Z</time>
</trkpt>
<trkpt lat="61.033447" lon="25.802512">
<time>2020-09-13T10:22:03Z</time>
</trkpt>
<trkpt lat="61.033526" lon="25.802445">
<time>2020-09-13T10:22:04Z</time>
</trkpt>
<trkpt lat="61.033606" lon="25.80238">
<time>2020-09-13T10:22:05Z</time>
</trkpt>
<trkpt lat="61.033689" lon="25.802319">
<time>2020-09-13T10:22:06Z</time>
</trkpt>
<trkpt lat="61.033772" lon="25.802266">
<time>2020-09-13T10:22:07Z</time>
</trkpt>
<trkpt lat="61.033856" lon="25.802222">
<time>2020-09-13T10:22:08Z</time>
</trkpt>
<trkpt lat="61.03394" lon="25.802184">
<time>2020-09-13T10:22:09Z</time>
</trkpt>
<trkpt lat="61.034024" lon="25.802148">
<time>2020-09-13T10:22:10Z</time>
</trkpt>
<trkpt lat="61.034108" lon="25.802111">
<time>2020-09-13T10:22:11Z</time>
</trkpt>
<trkpt lat="61.034194" lon="25.802077">
<time>2020-09-13T10:22:12Z</time>
</trkpt>
<trkpt lat="61.03428" lon="25.802046">
<time>2020-09-13T10:22:13Z</time>
</trkpt>
<trkpt lat="61.034366" lon="25.802016">
<time>2020-09-13T10:22:14Z</time>
</trkpt>
<trkpt lat="61.03445" lon="25.801982">
<time>2020-09-13T10:22:15Z</time>
</trkpt>
<trkpt lat="61.034533" lon="25.801953">
<time>2020-09-13T10:22:16Z</time>
</trkpt>
<trkpt lat="61.034617" lon="25.80195">
<time>2020-09-13T10:22:17Z</time>
</trkpt>
<trkpt lat="61.034698" lon="25.801966">
<time>2020-09-13T10:22:18Z</time>
</trkpt>
<trkpt lat="61.034777" lon="25.801999">
<time>2020-09-13T10:22:19Z</time>
</trkpt>
<trkpt lat="61.034853" lon="25.802031">
<time>2020-09-13T10:22:20Z</time>
</trkpt>
<trkpt lat="61.034931" lon="25.802073">
<time>2020-09-13T10:22:21Z</time>
</trkpt>
<trkpt lat="61.035011" lon="25.802122">
<time>2020-09-13T10:22:22Z</time>
</trkpt>
<trkpt lat="61.035091" lon="25.802176">
<time>2020-09-13T10:22:23Z</time>
</trkpt>
<trkpt lat="61.035172" lon="25.802236">
<time>2020-09-13T10:22:24Z</time>
</trkpt>
<trkpt lat="61.035254" lon="25.802298">
<time>2020-09-13T10:22:25Z</time>
</trkpt>
<trkpt lat="61.035337" lon="25.802357">
<time>2020-09-13T10:22:26Z</time>
</trkpt>
<trkpt lat="61.035421" lon="25.802411">
<time>2020-09-13T10:22:27Z</time>
</trkpt>
<trkpt lat="61.035504" lon="25.802454">
<time>2020-09-13T10:22:28Z</time>
</trkpt>
<trkpt lat="61.035586" lon="25.802479">
<time>2020-09-13T10:22:29Z</time>
</trkpt>
<trkpt lat="61.035665" lon="25.802476">
<time>2020-09-13T10:22:30Z</time>
</trkpt>
<trkpt lat="61.035741" lon="25.802417">
<time>2020-09-13T10:22:31Z</time>
</trkpt>
<trkpt lat="61.035813" lon="25.802318">
<time>2020-09-13T10:22:32Z</time>
</trkpt>
<trkpt lat="61.035877" lon="25.802195">
<time>2020-09-13T10:22:33Z</time>
</trkpt>
<trkpt lat="61.035931" lon="25.802075">
<time>2020-09-13T10:22:34Z</time>
</trkpt>
<trkpt lat="61.035973" lon="25.801949">
<time>2020-09-13T10:22:35Z</time>
</trkpt>
<trkpt lat="61.036004" lon="25.801819">
<time>2020-09-13T10:22:36Z</time>
</trkpt>
<trkpt lat="61.036027" lon="25.801696">
<time>2020-09-13T10:22:37Z</time>
</trkpt>
<trkpt lat="61.036042" lon="25.801581">
<time>2020-09-13T10:22:38Z</time>
</trkpt>
<trkpt lat="61.036055" lon="25.801475">
<time>2020-09-13T10:22:39Z</time>
</trkpt>
<trkpt lat="61.036064" lon="25.801374">
<time>2020-09-13T10:22:40Z</time>
</trkpt>
<trkpt lat="61.036077" lon="25.801279">
<time>2020-09-13T10:22:41Z</time>
</trkpt>
<trkpt lat="61.03609" lon="25.801183">
<time>2020-09-13T10:22:42Z</time>
</trkpt>
<trkpt lat="61.036104" lon="25.801086">
<time>2020-09-13T10:22:43Z</time>
</trkpt>
<trkpt lat="61.036116" lon="25.800988">
<time>2020-09-13T10:22:44Z</time>
</trkpt>
<trkpt lat="61.036127" lon="25.800887">
<time>2020-09-13T10:22:45Z</time>
</trkpt>
<trkpt lat="61.036137" lon="25.800785">
<time>2020-09-13T10:22:46Z</time>
</trkpt>
<trkpt lat="61.036147" lon="25.80068">
<time>2020-09-13T10:22:47Z</time>
</trkpt>
<trkpt lat="61.036155" lon="25.80057">
<time>2020-09-13T10:22:48Z</time>
</trkpt>
<trkpt lat="61.036163" lon="25.800455">
<time>2020-09-13T10:22:49Z</time>
</trkpt>
<trkpt lat="61.036173" lon="25.800336">
<time>2020-09-13T10:22:50Z</time>
</trkpt>
<trkpt lat="61.036182" lon="25.800213">
<time>2020-09-13T10:22:51Z</time>
</trkpt>
<trkpt lat="61.036192" lon="25.800088">
<time>2020-09-13T10:22:52Z</time>
</trkpt>
<trkpt lat="61.036201" lon="25.79996">
<time>2020-09-13T10:22:53Z</time>
</trkpt>
<trkpt lat="61.036209" lon="25.79983">
<time>2020-09-13T10:22:54Z</time>
</trkpt>
<trkpt lat="61.036216" lon="25.799698">
<time>2020-09-13T10:22:55Z</time>
</trkpt>
<trkpt lat="61.036222" lon="25.799565">
<time>2020-09-13T10:22:56Z</time>
</trkpt>
<trkpt lat="61.036231" lon="25.799433">
<time>2020-09-13T10:22:57Z</time>
</trkpt>
<trkpt lat="61.036241" lon="25.799297">
<time>2020-09-13T10:22:58Z</time>
</trkpt>
<trkpt lat="61.036253" lon="25.799161">
<time>2020-09-13T10:22:59Z</time>
</trkpt>
<trkpt lat="61.036265" lon="25.799024">
<time>2020-09-13T10:23:00Z</time>
</trkpt>
<trkpt lat="61.036277" lon="25.798888">
<time>2020-09-13T10:23:01Z</time>
</trkpt>
<trkpt lat="61.036287" lon="25.798753">
<time>2020-09-13T10:23:02Z</time>
</trkpt>
<trkpt lat="61.036296" lon="25.79862">
<time>2020-09-13T10:23:03Z</time>
</trkpt>
<trkpt lat="61.0363" lon="25.798488">
<time>2020-09-13T10:23:04Z</time>
</trkpt>
<trkpt lat="61.036296" lon="25.798358">
<time>2020-09-13T10:23:05Z</time>
</trkpt>
<trkpt lat="61.036287" lon="25.798229">
<time>2020-09-13T10:23:06Z</time>
</trkpt>
<trkpt lat="61.03627" lon="25.798102">
<time>2020-09-13T10:23:07Z</time>
</trkpt>
<trkpt lat="61.036248" lon="25.797975">
<time>2020-09-13T10:23:08Z</time>
</trkpt>
<trkpt lat="61.036223" lon="25.797846">
<time>2020-09-13T10:23:09Z</time>
</trkpt>
<trkpt lat="61.036198" lon="25.797714">
<time>2020-09-13T10:23:10Z</time>
</trkpt>
<trkpt lat="61.036174" lon="25.797576">
<time>2020-09-13T10:23:11Z</time>
</trkpt>
<trkpt lat="61.03615" lon="25.797433">
<time>2020-09-13T10:23:12Z</time>
</trkpt>
<trkpt lat="61.036124" lon="25.797284">
<time>2020-09-13T10:23:13Z</time>
</trkpt>
<trkpt lat="61.036098" lon="25.797131">
<time>2020-09-13T10:23:14Z</time>
</trkpt>
<trkpt lat="61.036072" lon="25.796976">
<time>2020-09-13T10:23:15Z</time>
</trkpt>
<trkpt lat="61.036048" lon="25.79682">
<time>2020-09-13T10:23:16Z</time>
</trkpt>
<trkpt lat="61.036025" lon="25.796664">
<time>2020-09-13T10:23:17Z</time>
</trkpt>
<trkpt lat="61.036004" lon="25.796509">
<time>2020-09-13T10:23:18Z</time>
</trkpt>
<trkpt lat="61.035983" lon="25.796355">
<time>2020-09-13T10:23:19Z</time>
</trkpt>
<trkpt lat="61.03596" lon="25.796207">
<time>2020-09-13T10:23:20Z</time>
</trkpt>
<trkpt lat="61.035938" lon="25.796064">
<time>2020-09-13T10:23:21Z</time>
</trkpt>
<trkpt lat="61.035919" lon="25.795927">
<time>2020-09-13T10:23:22Z</time>
</trkpt>
<trkpt lat="61.035905" lon="25.795793">
<time>2020-09-13T10:23:23Z</time>
</trkpt>
<trkpt lat="61.035894" lon="25.795659">
<time>2020-09-13T10:23:24Z</time>
</trkpt>
<trkpt lat="61.035885" lon="25.795526">
<time>2020-09-13T10:23:25Z</time>
</trkpt>
<trkpt lat="61.035877" lon="25.795395">
<time>2020-09-13T10:23:26Z</time>
</trkpt>
<trkpt lat="61.035871" lon="25.795265">
<time>2020-09-13T10:23:27Z</time>
</trkpt>
<trkpt lat="61.035865" lon="25.795137">
<time>2020-09-13T10:23:28Z</time>
</trkpt>
<trkpt lat="61.03586" lon="25.79501">
<time>2020-09-13T10:23:29Z</time>
</trkpt>
<trkpt lat="61.035858" lon="25.794885">
<time>2020-09-13T10:23:30Z</time>
</trkpt>
<trkpt lat="61.035861" lon="25.794762">
<time>2020-09-13T10:23:31Z</time>
</trkpt>
<trkpt lat="61.035871" lon="25.794642">
<time>2020-09-13T10:23:32Z</time>
</trkpt>
<trkpt lat="61.035887" lon="25.794523">
<time>2020-09-13T10:23:33Z</time>
</trkpt>
<trkpt lat="61.035902" lon="25.794402">
<time>2020-09-13T10:23:34Z</time>
</trkpt>
<trkpt lat="61.035913" lon="25.794279">
<time>2020-09-13T10:23:35Z</time>
</trkpt>
<trkpt lat="61.035925" lon="25.794152">
<time>2020-09-13T10:23:36Z</time>
</trkpt>
<trkpt lat="61.03594" lon="25.794025">
<time>2020-09-13T10:23:37Z</time>
</trkpt>
<trkpt lat="61.035957" lon="25.793896">
<time>2020-09-13T10:23:38Z</time>
</trkpt>
<trkpt lat="61.035973" lon="25.793766">
<time>2020-09-13T10:23:39Z</time>
</trkpt>
<trkpt lat="61.035983" lon="25.793633">
<time>2020-09-13T10:23:40Z</time>
</trkpt>
<trkpt lat="61.035989" lon="25.7935">
<time>2020-09-13T10:23:41Z</time>
</trkpt>
<trkpt lat="61.035992" lon="25.793365">
<time>2020-09-13T10:23:42Z</time>
</trkpt>
<trkpt lat="61.035989" lon="25.793228">
<time>2020-09-13T10:23:43Z</time>
</trkpt>
<trkpt lat="61.035979" lon="25.793089">
<time>2020-09-13T10:23:44Z</time>
</trkpt>
<trkpt lat="61.035964" lon="25.792948">
<time>2020-09-13T10:23:45Z</time>
</trkpt>
<trkpt lat="61.035945" lon="25.792806">
<time>2020-09-13T10:23:46Z</time>
</trkpt>
<trkpt lat="61.035924" lon="25.792661">
<time>2020-09-13T10:23:47Z</time>
</trkpt>
<trkpt lat="61.035901" lon="25.792517">
<time>2020-09-13T10:23:48Z</time>
</trkpt>
<trkpt lat="61.035876" lon="25.792371">
<time>2020-09-13T10:23:49Z</time>
</trkpt>
<trkpt lat="61.035852" lon="25.792226">
<time>2020-09-13T10:23:50Z</time>
</trkpt>
<trkpt lat="61.035827" lon="25.792083">
<time>2020-09-13T10:23:51Z</time>
</trkpt>
<trkpt lat="61.035801" lon="25.791942">
<time>2020-09-13T10:23:52Z</time>
</trkpt>
<trkpt lat="61.035775" lon="25.791803">
<time>2020-09-13T10:23:53Z</time>
</trkpt>
<trkpt lat="61.03575" lon="25.791666">
<time>2020-09-13T10:23:54Z</time>
</trkpt>
<trkpt lat="61.035725" lon="25.791531">
<time>2020-09-13T10:23:55Z</time>
</trkpt>
<trkpt lat="61.0357" lon="25.791397">
<time>2020-09-13T10:23:56Z</time>
</trkpt>
<trkpt lat="61.035675" lon="25.79126">
<time>2020-09-13T10:23:57Z</time>
</trkpt>
<trkpt lat="61.03565" lon="25.79112">
<time>2020-09-13T10:23:58Z</time>
</trkpt>
<trkpt lat="61.035627" lon="25.790976">
<time>2020-09-13T10:23:59Z</time>
</trkpt>
<trkpt lat="61.035605" lon="25.790826">
<time>2020-09-13T10:24:00Z</time>
</trkpt>
<trkpt lat="61.035585" lon="25.79067">
<time>2020-09-13T10:24:01Z</time>
</trkpt>
<trkpt lat="61.035565" lon="25.790507">
<time>2020-09-13T10:24:02Z</time>
</trkpt>
<trkpt lat="61.035545" lon="25.790336">
<time>2020-09-13T10:24:03Z</time>
</trkpt>
<trkpt lat="61.035525" lon="25.790158">
<time>2020-09-13T10:24:04Z</time>
</trkpt>
<trkpt lat="61.035503" lon="25.789966">
<time>2020-09-13T10:24:05Z</time>
</trkpt>
<trkpt lat="61.03548" lon="25.789767">
<time>2020-09-13T10:24:06Z</time>
</trkpt>
<trkpt lat="61.035452" lon="25.789566">
<time>2020-09-13T10:24:07Z</time>
</trkpt>
<trkpt lat="61.035414" lon="25.789383">
<time>2020-09-13T10:24:08Z</time>
</trkpt>
<trkpt lat="61.035367" lon="25.789223">
<time>2020-09-13T10:24:09Z</time>
</trkpt>
<trkpt lat="61.035305" lon="25.789086">
<time>2020-09-13T10:24:10Z</time>
</trkpt>
<trkpt lat="61.035232" lon="25.788967">
<time>2020-09-13T10:24:11Z</time>
</trkpt>
<trkpt lat="61.035155" lon="25.788866">
<time>2020-09-13T10:24:12Z</time>
</trkpt>
<trkpt lat="61.035082" lon="25.788784">
<time>2020-09-13T10:24:13Z</time>
</trkpt>
<trkpt lat="61.035018" lon="25.788718">
<time>2020-09-13T10:24:14Z</time>
</trkpt>
<trkpt lat="61.034959" lon="25.788665">
<time>2020-09-13T10:24:15Z</time>
</trkpt>
<trkpt lat="61.034903" lon="25.788615">
<time>2020-09-13T10:24:16Z</time>
</trkpt>
<trkpt lat="61.03485" lon="25.788571">
<time>2020-09-13T10:24:17Z</time>
</trkpt>
<trkpt lat="61.034796" lon="25.788536">
<time>2020-09-13T10:24:18Z</time>
</trkpt>
<trkpt lat="61.034747" lon="25.788509">
<time>2020-09-13T10:24:19Z</time>
</trkpt>
<trkpt lat="61.034697" lon="25.788486">
<time>2020-09-13T10:24:20Z</time>
</trkpt>
<trkpt lat="61.034648" lon="25.788457">
<time>2020-09-13T10:24:21Z</time>
</trkpt>
<trkpt lat="61.034595" lon="25.788425">
<time>2020-09-13T10:24:22Z</time>
</trkpt>
<trkpt lat="61.034542" lon="25.78839">
<time>2020-09-13T10:24:23Z</time>
</trkpt>
<trkpt lat="61.034491" lon="25.788356">
<time>2020-09-13T10:24:24Z</time>
</trkpt>
<trkpt lat="61.034442" lon="25.788322">
<time>2020-09-13T10:24:25Z</time>
</trkpt>
<trkpt lat="61.034396" lon="25.788287">
<time>2020-09-13T10:24:26Z</time>
</trkpt>
<trkpt lat="61.034351" lon="25.788249">
<time>2020-09-13T10:24:27Z</time>
</trkpt>
<trkpt lat="61.034307" lon="25.78821">
<time>2020-09-13T10:24:28Z</time>
</trkpt>
<trkpt lat="61.034262" lon="25.788172">
<time>2020-09-13T10:24:29Z</time>
</trkpt>
<trkpt lat="61.034216" lon="25.788136">
<time>2020-09-13T10:24:30Z</time>
</trkpt>
<trkpt lat="61.034169" lon="25.788104">
<time>2020-09-13T10:24:31Z</time>
</trkpt>
<trkpt lat="61.03412" lon="25.788072">
<time>2020-09-13T10:24:32Z</time>
</trkpt>
<trkpt lat="61.034071" lon="25.788042">
<time>2020-09-13T10:24:33Z</time>
</trkpt>
<trkpt lat="61.034022" lon="25.788011">
<time>2020-09-13T10:24:34Z</time>
</trkpt>
<trkpt lat="61.03397" lon="25.787982">
<time>2020-09-13T10:24:35Z</time>
</trkpt>
<trkpt lat="61.033917" lon="25.787951">
<time>2020-09-13T10:24:36Z</time>
</trkpt>
<trkpt lat="61.03386" lon="25.787923">
<time>2020-09-13T10:24:37Z</time>
</trkpt>
<trkpt lat="61.033803" lon="25.787901">
<time>2020-09-13T10:24:38Z</time>
</trkpt>
<trkpt lat="61.033745" lon="25.787889">
<time>2020-09-13T10:24:39Z</time>
</trkpt>
<trkpt lat="61.033687" lon="25.787882">
<time>2020-09-13T10:24:40Z</time>
</trkpt>
<trkpt lat="61.03363" lon="25.787875">
<time>2020-09-13T10:24:41Z</time>
</trkpt>
<trkpt lat="61.033574" lon="25.787867">
<time>2020-09-13T10:24:42Z</time>
</trkpt>
<trkpt lat="61.03352" lon="25.787864">
<time>2020-09-13T10:24:43Z</time>
</trkpt>
<trkpt lat="61.033467" lon="25.787866">
<time>2020-09-13T10:24:44Z</time>
</trkpt>
<trkpt lat="61.033415" lon="25.787877">
<time>2020-09-13T10:24:45Z</time>
</trkpt>
<trkpt lat="61.033365" lon="25.787893">
<time>2020-09-13T10:24:46Z</time>
</trkpt>
<trkpt lat="61.033314" lon="25.787912">
<time>2020-09-13T10:24:47Z</time>
</trkpt>
<trkpt lat="61.033262" lon="25.787929">
<time>2020-09-13T10:24:48Z</time>
</trkpt>
<trkpt lat="61.033206" lon="25.787947">
<time>2020-09-13T10:24:49Z</time>
</trkpt>
<trkpt lat="61.033151" lon="25.787965">
<time>2020-09-13T10:24:50Z</time>
</trkpt>
<trkpt lat="61.033095" lon="25.787979">
<time>2020-09-13T10:24:51Z</time>
</trkpt>
<trkpt lat="61.033042" lon="25.787985">
<time>2020-09-13T10:24:52Z</time>
</trkpt>
<trkpt lat="61.032988" lon="25.787982">
<time>2020-09-13T10:24:53Z</time>
</trkpt>
<trkpt lat="61.032936" lon="25.787973">
<time>2020-09-13T10:24:54Z</time>
</trkpt>
<trkpt lat="61.03288" lon="25.78795">
<time>2020-09-13T10:24:55Z</time>
</trkpt>
<trkpt lat="61.032823" lon="25.787917">
<time>2020-09-13T10:24:56Z</time>
</trkpt>
<trkpt lat="61.032765" lon="25.787878">
<time>2020-09-13T10:24:57Z</time>
</trkpt>
<trkpt lat="61.032707" lon="25.787836">
<time>2020-09-13T10:24:58Z</time>
</trkpt>
<trkpt lat="61.032649" lon="25.787786">
<time>2020-09-13T10:24:59Z</time>
</trkpt>
<trkpt lat="61.032588" lon="25.787731">
<time>2020-09-13T10:25:00Z</time>
</trkpt>
<trkpt lat="61.032524" lon="25.787671">
<time>2020-09-13T10:25:01Z</time>
</trkpt>
<trkpt lat="61.032458" lon="25.787612">
<time>2020-09-13T10:25:02Z</time>
</trkpt>
<trkpt lat="61.032387" lon="25.787556">
<time>2020-09-13T10:25:03Z</time>
</trkpt>
<trkpt lat="61.032315" lon="25.78751">
<time>2020-09-13T10:25:04Z</time>
</trkpt>
<trkpt lat="61.032242" lon="25.787468">
<time>2020-09-13T10:25:05Z</time>
</trkpt>
<trkpt lat="61.032172" lon="25.787435">
<time>2020-09-13T10:25:06Z</time>
</trkpt>
<trkpt lat="61.032102" lon="25.787408">
<time>2020-09-13T10:25:07Z</time>
</trkpt>
<trkpt lat="61.032033" lon="25.78738">
<time>2020-09-13T10:25:08Z</time>
</trkpt>
<trkpt lat="61.031966" lon="25.787331">
<time>2020-09-13T10:25:09Z</time>
</trkpt>
<trkpt lat="61.0319" lon="25.78726">
<time>2020-09-13T10:25:10Z</time>
</trkpt>
<trkpt lat="61.031838" lon="25.787168">
<time>2020-09-13T10:25:11Z</time>
</trkpt>
<trkpt lat="61.031783" lon="25.78707">
<time>2020-09-13T10:25:12Z</time>
</trkpt>
<trkpt lat="61.031735" lon="25.786964">
<time>2020-09-13T10:25:13Z</time>
</trkpt>
<trkpt lat="61.031692" lon="25.786855">
<time>2020-09-13T10:25:14Z</time>
</trkpt>
<trkpt lat="61.031652" lon="25.786743">
<time>2020-09-13T10:25:15Z</time>
</trkpt>
<trkpt lat="61.031617" lon="25.786629">
<time>2020-09-13T10:25:16Z</time>
</trkpt>
<trkpt lat="61.031592" lon="25.786515">
<time>2020-09-13T10:25:17Z</time>
</trkpt>
<trkpt lat="61.031577" lon="25.786405">
<time>2020-09-13T10:25:18Z</time>
</trkpt>
<trkpt lat="61.031568" lon="25.786299">
<time>2020-09-13T10:25:19Z</time>
</trkpt>
<trkpt lat="61.03156" lon="25.786203">
<time>2020-09-13T10:25:20Z</time>
</trkpt>
<trkpt lat="61.031553" lon="25.786112">
<time>2020-09-13T10:25:21Z</time>
</trkpt>
<trkpt lat="61.031547" lon="25.786024">
<time>2020-09-13T10:25:22Z</time>
</trkpt>
<trkpt lat="61.031542" lon="25.785935">
<time>2020-09-13T10:25:23Z</time>
</trkpt>
<trkpt lat="61.031535" lon="25.785847">
<time>2020-09-13T10:25:24Z</time>
</trkpt>
<trkpt lat="61.031528" lon="25.785756">
<time>2020-09-13T10:25:25Z</time>
</trkpt>
<trkpt lat="61.03152" lon="25.785658">
<time>2020-09-13T10:25:26Z</time>
</trkpt>
<trkpt lat="61.031515" lon="25.785549">
<time>2020-09-13T10:25:27Z</time>
</trkpt>
<trkpt lat="61.031517" lon="25.78543">
<time>2020-09-13T10:25:28Z</time>
</trkpt>
<trkpt lat="61.031529" lon="25.785306">
<time>2020-09-13T10:25:29Z</time>
</trkpt>
<trkpt lat="61.031556" lon="25.785181">
<time>2020-09-13T10:25:30Z</time>
</trkpt>
<trkpt lat="61.031591" lon="25.785058">
<time>2020-09-13T10:25:31Z</time>
</trkpt>
<trkpt lat="61.031635" lon="25.784941">
<time>2020-09-13T10:25:32Z</time>
</trkpt>
<trkpt lat="61.031683" lon="25.784828">
<time>2020-09-13T10:25:33Z</time>
</trkpt>
<trkpt lat="61.031732" lon="25.784715">
<time>2020-09-13T10:25:34Z</time>
</trkpt>
<trkpt lat="61.031782" lon="25.784599">
<time>2020-09-13T10:25:35Z</time>
</trkpt>
<trkpt lat="61.031829" lon="25.784479">
<time>2020-09-13T10:25:36Z</time>
</trkpt>
<trkpt lat="61.031875" lon="25.784359">
<time>2020-09-13T10:25:37Z</time>
</trkpt>
<trkpt lat="61.031918" lon="25.784236">
<time>2020-09-13T10:25:38Z</time>
</trkpt>
<trkpt lat="61.03196" lon="25.784112">
<time>2020-09-13T10:25:39Z</time>
</trkpt>
<trkpt lat="61.031997" lon="25.783981">
<time>2020-09-13T10:25:40Z</time>
</trkpt>
<trkpt lat="61.032026" lon="25.783843">
<time>2020-09-13T10:25:41Z</time>
</trkpt>
<trkpt lat="61.032046" lon="25.783699">
<time>2020-09-13T10:25:42Z</time>
</trkpt>
<trkpt lat="61.032064" lon="25.783553">
<time>2020-09-13T10:25:43Z</time>
</trkpt>
<trkpt lat="61.032084" lon="25.783408">
<time>2020-09-13T10:25:44Z</time>
</trkpt>
<trkpt lat="61.032108" lon="25.783263">
<time>2020-09-13T10:25:45Z</time>
</trkpt>
<trkpt lat="61.032135" lon="25.783116">
<time>2020-09-13T10:25:46Z</time>
</trkpt>
<trkpt lat="61.032166" lon="25.782967">
<time>2020-09-13T10:25:47Z</time>
</trkpt>
<trkpt lat="61.032199" lon="25.782815">
<time>2020-09-13T10:25:48Z</time>
</trkpt>
<trkpt lat="61.03223" lon="25.782664">
<time>2020-09-13T10:25:49Z</time>
</trkpt>
<trkpt lat="61.032259" lon="25.782512">
<time>2020-09-13T10:25:50Z</time>
</trkpt>
<trkpt lat="61.032285" lon="25.782363">
<time>2020-09-13T10:25:51Z</time>
</trkpt>
<trkpt lat="61.032305" lon="25.782219">
<time>2020-09-13T10:25:52Z</time>
</trkpt>
<trkpt lat="61.032319" lon="25.782083">
<time>2020-09-13T10:25:53Z</time>
</trkpt>
<trkpt lat="61.032327" lon="25.781961">
<time>2020-09-13T10:25:54Z</time>
</trkpt>
<trkpt lat="61.032329" lon="25.781854">
<time>2020-09-13T10:25:55Z</time>
</trkpt>
<trkpt lat="61.032325" lon="25.781757">
<time>2020-09-13T10:25:56Z</time>
</trkpt>
<trkpt lat="61.032314" lon="25.781667">
<time>2020-09-13T10:25:57Z</time>
</trkpt>
<trkpt lat="61.0323" lon="25.781578">
<time>2020-09-13T10:25:58Z</time>
</trkpt>
<trkpt lat="61.032285" lon="25.781489">
<time>2020-09-13T10:25:59Z</time>
</trkpt>
<trkpt lat="61.032267" lon="25.781403">
<time>2020-09-13T10:26:00Z</time>
</trkpt>
<trkpt lat="61.032249" lon="25.781319">
<time>2020-09-13T10:26:01Z</time>
</trkpt>
<trkpt lat="61.032223" lon="25.78124">
<time>2020-09-13T10:26:02Z</time>
</trkpt>
<trkpt lat="61.032195" lon="25.781165">
<time>2020-09-13T10:26:03Z</time>
</trkpt>
<trkpt lat="61.032163" lon="25.781094">
<time>2020-09-13T10:26:04Z</time>
</trkpt>
<trkpt lat="61.032134" lon="25.781027">
<time>2020-09-13T10:26:05Z</time>
</trkpt>
<trkpt lat="61.032107" lon="25.780961">
<time>2020-09-13T10:26:06Z</time>
</trkpt>
<trkpt lat="61.032079" lon="25.780902">
<time>2020-09-13T10:26:07Z</time>
</trkpt>
<trkpt lat="61.032047" lon="25.780846">
<time>2020-09-13T10:26:08Z</time>
</trkpt>
<trkpt lat="61.032012" lon="25.780794">
<time>2020-09-13T10:26:09Z</time>
</trkpt>
<trkpt lat="61.031976" lon="25.780741">
<time>2020-09-13T10:26:10Z</time>
</trkpt>
<trkpt lat="61.031938" lon="25.780693">
<time>2020-09-13T10:26:11Z</time>
</trkpt>
<trkpt lat="61.031899" lon="25.780648">
<time>2020-09-13T10:26:12Z</time>
</trkpt>
<trkpt lat="61.031859" lon="25.780608">
<time>2020-09-13T10:26:13Z</time>
</trkpt>
<trkpt lat="61.031819" lon="25.780573">
<time>2020-09-13T10:26:14Z</time>
</trkpt>
<trkpt lat="61.031778" lon="25.780548">
<time>2020-09-13T10:26:15Z</time>
</trkpt>
<trkpt lat="61.031738" lon="25.780527">
<time>2020-09-13T10:26:16Z</time>
</trkpt>
<trkpt lat="61.031699" lon="25.780505">
<time>2020-09-13T10:26:17Z</time>
</trkpt>
<trkpt lat="61.031661" lon="25.780478">
<time>2020-09-13T10:26:18Z</time>
</trkpt>
<trkpt lat="61.031624" lon="25.780448">
<time>2020-09-13T10:26:19Z</time>
</trkpt>
<trkpt lat="61.031585" lon="25.780416">
<time>2020-09-13T10:26:20Z</time>
</trkpt>
<trkpt lat="61.031544" lon="25.780383">
<time>2020-09-13T10:26:21Z</time>
</trkpt>
<trkpt lat="61.031501" lon="25.780345">
<time>2020-09-13T10:26:22Z</time>
</trkpt>
<trkpt lat="61.031458" lon="25.780301">
<time>2020-09-13T10:26:23Z</time>
</trkpt>
<trkpt lat="61.031416" lon="25.780248">
<time>2020-09-13T10:26:24Z</time>
</trkpt>
<trkpt lat="61.031376" lon="25.780188">
<time>2020-09-13T10:26:25Z</time>
</trkpt>
<trkpt lat="61.031339" lon="25.780126">
<time>2020-09-13T10:26:26Z</time>
</trkpt>
<trkpt lat="61.031304" lon="25.780062">
<time>2020-09-13T10:26:27Z</time>
</trkpt>
<trkpt lat="61.031274" lon="25.779998">
<time>2020-09-13T10:26:28Z</time>
</trkpt>
<trkpt lat="61.03125" lon="25.77993">
<time>2020-09-13T10:26:29Z</time>
</trkpt>
<trkpt lat="61.031231" lon="25.779858">
<time>2020-09-13T10:26:30Z</time>
</trkpt>
<trkpt lat="61.031215" lon="25.779784">
<time>2020-09-13T10:26:31Z</time>
</trkpt>
<trkpt lat="61.031202" lon="25.779708">
<time>2020-09-13T10:26:32Z</time>
</trkpt>
<trkpt lat="61.03119" lon="25.779629">
<time>2020-09-13T10:26:33Z</time>
</trkpt>
<trkpt lat="61.03118" lon="25.779543">
<time>2020-09-13T10:26:34Z</time>
</trkpt>
<trkpt lat="61.031172" lon="25.779451">
<time>2020-09-13T10:26:35Z</time>
</trkpt>
<trkpt lat="61.031167" lon="25.779352">
<time>2020-09-13T10:26:36Z</time>
</trkpt>
<trkpt lat="61.031166" lon="25.779247">
<time>2020-09-13T10:26:37Z</time>
</trkpt>
<trkpt lat="61.031166" lon="25.779139">
<time>2020-09-13T10:26:38Z</time>
</trkpt>
<trkpt lat="61.031162" lon="25.779032">
<time>2020-09-13T10:26:39Z</time>
</trkpt>
<trkpt lat="61.031153" lon="25.778926">
<time>2020-09-13T10:26:40Z</time>
</trkpt>
<trkpt lat="61.03114" lon="25.778821">
<time>2020-09-13T10:26:41Z</time>
</trkpt>
<trkpt lat="61.031125" lon="25.778717">
<time>2020-09-13T10:26:42Z</time>
</trkpt>
<trkpt lat="61.031107" lon="25.778615">
<time>2020-09-13T10:26:43Z</time>
</trkpt>
<trkpt lat="61.031084" lon="25.778519">
<time>2020-09-13T10:26:44Z</time>
</trkpt>
<trkpt lat="61.031058" lon="25.778428">
<time>2020-09-13T10:26:45Z</time>
</trkpt>
<trkpt lat="61.031029" lon="25.778344">
<time>2020-09-13T10:26:46Z</time>
</trkpt>
<trkpt lat="61.030998" lon="25.778264">
<time>2020-09-13T10:26:47Z</time>
</trkpt>
<trkpt lat="61.030965" lon="25.778188">
<time>2020-09-13T10:26:48Z</time>
</trkpt>
<trkpt lat="61.030931" lon="25.778111">
<time>2020-09-13T10:26:49Z</time>
</trkpt>
<trkpt lat="61.030895" lon="25.778033">
<time>2020-09-13T10:26:50Z</time>
</trkpt>
<trkpt lat="61.030858" lon="25.77795">
<time>2020-09-13T10:26:51Z</time>
</trkpt>
<trkpt lat="61.03082" lon="25.777869">
<time>2020-09-13T10:26:52Z</time>
</trkpt>
<trkpt lat="61.030782" lon="25.777791">
<time>2020-09-13T10:26:53Z</time>
</trkpt>
<trkpt lat="61.030746" lon="25.777716">
<time>2020-09-13T10:26:54Z</time>
</trkpt>
<trkpt lat="61.030711" lon="25.777641">
<time>2020-09-13T10:26:55Z</time>
</trkpt>
<trkpt lat="61.030677" lon="25.777568">
<time>2020-09-13T10:26:56Z</time>
</trkpt>
<trkpt lat="61.030645" lon="25.777494">
<time>2020-09-13T10:26:57Z</time>
</trkpt>
<trkpt lat="61.030613" lon="25.777423">
<time>2020-09-13T10:26:58Z</time>
</trkpt>
<trkpt lat="61.030582" lon="25.777351">
<time>2020-09-13T10:26:59Z</time>
</trkpt>
<trkpt lat="61.030553" lon="25.777279">
<time>2020-09-13T10:27:00Z</time>
</trkpt>
<trkpt lat="61.030525" lon="25.777203">
<time>2020-09-13T10:27:01Z</time>
</trkpt>
<trkpt lat="61.030498" lon="25.777127">
<time>2020-09-13T10:27:02Z</time>
</trkpt>
<trkpt lat="61.030469" lon="25.777048">
<time>2020-09-13T10:27:03Z</time>
</trkpt>
<trkpt lat="61.030436" lon="25.776972">
<time>2020-09-13T10:27:04Z</time>
</trkpt>
<trkpt lat="61.030403" lon="25.776888">
<time>2020-09-13T10:27:05Z</time>
</trkpt>
<trkpt lat="61.030374" lon="25.776796">
<time>2020-09-13T10:27:06Z</time>
</trkpt>
<trkpt lat="61.03035" lon="25.776692">
<time>2020-09-13T10:27:07Z</time>
</trkpt>
<trkpt lat="61.03033" lon="25.776583">
<time>2020-09-13T10:27:08Z</time>
</trkpt>
<trkpt lat="61.030312" lon="25.776469">
<time>2020-09-13T10:27:09Z</time>
</trkpt>
<trkpt lat="61.030294" lon="25.776354">
<time>2020-09-13T10:27:10Z</time>
</trkpt>
<trkpt lat="61.030279" lon="25.776235">
<time>2020-09-13T10:27:11Z</time>
</trkpt>
<trkpt lat="61.030275" lon="25.776113">
<time>2020-09-13T10:27:12Z</time>
</trkpt>
<trkpt lat="61.030281" lon="25.77599">
<time>2020-09-13T10:27:13Z</time>
</trkpt>
<trkpt lat="61.030294" lon="25.775869">
<time>2020-09-13T10:27:14Z</time>
</trkpt>
<trkpt lat="61.030303" lon="25.775748">
<time>2020-09-13T10:27:15Z</time>
</trkpt>
<trkpt lat="61.030307" lon="25.775628">
<time>2020-09-13T10:27:16Z</time>
</trkpt>
<trkpt lat="61.030308" lon="25.775504">
<time>2020-09-13T10:27:17Z</time>
</trkpt>
<trkpt lat="61.030308" lon="25.775379">
<time>2020-09-13T10:27:18Z</time>
</trkpt>
<trkpt lat="61.030309" lon="25.77525">
<time>2020-09-13T10:27:19Z</time>
</trkpt>
<trkpt lat="61.03031" lon="25.775119">
<time>2020-09-13T10:27:20Z</time>
</trkpt>
<trkpt lat="61.030309" lon="25.774984">
<time>2020-09-13T10:27:21Z</time>
</trkpt>
<trkpt lat="61.030305" lon="25.774844">
<time>2020-09-13T10:27:22Z</time>
</trkpt>
<trkpt lat="61.030298" lon="25.7747">
<time>2020-09-13T10:27:23Z</time>
</trkpt>
<trkpt lat="61.030291" lon="25.774554">
<time>2020-09-13T10:27:24Z</time>
</trkpt>
<trkpt lat="61.030282" lon="25.774411">
<time>2020-09-13T10:27:25Z</time>
</trkpt>
<trkpt lat="61.030269" lon="25.774275">
<time>2020-09-13T10:27:26Z</time>
</trkpt>
<trkpt lat="61.030254" lon="25.774145">
<time>2020-09-13T10:27:27Z</time>
</trkpt>
<trkpt lat="61.030238" lon="25.774019">
<time>2020-09-13T10:27:28Z</time>
</trkpt>
<trkpt lat="61.030224" lon="25.773892">
<time>2020-09-13T10:27:29Z</time>
</trkpt>
<trkpt lat="61.03021" lon="25.773764">
<time>2020-09-13T10:27:30Z</time>
</trkpt>
<trkpt lat="61.030198" lon="25.773633">
<time>2020-09-13T10:27:31Z</time>
</trkpt>
<trkpt lat="61.030185" lon="25.773503">
<time>2020-09-13T10:27:32Z</time>
</trkpt>
<trkpt lat="61.030171" lon="25.773375">
<time>2020-09-13T10:27:33Z</time>
</trkpt>
<trkpt lat="61.030153" lon="25.773252">
<time>2020-09-13T10:27:34Z</time>
</trkpt>
<trkpt lat="61.030135" lon="25.773131">
<time>2020-09-13T10:27:35Z</time>
</trkpt>
<trkpt lat="61.030116" lon="25.773008">
<time>2020-09-13T10:27:36Z</time>
</trkpt>
<trkpt lat="61.030098" lon="25.772879">
<time>2020-09-13T10:27:37Z</time>
</trkpt>
<trkpt lat="61.030083" lon="25.772745">
<time>2020-09-13T10:27:38Z</time>
</trkpt>
<trkpt lat="61.030072" lon="25.772606">
<time>2020-09-13T10:27:39Z</time>
</trkpt>
<trkpt lat="61.030068" lon="25.772462">
<time>2020-09-13T10:27:40Z</time>
</trkpt>
<trkpt lat="61.030069" lon="25.772316">
<time>2020-09-13T10:27:41Z</time>
</trkpt>
<trkpt lat="61.030071" lon="25.772167">
<time>2020-09-13T10:27:42Z</time>
</trkpt>
<trkpt lat="61.030073" lon="25.772017">
<time>2020-09-13T10:27:43Z</time>
</trkpt>
<trkpt lat="61.030077" lon="25.771865">
<time>2020-09-13T10:27:44Z</time>
</trkpt>
<trkpt lat="61.030083" lon="25.771713">
<time>2020-09-13T10:27:45Z</time>
</trkpt>
<trkpt lat="61.030091" lon="25.771564">
<time>2020-09-13T10:27:46Z</time>
</trkpt>
<trkpt lat="61.030098" lon="25.77142">
<time>2020-09-13T10:27:47Z</time>
</trkpt>
<trkpt lat="61.030107" lon="25.77128">
<time>2020-09-13T10:27:48Z</time>
</trkpt>
<trkpt lat="61.030115" lon="25.771145">
<time>2020-09-13T10:27:49Z</time>
</trkpt>
<trkpt lat="61.030124" lon="25.771013">
<time>2020-09-13T10:27:50Z</time>
</trkpt>
<trkpt lat="61.03013" lon="25.770886">
<time>2020-09-13T10:27:51Z</time>
</trkpt>
<trkpt lat="61.030134" lon="25.77076">
<time>2020-09-13T10:27:52Z</time>
</trkpt>
<trkpt lat="61.030136" lon="25.770635">
<time>2020-09-13T10:27:53Z</time>
</trkpt>
<trkpt lat="61.030137" lon="25.770509">
<time>2020-09-13T10:27:54Z</time>
</trkpt>
<trkpt lat="61.030133" lon="25.770382">
<time>2020-09-13T10:27:55Z</time>
</trkpt>
<trkpt lat="61.030122" lon="25.770252">
<time>2020-09-13T10:27:56Z</time>
</trkpt>
<trkpt lat="61.030107" lon="25.770119">
<time>2020-09-13T10:27:57Z</time>
</trkpt>
<trkpt lat="61.030088" lon="25.769987">
<time>2020-09-13T10:27:58Z</time>
</trkpt>
<trkpt lat="61.030065" lon="25.769858">
<time>2020-09-13T10:27:59Z</time>
</trkpt>
<trkpt lat="61.030036" lon="25.769732">
<time>2020-09-13T10:28:00Z</time>
</trkpt>
<trkpt lat="61.030008" lon="25.769606">
<time>2020-09-13T10:28:01Z</time>
</trkpt>
<trkpt lat="61.029981" lon="25.769476">
<time>2020-09-13T10:28:02Z</time>
</trkpt>
<trkpt lat="61.029959" lon="25.769342">
<time>2020-09-13T10:28:03Z</time>
</trkpt>
<trkpt lat="61.029938" lon="25.769204">
<time>2020-09-13T10:28:04Z</time>
</trkpt>
<trkpt lat="61.029916" lon="25.769066">
<time>2020-09-13T10:28:05Z</time>
</trkpt>
<trkpt lat="61.029891" lon="25.768925">
<time>2020-09-13T10:28:06Z</time>
</trkpt>
<trkpt lat="61.029866" lon="25.768781">
<time>2020-09-13T10:28:07Z</time>
</trkpt>
<trkpt lat="61.029844" lon="25.768634">
<time>2020-09-13T10:28:08Z</time>
</trkpt>
<trkpt lat="61.029821" lon="25.768488">
<time>2020-09-13T10:28:09Z</time>
</trkpt>
<trkpt lat="61.029795" lon="25.768341">
<time>2020-09-13T10:28:10Z</time>
</trkpt>
<trkpt lat="61.029767" lon="25.768192">
<time>2020-09-13T10:28:11Z</time>
</trkpt>
<trkpt lat="61.029739" lon="25.768041">
<time>2020-09-13T10:28:12Z</time>
</trkpt>
<trkpt lat="61.029714" lon="25.767887">
<time>2020-09-13T10:28:13Z</time>
</trkpt>
<trkpt lat="61.029692" lon="25.767729">
<time>2020-09-13T10:28:14Z</time>
</trkpt>
<trkpt lat="61.029676" lon="25.767565">
<time>2020-09-13T10:28:15Z</time>
</trkpt>
<trkpt lat="61.02966" lon="25.767398">
<time>2020-09-13T10:28:16Z</time>
</trkpt>
<trkpt lat="61.029646" lon="25.767229">
<time>2020-09-13T10:28:17Z</time>
</trkpt>
<trkpt lat="61.029633" lon="25.767061">
<time>2020-09-13T10:28:18Z</time>
</trkpt>
<trkpt lat="61.029621" lon="25.766894">
<time>2020-09-13T10:28:19Z</time>
</trkpt>
<trkpt lat="61.029607" lon="25.766731">
<time>2020-09-13T10:28:20Z</time>
</trkpt>
<trkpt lat="61.029594" lon="25.766568">
<time>2020-09-13T10:28:21Z</time>
</trkpt>
<trkpt lat="61.029582" lon="25.766407">
<time>2020-09-13T10:28:22Z</time>
</trkpt>
<trkpt lat="61.02957" lon="25.766247">
<time>2020-09-13T10:28:23Z</time>
</trkpt>
<trkpt lat="61.029556" lon="25.766087">
<time>2020-09-13T10:28:24Z</time>
</trkpt>
<trkpt lat="61.029543" lon="25.765924">
<time>2020-09-13T10:28:25Z</time>
</trkpt>
<trkpt lat="61.029529" lon="25.765758">
<time>2020-09-13T10:28:26Z</time>
</trkpt>
<trkpt lat="61.029515" lon="25.76559">
<time>2020-09-13T10:28:27Z</time>
</trkpt>
<trkpt lat="61.029497" lon="25.765418">
<time>2020-09-13T10:28:28Z</time>
</trkpt>
<trkpt lat="61.029478" lon="25.765245">
<time>2020-09-13T10:28:29Z</time>
</trkpt>
<trkpt lat="61.029459" lon="25.765072">
<time>2020-09-13T10:28:30Z</time>
</trkpt>
<trkpt lat="61.02944" lon="25.7649">
<time>2020-09-13T10:28:31Z</time>
</trkpt>
<trkpt lat="61.029421" lon="25.764728">
<time>2020-09-13T10:28:32Z</time>
</trkpt>
<trkpt lat="61.029399" lon="25.764556">
<time>2020-09-13T10:28:33Z</time>
</trkpt>
<trkpt lat="61.029377" lon="25.76438">
<time>2020-09-13T10:28:34Z</time>
</trkpt>
<trkpt lat="61.029354" lon="25.7642">
<time>2020-09-13T10:28:35Z</time>
</trkpt>
<trkpt lat="61.029332" lon="25.764017">
<time>2020-09-13T10:28:36Z</time>
</trkpt>
<trkpt lat="61.02931" lon="25.76383">
<time>2020-09-13T10:28:37Z</time>
</trkpt>
<trkpt lat="61.029289" lon="25.76364">
<time>2020-09-13T10:28:38Z</time>
</trkpt>
<trkpt lat="61.029272" lon="25.763452">
<time>2020-09-13T10:28:39Z</time>
</trkpt>
<trkpt lat="61.029258" lon="25.763266">
<time>2020-09-13T10:28:40Z</time>
</trkpt>
<trkpt lat="61.029245" lon="25.763083">
<time>2020-09-13T10:28:41Z</time>
</trkpt>
<trkpt lat="61.029231" lon="25.762903">
<time>2020-09-13T10:28:42Z</time>
</trkpt>
<trkpt lat="61.029219" lon="25.762723">
<time>2020-09-13T10:28:43Z</time>
</trkpt>
<trkpt lat="61.029208" lon="25.762543">
<time>2020-09-13T10:28:44Z</time>
</trkpt>
<trkpt lat="61.029199" lon="25.762359">
<time>2020-09-13T10:28:45Z</time>
</trkpt>
<trkpt lat="61.029188" lon="25.762171">
<time>2020-09-13T10:28:46Z</time>
</trkpt>
<trkpt lat="61.029175" lon="25.761981">
<time>2020-09-13T10:28:47Z</time>
</trkpt>
<trkpt lat="61.029159" lon="25.76179">
<time>2020-09-13T10:28:48Z</time>
</trkpt>
<trkpt lat="61.029143" lon="25.7616">
<time>2020-09-13T10:28:49Z</time>
</trkpt>
<trkpt lat="61.029124" lon="25.761412">
<time>2020-09-13T10:28:50Z</time>
</trkpt>
<trkpt lat="61.029101" lon="25.761226">
<time>2020-09-13T10:28:51Z</time>
</trkpt>
<trkpt lat="61.029074" lon="25.761044">
<time>2020-09-13T10:28:52Z</time>
</trkpt>
<trkpt lat="61.029042" lon="25.760867">
<time>2020-09-13T10:28:53Z</time>
</trkpt>
<trkpt lat="61.029008" lon="25.760697">
<time>2020-09-13T10:28:54Z</time>
</trkpt>
<trkpt lat="61.028968" lon="25.76053">
<time>2020-09-13T10:28:55Z</time>
</trkpt>
<trkpt lat="61.028925" lon="25.760371">
<time>2020-09-13T10:28:56Z</time>
</trkpt>
<trkpt lat="61.028878" lon="25.76022">
<time>2020-09-13T10:28:57Z</time>
</trkpt>
<trkpt lat="61.028832" lon="25.760078">
<time>2020-09-13T10:28:58Z</time>
</trkpt>
<trkpt lat="61.028786" lon="25.759941">
<time>2020-09-13T10:28:59Z</time>
</trkpt>
<trkpt lat="61.028742" lon="25.7598">
<time>2020-09-13T10:29:00Z</time>
</trkpt>
<trkpt lat="61.028699" lon="25.759653">
<time>2020-09-13T10:29:01Z</time>
</trkpt>
<trkpt lat="61.028659" lon="25.759493">
<time>2020-09-13T10:29:02Z</time>
</trkpt>
<trkpt lat="61.028621" lon="25.759329">
<time>2020-09-13T10:29:03Z</time>
</trkpt>
<trkpt lat="61.028582" lon="25.759164">
<time>2020-09-13T10:29:04Z</time>
</trkpt>
<trkpt lat="61.028537" lon="25.759006">
<time>2020-09-13T10:29:05Z</time>
</trkpt>
<trkpt lat="61.028484" lon="25.758861">
<time>2020-09-13T10:29:06Z</time>
</trkpt>
<trkpt lat="61.028427" lon="25.758733">
<time>2020-09-13T10:29:07Z</time>
</trkpt>
<trkpt lat="61.028357" lon="25.758631">
<time>2020-09-13T10:29:08Z</time>
</trkpt>
<trkpt lat="61.028287" lon="25.758541">
<time>2020-09-13T10:29:09Z</time>
</trkpt>
<trkpt lat="61.028225" lon="25.758438">
<time>2020-09-13T10:29:10Z</time>
</trkpt>
<trkpt lat="61.028187" lon="25.758303">
<time>2020-09-13T10:29:11Z</time>
</trkpt>
<trkpt lat="61.028168" lon="25.75815">
<time>2020-09-13T10:29:12Z</time>
</trkpt>
<trkpt lat="61.028161" lon="25.757996">
<time>2020-09-13T10:29:13Z</time>
</trkpt>
<trkpt lat="61.028158" lon="25.757851">
<time>2020-09-13T10:29:14Z</time>
</trkpt>
<trkpt lat="61.028158" lon="25.757706">
<time>2020-09-13T10:29:15Z</time>
</trkpt>
<trkpt lat="61.028163" lon="25.757559">
<time>2020-09-13T10:29:16Z</time>
</trkpt>
<trkpt lat="61.028172" lon="25.757408">
<time>2020-09-13T10:29:17Z</time>
</trkpt>
<trkpt lat="61.028182" lon="25.757256">
<time>2020-09-13T10:29:18Z</time>
</trkpt>
<trkpt lat="61.028193" lon="25.757102">
<time>2020-09-13T10:29:19Z</time>
</trkpt>
<trkpt lat="61.028206" lon="25.756949">
<time>2020-09-13T10:29:20Z</time>
</trkpt>
<trkpt lat="61.028219" lon="25.756796">
<time>2020-09-13T10:29:21Z</time>
</trkpt>
<trkpt lat="61.028231" lon="25.756645">
<time>2020-09-13T10:29:22Z</time>
</trkpt>
<trkpt lat="61.028247" lon="25.756498">
<time>2020-09-13T10:29:23Z</time>
</trkpt>
<trkpt lat="61.028269" lon="25.756357">
<time>2020-09-13T10:29:24Z</time>
</trkpt>
<trkpt lat="61.028305" lon="25.756221">
<time>2020-09-13T10:29:25Z</time>
</trkpt>
<trkpt lat="61.028351" lon="25.75609">
<time>2020-09-13T10:29:26Z</time>
</trkpt>
<trkpt lat="61.028405" lon="25.755959">
<time>2020-09-13T10:29:27Z</time>
</trkpt>
<trkpt lat="61.028461" lon="25.755815">
<time>2020-09-13T10:29:28Z</time>
</trkpt>
<trkpt lat="61.028515" lon="25.755658">
<time>2020-09-13T10:29:29Z</time>
</trkpt>
<trkpt lat="61.028561" lon="25.755491">
<time>2020-09-13T10:29:30Z</time>
</trkpt>
<trkpt lat="61.028598" lon="25.755328">
<time>2020-09-13T10:29:31Z</time>
</trkpt>
<trkpt lat="61.02863" lon="25.755176">
<time>2020-09-13T10:29:32Z</time>
</trkpt>
<trkpt lat="61.028655" lon="25.755035">
<time>2020-09-13T10:29:33Z</time>
</trkpt>
<trkpt lat="61.02867" lon="25.754906">
<time>2020-09-13T10:29:34Z</time>
</trkpt>
<trkpt lat="61.028677" lon="25.754783">
<time>2020-09-13T10:29:35Z</time>
</trkpt>
<trkpt lat="61.028678" lon="25.754662">
<time>2020-09-13T10:29:36Z</time>
</trkpt>
<trkpt lat="61.028679" lon="25.754543">
<time>2020-09-13T10:29:37Z</time>
</trkpt>
<trkpt lat="61.02867" lon="25.754433">
<time>2020-09-13T10:29:38Z</time>
</trkpt>
<trkpt lat="61.028656" lon="25.754334">
<time>2020-09-13T10:29:39Z</time>
</trkpt>
<trkpt lat="61.028624" lon="25.754253">
<time>2020-09-13T10:29:40Z</time>
</trkpt>
<trkpt lat="61.028592" lon="25.754183">
<time>2020-09-13T10:29:41Z</time>
</trkpt>
<trkpt lat="61.02856" lon="25.754122">
<time>2020-09-13T10:29:42Z</time>
</trkpt>
<trkpt lat="61.028538" lon="25.754061">
<time>2020-09-13T10:29:43Z</time>
</trkpt>
<trkpt lat="61.028517" lon="25.753996">
<time>2020-09-13T10:29:44Z</time>
</trkpt>
<trkpt lat="61.028498" lon="25.753928">
<time>2020-09-13T10:29:45Z</time>
</trkpt>
<trkpt lat="61.02848" lon="25.753856">
<time>2020-09-13T10:29:46Z</time>
</trkpt>
<trkpt lat="61.028464" lon="25.75378">
<time>2020-09-13T10:29:47Z</time>
</trkpt>
<trkpt lat="61.028447" lon="25.753701">
<time>2020-09-13T10:29:48Z</time>
</trkpt>
<trkpt lat="61.028432" lon="25.753621">
<time>2020-09-13T10:29:49Z</time>
</trkpt>
<trkpt lat="61.028419" lon="25.753542">
<time>2020-09-13T10:29:50Z</time>
</trkpt>
<trkpt lat="61.028408" lon="25.753465">
<time>2020-09-13T10:29:51Z</time>
</trkpt>
<trkpt lat="61.028398" lon="25.753389">
<time>2020-09-13T10:29:52Z</time>
</trkpt>
<trkpt lat="61.028387" lon="25.753315">
<time>2020-09-13T10:29:53Z</time>
</trkpt>
<trkpt lat="61.028376" lon="25.75324">
<time>2020-09-13T10:29:54Z</time>
</trkpt>
<trkpt lat="61.028364" lon="25.753164">
<time>2020-09-13T10:29:55Z</time>
</trkpt>
<trkpt lat="61.028352" lon="25.75309">
<time>2020-09-13T10:29:56Z</time>
</trkpt>
<trkpt lat="61.028337" lon="25.753016">
<time>2020-09-13T10:29:57Z</time>
</trkpt>
<trkpt lat="61.028312" lon="25.752944">
<time>2020-09-13T10:29:58Z</time>
</trkpt>
<trkpt lat="61.028281" lon="25.752872">
<time>2020-09-13T10:29:59Z</time>
</trkpt>
<trkpt lat="61.028247" lon="25.752802">
<time>2020-09-13T10:30:00Z</time>
</trkpt>
<trkpt lat="61.028214" lon="25.752735">
<time>2020-09-13T10:30:01Z</time>
</trkpt>
<trkpt lat="61.028181" lon="25.752672">
<time>2020-09-13T10:30:02Z</time>
</trkpt>
<trkpt lat="61.028146" lon="25.752606">
<time>2020-09-13T10:30:03Z</time>
</trkpt>
<trkpt lat="61.028117" lon="25.752532">
<time>2020-09-13T10:30:04Z</time>
</trkpt>
<trkpt lat="61.028091" lon="25.752449">
<time>2020-09-13T10:30:05Z</time>
</trkpt>
<trkpt lat="61.028073" lon="25.752357">
<time>2020-09-13T10:30:06Z</time>
</trkpt>
<trkpt lat="61.028062" lon="25.75226">
<time>2020-09-13T10:30:07Z</time>
</trkpt>
<trkpt lat="61.028054" lon="25.752161">
<time>2020-09-13T10:30:08Z</time>
</trkpt>
<trkpt lat="61.028043" lon="25.752065">
<time>2020-09-13T10:30:09Z</time>
</trkpt>
<trkpt lat="61.028025" lon="25.751972">
<time>2020-09-13T10:30:10Z</time>
</trkpt>
<trkpt lat="61.028004" lon="25.75188">
<time>2020-09-13T10:30:11Z</time>
</trkpt>
<trkpt lat="61.02798" lon="25.751791">
<time>2020-09-13T10:30:12Z</time>
</trkpt>
<trkpt lat="61.027954" lon="25.751706">
<time>2020-09-13T10:30:13Z</time>
</trkpt>
<trkpt lat="61.027921" lon="25.751625">
<time>2020-09-13T10:30:14Z</time>
</trkpt>
<trkpt lat="61.027887" lon="25.751543">
<time>2020-09-13T10:30:15Z</time>
</trkpt>
<trkpt lat="61.027851" lon="25.751464">
<time>2020-09-13T10:30:16Z</time>
</trkpt>
<trkpt lat="61.02782" lon="25.751378">
<time>2020-09-13T10:30:17Z</time>
</trkpt>
<trkpt lat="61.027793" lon="25.751291">
<time>2020-09-13T10:30:18Z</time>
</trkpt>
<trkpt lat="61.027775" lon="25.751202">
<time>2020-09-13T10:30:19Z</time>
</trkpt>
<trkpt lat="61.02776" lon="25.751122">
<time>2020-09-13T10:30:20Z</time>
</trkpt>
<trkpt lat="61.027748" lon="25.751053">
<time>2020-09-13T10:30:21Z</time>
</trkpt>
<trkpt lat="61.027736" lon="25.751008">
<time>2020-09-13T10:30:22Z</time>
</trkpt>
<trkpt lat="61.027728" lon="25.750995">
<time>2020-09-13T10:30:23Z</time>
</trkpt>
<trkpt lat="61.027724" lon="25.750997">
<time>2020-09-13T10:30:24Z</time>
</trkpt>
<trkpt lat="61.027722" lon="25.751005">
<time>2020-09-13T10:30:25Z</time>
</trkpt>
<trkpt lat="61.027722" lon="25.751005">
<time>2020-09-13T10:30:26Z</time>
</trkpt>
<trkpt lat="61.027722" lon="25.751007">
<time>2020-09-13T10:30:27Z</time>
</trkpt>
<trkpt lat="61.02772" lon="25.751006">
<time>2020-09-13T10:30:28Z</time>
</trkpt>
<trkpt lat="61.027718" lon="25.751002">
<time>2020-09-13T10:30:29Z</time>
</trkpt>
<trkpt lat="61.027715" lon="25.751">
<time>2020-09-13T10:30:30Z</time>
</trkpt>
<trkpt lat="61.027714" lon="25.751002">
<time>2020-09-13T10:30:31Z</time>
</trkpt>
<trkpt lat="61.027713" lon="25.751004">
<time>2020-09-13T10:30:32Z</time>
</trkpt>
<trkpt lat="61.027713" lon="25.751006">
<time>2020-09-13T10:30:33Z</time>
</trkpt>
<trkpt lat="61.02771" lon="25.751006">
<time>2020-09-13T10:30:34Z</time>
</trkpt>
<trkpt lat="61.027708" lon="25.751008">
<time>2020-09-13T10:30:35Z</time>
</trkpt>
<trkpt lat="61.027708" lon="25.751015">
<time>2020-09-13T10:30:36Z</time>
</trkpt>
<trkpt lat="61.027711" lon="25.75103">
<time>2020-09-13T10:30:37Z</time>
</trkpt>
<trkpt lat="61.027713" lon="25.751061">
<time>2020-09-13T10:30:38Z</time>
</trkpt>
<trkpt lat="61.027713" lon="25.751111">
<time>2020-09-13T10:30:39Z</time>
</trkpt>
<trkpt lat="61.027715" lon="25.751177">
<time>2020-09-13T10:30:40Z</time>
</trkpt>
<trkpt lat="61.027721" lon="25.751249">
<time>2020-09-13T10:30:41Z</time>
</trkpt>
<trkpt lat="61.027733" lon="25.751326">
<time>2020-09-13T10:30:42Z</time>
</trkpt>
<trkpt lat="61.027749" lon="25.751405">
<time>2020-09-13T10:30:43Z</time>
</trkpt>
<trkpt lat="61.02777" lon="25.751485">
<time>2020-09-13T10:30:44Z</time>
</trkpt>
<trkpt lat="61.027795" lon="25.751561">
<time>2020-09-13T10:30:45Z</time>
</trkpt>
<trkpt lat="61.027827" lon="25.751639">
<time>2020-09-13T10:30:46Z</time>
</trkpt>
<trkpt lat="61.027859" lon="25.751727">
<time>2020-09-13T10:30:47Z</time>
</trkpt>
<trkpt lat="61.027887" lon="25.751823">
<time>2020-09-13T10:30:48Z</time>
</trkpt>
<trkpt lat="61.027908" lon="25.751925">
<time>2020-09-13T10:30:49Z</time>
</trkpt>
<trkpt lat="61.027924" lon="25.752028">
<time>2020-09-13T10:30:50Z</time>
</trkpt>
<trkpt lat="61.027932" lon="25.752132">
<time>2020-09-13T10:30:51Z</time>
</trkpt>
<trkpt lat="61.027937" lon="25.752229">
<time>2020-09-13T10:30:52Z</time>
</trkpt>
<trkpt lat="61.027946" lon="25.752321">
<time>2020-09-13T10:30:53Z</time>
</trkpt>
<trkpt lat="61.027966" lon="25.752412">
<time>2020-09-13T10:30:54Z</time>
</trkpt>
<trkpt lat="61.027991" lon="25.752506">
<time>2020-09-13T10:30:55Z</time>
</trkpt>
<trkpt lat="61.028018" lon="25.7526">
<time>2020-09-13T10:30:56Z</time>
</trkpt>
<trkpt lat="61.028048" lon="25.752699">
<time>2020-09-13T10:30:57Z</time>
</trkpt>
<trkpt lat="61.028082" lon="25.752801">
<time>2020-09-13T10:30:58Z</time>
</trkpt>
<trkpt lat="61.028117" lon="25.752912">
<time>2020-09-13T10:30:59Z</time>
</trkpt>
<trkpt lat="61.028146" lon="25.753026">
<time>2020-09-13T10:31:00Z</time>
</trkpt>
<trkpt lat="61.02817" lon="25.753143">
<time>2020-09-13T10:31:01Z</time>
</trkpt>
<trkpt lat="61.028189" lon="25.753263">
<time>2020-09-13T10:31:02Z</time>
</trkpt>
<trkpt lat="61.028208" lon="25.753389">
<time>2020-09-13T10:31:03Z</time>
</trkpt>
<trkpt lat="61.028224" lon="25.75352">
<time>2020-09-13T10:31:04Z</time>
</trkpt>
<trkpt lat="61.028242" lon="25.753659">
<time>2020-09-13T10:31:05Z</time>
</trkpt>
<trkpt lat="61.028266" lon="25.753804">
<time>2020-09-13T10:31:06Z</time>
</trkpt>
<trkpt lat="61.028298" lon="25.753957">
<time>2020-09-13T10:31:07Z</time>
</trkpt>
<trkpt lat="61.02834" lon="25.754111">
<time>2020-09-13T10:31:08Z</time>
</trkpt>
<trkpt lat="61.028382" lon="25.754266">
<time>2020-09-13T10:31:09Z</time>
</trkpt>
<trkpt lat="61.028422" lon="25.754425">
<time>2020-09-13T10:31:10Z</time>
</trkpt>
<trkpt lat="61.028454" lon="25.754596">
<time>2020-09-13T10:31:11Z</time>
</trkpt>
<trkpt lat="61.028484" lon="25.754774">
<time>2020-09-13T10:31:12Z</time>
</trkpt>
<trkpt lat="61.028509" lon="25.754953">
<time>2020-09-13T10:31:13Z</time>
</trkpt>
<trkpt lat="61.028516" lon="25.755128">
<time>2020-09-13T10:31:14Z</time>
</trkpt>
<trkpt lat="61.028513" lon="25.755297">
<time>2020-09-13T10:31:15Z</time>
</trkpt>
<trkpt lat="61.028501" lon="25.755465">
<time>2020-09-13T10:31:16Z</time>
</trkpt>
<trkpt lat="61.028492" lon="25.75563">
<time>2020-09-13T10:31:17Z</time>
</trkpt>
<trkpt lat="61.028458" lon="25.75578">
<time>2020-09-13T10:31:18Z</time>
</trkpt>
<trkpt lat="61.028403" lon="25.755903">
<time>2020-09-13T10:31:19Z</time>
</trkpt>
<trkpt lat="61.028347" lon="25.756005">
<time>2020-09-13T10:31:20Z</time>
</trkpt>
<trkpt lat="61.028306" lon="25.756097">
<time>2020-09-13T10:31:21Z</time>
</trkpt>
<trkpt lat="61.02828" lon="25.756185">
<time>2020-09-13T10:31:22Z</time>
</trkpt>
<trkpt lat="61.028255" lon="25.756265">
<time>2020-09-13T10:31:23Z</time>
</trkpt>
<trkpt lat="61.028237" lon="25.756346">
<time>2020-09-13T10:31:24Z</time>
</trkpt>
<trkpt lat="61.028223" lon="25.756432">
<time>2020-09-13T10:31:25Z</time>
</trkpt>
<trkpt lat="61.028212" lon="25.756523">
<time>2020-09-13T10:31:26Z</time>
</trkpt>
<trkpt lat="61.028197" lon="25.756619">
<time>2020-09-13T10:31:27Z</time>
</trkpt>
<trkpt lat="61.028182" lon="25.75672">
<time>2020-09-13T10:31:28Z</time>
</trkpt>
<trkpt lat="61.028168" lon="25.756829">
<time>2020-09-13T10:31:29Z</time>
</trkpt>
<trkpt lat="61.028156" lon="25.756945">
<time>2020-09-13T10:31:30Z</time>
</trkpt>
<trkpt lat="61.028143" lon="25.757069">
<time>2020-09-13T10:31:31Z</time>
</trkpt>
<trkpt lat="61.028128" lon="25.757198">
<time>2020-09-13T10:31:32Z</time>
</trkpt>
<trkpt lat="61.028115" lon="25.757329">
<time>2020-09-13T10:31:33Z</time>
</trkpt>
<trkpt lat="61.028103" lon="25.757461">
<time>2020-09-13T10:31:34Z</time>
</trkpt>
<trkpt lat="61.028093" lon="25.757589">
<time>2020-09-13T10:31:35Z</time>
</trkpt>
<trkpt lat="61.028086" lon="25.757715">
<time>2020-09-13T10:31:36Z</time>
</trkpt>
<trkpt lat="61.028077" lon="25.757839">
<time>2020-09-13T10:31:37Z</time>
</trkpt>
<trkpt lat="61.02807" lon="25.757966">
<time>2020-09-13T10:31:38Z</time>
</trkpt>
<trkpt lat="61.028064" lon="25.758096">
<time>2020-09-13T10:31:39Z</time>
</trkpt>
<trkpt lat="61.028052" lon="25.758225">
<time>2020-09-13T10:31:40Z</time>
</trkpt>
<trkpt lat="61.028031" lon="25.758346">
<time>2020-09-13T10:31:41Z</time>
</trkpt>
<trkpt lat="61.027998" lon="25.758454">
<time>2020-09-13T10:31:42Z</time>
</trkpt>
<trkpt lat="61.027965" lon="25.758544">
<time>2020-09-13T10:31:43Z</time>
</trkpt>
<trkpt lat="61.027933" lon="25.758604">
<time>2020-09-13T10:31:44Z</time>
</trkpt>
<trkpt lat="61.027897" lon="25.758637">
<time>2020-09-13T10:31:45Z</time>
</trkpt>
<trkpt lat="61.027857" lon="25.758651">
<time>2020-09-13T10:31:46Z</time>
</trkpt>
<trkpt lat="61.027809" lon="25.75866">
<time>2020-09-13T10:31:47Z</time>
</trkpt>
<trkpt lat="61.027758" lon="25.758662">
<time>2020-09-13T10:31:48Z</time>
</trkpt>
<trkpt lat="61.027699" lon="25.758651">
<time>2020-09-13T10:31:49Z</time>
</trkpt>
<trkpt lat="61.027636" lon="25.758636">
<time>2020-09-13T10:31:50Z</time>
</trkpt>
<trkpt lat="61.027571" lon="25.758625">
<time>2020-09-13T10:31:51Z</time>
</trkpt>
<trkpt lat="61.027506" lon="25.758621">
<time>2020-09-13T10:31:52Z</time>
</trkpt>
<trkpt lat="61.02744" lon="25.758609">
<time>2020-09-13T10:31:53Z</time>
</trkpt>
<trkpt lat="61.027371" lon="25.758579">
<time>2020-09-13T10:31:54Z</time>
</trkpt>
<trkpt lat="61.027299" lon="25.758522">
<time>2020-09-13T10:31:55Z</time>
</trkpt>
<trkpt lat="61.027231" lon="25.758427">
<time>2020-09-13T10:31:56Z</time>
</trkpt>
<trkpt lat="61.027166" lon="25.758293">
<time>2020-09-13T10:31:57Z</time>
</trkpt>
<trkpt lat="61.027109" lon="25.758146">
<time>2020-09-13T10:31:58Z</time>
</trkpt>
<trkpt lat="61.027055" lon="25.757997">
<time>2020-09-13T10:31:59Z</time>
</trkpt>
<trkpt lat="61.027004" lon="25.75786">
<time>2020-09-13T10:32:00Z</time>
</trkpt>
<trkpt lat="61.026955" lon="25.757726">
<time>2020-09-13T10:32:01Z</time>
</trkpt>
<trkpt lat="61.02691" lon="25.757592">
<time>2020-09-13T10:32:02Z</time>
</trkpt>
<trkpt lat="61.026873" lon="25.757456">
<time>2020-09-13T10:32:03Z</time>
</trkpt>
<trkpt lat="61.026842" lon="25.757311">
<time>2020-09-13T10:32:04Z</time>
</trkpt>
<trkpt lat="61.026817" lon="25.757163">
<time>2020-09-13T10:32:05Z</time>
</trkpt>
<trkpt lat="61.026788" lon="25.757013">
<time>2020-09-13T10:32:06Z</time>
</trkpt>
<trkpt lat="61.02676" lon="25.756868">
<time>2020-09-13T10:32:07Z</time>
</trkpt>
<trkpt lat="61.02673" lon="25.756725">
<time>2020-09-13T10:32:08Z</time>
</trkpt>
<trkpt lat="61.026703" lon="25.756588">
<time>2020-09-13T10:32:09Z</time>
</trkpt>
<trkpt lat="61.026679" lon="25.756458">
<time>2020-09-13T10:32:10Z</time>
</trkpt>
<trkpt lat="61.026666" lon="25.756348">
<time>2020-09-13T10:32:11Z</time>
</trkpt>
<trkpt lat="61.026663" lon="25.756279">
<time>2020-09-13T10:32:12Z</time>
</trkpt>
<trkpt lat="61.026664" lon="25.756252">
<time>2020-09-13T10:32:13Z</time>
</trkpt>
<trkpt lat="61.026662" lon="25.756268">
<time>2020-09-13T10:32:14Z</time>
</trkpt>
<trkpt lat="61.026664" lon="25.75631">
<time>2020-09-13T10:32:15Z</time>
</trkpt>
<trkpt lat="61.026676" lon="25.75638">
<time>2020-09-13T10:32:16Z</time>
</trkpt>
<trkpt lat="61.026691" lon="25.756477">
<time>2020-09-13T10:32:17Z</time>
</trkpt>
<trkpt lat="61.026706" lon="25.756598">
<time>2020-09-13T10:32:18Z</time>
</trkpt>
<trkpt lat="61.026722" lon="25.756731">
<time>2020-09-13T10:32:19Z</time>
</trkpt>
<trkpt lat="61.026742" lon="25.756867">
<time>2020-09-13T10:32:20Z</time>
</trkpt>
<trkpt lat="61.026763" lon="25.757">
<time>2020-09-13T10:32:21Z</time>
</trkpt>
<trkpt lat="61.026784" lon="25.757133">
<time>2020-09-13T10:32:22Z</time>
</trkpt>
<trkpt lat="61.026807" lon="25.757263">
<time>2020-09-13T10:32:23Z</time>
</trkpt>
<trkpt lat="61.02683" lon="25.757395">
<time>2020-09-13T10:32:24Z</time>
</trkpt>
<trkpt lat="61.026851" lon="25.757527">
<time>2020-09-13T10:32:25Z</time>
</trkpt>
<trkpt lat="61.026873" lon="25.757658">
<time>2020-09-13T10:32:26Z</time>
</trkpt>
<trkpt lat="61.026896" lon="25.757785">
<time>2020-09-13T10:32:27Z</time>
</trkpt>
<trkpt lat="61.02692" lon="25.75791">
<time>2020-09-13T10:32:28Z</time>
</trkpt>
<trkpt lat="61.026947" lon="25.758031">
<time>2020-09-13T10:32:29Z</time>
</trkpt>
<trkpt lat="61.026975" lon="25.75815">
<time>2020-09-13T10:32:30Z</time>
</trkpt>
<trkpt lat="61.027013" lon="25.758258">
<time>2020-09-13T10:32:31Z</time>
</trkpt>
<trkpt lat="61.027071" lon="25.75835">
<time>2020-09-13T10:32:32Z</time>
</trkpt>
<trkpt lat="61.027146" lon="25.758418">
<time>2020-09-13T10:32:33Z</time>
</trkpt>
<trkpt lat="61.027225" lon="25.758463">
<time>2020-09-13T10:32:34Z</time>
</trkpt>
<trkpt lat="61.027299" lon="25.758478">
<time>2020-09-13T10:32:35Z</time>
</trkpt>
<trkpt lat="61.027371" lon="25.758475">
<time>2020-09-13T10:32:36Z</time>
</trkpt>
<trkpt lat="61.027443" lon="25.758464">
<time>2020-09-13T10:32:37Z</time>
</trkpt>
<trkpt lat="61.02751" lon="25.758467">
<time>2020-09-13T10:32:38Z</time>
</trkpt>
<trkpt lat="61.027574" lon="25.758476">
<time>2020-09-13T10:32:39Z</time>
</trkpt>
<trkpt lat="61.027636" lon="25.758486">
<time>2020-09-13T10:32:40Z</time>
</trkpt>
<trkpt lat="61.027695" lon="25.758494">
<time>2020-09-13T10:32:41Z</time>
</trkpt>
<trkpt lat="61.027751" lon="25.758496">
<time>2020-09-13T10:32:42Z</time>
</trkpt>
<trkpt lat="61.027811" lon="25.7585">
<time>2020-09-13T10:32:43Z</time>
</trkpt>
<trkpt lat="61.027873" lon="25.758502">
<time>2020-09-13T10:32:44Z</time>
</trkpt>
<trkpt lat="61.027941" lon="25.758505">
<time>2020-09-13T10:32:45Z</time>
</trkpt>
<trkpt lat="61.028007" lon="25.758506">
<time>2020-09-13T10:32:46Z</time>
</trkpt>
<trkpt lat="61.028072" lon="25.758511">
<time>2020-09-13T10:32:47Z</time>
</trkpt>
<trkpt lat="61.028134" lon="25.758526">
<time>2020-09-13T10:32:48Z</time>
</trkpt>
<trkpt lat="61.028196" lon="25.75855">
<time>2020-09-13T10:32:49Z</time>
</trkpt>
<trkpt lat="61.028255" lon="25.758584">
<time>2020-09-13T10:32:50Z</time>
</trkpt>
<trkpt lat="61.028308" lon="25.75864">
<time>2020-09-13T10:32:51Z</time>
</trkpt>
<trkpt lat="61.028354" lon="25.758712">
<time>2020-09-13T10:32:52Z</time>
</trkpt>
<trkpt lat="61.028397" lon="25.758797">
<time>2020-09-13T10:32:53Z</time>
</trkpt>
<trkpt lat="61.028439" lon="25.758884">
<time>2020-09-13T10:32:54Z</time>
</trkpt>
<trkpt lat="61.028476" lon="25.75898">
<time>2020-09-13T10:32:55Z</time>
</trkpt>
<trkpt lat="61.028508" lon="25.759084">
<time>2020-09-13T10:32:56Z</time>
</trkpt>
<trkpt lat="61.028536" lon="25.759191">
<time>2020-09-13T10:32:57Z</time>
</trkpt>
<trkpt lat="61.028565" lon="25.759297">
<time>2020-09-13T10:32:58Z</time>
</trkpt>
<trkpt lat="61.028594" lon="25.7594">
<time>2020-09-13T10:32:59Z</time>
</trkpt>
<trkpt lat="61.028618" lon="25.759503">
<time>2020-09-13T10:33:00Z</time>
</trkpt>
<trkpt lat="61.028635" lon="25.759605">
<time>2020-09-13T10:33:01Z</time>
</trkpt>
<trkpt lat="61.028637" lon="25.759707">
<time>2020-09-13T10:33:02Z</time>
</trkpt>
<trkpt lat="61.028632" lon="25.759802">
<time>2020-09-13T10:33:03Z</time>
</trkpt>
<trkpt lat="61.028615" lon="25.759885">
<time>2020-09-13T10:33:04Z</time>
</trkpt>
<trkpt lat="61.028599" lon="25.759955">
<time>2020-09-13T10:33:05Z</time>
</trkpt>
<trkpt lat="61.028579" lon="25.760011">
<time>2020-09-13T10:33:06Z</time>
</trkpt>
<trkpt lat="61.028559" lon="25.760055">
<time>2020-09-13T10:33:07Z</time>
</trkpt>
<trkpt lat="61.028534" lon="25.760094">
<time>2020-09-13T10:33:08Z</time>
</trkpt>
<trkpt lat="61.028504" lon="25.760124">
<time>2020-09-13T10:33:09Z</time>
</trkpt>
<trkpt lat="61.028474" lon="25.760151">
<time>2020-09-13T10:33:10Z</time>
</trkpt>
<trkpt lat="61.028451" lon="25.760165">
<time>2020-09-13T10:33:11Z</time>
</trkpt>
<trkpt lat="61.028441" lon="25.760169">
<time>2020-09-13T10:33:12Z</time>
</trkpt>
<trkpt lat="61.028446" lon="25.760157">
<time>2020-09-13T10:33:13Z</time>
</trkpt>
<trkpt lat="61.028465" lon="25.760137">
<time>2020-09-13T10:33:14Z</time>
</trkpt>
<trkpt lat="61.028486" lon="25.760118">
<time>2020-09-13T10:33:15Z</time>
</trkpt>
<trkpt lat="61.028506" lon="25.760102">
<time>2020-09-13T10:33:16Z</time>
</trkpt>
<trkpt lat="61.028523" lon="25.760082">
<time>2020-09-13T10:33:17Z</time>
</trkpt>
<trkpt lat="61.028542" lon="25.760061">
<time>2020-09-13T10:33:18Z</time>
</trkpt>
<trkpt lat="61.028563" lon="25.760036">
<time>2020-09-13T10:33:19Z</time>
</trkpt>
<trkpt lat="61.028584" lon="25.760011">
<time>2020-09-13T10:33:20Z</time>
</trkpt>
<trkpt lat="61.02861" lon="25.759993">
<time>2020-09-13T10:33:21Z</time>
</trkpt>
<trkpt lat="61.028642" lon="25.759991">
<time>2020-09-13T10:33:22Z</time>
</trkpt>
<trkpt lat="61.028677" lon="25.760026">
<time>2020-09-13T10:33:23Z</time>
</trkpt>
<trkpt lat="61.028711" lon="25.76008">
<time>2020-09-13T10:33:24Z</time>
</trkpt>
<trkpt lat="61.028743" lon="25.760144">
<time>2020-09-13T10:33:25Z</time>
</trkpt>
<trkpt lat="61.028772" lon="25.760206">
<time>2020-09-13T10:33:26Z</time>
</trkpt>
<trkpt lat="61.0288" lon="25.76028">
<time>2020-09-13T10:33:27Z</time>
</trkpt>
<trkpt lat="61.028828" lon="25.760368">
<time>2020-09-13T10:33:28Z</time>
</trkpt>
<trkpt lat="61.028858" lon="25.760466">
<time>2020-09-13T10:33:29Z</time>
</trkpt>
<trkpt lat="61.028889" lon="25.760571">
<time>2020-09-13T10:33:30Z</time>
</trkpt>
<trkpt lat="61.028921" lon="25.760681">
<time>2020-09-13T10:33:31Z</time>
</trkpt>
<trkpt lat="61.028953" lon="25.760795">
<time>2020-09-13T10:33:32Z</time>
</trkpt>
<trkpt lat="61.028984" lon="25.760909">
<time>2020-09-13T10:33:33Z</time>
</trkpt>
<trkpt lat="61.029014" lon="25.761022">
<time>2020-09-13T10:33:34Z</time>
</trkpt>
<trkpt lat="61.029039" lon="25.761133">
<time>2020-09-13T10:33:35Z</time>
</trkpt>
<trkpt lat="61.029059" lon="25.761245">
<time>2020-09-13T10:33:36Z</time>
</trkpt>
<trkpt lat="61.029077" lon="25.761352">
<time>2020-09-13T10:33:37Z</time>
</trkpt>
<trkpt lat="61.029091" lon="25.761456">
<time>2020-09-13T10:33:38Z</time>
</trkpt>
<trkpt lat="61.029103" lon="25.761555">
<time>2020-09-13T10:33:39Z</time>
</trkpt>
<trkpt lat="61.029114" lon="25.761653">
<time>2020-09-13T10:33:40Z</time>
</trkpt>
<trkpt lat="61.029124" lon="25.761749">
<time>2020-09-13T10:33:41Z</time>
</trkpt>
<trkpt lat="61.029134" lon="25.761843">
<time>2020-09-13T10:33:42Z</time>
</trkpt>
<trkpt lat="61.02914" lon="25.761937">
<time>2020-09-13T10:33:43Z</time>
</trkpt>
<trkpt lat="61.029145" lon="25.762031">
<time>2020-09-13T10:33:44Z</time>
</trkpt>
<trkpt lat="61.029147" lon="25.762122">
<time>2020-09-13T10:33:45Z</time>
</trkpt>
<trkpt lat="61.029149" lon="25.762211">
<time>2020-09-13T10:33:46Z</time>
</trkpt>
<trkpt lat="61.029152" lon="25.7623">
<time>2020-09-13T10:33:47Z</time>
</trkpt>
<trkpt lat="61.029154" lon="25.762387">
<time>2020-09-13T10:33:48Z</time>
</trkpt>
<trkpt lat="61.029155" lon="25.762474">
<time>2020-09-13T10:33:49Z</time>
</trkpt>
<trkpt lat="61.029156" lon="25.76256">
<time>2020-09-13T10:33:50Z</time>
</trkpt>
<trkpt lat="61.02916" lon="25.762649">
<time>2020-09-13T10:33:51Z</time>
</trkpt>
<trkpt lat="61.029168" lon="25.762741">
<time>2020-09-13T10:33:52Z</time>
</trkpt>
<trkpt lat="61.029176" lon="25.762837">
<time>2020-09-13T10:33:53Z</time>
</trkpt>
<trkpt lat="61.029185" lon="25.762938">
<time>2020-09-13T10:33:54Z</time>
</trkpt>
<trkpt lat="61.029196" lon="25.763045">
<time>2020-09-13T10:33:55Z</time>
</trkpt>
<trkpt lat="61.029207" lon="25.763155">
<time>2020-09-13T10:33:56Z</time>
</trkpt>
<trkpt lat="61.02922" lon="25.763267">
<time>2020-09-13T10:33:57Z</time>
</trkpt>
<trkpt lat="61.029236" lon="25.76338">
<time>2020-09-13T10:33:58Z</time>
</trkpt>
<trkpt lat="61.029252" lon="25.763497">
<time>2020-09-13T10:33:59Z</time>
</trkpt>
<trkpt lat="61.029265" lon="25.763619">
<time>2020-09-13T10:34:00Z</time>
</trkpt>
<trkpt lat="61.029276" lon="25.763743">
<time>2020-09-13T10:34:01Z</time>
</trkpt>
<trkpt lat="61.029288" lon="25.763868">
<time>2020-09-13T10:34:02Z</time>
</trkpt>
<trkpt lat="61.029298" lon="25.763992">
<time>2020-09-13T10:34:03Z</time>
</trkpt>
<trkpt lat="61.029308" lon="25.764114">
<time>2020-09-13T10:34:04Z</time>
</trkpt>
<trkpt lat="61.029318" lon="25.764233">
<time>2020-09-13T10:34:05Z</time>
</trkpt>
<trkpt lat="61.02933" lon="25.76435">
<time>2020-09-13T10:34:06Z</time>
</trkpt>
<trkpt lat="61.029343" lon="25.764464">
<time>2020-09-13T10:34:07Z</time>
</trkpt>
<trkpt lat="61.029356" lon="25.764577">
<time>2020-09-13T10:34:08Z</time>
</trkpt>
<trkpt lat="61.029368" lon="25.764692">
<time>2020-09-13T10:34:09Z</time>
</trkpt>
<trkpt lat="61.02938" lon="25.764809">
<time>2020-09-13T10:34:10Z</time>
</trkpt>
<trkpt lat="61.029391" lon="25.764931">
<time>2020-09-13T10:34:11Z</time>
</trkpt>
<trkpt lat="61.029404" lon="25.765058">
<time>2020-09-13T10:34:12Z</time>
</trkpt>
<trkpt lat="61.029417" lon="25.765188">
<time>2020-09-13T10:34:13Z</time>
</trkpt>
<trkpt lat="61.02943" lon="25.765321">
<time>2020-09-13T10:34:14Z</time>
</trkpt>
<trkpt lat="61.029442" lon="25.765455">
<time>2020-09-13T10:34:15Z</time>
</trkpt>
<trkpt lat="61.029455" lon="25.765591">
<time>2020-09-13T10:34:16Z</time>
</trkpt>
<trkpt lat="61.029467" lon="25.765727">
<time>2020-09-13T10:34:17Z</time>
</trkpt>
<trkpt lat="61.02948" lon="25.765862">
<time>2020-09-13T10:34:18Z</time>
</trkpt>
<trkpt lat="61.029492" lon="25.765995">
<time>2020-09-13T10:34:19Z</time>
</trkpt>
<trkpt lat="61.029507" lon="25.766129">
<time>2020-09-13T10:34:20Z</time>
</trkpt>
<trkpt lat="61.029524" lon="25.766262">
<time>2020-09-13T10:34:21Z</time>
</trkpt>
<trkpt lat="61.029543" lon="25.766395">
<time>2020-09-13T10:34:22Z</time>
</trkpt>
<trkpt lat="61.029561" lon="25.76653">
<time>2020-09-13T10:34:23Z</time>
</trkpt>
<trkpt lat="61.029577" lon="25.76667">
<time>2020-09-13T10:34:24Z</time>
</trkpt>
<trkpt lat="61.029586" lon="25.766814">
<time>2020-09-13T10:34:25Z</time>
</trkpt>
<trkpt lat="61.029592" lon="25.76696">
<time>2020-09-13T10:34:26Z</time>
</trkpt>
<trkpt lat="61.029596" lon="25.767104">
<time>2020-09-13T10:34:27Z</time>
</trkpt>
<trkpt lat="61.029604" lon="25.767247">
<time>2020-09-13T10:34:28Z</time>
</trkpt>
<trkpt lat="61.029614" lon="25.767389">
<time>2020-09-13T10:34:29Z</time>
</trkpt>
<trkpt lat="61.029627" lon="25.76753">
<time>2020-09-13T10:34:30Z</time>
</trkpt>
<trkpt lat="61.029638" lon="25.767669">
<time>2020-09-13T10:34:31Z</time>
</trkpt>
<trkpt lat="61.02965" lon="25.767806">
<time>2020-09-13T10:34:32Z</time>
</trkpt>
<trkpt lat="61.029665" lon="25.767941">
<time>2020-09-13T10:34:33Z</time>
</trkpt>
<trkpt lat="61.029688" lon="25.768078">
<time>2020-09-13T10:34:34Z</time>
</trkpt>
<trkpt lat="61.029714" lon="25.768215">
<time>2020-09-13T10:34:35Z</time>
</trkpt>
<trkpt lat="61.02974" lon="25.768353">
<time>2020-09-13T10:34:36Z</time>
</trkpt>
<trkpt lat="61.029765" lon="25.768491">
<time>2020-09-13T10:34:37Z</time>
</trkpt>
<trkpt lat="61.02979" lon="25.768631">
<time>2020-09-13T10:34:38Z</time>
</trkpt>
<trkpt lat="61.029815" lon="25.768774">
<time>2020-09-13T10:34:39Z</time>
</trkpt>
<trkpt lat="61.029841" lon="25.768917">
<time>2020-09-13T10:34:40Z</time>
</trkpt>
<trkpt lat="61.029867" lon="25.769059">
<time>2020-09-13T10:34:41Z</time>
</trkpt>
<trkpt lat="61.029892" lon="25.769198">
<time>2020-09-13T10:34:42Z</time>
</trkpt>
<trkpt lat="61.029915" lon="25.769337">
<time>2020-09-13T10:34:43Z</time>
</trkpt>
<trkpt lat="61.02994" lon="25.769472">
<time>2020-09-13T10:34:44Z</time>
</trkpt>
<trkpt lat="61.029966" lon="25.769603">
<time>2020-09-13T10:34:45Z</time>
</trkpt>
<trkpt lat="61.029996" lon="25.769731">
<time>2020-09-13T10:34:46Z</time>
</trkpt>
<trkpt lat="61.030025" lon="25.769861">
<time>2020-09-13T10:34:47Z</time>
</trkpt>
<trkpt lat="61.030051" lon="25.769995">
<time>2020-09-13T10:34:48Z</time>
</trkpt>
<trkpt lat="61.030067" lon="25.770138">
<time>2020-09-13T10:34:49Z</time>
</trkpt>
<trkpt lat="61.030077" lon="25.770284">
<time>2020-09-13T10:34:50Z</time>
</trkpt>
<trkpt lat="61.030083" lon="25.770432">
<time>2020-09-13T10:34:51Z</time>
</trkpt>
<trkpt lat="61.030088" lon="25.770581">
<time>2020-09-13T10:34:52Z</time>
</trkpt>
<trkpt lat="61.030092" lon="25.770731">
<time>2020-09-13T10:34:53Z</time>
</trkpt>
<trkpt lat="61.030092" lon="25.770887">
<time>2020-09-13T10:34:54Z</time>
</trkpt>
<trkpt lat="61.030089" lon="25.771047">
<time>2020-09-13T10:34:55Z</time>
</trkpt>
<trkpt lat="61.030085" lon="25.77121">
<time>2020-09-13T10:34:56Z</time>
</trkpt>
<trkpt lat="61.030079" lon="25.771376">
<time>2020-09-13T10:34:57Z</time>
</trkpt>
<trkpt lat="61.030073" lon="25.771544">
<time>2020-09-13T10:34:58Z</time>
</trkpt>
<trkpt lat="61.030065" lon="25.771715">
<time>2020-09-13T10:34:59Z</time>
</trkpt>
<trkpt lat="61.030056" lon="25.771888">
<time>2020-09-13T10:35:00Z</time>
</trkpt>
<trkpt lat="61.030053" lon="25.772057">
<time>2020-09-13T10:35:01Z</time>
</trkpt>
<trkpt lat="61.030056" lon="25.772218">
<time>2020-09-13T10:35:02Z</time>
</trkpt>
<trkpt lat="61.03006" lon="25.772371">
<time>2020-09-13T10:35:03Z</time>
</trkpt>
<trkpt lat="61.030052" lon="25.772515">
<time>2020-09-13T10:35:04Z</time>
</trkpt>
<trkpt lat="61.030029" lon="25.77265">
<time>2020-09-13T10:35:05Z</time>
</trkpt>
<trkpt lat="61.029994" lon="25.772767">
<time>2020-09-13T10:35:06Z</time>
</trkpt>
<trkpt lat="61.029951" lon="25.772843">
<time>2020-09-13T10:35:07Z</time>
</trkpt>
<trkpt lat="61.029905" lon="25.772874">
<time>2020-09-13T10:35:08Z</time>
</trkpt>
<trkpt lat="61.029856" lon="25.77287">
<time>2020-09-13T10:35:09Z</time>
</trkpt>
<trkpt lat="61.029801" lon="25.772848">
<time>2020-09-13T10:35:10Z</time>
</trkpt>
<trkpt lat="61.029739" lon="25.772822">
<time>2020-09-13T10:35:11Z</time>
</trkpt>
<trkpt lat="61.029675" lon="25.772793">
<time>2020-09-13T10:35:12Z</time>
</trkpt>
<trkpt lat="61.029613" lon="25.772768">
<time>2020-09-13T10:35:13Z</time>
</trkpt>
<trkpt lat="61.029554" lon="25.772745">
<time>2020-09-13T10:35:14Z</time>
</trkpt>
<trkpt lat="61.029492" lon="25.772719">
<time>2020-09-13T10:35:15Z</time>
</trkpt>
<trkpt lat="61.02943" lon="25.772694">
<time>2020-09-13T10:35:16Z</time>
</trkpt>
<trkpt lat="61.029367" lon="25.772669">
<time>2020-09-13T10:35:17Z</time>
</trkpt>
<trkpt lat="61.029307" lon="25.772643">
<time>2020-09-13T10:35:18Z</time>
</trkpt>
<trkpt lat="61.029247" lon="25.772617">
<time>2020-09-13T10:35:19Z</time>
</trkpt>
<trkpt lat="61.029184" lon="25.772594">
<time>2020-09-13T10:35:20Z</time>
</trkpt>
<trkpt lat="61.029118" lon="25.772576">
<time>2020-09-13T10:35:21Z</time>
</trkpt>
<trkpt lat="61.029049" lon="25.772558">
<time>2020-09-13T10:35:22Z</time>
</trkpt>
<trkpt lat="61.028979" lon="25.772536">
<time>2020-09-13T10:35:23Z</time>
</trkpt>
<trkpt lat="61.028909" lon="25.772511">
<time>2020-09-13T10:35:24Z</time>
</trkpt>
<trkpt lat="61.02884" lon="25.772486">
<time>2020-09-13T10:35:25Z</time>
</trkpt>
<trkpt lat="61.028772" lon="25.772464">
<time>2020-09-13T10:35:26Z</time>
</trkpt>
<trkpt lat="61.028704" lon="25.772443">
<time>2020-09-13T10:35:27Z</time>
</trkpt>
<trkpt lat="61.028637" lon="25.772422">
<time>2020-09-13T10:35:28Z</time>
</trkpt>
<trkpt lat="61.02857" lon="25.772402">
<time>2020-09-13T10:35:29Z</time>
</trkpt>
<trkpt lat="61.028503" lon="25.772382">
<time>2020-09-13T10:35:30Z</time>
</trkpt>
<trkpt lat="61.028436" lon="25.772361">
<time>2020-09-13T10:35:31Z</time>
</trkpt>
<trkpt lat="61.028369" lon="25.772339">
<time>2020-09-13T10:35:32Z</time>
</trkpt>
<trkpt lat="61.028303" lon="25.772318">
<time>2020-09-13T10:35:33Z</time>
</trkpt>
<trkpt lat="61.028238" lon="25.772297">
<time>2020-09-13T10:35:34Z</time>
</trkpt>
<trkpt lat="61.028173" lon="25.772278">
<time>2020-09-13T10:35:35Z</time>
</trkpt>
<trkpt lat="61.028108" lon="25.772263">
<time>2020-09-13T10:35:36Z</time>
</trkpt>
<trkpt lat="61.028041" lon="25.772253">
<time>2020-09-13T10:35:37Z</time>
</trkpt>
<trkpt lat="61.027975" lon="25.772245">
<time>2020-09-13T10:35:38Z</time>
</trkpt>
<trkpt lat="61.02791" lon="25.772238">
<time>2020-09-13T10:35:39Z</time>
</trkpt>
<trkpt lat="61.027845" lon="25.772229">
<time>2020-09-13T10:35:40Z</time>
</trkpt>
<trkpt lat="61.027778" lon="25.772222">
<time>2020-09-13T10:35:41Z</time>
</trkpt>
<trkpt lat="61.02771" lon="25.772218">
<time>2020-09-13T10:35:42Z</time>
</trkpt>
<trkpt lat="61.027642" lon="25.772218">
<time>2020-09-13T10:35:43Z</time>
</trkpt>
<trkpt lat="61.027572" lon="25.77222">
<time>2020-09-13T10:35:44Z</time>
</trkpt>
<trkpt lat="61.027502" lon="25.772222">
<time>2020-09-13T10:35:45Z</time>
</trkpt>
<trkpt lat="61.027431" lon="25.772223">
<time>2020-09-13T10:35:46Z</time>
</trkpt>
<trkpt lat="61.027359" lon="25.772223">
<time>2020-09-13T10:35:47Z</time>
</trkpt>
<trkpt lat="61.027286" lon="25.772232">
<time>2020-09-13T10:35:48Z</time>
</trkpt>
<trkpt lat="61.02721" lon="25.772256">
<time>2020-09-13T10:35:49Z</time>
</trkpt>
<trkpt lat="61.027132" lon="25.772289">
<time>2020-09-13T10:35:50Z</time>
</trkpt>
<trkpt lat="61.027051" lon="25.772325">
<time>2020-09-13T10:35:51Z</time>
</trkpt>
<trkpt lat="61.02697" lon="25.772361">
<time>2020-09-13T10:35:52Z</time>
</trkpt>
<trkpt lat="61.026889" lon="25.772398">
<time>2020-09-13T10:35:53Z</time>
</trkpt>
<trkpt lat="61.02681" lon="25.772435">
<time>2020-09-13T10:35:54Z</time>
</trkpt>
<trkpt lat="61.026735" lon="25.772473">
<time>2020-09-13T10:35:55Z</time>
</trkpt>
<trkpt lat="61.026663" lon="25.772511">
<time>2020-09-13T10:35:56Z</time>
</trkpt>
<trkpt lat="61.026596" lon="25.772549">
<time>2020-09-13T10:35:57Z</time>
</trkpt>
<trkpt lat="61.026535" lon="25.77259">
<time>2020-09-13T10:35:58Z</time>
</trkpt>
<trkpt lat="61.026477" lon="25.77263">
<time>2020-09-13T10:35:59Z</time>
</trkpt>
<trkpt lat="61.02642" lon="25.772666">
<time>2020-09-13T10:36:00Z</time>
</trkpt>
<trkpt lat="61.02637" lon="25.772704">
<time>2020-09-13T10:36:01Z</time>
</trkpt>
<trkpt lat="61.026328" lon="25.772753">
<time>2020-09-13T10:36:02Z</time>
</trkpt>
<trkpt lat="61.0263" lon="25.772806">
<time>2020-09-13T10:36:03Z</time>
</trkpt>
<trkpt lat="61.026275" lon="25.772861">
<time>2020-09-13T10:36:04Z</time>
</trkpt>
<trkpt lat="61.026251" lon="25.772915">
<time>2020-09-13T10:36:05Z</time>
</trkpt>
<trkpt lat="61.026223" lon="25.772969">
<time>2020-09-13T10:36:06Z</time>
</trkpt>
<trkpt lat="61.026196" lon="25.773021">
<time>2020-09-13T10:36:07Z</time>
</trkpt>
<trkpt lat="61.026171" lon="25.773073">
<time>2020-09-13T10:36:08Z</time>
</trkpt>
<trkpt lat="61.026146" lon="25.773132">
<time>2020-09-13T10:36:09Z</time>
</trkpt>
<trkpt lat="61.026119" lon="25.773203">
<time>2020-09-13T10:36:10Z</time>
</trkpt>
<trkpt lat="61.026092" lon="25.77329">
<time>2020-09-13T10:36:11Z</time>
</trkpt>
<trkpt lat="61.026065" lon="25.773388">
<time>2020-09-13T10:36:12Z</time>
</trkpt>
<trkpt lat="61.026039" lon="25.773486">
<time>2020-09-13T10:36:13Z</time>
</trkpt>
<trkpt lat="61.026013" lon="25.773578">
<time>2020-09-13T10:36:14Z</time>
</trkpt>
<trkpt lat="61.025983" lon="25.773664">
<time>2020-09-13T10:36:15Z</time>
</trkpt>
<trkpt lat="61.025947" lon="25.773737">
<time>2020-09-13T10:36:16Z</time>
</trkpt>
<trkpt lat="61.025906" lon="25.773795">
<time>2020-09-13T10:36:17Z</time>
</trkpt>
<trkpt lat="61.025861" lon="25.773834">
<time>2020-09-13T10:36:18Z</time>
</trkpt>
<trkpt lat="61.02581" lon="25.773869">
<time>2020-09-13T10:36:19Z</time>
</trkpt>
<trkpt lat="61.025757" lon="25.773905">
<time>2020-09-13T10:36:20Z</time>
</trkpt>
<trkpt lat="61.025705" lon="25.773954">
<time>2020-09-13T10:36:21Z</time>
</trkpt>
<trkpt lat="61.025662" lon="25.774006">
<time>2020-09-13T10:36:22Z</time>
</trkpt>
<trkpt lat="61.025623" lon="25.77405">
<time>2020-09-13T10:36:23Z</time>
</trkpt>
<trkpt lat="61.02559" lon="25.774083">
<time>2020-09-13T10:36:24Z</time>
</trkpt>
<trkpt lat="61.02556" lon="25.774103">
<time>2020-09-13T10:36:25Z</time>
</trkpt>
<trkpt lat="61.025538" lon="25.774122">
<time>2020-09-13T10:36:26Z</time>
</trkpt>
<trkpt lat="61.025516" lon="25.774137">
<time>2020-09-13T10:36:27Z</time>
</trkpt>
<trkpt lat="61.025494" lon="25.774156">
<time>2020-09-13T10:36:28Z</time>
</trkpt>
<trkpt lat="61.02547" lon="25.774177">
<time>2020-09-13T10:36:29Z</time>
</trkpt>
<trkpt lat="61.025442" lon="25.774201">
<time>2020-09-13T10:36:30Z</time>
</trkpt>
<trkpt lat="61.025411" lon="25.774227">
<time>2020-09-13T10:36:31Z</time>
</trkpt>
<trkpt lat="61.025382" lon="25.774257">
<time>2020-09-13T10:36:32Z</time>
</trkpt>
<trkpt lat="61.025356" lon="25.774291">
<time>2020-09-13T10:36:33Z</time>
</trkpt>
<trkpt lat="61.02533" lon="25.774334">
<time>2020-09-13T10:36:34Z</time>
</trkpt>
<trkpt lat="61.025303" lon="25.774379">
<time>2020-09-13T10:36:35Z</time>
</trkpt>
<trkpt lat="61.025276" lon="25.774426">
<time>2020-09-13T10:36:36Z</time>
</trkpt>
<trkpt lat="61.025249" lon="25.77447">
<time>2020-09-13T10:36:37Z</time>
</trkpt>
<trkpt lat="61.025219" lon="25.774514">
<time>2020-09-13T10:36:38Z</time>
</trkpt>
<trkpt lat="61.025186" lon="25.774554">
<time>2020-09-13T10:36:39Z</time>
</trkpt>
<trkpt lat="61.02515" lon="25.774587">
<time>2020-09-13T10:36:40Z</time>
</trkpt>
<trkpt lat="61.025116" lon="25.774615">
<time>2020-09-13T10:36:41Z</time>
</trkpt>
<trkpt lat="61.025084" lon="25.774646">
<time>2020-09-13T10:36:42Z</time>
</trkpt>
<trkpt lat="61.025053" lon="25.77467">
<time>2020-09-13T10:36:43Z</time>
</trkpt>
<trkpt lat="61.025023" lon="25.774686">
<time>2020-09-13T10:36:44Z</time>
</trkpt>
<trkpt lat="61.024992" lon="25.774686">
<time>2020-09-13T10:36:45Z</time>
</trkpt>
<trkpt lat="61.024965" lon="25.774673">
<time>2020-09-13T10:36:46Z</time>
</trkpt>
<trkpt lat="61.02494" lon="25.774648">
<time>2020-09-13T10:36:47Z</time>
</trkpt>
<trkpt lat="61.024915" lon="25.774622">
<time>2020-09-13T10:36:48Z</time>
</trkpt>
<trkpt lat="61.02489" lon="25.774601">
<time>2020-09-13T10:36:49Z</time>
</trkpt>
<trkpt lat="61.024863" lon="25.77458">
<time>2020-09-13T10:36:50Z</time>
</trkpt>
<trkpt lat="61.024836" lon="25.77456">
<time>2020-09-13T10:36:51Z</time>
</trkpt>
<trkpt lat="61.024809" lon="25.774546">
<time>2020-09-13T10:36:52Z</time>
</trkpt>
<trkpt lat="61.02478" lon="25.774534">
<time>2020-09-13T10:36:53Z</time>
</trkpt>
<trkpt lat="61.024752" lon="25.774505">
<time>2020-09-13T10:36:54Z</time>
</trkpt>
<trkpt lat="61.024723" lon="25.774465">
<time>2020-09-13T10:36:55Z</time>
</trkpt>
<trkpt lat="61.024695" lon="25.774419">
<time>2020-09-13T10:36:56Z</time>
</trkpt>
<trkpt lat="61.024664" lon="25.774388">
<time>2020-09-13T10:36:57Z</time>
</trkpt>
<trkpt lat="61.024632" lon="25.774361">
<time>2020-09-13T10:36:58Z</time>
</trkpt>
<trkpt lat="61.024604" lon="25.774345">
<time>2020-09-13T10:36:59Z</time>
</trkpt>
<trkpt lat="61.024578" lon="25.774329">
<time>2020-09-13T10:37:00Z</time>
</trkpt>
<trkpt lat="61.024552" lon="25.77432">
<time>2020-09-13T10:37:01Z</time>
</trkpt>
<trkpt lat="61.02452" lon="25.774309">
<time>2020-09-13T10:37:02Z</time>
</trkpt>
<trkpt lat="61.024484" lon="25.774301">
<time>2020-09-13T10:37:03Z</time>
</trkpt>
<trkpt lat="61.02445" lon="25.774291">
<time>2020-09-13T10:37:04Z</time>
</trkpt>
<trkpt lat="61.024417" lon="25.774276">
<time>2020-09-13T10:37:05Z</time>
</trkpt>
<trkpt lat="61.024388" lon="25.774251">
<time>2020-09-13T10:37:06Z</time>
</trkpt>
<trkpt lat="61.024361" lon="25.774218">
<time>2020-09-13T10:37:07Z</time>
</trkpt>
<trkpt lat="61.024335" lon="25.774181">
<time>2020-09-13T10:37:08Z</time>
</trkpt>
<trkpt lat="61.024307" lon="25.774144">
<time>2020-09-13T10:37:09Z</time>
</trkpt>
<trkpt lat="61.024272" lon="25.774108">
<time>2020-09-13T10:37:10Z</time>
</trkpt>
<trkpt lat="61.024237" lon="25.774078">
<time>2020-09-13T10:37:11Z</time>
</trkpt>
<trkpt lat="61.024204" lon="25.774048">
<time>2020-09-13T10:37:12Z</time>
</trkpt>
<trkpt lat="61.024176" lon="25.774014">
<time>2020-09-13T10:37:13Z</time>
</trkpt>
<trkpt lat="61.024148" lon="25.773977">
<time>2020-09-13T10:37:14Z</time>
</trkpt>
<trkpt lat="61.024116" lon="25.773951">
<time>2020-09-13T10:37:15Z</time>
</trkpt>
<trkpt lat="61.024085" lon="25.773931">
<time>2020-09-13T10:37:16Z</time>
</trkpt>
<trkpt lat="61.024054" lon="25.773921">
<time>2020-09-13T10:37:17Z</time>
</trkpt>
<trkpt lat="61.024024" lon="25.773911">
<time>2020-09-13T10:37:18Z</time>
</trkpt>
<trkpt lat="61.023993" lon="25.77391">
<time>2020-09-13T10:37:19Z</time>
</trkpt>
<trkpt lat="61.023957" lon="25.773909">
<time>2020-09-13T10:37:20Z</time>
</trkpt>
<trkpt lat="61.02392" lon="25.773915">
<time>2020-09-13T10:37:21Z</time>
</trkpt>
<trkpt lat="61.023879" lon="25.773912">
<time>2020-09-13T10:37:22Z</time>
</trkpt>
<trkpt lat="61.02384" lon="25.773905">
<time>2020-09-13T10:37:23Z</time>
</trkpt>
<trkpt lat="61.023802" lon="25.773897">
<time>2020-09-13T10:37:24Z</time>
</trkpt>
<trkpt lat="61.023768" lon="25.7739">
<time>2020-09-13T10:37:25Z</time>
</trkpt>
<trkpt lat="61.023735" lon="25.77391">
<time>2020-09-13T10:37:26Z</time>
</trkpt>
<trkpt lat="61.023704" lon="25.77392">
<time>2020-09-13T10:37:27Z</time>
</trkpt>
<trkpt lat="61.023676" lon="25.77392">
<time>2020-09-13T10:37:28Z</time>
</trkpt>
<trkpt lat="61.023649" lon="25.773909">
<time>2020-09-13T10:37:29Z</time>
</trkpt>
<trkpt lat="61.023622" lon="25.773888">
<time>2020-09-13T10:37:30Z</time>
</trkpt>
<trkpt lat="61.023593" lon="25.773864">
<time>2020-09-13T10:37:31Z</time>
</trkpt>
<trkpt lat="61.023563" lon="25.773838">
<time>2020-09-13T10:37:32Z</time>
</trkpt>
<trkpt lat="61.023529" lon="25.773814">
<time>2020-09-13T10:37:33Z</time>
</trkpt>
<trkpt lat="61.023494" lon="25.77379">
<time>2020-09-13T10:37:34Z</time>
</trkpt>
<trkpt lat="61.023459" lon="25.773762">
<time>2020-09-13T10:37:35Z</time>
</trkpt>
<trkpt lat="61.023424" lon="25.773728">
<time>2020-09-13T10:37:36Z</time>
</trkpt>
<trkpt lat="61.023393" lon="25.773692">
<time>2020-09-13T10:37:37Z</time>
</trkpt>
<trkpt lat="61.023361" lon="25.773665">
<time>2020-09-13T10:37:38Z</time>
</trkpt>
<trkpt lat="61.023326" lon="25.773647">
<time>2020-09-13T10:37:39Z</time>
</trkpt>
<trkpt lat="61.023292" lon="25.773634">
<time>2020-09-13T10:37:40Z</time>
</trkpt>
<trkpt lat="61.02326" lon="25.773629">
<time>2020-09-13T10:37:41Z</time>
</trkpt>
<trkpt lat="61.023234" lon="25.773635">
<time>2020-09-13T10:37:42Z</time>
</trkpt>
<trkpt lat="61.023212" lon="25.773647">
<time>2020-09-13T10:37:43Z</time>
</trkpt>
<trkpt lat="61.02319" lon="25.773666">
<time>2020-09-13T10:37:44Z</time>
</trkpt>
<trkpt lat="61.023166" lon="25.773671">
<time>2020-09-13T10:37:45Z</time>
</trkpt>
<trkpt lat="61.023142" lon="25.773661">
<time>2020-09-13T10:37:46Z</time>
</trkpt>
<trkpt lat="61.023117" lon="25.773641">
<time>2020-09-13T10:37:47Z</time>
</trkpt>
<trkpt lat="61.023089" lon="25.773629">
<time>2020-09-13T10:37:48Z</time>
</trkpt>
<trkpt lat="61.023055" lon="25.773635">
<time>2020-09-13T10:37:49Z</time>
</trkpt>
<trkpt lat="61.023019" lon="25.773645">
<time>2020-09-13T10:37:50Z</time>
</trkpt>
<trkpt lat="61.022982" lon="25.773653">
<time>2020-09-13T10:37:51Z</time>
</trkpt>
<trkpt lat="61.022945" lon="25.77365">
<time>2020-09-13T10:37:52Z</time>
</trkpt>
<trkpt lat="61.022907" lon="25.77364">
<time>2020-09-13T10:37:53Z</time>
</trkpt>
<trkpt lat="61.022866" lon="25.773626">
<time>2020-09-13T10:37:54Z</time>
</trkpt>
<trkpt lat="61.022825" lon="25.773606">
<time>2020-09-13T10:37:55Z</time>
</trkpt>
<trkpt lat="61.022781" lon="25.773584">
<time>2020-09-13T10:37:56Z</time>
</trkpt>
<trkpt lat="61.022737" lon="25.773555">
<time>2020-09-13T10:37:57Z</time>
</trkpt>
<trkpt lat="61.022695" lon="25.773524">
<time>2020-09-13T10:37:58Z</time>
</trkpt>
<trkpt lat="61.022656" lon="25.77349">
<time>2020-09-13T10:37:59Z</time>
</trkpt>
<trkpt lat="61.022623" lon="25.773457">
<time>2020-09-13T10:38:00Z</time>
</trkpt>
<trkpt lat="61.02259" lon="25.773438">
<time>2020-09-13T10:38:01Z</time>
</trkpt>
<trkpt lat="61.022559" lon="25.773441">
<time>2020-09-13T10:38:02Z</time>
</trkpt>
<trkpt lat="61.022521" lon="25.773462">
<time>2020-09-13T10:38:03Z</time>
</trkpt>
<trkpt lat="61.022482" lon="25.773493">
<time>2020-09-13T10:38:04Z</time>
</trkpt>
<trkpt lat="61.02244" lon="25.773523">
<time>2020-09-13T10:38:05Z</time>
</trkpt>
<trkpt lat="61.0224" lon="25.773551">
<time>2020-09-13T10:38:06Z</time>
</trkpt>
<trkpt lat="61.02236" lon="25.773576">
<time>2020-09-13T10:38:07Z</time>
</trkpt>
<trkpt lat="61.022319" lon="25.773601">
<time>2020-09-13T10:38:08Z</time>
</trkpt>
<trkpt lat="61.02228" lon="25.773633">
<time>2020-09-13T10:38:09Z</time>
</trkpt>
<trkpt lat="61.022244" lon="25.773677">
<time>2020-09-13T10:38:10Z</time>
</trkpt>
<trkpt lat="61.022214" lon="25.773731">
<time>2020-09-13T10:38:11Z</time>
</trkpt>
<trkpt lat="61.022187" lon="25.773784">
<time>2020-09-13T10:38:12Z</time>
</trkpt>
<trkpt lat="61.022162" lon="25.773831">
<time>2020-09-13T10:38:13Z</time>
</trkpt>
<trkpt lat="61.022136" lon="25.773877">
<time>2020-09-13T10:38:14Z</time>
</trkpt>
<trkpt lat="61.022108" lon="25.773931">
<time>2020-09-13T10:38:15Z</time>
</trkpt>
<trkpt lat="61.022083" lon="25.773991">
<time>2020-09-13T10:38:16Z</time>
</trkpt>
<trkpt lat="61.022061" lon="25.77406">
<time>2020-09-13T10:38:17Z</time>
</trkpt>
<trkpt lat="61.022043" lon="25.77413">
<time>2020-09-13T10:38:18Z</time>
</trkpt>
<trkpt lat="61.022027" lon="25.774196">
<time>2020-09-13T10:38:19Z</time>
</trkpt>
<trkpt lat="61.022011" lon="25.774247">
<time>2020-09-13T10:38:20Z</time>
</trkpt>
<trkpt lat="61.021992" lon="25.774274">
<time>2020-09-13T10:38:21Z</time>
</trkpt>
<trkpt lat="61.02197" lon="25.774273">
<time>2020-09-13T10:38:22Z</time>
</trkpt>
<trkpt lat="61.021951" lon="25.774254">
<time>2020-09-13T10:38:23Z</time>
</trkpt>
<trkpt lat="61.021933" lon="25.774234">
<time>2020-09-13T10:38:24Z</time>
</trkpt>
<trkpt lat="61.021917" lon="25.774224">
<time>2020-09-13T10:38:25Z</time>
</trkpt>
<trkpt lat="61.021894" lon="25.774215">
<time>2020-09-13T10:38:26Z</time>
</trkpt>
<trkpt lat="61.021869" lon="25.774208">
<time>2020-09-13T10:38:27Z</time>
</trkpt>
<trkpt lat="61.021842" lon="25.77421">
<time>2020-09-13T10:38:28Z</time>
</trkpt>
<trkpt lat="61.021816" lon="25.774221">
<time>2020-09-13T10:38:29Z</time>
</trkpt>
<trkpt lat="61.021788" lon="25.774235">
<time>2020-09-13T10:38:30Z</time>
</trkpt>
<trkpt lat="61.021759" lon="25.774247">
<time>2020-09-13T10:38:31Z</time>
</trkpt>
<trkpt lat="61.021732" lon="25.774251">
<time>2020-09-13T10:38:32Z</time>
</trkpt>
<trkpt lat="61.021706" lon="25.774245">
<time>2020-09-13T10:38:33Z</time>
</trkpt>
<trkpt lat="61.02168" lon="25.774229">
<time>2020-09-13T10:38:34Z</time>
</trkpt>
<trkpt lat="61.021652" lon="25.774206">
<time>2020-09-13T10:38:35Z</time>
</trkpt>
<trkpt lat="61.021623" lon="25.774182">
<time>2020-09-13T10:38:36Z</time>
</trkpt>
<trkpt lat="61.021595" lon="25.774159">
<time>2020-09-13T10:38:37Z</time>
</trkpt>
<trkpt lat="61.021575" lon="25.774145">
<time>2020-09-13T10:38:38Z</time>
</trkpt>
<trkpt lat="61.021565" lon="25.774144">
<time>2020-09-13T10:38:39Z</time>
</trkpt>
<trkpt lat="61.02156" lon="25.774148">
<time>2020-09-13T10:38:40Z</time>
</trkpt>
<trkpt lat="61.021553" lon="25.774152">
<time>2020-09-13T10:38:41Z</time>
</trkpt>
<trkpt lat="61.021545" lon="25.774152">
<time>2020-09-13T10:38:42Z</time>
</trkpt>
<trkpt lat="61.021537" lon="25.774149">
<time>2020-09-13T10:38:43Z</time>
</trkpt>
<trkpt lat="61.021532" lon="25.774143">
<time>2020-09-13T10:38:44Z</time>
</trkpt>
<trkpt lat="61.021528" lon="25.774136">
<time>2020-09-13T10:38:45Z</time>
</trkpt>
<trkpt lat="61.021524" lon="25.774132">
<time>2020-09-13T10:38:46Z</time>
</trkpt>
<trkpt lat="61.021519" lon="25.77413">
<time>2020-09-13T10:38:47Z</time>
</trkpt>
<trkpt lat="61.021515" lon="25.77413">
<time>2020-09-13T10:38:48Z</time>
</trkpt>
<trkpt lat="61.021507" lon="25.774147">
<time>2020-09-13T10:38:49Z</time>
</trkpt>
<trkpt lat="61.021494" lon="25.77418">
<time>2020-09-13T10:38:50Z</time>
</trkpt>
<trkpt lat="61.021474" lon="25.774225">
<time>2020-09-13T10:38:51Z</time>
</trkpt>
<trkpt lat="61.021454" lon="25.774272">
<time>2020-09-13T10:38:52Z</time>
</trkpt>
<trkpt lat="61.021433" lon="25.774322">
<time>2020-09-13T10:38:53Z</time>
</trkpt>
<trkpt lat="61.021411" lon="25.774362">
<time>2020-09-13T10:38:54Z</time>
</trkpt>
<trkpt lat="61.021384" lon="25.774388">
<time>2020-09-13T10:38:55Z</time>
</trkpt>
<trkpt lat="61.021354" lon="25.774399">
<time>2020-09-13T10:38:56Z</time>
</trkpt>
<trkpt lat="61.021323" lon="25.774406">
<time>2020-09-13T10:38:57Z</time>
</trkpt>
<trkpt lat="61.021293" lon="25.774406">
<time>2020-09-13T10:38:58Z</time>
</trkpt>
<trkpt lat="61.021259" lon="25.774388">
<time>2020-09-13T10:38:59Z</time>
</trkpt>
<trkpt lat="61.021226" lon="25.774354">
<time>2020-09-13T10:39:00Z</time>
</trkpt>
<trkpt lat="61.021196" lon="25.774306">
<time>2020-09-13T10:39:01Z</time>
</trkpt>
<trkpt lat="61.021172" lon="25.774258">
<time>2020-09-13T10:39:02Z</time>
</trkpt>
<trkpt lat="61.021156" lon="25.774204">
<time>2020-09-13T10:39:03Z</time>
</trkpt>
<trkpt lat="61.021143" lon="25.774145">
<time>2020-09-13T10:39:04Z</time>
</trkpt>
<trkpt lat="61.021134" lon="25.77408">
<time>2020-09-13T10:39:05Z</time>
</trkpt>
<trkpt lat="61.021124" lon="25.774011">
<time>2020-09-13T10:39:06Z</time>
</trkpt>
<trkpt lat="61.021118" lon="25.773938">
<time>2020-09-13T10:39:07Z</time>
</trkpt>
<trkpt lat="61.021112" lon="25.773863">
<time>2020-09-13T10:39:08Z</time>
</trkpt>
<trkpt lat="61.021107" lon="25.773789">
<time>2020-09-13T10:39:09Z</time>
</trkpt>
<trkpt lat="61.021101" lon="25.773716">
<time>2020-09-13T10:39:10Z</time>
</trkpt>
<trkpt lat="61.021097" lon="25.773646">
<time>2020-09-13T10:39:11Z</time>
</trkpt>
<trkpt lat="61.021097" lon="25.773577">
<time>2020-09-13T10:39:12Z</time>
</trkpt>
<trkpt lat="61.021099" lon="25.77351">
<time>2020-09-13T10:39:13Z</time>
</trkpt>
<trkpt lat="61.021097" lon="25.773452">
<time>2020-09-13T10:39:14Z</time>
</trkpt>
<trkpt lat="61.021083" lon="25.77341">
<time>2020-09-13T10:39:15Z</time>
</trkpt>
<trkpt lat="61.021058" lon="25.773388">
<time>2020-09-13T10:39:16Z</time>
</trkpt>
<trkpt lat="61.021026" lon="25.773369">
<time>2020-09-13T10:39:17Z</time>
</trkpt>
<trkpt lat="61.020993" lon="25.773343">
<time>2020-09-13T10:39:18Z</time>
</trkpt>
<trkpt lat="61.020966" lon="25.773303">
<time>2020-09-13T10:39:19Z</time>
</trkpt>
<trkpt lat="61.020939" lon="25.773259">
<time>2020-09-13T10:39:20Z</time>
</trkpt>
<trkpt lat="61.020911" lon="25.773212">
<time>2020-09-13T10:39:21Z</time>
</trkpt>
<trkpt lat="61.020882" lon="25.773166">
<time>2020-09-13T10:39:22Z</time>
</trkpt>
<trkpt lat="61.020854" lon="25.773123">
<time>2020-09-13T10:39:23Z</time>
</trkpt>
<trkpt lat="61.020822" lon="25.773095">
<time>2020-09-13T10:39:24Z</time>
</trkpt>
<trkpt lat="61.020788" lon="25.773074">
<time>2020-09-13T10:39:25Z</time>
</trkpt>
<trkpt lat="61.020752" lon="25.773049">
<time>2020-09-13T10:39:26Z</time>
</trkpt>
<trkpt lat="61.020719" lon="25.773013">
<time>2020-09-13T10:39:27Z</time>
</trkpt>
<trkpt lat="61.020689" lon="25.772971">
<time>2020-09-13T10:39:28Z</time>
</trkpt>
<trkpt lat="61.020665" lon="25.772924">
<time>2020-09-13T10:39:29Z</time>
</trkpt>
<trkpt lat="61.020647" lon="25.77289">
<time>2020-09-13T10:39:30Z</time>
</trkpt>
<trkpt lat="61.020637" lon="25.772875">
<time>2020-09-13T10:39:31Z</time>
</trkpt>
<trkpt lat="61.020629" lon="25.772874">
<time>2020-09-13T10:39:32Z</time>
</trkpt>
<trkpt lat="61.020624" lon="25.772866">
<time>2020-09-13T10:39:33Z</time>
</trkpt>
<trkpt lat="61.020617" lon="25.772855">
<time>2020-09-13T10:39:34Z</time>
</trkpt>
<trkpt lat="61.020607" lon="25.772845">
<time>2020-09-13T10:39:35Z</time>
</trkpt>
<trkpt lat="61.020591" lon="25.772838">
<time>2020-09-13T10:39:36Z</time>
</trkpt>
<trkpt lat="61.020569" lon="25.77282">
<time>2020-09-13T10:39:37Z</time>
</trkpt>
<trkpt lat="61.020544" lon="25.772787">
<time>2020-09-13T10:39:38Z</time>
</trkpt>
<trkpt lat="61.02052" lon="25.772739">
<time>2020-09-13T10:39:39Z</time>
</trkpt>
<trkpt lat="61.020497" lon="25.772688">
<time>2020-09-13T10:39:40Z</time>
</trkpt>
<trkpt lat="61.02047" lon="25.772641">
<time>2020-09-13T10:39:41Z</time>
</trkpt>
<trkpt lat="61.020441" lon="25.772605">
<time>2020-09-13T10:39:42Z</time>
</trkpt>
<trkpt lat="61.020415" lon="25.772561">
<time>2020-09-13T10:39:43Z</time>
</trkpt>
<trkpt lat="61.020396" lon="25.77251">
<time>2020-09-13T10:39:44Z</time>
</trkpt>
<trkpt lat="61.020382" lon="25.772451">
<time>2020-09-13T10:39:45Z</time>
</trkpt>
<trkpt lat="61.020367" lon="25.772395">
<time>2020-09-13T10:39:46Z</time>
</trkpt>
<trkpt lat="61.020349" lon="25.772344">
<time>2020-09-13T10:39:47Z</time>
</trkpt>
<trkpt lat="61.02033" lon="25.772299">
<time>2020-09-13T10:39:48Z</time>
</trkpt>
<trkpt lat="61.020312" lon="25.772263">
<time>2020-09-13T10:39:49Z</time>
</trkpt>
<trkpt lat="61.020295" lon="25.772224">
<time>2020-09-13T10:39:50Z</time>
</trkpt>
<trkpt lat="61.020279" lon="25.772176">
<time>2020-09-13T10:39:51Z</time>
</trkpt>
<trkpt lat="61.020265" lon="25.772119">
<time>2020-09-13T10:39:52Z</time>
</trkpt>
<trkpt lat="61.020252" lon="25.772055">
<time>2020-09-13T10:39:53Z</time>
</trkpt>
<trkpt lat="61.020241" lon="25.771991">
<time>2020-09-13T10:39:54Z</time>
</trkpt>
<trkpt lat="61.020229" lon="25.771924">
<time>2020-09-13T10:39:55Z</time>
</trkpt>
<trkpt lat="61.020205" lon="25.771861">
<time>2020-09-13T10:39:56Z</time>
</trkpt>
<trkpt lat="61.020177" lon="25.771816">
<time>2020-09-13T10:39:57Z</time>
</trkpt>
<trkpt lat="61.020144" lon="25.77178">
<time>2020-09-13T10:39:58Z</time>
</trkpt>
<trkpt lat="61.020113" lon="25.771748">
<time>2020-09-13T10:39:59Z</time>
</trkpt>
<trkpt lat="61.02008" lon="25.771712">
<time>2020-09-13T10:40:00Z</time>
</trkpt>
<trkpt lat="61.020046" lon="25.771676">
<time>2020-09-13T10:40:01Z</time>
</trkpt>
<trkpt lat="61.020011" lon="25.771643">
<time>2020-09-13T10:40:02Z</time>
</trkpt>
<trkpt lat="61.019975" lon="25.771608">
<time>2020-09-13T10:40:03Z</time>
</trkpt>
<trkpt lat="61.019944" lon="25.771578">
<time>2020-09-13T10:40:04Z</time>
</trkpt>
<trkpt lat="61.019916" lon="25.771557">
<time>2020-09-13T10:40:05Z</time>
</trkpt>
<trkpt lat="61.019892" lon="25.771547">
<time>2020-09-13T10:40:06Z</time>
</trkpt>
<trkpt lat="61.019864" lon="25.77155">
<time>2020-09-13T10:40:07Z</time>
</trkpt>
<trkpt lat="61.019833" lon="25.77156">
<time>2020-09-13T10:40:08Z</time>
</trkpt>
<trkpt lat="61.0198" lon="25.771576">
<time>2020-09-13T10:40:09Z</time>
</trkpt>
<trkpt lat="61.019765" lon="25.771597">
<time>2020-09-13T10:40:10Z</time>
</trkpt>
<trkpt lat="61.019729" lon="25.771619">
<time>2020-09-13T10:40:11Z</time>
</trkpt>
<trkpt lat="61.01969" lon="25.771637">
<time>2020-09-13T10:40:12Z</time>
</trkpt>
<trkpt lat="61.019656" lon="25.771647">
<time>2020-09-13T10:40:13Z</time>
</trkpt>
<trkpt lat="61.019625" lon="25.771659">
<time>2020-09-13T10:40:14Z</time>
</trkpt>
<trkpt lat="61.019595" lon="25.771674">
<time>2020-09-13T10:40:15Z</time>
</trkpt>
<trkpt lat="61.019566" lon="25.771693">
<time>2020-09-13T10:40:16Z</time>
</trkpt>
<trkpt lat="61.019535" lon="25.771704">
<time>2020-09-13T10:40:17Z</time>
</trkpt>
<trkpt lat="61.019503" lon="25.771714">
<time>2020-09-13T10:40:18Z</time>
</trkpt>
<trkpt lat="61.019469" lon="25.77172">
<time>2020-09-13T10:40:19Z</time>
</trkpt>
<trkpt lat="61.019434" lon="25.771718">
<time>2020-09-13T10:40:20Z</time>
</trkpt>
<trkpt lat="61.019402" lon="25.771696">
<time>2020-09-13T10:40:21Z</time>
</trkpt>
<trkpt lat="61.019377" lon="25.771653">
<time>2020-09-13T10:40:22Z</time>
</trkpt>
<trkpt lat="61.019358" lon="25.771586">
<time>2020-09-13T10:40:23Z</time>
</trkpt>
<trkpt lat="61.019336" lon="25.771512">
<time>2020-09-13T10:40:24Z</time>
</trkpt>
<trkpt lat="61.019306" lon="25.771451">
<time>2020-09-13T10:40:25Z</time>
</trkpt>
<trkpt lat="61.019268" lon="25.771408">
<time>2020-09-13T10:40:26Z</time>
</trkpt>
<trkpt lat="61.019228" lon="25.771365">
<time>2020-09-13T10:40:27Z</time>
</trkpt>
<trkpt lat="61.019192" lon="25.771306">
<time>2020-09-13T10:40:28Z</time>
</trkpt>
<trkpt lat="61.019154" lon="25.771241">
<time>2020-09-13T10:40:29Z</time>
</trkpt>
<trkpt lat="61.019117" lon="25.771187">
<time>2020-09-13T10:40:30Z</time>
</trkpt>
<trkpt lat="61.019086" lon="25.77115">
<time>2020-09-13T10:40:31Z</time>
</trkpt>
<trkpt lat="61.01907" lon="25.771127">
<time>2020-09-13T10:40:32Z</time>
</trkpt>
<trkpt lat="61.019062" lon="25.77111">
<time>2020-09-13T10:40:33Z</time>
</trkpt>
<trkpt lat="61.019057" lon="25.771096">
<time>2020-09-13T10:40:34Z</time>
</trkpt>
<trkpt lat="61.019052" lon="25.771084">
<time>2020-09-13T10:40:35Z</time>
</trkpt>
<trkpt lat="61.019046" lon="25.771073">
<time>2020-09-13T10:40:36Z</time>
</trkpt>
<trkpt lat="61.019039" lon="25.771062">
<time>2020-09-13T10:40:37Z</time>
</trkpt>
<trkpt lat="61.019032" lon="25.771038">
<time>2020-09-13T10:40:38Z</time>
</trkpt>
<trkpt lat="61.019026" lon="25.771002">
<time>2020-09-13T10:40:39Z</time>
</trkpt>
<trkpt lat="61.01902" lon="25.770957">
<time>2020-09-13T10:40:40Z</time>
</trkpt>
<trkpt lat="61.019012" lon="25.770913">
<time>2020-09-13T10:40:41Z</time>
</trkpt>
<trkpt lat="61.018998" lon="25.770873">
<time>2020-09-13T10:40:42Z</time>
</trkpt>
<trkpt lat="61.018984" lon="25.770842">
<time>2020-09-13T10:40:43Z</time>
</trkpt>
<trkpt lat="61.018973" lon="25.770824">
<time>2020-09-13T10:40:44Z</time>
</trkpt>
<trkpt lat="61.018967" lon="25.770816">
<time>2020-09-13T10:40:45Z</time>
</trkpt>
<trkpt lat="61.018963" lon="25.770814">
<time>2020-09-13T10:40:46Z</time>
</trkpt>
<trkpt lat="61.018959" lon="25.770812">
<time>2020-09-13T10:40:47Z</time>
</trkpt>
<trkpt lat="61.018954" lon="25.770811">
<time>2020-09-13T10:40:48Z</time>
</trkpt>
<trkpt lat="61.018949" lon="25.770809">
<time>2020-09-13T10:40:49Z</time>
</trkpt>
<trkpt lat="61.018946" lon="25.770811">
<time>2020-09-13T10:40:50Z</time>
</trkpt>
<trkpt lat="61.018946" lon="25.77082">
<time>2020-09-13T10:40:51Z</time>
</trkpt>
<trkpt lat="61.018948" lon="25.770841">
<time>2020-09-13T10:40:52Z</time>
</trkpt>
<trkpt lat="61.018951" lon="25.770869">
<time>2020-09-13T10:40:53Z</time>
</trkpt>
<trkpt lat="61.018954" lon="25.770904">
<time>2020-09-13T10:40:54Z</time>
</trkpt>
<trkpt lat="61.018952" lon="25.770945">
<time>2020-09-13T10:40:55Z</time>
</trkpt>
<trkpt lat="61.01894" lon="25.770982">
<time>2020-09-13T10:40:56Z</time>
</trkpt>
<trkpt lat="61.018922" lon="25.771006">
<time>2020-09-13T10:40:57Z</time>
</trkpt>
<trkpt lat="61.018898" lon="25.771016">
<time>2020-09-13T10:40:58Z</time>
</trkpt>
<trkpt lat="61.018877" lon="25.771022">
<time>2020-09-13T10:40:59Z</time>
</trkpt>
<trkpt lat="61.018856" lon="25.771033">
<time>2020-09-13T10:41:00Z</time>
</trkpt>
<trkpt lat="61.018835" lon="25.771045">
<time>2020-09-13T10:41:01Z</time>
</trkpt>
<trkpt lat="61.018809" lon="25.771053">
<time>2020-09-13T10:41:02Z</time>
</trkpt>
<trkpt lat="61.01878" lon="25.771058">
<time>2020-09-13T10:41:03Z</time>
</trkpt>
<trkpt lat="61.018749" lon="25.771066">
<time>2020-09-13T10:41:04Z</time>
</trkpt>
<trkpt lat="61.018715" lon="25.771081">
<time>2020-09-13T10:41:05Z</time>
</trkpt>
<trkpt lat="61.018682" lon="25.771098">
<time>2020-09-13T10:41:06Z</time>
</trkpt>
<trkpt lat="61.018647" lon="25.771114">
<time>2020-09-13T10:41:07Z</time>
</trkpt>
<trkpt lat="61.018613" lon="25.771126">
<time>2020-09-13T10:41:08Z</time>
</trkpt>
<trkpt lat="61.018577" lon="25.771134">
<time>2020-09-13T10:41:09Z</time>
</trkpt>
<trkpt lat="61.018544" lon="25.771136">
<time>2020-09-13T10:41:10Z</time>
</trkpt>
<trkpt lat="61.018515" lon="25.771137">
<time>2020-09-13T10:41:11Z</time>
</trkpt>
<trkpt lat="61.018491" lon="25.771132">
<time>2020-09-13T10:41:12Z</time>
</trkpt>
<trkpt lat="61.018475" lon="25.771129">
<time>2020-09-13T10:41:13Z</time>
</trkpt>
<trkpt lat="61.018463" lon="25.771136">
<time>2020-09-13T10:41:14Z</time>
</trkpt>
<trkpt lat="61.01845" lon="25.771151">
<time>2020-09-13T10:41:15Z</time>
</trkpt>
<trkpt lat="61.01843" lon="25.771169">
<time>2020-09-13T10:41:16Z</time>
</trkpt>
<trkpt lat="61.018402" lon="25.771182">
<time>2020-09-13T10:41:17Z</time>
</trkpt>
<trkpt lat="61.01837" lon="25.771194">
<time>2020-09-13T10:41:18Z</time>
</trkpt>
<trkpt lat="61.018336" lon="25.771214">
<time>2020-09-13T10:41:19Z</time>
</trkpt>
<trkpt lat="61.018308" lon="25.771252">
<time>2020-09-13T10:41:20Z</time>
</trkpt>
<trkpt lat="61.018286" lon="25.771302">
<time>2020-09-13T10:41:21Z</time>
</trkpt>
<trkpt lat="61.018271" lon="25.771348">
<time>2020-09-13T10:41:22Z</time>
</trkpt>
<trkpt lat="61.01826" lon="25.771373">
<time>2020-09-13T10:41:23Z</time>
</trkpt>
<trkpt lat="61.01825" lon="25.771392">
<time>2020-09-13T10:41:24Z</time>
</trkpt>
<trkpt lat="61.018234" lon="25.771416">
<time>2020-09-13T10:41:25Z</time>
</trkpt>
<trkpt lat="61.018216" lon="25.771446">
<time>2020-09-13T10:41:26Z</time>
</trkpt>
<trkpt lat="61.018199" lon="25.771478">
<time>2020-09-13T10:41:27Z</time>
</trkpt>
<trkpt lat="61.018187" lon="25.7715">
<time>2020-09-13T10:41:28Z</time>
</trkpt>
<trkpt lat="61.01818" lon="25.771513">
<time>2020-09-13T10:41:29Z</time>
</trkpt>
<trkpt lat="61.018174" lon="25.771518">
<time>2020-09-13T10:41:30Z</time>
</trkpt>
<trkpt lat="61.018165" lon="25.771527">
<time>2020-09-13T10:41:31Z</time>
</trkpt>
<trkpt lat="61.018155" lon="25.771541">
<time>2020-09-13T10:41:32Z</time>
</trkpt>
<trkpt lat="61.018146" lon="25.771561">
<time>2020-09-13T10:41:33Z</time>
</trkpt>
<trkpt lat="61.018137" lon="25.771585">
<time>2020-09-13T10:41:34Z</time>
</trkpt>
<trkpt lat="61.018124" lon="25.771605">
<time>2020-09-13T10:41:35Z</time>
</trkpt>
<trkpt lat="61.018108" lon="25.771623">
<time>2020-09-13T10:41:36Z</time>
</trkpt>
<trkpt lat="61.01809" lon="25.771642">
<time>2020-09-13T10:41:37Z</time>
</trkpt>
<trkpt lat="61.018068" lon="25.771667">
<time>2020-09-13T10:41:38Z</time>
</trkpt>
<trkpt lat="61.018044" lon="25.771706">
<time>2020-09-13T10:41:39Z</time>
</trkpt>
<trkpt lat="61.018022" lon="25.771756">
<time>2020-09-13T10:41:40Z</time>
</trkpt>
<trkpt lat="61.018008" lon="25.771812">
<time>2020-09-13T10:41:41Z</time>
</trkpt>
<trkpt lat="61.017998" lon="25.77186">
<time>2020-09-13T10:41:42Z</time>
</trkpt>
<trkpt lat="61.01799" lon="25.771898">
<time>2020-09-13T10:41:43Z</time>
</trkpt>
<trkpt lat="61.017979" lon="25.771925">
<time>2020-09-13T10:41:44Z</time>
</trkpt>
<trkpt lat="61.017971" lon="25.771941">
<time>2020-09-13T10:41:45Z</time>
</trkpt>
<trkpt lat="61.017963" lon="25.771952">
<time>2020-09-13T10:41:46Z</time>
</trkpt>
<trkpt lat="61.017956" lon="25.771959">
<time>2020-09-13T10:41:47Z</time>
</trkpt>
<trkpt lat="61.017946" lon="25.771963">
<time>2020-09-13T10:41:48Z</time>
</trkpt>
<trkpt lat="61.01793" lon="25.771965">
<time>2020-09-13T10:41:49Z</time>
</trkpt>
<trkpt lat="61.017908" lon="25.771967">
<time>2020-09-13T10:41:50Z</time>
</trkpt>
<trkpt lat="61.017883" lon="25.771968">
<time>2020-09-13T10:41:51Z</time>
</trkpt>
<trkpt lat="61.017857" lon="25.771961">
<time>2020-09-13T10:41:52Z</time>
</trkpt>
<trkpt lat="61.017827" lon="25.77195">
<time>2020-09-13T10:41:53Z</time>
</trkpt>
<trkpt lat="61.017796" lon="25.77193">
<time>2020-09-13T10:41:54Z</time>
</trkpt>
<trkpt lat="61.017759" lon="25.771903">
<time>2020-09-13T10:41:55Z</time>
</trkpt>
<trkpt lat="61.017716" lon="25.771864">
<time>2020-09-13T10:41:56Z</time>
</trkpt>
<trkpt lat="61.017664" lon="25.771821">
<time>2020-09-13T10:41:57Z</time>
</trkpt>
<trkpt lat="61.017606" lon="25.771779">
<time>2020-09-13T10:41:58Z</time>
</trkpt>
<trkpt lat="61.017551" lon="25.771745">
<time>2020-09-13T10:41:59Z</time>
</trkpt>
<trkpt lat="61.017507" lon="25.771722">
<time>2020-09-13T10:42:00Z</time>
</trkpt>
<trkpt lat="61.017474" lon="25.771712">
<time>2020-09-13T10:42:01Z</time>
</trkpt>
<trkpt lat="61.017454" lon="25.771723">
<time>2020-09-13T10:42:02Z</time>
</trkpt>
<trkpt lat="61.017436" lon="25.771762">
<time>2020-09-13T10:42:03Z</time>
</trkpt>
<trkpt lat="61.017421" lon="25.771824">
<time>2020-09-13T10:42:04Z</time>
</trkpt>
<trkpt lat="61.017404" lon="25.771898">
<time>2020-09-13T10:42:05Z</time>
</trkpt>
<trkpt lat="61.017391" lon="25.771978">
<time>2020-09-13T10:42:06Z</time>
</trkpt>
<trkpt lat="61.017378" lon="25.772064">
<time>2020-09-13T10:42:07Z</time>
</trkpt>
<trkpt lat="61.017365" lon="25.772155">
<time>2020-09-13T10:42:08Z</time>
</trkpt>
<trkpt lat="61.017353" lon="25.772246">
<time>2020-09-13T10:42:09Z</time>
</trkpt>
<trkpt lat="61.017342" lon="25.772334">
<time>2020-09-13T10:42:10Z</time>
</trkpt>
<trkpt lat="61.017332" lon="25.77242">
<time>2020-09-13T10:42:11Z</time>
</trkpt>
<trkpt lat="61.01732" lon="25.772504">
<time>2020-09-13T10:42:12Z</time>
</trkpt>
<trkpt lat="61.017309" lon="25.772584">
<time>2020-09-13T10:42:13Z</time>
</trkpt>
<trkpt lat="61.0173" lon="25.772663">
<time>2020-09-13T10:42:14Z</time>
</trkpt>
<trkpt lat="61.017293" lon="25.772742">
<time>2020-09-13T10:42:15Z</time>
</trkpt>
<trkpt lat="61.017288" lon="25.772819">
<time>2020-09-13T10:42:16Z</time>
</trkpt>
<trkpt lat="61.017283" lon="25.772895">
<time>2020-09-13T10:42:17Z</time>
</trkpt>
<trkpt lat="61.017275" lon="25.772972">
<time>2020-09-13T10:42:18Z</time>
</trkpt>
<trkpt lat="61.017261" lon="25.773054">
<time>2020-09-13T10:42:19Z</time>
</trkpt>
<trkpt lat="61.017233" lon="25.773129">
<time>2020-09-13T10:42:20Z</time>
</trkpt>
<trkpt lat="61.01719" lon="25.773191">
<time>2020-09-13T10:42:21Z</time>
</trkpt>
<trkpt lat="61.017136" lon="25.773237">
<time>2020-09-13T10:42:22Z</time>
</trkpt>
<trkpt lat="61.01708" lon="25.77327">
<time>2020-09-13T10:42:23Z</time>
</trkpt>
<trkpt lat="61.017024" lon="25.773294">
<time>2020-09-13T10:42:24Z</time>
</trkpt>
<trkpt lat="61.016966" lon="25.773313">
<time>2020-09-13T10:42:25Z</time>
</trkpt>
<trkpt lat="61.016906" lon="25.773333">
<time>2020-09-13T10:42:26Z</time>
</trkpt>
<trkpt lat="61.016843" lon="25.773356">
<time>2020-09-13T10:42:27Z</time>
</trkpt>
<trkpt lat="61.016777" lon="25.773381">
<time>2020-09-13T10:42:28Z</time>
</trkpt>
<trkpt lat="61.016709" lon="25.773409">
<time>2020-09-13T10:42:29Z</time>
</trkpt>
<trkpt lat="61.016642" lon="25.773442">
<time>2020-09-13T10:42:30Z</time>
</trkpt>
<trkpt lat="61.016574" lon="25.773482">
<time>2020-09-13T10:42:31Z</time>
</trkpt>
<trkpt lat="61.016505" lon="25.773532">
<time>2020-09-13T10:42:32Z</time>
</trkpt>
<trkpt lat="61.016436" lon="25.773589">
<time>2020-09-13T10:42:33Z</time>
</trkpt>
<trkpt lat="61.016367" lon="25.773653">
<time>2020-09-13T10:42:34Z</time>
</trkpt>
<trkpt lat="61.016299" lon="25.773723">
<time>2020-09-13T10:42:35Z</time>
</trkpt>
<trkpt lat="61.016231" lon="25.773799">
<time>2020-09-13T10:42:36Z</time>
</trkpt>
<trkpt lat="61.016163" lon="25.773876">
<time>2020-09-13T10:42:37Z</time>
</trkpt>
<trkpt lat="61.016094" lon="25.773953">
<time>2020-09-13T10:42:38Z</time>
</trkpt>
<trkpt lat="61.016023" lon="25.77403">
<time>2020-09-13T10:42:39Z</time>
</trkpt>
<trkpt lat="61.01595" lon="25.774108">
<time>2020-09-13T10:42:40Z</time>
</trkpt>
<trkpt lat="61.015876" lon="25.774186">
<time>2020-09-13T10:42:41Z</time>
</trkpt>
<trkpt lat="61.015803" lon="25.77427">
<time>2020-09-13T10:42:42Z</time>
</trkpt>
<trkpt lat="61.015733" lon="25.774364">
<time>2020-09-13T10:42:43Z</time>
</trkpt>
<trkpt lat="61.015669" lon="25.774473">
<time>2020-09-13T10:42:44Z</time>
</trkpt>
<trkpt lat="61.015611" lon="25.774596">
<time>2020-09-13T10:42:45Z</time>
</trkpt>
<trkpt lat="61.01556" lon="25.774729">
<time>2020-09-13T10:42:46Z</time>
</trkpt>
<trkpt lat="61.015515" lon="25.77487">
<time>2020-09-13T10:42:47Z</time>
</trkpt>
<trkpt lat="61.015475" lon="25.775019">
<time>2020-09-13T10:42:48Z</time>
</trkpt>
<trkpt lat="61.015442" lon="25.775174">
<time>2020-09-13T10:42:49Z</time>
</trkpt>
<trkpt lat="61.015414" lon="25.775333">
<time>2020-09-13T10:42:50Z</time>
</trkpt>
<trkpt lat="61.01539" lon="25.775495">
<time>2020-09-13T10:42:51Z</time>
</trkpt>
<trkpt lat="61.015367" lon="25.77566">
<time>2020-09-13T10:42:52Z</time>
</trkpt>
<trkpt lat="61.015346" lon="25.775824">
<time>2020-09-13T10:42:53Z</time>
</trkpt>
<trkpt lat="61.015324" lon="25.775987">
<time>2020-09-13T10:42:54Z</time>
</trkpt>
<trkpt lat="61.015301" lon="25.776148">
<time>2020-09-13T10:42:55Z</time>
</trkpt>
<trkpt lat="61.015277" lon="25.776305">
<time>2020-09-13T10:42:56Z</time>
</trkpt>
<trkpt lat="61.015251" lon="25.77646">
<time>2020-09-13T10:42:57Z</time>
</trkpt>
<trkpt lat="61.015224" lon="25.776614">
<time>2020-09-13T10:42:58Z</time>
</trkpt>
<trkpt lat="61.015197" lon="25.776768">
<time>2020-09-13T10:42:59Z</time>
</trkpt>
<trkpt lat="61.015169" lon="25.776922">
<time>2020-09-13T10:43:00Z</time>
</trkpt>
<trkpt lat="61.015139" lon="25.777076">
<time>2020-09-13T10:43:01Z</time>
</trkpt>
<trkpt lat="61.015107" lon="25.777229">
<time>2020-09-13T10:43:02Z</time>
</trkpt>
<trkpt lat="61.015074" lon="25.777382">
<time>2020-09-13T10:43:03Z</time>
</trkpt>
<trkpt lat="61.015039" lon="25.777535">
<time>2020-09-13T10:43:04Z</time>
</trkpt>
<trkpt lat="61.015002" lon="25.777688">
<time>2020-09-13T10:43:05Z</time>
</trkpt>
<trkpt lat="61.014963" lon="25.777842">
<time>2020-09-13T10:43:06Z</time>
</trkpt>
<trkpt lat="61.014922" lon="25.777997">
<time>2020-09-13T10:43:07Z</time>
</trkpt>
<trkpt lat="61.014882" lon="25.778153">
<time>2020-09-13T10:43:08Z</time>
</trkpt>
<trkpt lat="61.01484" lon="25.778308">
<time>2020-09-13T10:43:09Z</time>
</trkpt>
<trkpt lat="61.014797" lon="25.778464">
<time>2020-09-13T10:43:10Z</time>
</trkpt>
<trkpt lat="61.014752" lon="25.77862">
<time>2020-09-13T10:43:11Z</time>
</trkpt>
<trkpt lat="61.014707" lon="25.778779">
<time>2020-09-13T10:43:12Z</time>
</trkpt>
<trkpt lat="61.01466" lon="25.778943">
<time>2020-09-13T10:43:13Z</time>
</trkpt>
<trkpt lat="61.014613" lon="25.779111">
<time>2020-09-13T10:43:14Z</time>
</trkpt>
<trkpt lat="61.014566" lon="25.779282">
<time>2020-09-13T10:43:15Z</time>
</trkpt>
<trkpt lat="61.014517" lon="25.779453">
<time>2020-09-13T10:43:16Z</time>
</trkpt>
<trkpt lat="61.01447" lon="25.779623">
<time>2020-09-13T10:43:17Z</time>
</trkpt>
<trkpt lat="61.014424" lon="25.779794">
<time>2020-09-13T10:43:18Z</time>
</trkpt>
<trkpt lat="61.014377" lon="25.779964">
<time>2020-09-13T10:43:19Z</time>
</trkpt>
<trkpt lat="61.014328" lon="25.780133">
<time>2020-09-13T10:43:20Z</time>
</trkpt>
<trkpt lat="61.014278" lon="25.780298">
<time>2020-09-13T10:43:21Z</time>
</trkpt>
<trkpt lat="61.014225" lon="25.780461">
<time>2020-09-13T10:43:22Z</time>
</trkpt>
<trkpt lat="61.014172" lon="25.780622">
<time>2020-09-13T10:43:23Z</time>
</trkpt>
<trkpt lat="61.014118" lon="25.780783">
<time>2020-09-13T10:43:24Z</time>
</trkpt>
<trkpt lat="61.014062" lon="25.780942">
<time>2020-09-13T10:43:25Z</time>
</trkpt>
<trkpt lat="61.014003" lon="25.781094">
<time>2020-09-13T10:43:26Z</time>
</trkpt>
<trkpt lat="61.013942" lon="25.781241">
<time>2020-09-13T10:43:27Z</time>
</trkpt>
<trkpt lat="61.013882" lon="25.781384">
<time>2020-09-13T10:43:28Z</time>
</trkpt>
<trkpt lat="61.013822" lon="25.781528">
<time>2020-09-13T10:43:29Z</time>
</trkpt>
<trkpt lat="61.01376" lon="25.781671">
<time>2020-09-13T10:43:30Z</time>
</trkpt>
<trkpt lat="61.01369" lon="25.781804">
<time>2020-09-13T10:43:31Z</time>
</trkpt>
<trkpt lat="61.013614" lon="25.781918">
<time>2020-09-13T10:43:32Z</time>
</trkpt>
<trkpt lat="61.013534" lon="25.782012">
<time>2020-09-13T10:43:33Z</time>
</trkpt>
<trkpt lat="61.013454" lon="25.782094">
<time>2020-09-13T10:43:34Z</time>
</trkpt>
<trkpt lat="61.013372" lon="25.782169">
<time>2020-09-13T10:43:35Z</time>
</trkpt>
<trkpt lat="61.013288" lon="25.782232">
<time>2020-09-13T10:43:36Z</time>
</trkpt>
<trkpt lat="61.013202" lon="25.782282">
<time>2020-09-13T10:43:37Z</time>
</trkpt>
<trkpt lat="61.013115" lon="25.782322">
<time>2020-09-13T10:43:38Z</time>
</trkpt>
<trkpt lat="61.013028" lon="25.782362">
<time>2020-09-13T10:43:39Z</time>
</trkpt>
<trkpt lat="61.012943" lon="25.782404">
<time>2020-09-13T10:43:40Z</time>
</trkpt>
<trkpt lat="61.012861" lon="25.782446">
<time>2020-09-13T10:43:41Z</time>
</trkpt>
<trkpt lat="61.012781" lon="25.782487">
<time>2020-09-13T10:43:42Z</time>
</trkpt>
<trkpt lat="61.012703" lon="25.782524">
<time>2020-09-13T10:43:43Z</time>
</trkpt>
<trkpt lat="61.012628" lon="25.782561">
<time>2020-09-13T10:43:44Z</time>
</trkpt>
<trkpt lat="61.012556" lon="25.782597">
<time>2020-09-13T10:43:45Z</time>
</trkpt>
<trkpt lat="61.012492" lon="25.782643">
<time>2020-09-13T10:43:46Z</time>
</trkpt>
<trkpt lat="61.012444" lon="25.782719">
<time>2020-09-13T10:43:47Z</time>
</trkpt>
<trkpt lat="61.012412" lon="25.782823">
<time>2020-09-13T10:43:48Z</time>
</trkpt>
<trkpt lat="61.012395" lon="25.782943">
<time>2020-09-13T10:43:49Z</time>
</trkpt>
<trkpt lat="61.012399" lon="25.783062">
<time>2020-09-13T10:43:50Z</time>
</trkpt>
<trkpt lat="61.012421" lon="25.783188">
<time>2020-09-13T10:43:51Z</time>
</trkpt>
<trkpt lat="61.012459" lon="25.783325">
<time>2020-09-13T10:43:52Z</time>
</trkpt>
<trkpt lat="61.012494" lon="25.783468">
<time>2020-09-13T10:43:53Z</time>
</trkpt>
<trkpt lat="61.012532" lon="25.783611">
<time>2020-09-13T10:43:54Z</time>
</trkpt>
<trkpt lat="61.01257" lon="25.783755">
<time>2020-09-13T10:43:55Z</time>
</trkpt>
<trkpt lat="61.01261" lon="25.783899">
<time>2020-09-13T10:43:56Z</time>
</trkpt>
<trkpt lat="61.012649" lon="25.784045">
<time>2020-09-13T10:43:57Z</time>
</trkpt>
<trkpt lat="61.012691" lon="25.784188">
<time>2020-09-13T10:43:58Z</time>
</trkpt>
<trkpt lat="61.012738" lon="25.784327">
<time>2020-09-13T10:43:59Z</time>
</trkpt>
<trkpt lat="61.012799" lon="25.784458">
<time>2020-09-13T10:44:00Z</time>
</trkpt>
<trkpt lat="61.01287" lon="25.784582">
<time>2020-09-13T10:44:01Z</time>
</trkpt>
<trkpt lat="61.012951" lon="25.784701">
<time>2020-09-13T10:44:02Z</time>
</trkpt>
<trkpt lat="61.01303" lon="25.784819">
<time>2020-09-13T10:44:03Z</time>
</trkpt>
<trkpt lat="61.013108" lon="25.784937">
<time>2020-09-13T10:44:04Z</time>
</trkpt>
<trkpt lat="61.013186" lon="25.785057">
<time>2020-09-13T10:44:05Z</time>
</trkpt>
<trkpt lat="61.013263" lon="25.785177">
<time>2020-09-13T10:44:06Z</time>
</trkpt>
<trkpt lat="61.01334" lon="25.785298">
<time>2020-09-13T10:44:07Z</time>
</trkpt>
<trkpt lat="61.013418" lon="25.785419">
<time>2020-09-13T10:44:08Z</time>
</trkpt>
<trkpt lat="61.013496" lon="25.785538">
<time>2020-09-13T10:44:09Z</time>
</trkpt>
<trkpt lat="61.013574" lon="25.785657">
<time>2020-09-13T10:44:10Z</time>
</trkpt>
<trkpt lat="61.013651" lon="25.785774">
<time>2020-09-13T10:44:11Z</time>
</trkpt>
<trkpt lat="61.013725" lon="25.785892">
<time>2020-09-13T10:44:12Z</time>
</trkpt>
<trkpt lat="61.013793" lon="25.786015">
<time>2020-09-13T10:44:13Z</time>
</trkpt>
<trkpt lat="61.013847" lon="25.786157">
<time>2020-09-13T10:44:14Z</time>
</trkpt>
<trkpt lat="61.013886" lon="25.78632">
<time>2020-09-13T10:44:15Z</time>
</trkpt>
<trkpt lat="61.013916" lon="25.786497">
<time>2020-09-13T10:44:16Z</time>
</trkpt>
<trkpt lat="61.01394" lon="25.786672">
<time>2020-09-13T10:44:17Z</time>
</trkpt>
<trkpt lat="61.013965" lon="25.786842">
<time>2020-09-13T10:44:18Z</time>
</trkpt>
<trkpt lat="61.013987" lon="25.787011">
<time>2020-09-13T10:44:19Z</time>
</trkpt>
<trkpt lat="61.014009" lon="25.787178">
<time>2020-09-13T10:44:20Z</time>
</trkpt>
<trkpt lat="61.014031" lon="25.787345">
<time>2020-09-13T10:44:21Z</time>
</trkpt>
<trkpt lat="61.014053" lon="25.787514">
<time>2020-09-13T10:44:22Z</time>
</trkpt>
<trkpt lat="61.014076" lon="25.787684">
<time>2020-09-13T10:44:23Z</time>
</trkpt>
<trkpt lat="61.014099" lon="25.787854">
<time>2020-09-13T10:44:24Z</time>
</trkpt>
<trkpt lat="61.01412" lon="25.788023">
<time>2020-09-13T10:44:25Z</time>
</trkpt>
<trkpt lat="61.01414" lon="25.78819">
<time>2020-09-13T10:44:26Z</time>
</trkpt>
<trkpt lat="61.01416" lon="25.788356">
<time>2020-09-13T10:44:27Z</time>
</trkpt>
<trkpt lat="61.01418" lon="25.788521">
<time>2020-09-13T10:44:28Z</time>
</trkpt>
<trkpt lat="61.0142" lon="25.788686">
<time>2020-09-13T10:44:29Z</time>
</trkpt>
<trkpt lat="61.014221" lon="25.78885">
<time>2020-09-13T10:44:30Z</time>
</trkpt>
<trkpt lat="61.014243" lon="25.789014">
<time>2020-09-13T10:44:31Z</time>
</trkpt>
<trkpt lat="61.014266" lon="25.789177">
<time>2020-09-13T10:44:32Z</time>
</trkpt>
<trkpt lat="61.014289" lon="25.789338">
<time>2020-09-13T10:44:33Z</time>
</trkpt>
<trkpt lat="61.014311" lon="25.789496">
<time>2020-09-13T10:44:34Z</time>
</trkpt>
<trkpt lat="61.014331" lon="25.789653">
<time>2020-09-13T10:44:35Z</time>
</trkpt>
<trkpt lat="61.014344" lon="25.789811">
<time>2020-09-13T10:44:36Z</time>
</trkpt>
<trkpt lat="61.014342" lon="25.789969">
<time>2020-09-13T10:44:37Z</time>
</trkpt>
<trkpt lat="61.014322" lon="25.790116">
<time>2020-09-13T10:44:38Z</time>
</trkpt>
<trkpt lat="61.014284" lon="25.790246">
<time>2020-09-13T10:44:39Z</time>
</trkpt>
<trkpt lat="61.014239" lon="25.79036">
<time>2020-09-13T10:44:40Z</time>
</trkpt>
<trkpt lat="61.014184" lon="25.790452">
<time>2020-09-13T10:44:41Z</time>
</trkpt>
<trkpt lat="61.014126" lon="25.79053">
<time>2020-09-13T10:44:42Z</time>
</trkpt>
<trkpt lat="61.014064" lon="25.79059">
<time>2020-09-13T10:44:43Z</time>
</trkpt>
<trkpt lat="61.014003" lon="25.790641">
<time>2020-09-13T10:44:44Z</time>
</trkpt>
<trkpt lat="61.01394" lon="25.790685">
<time>2020-09-13T10:44:45Z</time>
</trkpt>
<trkpt lat="61.013876" lon="25.790725">
<time>2020-09-13T10:44:46Z</time>
</trkpt>
<trkpt lat="61.013808" lon="25.790766">
<time>2020-09-13T10:44:47Z</time>
</trkpt>
<trkpt lat="61.01374" lon="25.790805">
<time>2020-09-13T10:44:48Z</time>
</trkpt>
<trkpt lat="61.013673" lon="25.790851">
<time>2020-09-13T10:44:49Z</time>
</trkpt>
<trkpt lat="61.013618" lon="25.790919">
<time>2020-09-13T10:44:50Z</time>
</trkpt>
<trkpt lat="61.013576" lon="25.791019">
<time>2020-09-13T10:44:51Z</time>
</trkpt>
<trkpt lat="61.013549" lon="25.791142">
<time>2020-09-13T10:44:52Z</time>
</trkpt>
<trkpt lat="61.013544" lon="25.79129">
<time>2020-09-13T10:44:53Z</time>
</trkpt>
<trkpt lat="61.013556" lon="25.791442">
<time>2020-09-13T10:44:54Z</time>
</trkpt>
<trkpt lat="61.01358" lon="25.7916">
<time>2020-09-13T10:44:55Z</time>
</trkpt>
<trkpt lat="61.013604" lon="25.791749">
<time>2020-09-13T10:44:56Z</time>
</trkpt>
<trkpt lat="61.013626" lon="25.791901">
<time>2020-09-13T10:44:57Z</time>
</trkpt>
<trkpt lat="61.013642" lon="25.792057">
<time>2020-09-13T10:44:58Z</time>
</trkpt>
<trkpt lat="61.013646" lon="25.792217">
<time>2020-09-13T10:44:59Z</time>
</trkpt>
<trkpt lat="61.013643" lon="25.792377">
<time>2020-09-13T10:45:00Z</time>
</trkpt>
<trkpt lat="61.013635" lon="25.792535">
<time>2020-09-13T10:45:01Z</time>
</trkpt>
<trkpt lat="61.013633" lon="25.792688">
<time>2020-09-13T10:45:02Z</time>
</trkpt>
<trkpt lat="61.013643" lon="25.792828">
<time>2020-09-13T10:45:03Z</time>
</trkpt>
<trkpt lat="61.013669" lon="25.792941">
<time>2020-09-13T10:45:04Z</time>
</trkpt>
<trkpt lat="61.013718" lon="25.793019">
<time>2020-09-13T10:45:05Z</time>
</trkpt>
<trkpt lat="61.013776" lon="25.793068">
<time>2020-09-13T10:45:06Z</time>
</trkpt>
<trkpt lat="61.013835" lon="25.793104">
<time>2020-09-13T10:45:07Z</time>
</trkpt>
<trkpt lat="61.013887" lon="25.793119">
<time>2020-09-13T10:45:08Z</time>
</trkpt>
<trkpt lat="61.013939" lon="25.793113">
<time>2020-09-13T10:45:09Z</time>
</trkpt>
<trkpt lat="61.013993" lon="25.793098">
<time>2020-09-13T10:45:10Z</time>
</trkpt>
<trkpt lat="61.014048" lon="25.7931">
<time>2020-09-13T10:45:11Z</time>
</trkpt>
<trkpt lat="61.014098" lon="25.793138">
<time>2020-09-13T10:45:12Z</time>
</trkpt>
<trkpt lat="61.014131" lon="25.793219">
<time>2020-09-13T10:45:13Z</time>
</trkpt>
<trkpt lat="61.014149" lon="25.793328">
<time>2020-09-13T10:45:14Z</time>
</trkpt>
<trkpt lat="61.014158" lon="25.793451">
<time>2020-09-13T10:45:15Z</time>
</trkpt>
<trkpt lat="61.01417" lon="25.793567">
<time>2020-09-13T10:45:16Z</time>
</trkpt>
<trkpt lat="61.014182" lon="25.793678">
<time>2020-09-13T10:45:17Z</time>
</trkpt>
<trkpt lat="61.01419" lon="25.793785">
<time>2020-09-13T10:45:18Z</time>
</trkpt>
<trkpt lat="61.014194" lon="25.79389">
<time>2020-09-13T10:45:19Z</time>
</trkpt>
<trkpt lat="61.014187" lon="25.793991">
<time>2020-09-13T10:45:20Z</time>
</trkpt>
<trkpt lat="61.014174" lon="25.794083">
<time>2020-09-13T10:45:21Z</time>
</trkpt>
<trkpt lat="61.014154" lon="25.794161">
<time>2020-09-13T10:45:22Z</time>
</trkpt>
<trkpt lat="61.014129" lon="25.794221">
<time>2020-09-13T10:45:23Z</time>
</trkpt>
<trkpt lat="61.014099" lon="25.794279">
<time>2020-09-13T10:45:24Z</time>
</trkpt>
<trkpt lat="61.01407" lon="25.79434">
<time>2020-09-13T10:45:25Z</time>
</trkpt>
<trkpt lat="61.014043" lon="25.794407">
<time>2020-09-13T10:45:26Z</time>
</trkpt>
<trkpt lat="61.014015" lon="25.794475">
<time>2020-09-13T10:45:27Z</time>
</trkpt>
<trkpt lat="61.013984" lon="25.794552">
<time>2020-09-13T10:45:28Z</time>
</trkpt>
<trkpt lat="61.013951" lon="25.79464">
<time>2020-09-13T10:45:29Z</time>
</trkpt>
<trkpt lat="61.013923" lon="25.794742">
<time>2020-09-13T10:45:30Z</time>
</trkpt>
<trkpt lat="61.013901" lon="25.794853">
<time>2020-09-13T10:45:31Z</time>
</trkpt>
<trkpt lat="61.013883" lon="25.794968">
<time>2020-09-13T10:45:32Z</time>
</trkpt>
<trkpt lat="61.013871" lon="25.795081">
<time>2020-09-13T10:45:33Z</time>
</trkpt>
<trkpt lat="61.013864" lon="25.795195">
<time>2020-09-13T10:45:34Z</time>
</trkpt>
<trkpt lat="61.013864" lon="25.795311">
<time>2020-09-13T10:45:35Z</time>
</trkpt>
<trkpt lat="61.013867" lon="25.795427">
<time>2020-09-13T10:45:36Z</time>
</trkpt>
<trkpt lat="61.013872" lon="25.795543">
<time>2020-09-13T10:45:37Z</time>
</trkpt>
<trkpt lat="61.013872" lon="25.795666">
<time>2020-09-13T10:45:38Z</time>
</trkpt>
<trkpt lat="61.013866" lon="25.795793">
<time>2020-09-13T10:45:39Z</time>
</trkpt>
<trkpt lat="61.013855" lon="25.795927">
<time>2020-09-13T10:45:40Z</time>
</trkpt>
<trkpt lat="61.013842" lon="25.796063">
<time>2020-09-13T10:45:41Z</time>
</trkpt>
<trkpt lat="61.013828" lon="25.796203">
<time>2020-09-13T10:45:42Z</time>
</trkpt>
<trkpt lat="61.01381" lon="25.796343">
<time>2020-09-13T10:45:43Z</time>
</trkpt>
<trkpt lat="61.013789" lon="25.796481">
<time>2020-09-13T10:45:44Z</time>
</trkpt>
<trkpt lat="61.013765" lon="25.796622">
<time>2020-09-13T10:45:45Z</time>
</trkpt>
<trkpt lat="61.013737" lon="25.796766">
<time>2020-09-13T10:45:46Z</time>
</trkpt>
<trkpt lat="61.013704" lon="25.796918">
<time>2020-09-13T10:45:47Z</time>
</trkpt>
<trkpt lat="61.013668" lon="25.797078">
<time>2020-09-13T10:45:48Z</time>
</trkpt>
<trkpt lat="61.013632" lon="25.797245">
<time>2020-09-13T10:45:49Z</time>
</trkpt>
<trkpt lat="61.0136" lon="25.797414">
<time>2020-09-13T10:45:50Z</time>
</trkpt>
<trkpt lat="61.013569" lon="25.797582">
<time>2020-09-13T10:45:51Z</time>
</trkpt>
<trkpt lat="61.013537" lon="25.797751">
<time>2020-09-13T10:45:52Z</time>
</trkpt>
<trkpt lat="61.013506" lon="25.797911">
<time>2020-09-13T10:45:53Z</time>
</trkpt>
<trkpt lat="61.013486" lon="25.798057">
<time>2020-09-13T10:45:54Z</time>
</trkpt>
<trkpt lat="61.01348" lon="25.798186">
<time>2020-09-13T10:45:55Z</time>
</trkpt>
<trkpt lat="61.013503" lon="25.798309">
<time>2020-09-13T10:45:56Z</time>
</trkpt>
<trkpt lat="61.013551" lon="25.798419">
<time>2020-09-13T10:45:57Z</time>
</trkpt>
<trkpt lat="61.013636" lon="25.79851">
<time>2020-09-13T10:45:58Z</time>
</trkpt>
<trkpt lat="61.013724" lon="25.798578">
<time>2020-09-13T10:45:59Z</time>
</trkpt>
<trkpt lat="61.013812" lon="25.798627">
<time>2020-09-13T10:46:00Z</time>
</trkpt>
<trkpt lat="61.013887" lon="25.798663">
<time>2020-09-13T10:46:01Z</time>
</trkpt>
<trkpt lat="61.01396" lon="25.798685">
<time>2020-09-13T10:46:02Z</time>
</trkpt>
<trkpt lat="61.014033" lon="25.798702">
<time>2020-09-13T10:46:03Z</time>
</trkpt>
<trkpt lat="61.014104" lon="25.798714">
<time>2020-09-13T10:46:04Z</time>
</trkpt>
<trkpt lat="61.014173" lon="25.798725">
<time>2020-09-13T10:46:05Z</time>
</trkpt>
<trkpt lat="61.01424" lon="25.798735">
<time>2020-09-13T10:46:06Z</time>
</trkpt>
<trkpt lat="61.014311" lon="25.798742">
<time>2020-09-13T10:46:07Z</time>
</trkpt>
<trkpt lat="61.014385" lon="25.798743">
<time>2020-09-13T10:46:08Z</time>
</trkpt>
<trkpt lat="61.014461" lon="25.798741">
<time>2020-09-13T10:46:09Z</time>
</trkpt>
<trkpt lat="61.014536" lon="25.798744">
<time>2020-09-13T10:46:10Z</time>
</trkpt>
<trkpt lat="61.014614" lon="25.798752">
<time>2020-09-13T10:46:11Z</time>
</trkpt>
<trkpt lat="61.014694" lon="25.798764">
<time>2020-09-13T10:46:12Z</time>
</trkpt>
<trkpt lat="61.014778" lon="25.798777">
<time>2020-09-13T10:46:13Z</time>
</trkpt>
<trkpt lat="61.014863" lon="25.798791">
<time>2020-09-13T10:46:14Z</time>
</trkpt>
<trkpt lat="61.014949" lon="25.798808">
<time>2020-09-13T10:46:15Z</time>
</trkpt>
<trkpt lat="61.015034" lon="25.798824">
<time>2020-09-13T10:46:16Z</time>
</trkpt>
<trkpt lat="61.015118" lon="25.79884">
<time>2020-09-13T10:46:17Z</time>
</trkpt>
<trkpt lat="61.0152" lon="25.798854">
<time>2020-09-13T10:46:18Z</time>
</trkpt>
<trkpt lat="61.01528" lon="25.798871">
<time>2020-09-13T10:46:19Z</time>
</trkpt>
<trkpt lat="61.015358" lon="25.798891">
<time>2020-09-13T10:46:20Z</time>
</trkpt>
<trkpt lat="61.015435" lon="25.798915">
<time>2020-09-13T10:46:21Z</time>
</trkpt>
<trkpt lat="61.01551" lon="25.79894">
<time>2020-09-13T10:46:22Z</time>
</trkpt>
<trkpt lat="61.015581" lon="25.798964">
<time>2020-09-13T10:46:23Z</time>
</trkpt>
<trkpt lat="61.015649" lon="25.79899">
<time>2020-09-13T10:46:24Z</time>
</trkpt>
<trkpt lat="61.015715" lon="25.79902">
<time>2020-09-13T10:46:25Z</time>
</trkpt>
<trkpt lat="61.01578" lon="25.79906">
<time>2020-09-13T10:46:26Z</time>
</trkpt>
<trkpt lat="61.015844" lon="25.799103">
<time>2020-09-13T10:46:27Z</time>
</trkpt>
<trkpt lat="61.015907" lon="25.799145">
<time>2020-09-13T10:46:28Z</time>
</trkpt>
<trkpt lat="61.01597" lon="25.799183">
<time>2020-09-13T10:46:29Z</time>
</trkpt>
<trkpt lat="61.016032" lon="25.799217">
<time>2020-09-13T10:46:30Z</time>
</trkpt>
<trkpt lat="61.016094" lon="25.79925">
<time>2020-09-13T10:46:31Z</time>
</trkpt>
<trkpt lat="61.016156" lon="25.799285">
<time>2020-09-13T10:46:32Z</time>
</trkpt>
<trkpt lat="61.016217" lon="25.799322">
<time>2020-09-13T10:46:33Z</time>
</trkpt>
<trkpt lat="61.01628" lon="25.79936">
<time>2020-09-13T10:46:34Z</time>
</trkpt>
<trkpt lat="61.016343" lon="25.799394">
<time>2020-09-13T10:46:35Z</time>
</trkpt>
<trkpt lat="61.016409" lon="25.799423">
<time>2020-09-13T10:46:36Z</time>
</trkpt>
<trkpt lat="61.016476" lon="25.799449">
<time>2020-09-13T10:46:37Z</time>
</trkpt>
<trkpt lat="61.016543" lon="25.799475">
<time>2020-09-13T10:46:38Z</time>
</trkpt>
<trkpt lat="61.016611" lon="25.799503">
<time>2020-09-13T10:46:39Z</time>
</trkpt>
<trkpt lat="61.01668" lon="25.799532">
<time>2020-09-13T10:46:40Z</time>
</trkpt>
<trkpt lat="61.01675" lon="25.799563">
<time>2020-09-13T10:46:41Z</time>
</trkpt>
<trkpt lat="61.016821" lon="25.799595">
<time>2020-09-13T10:46:42Z</time>
</trkpt>
<trkpt lat="61.016892" lon="25.799624">
<time>2020-09-13T10:46:43Z</time>
</trkpt>
<trkpt lat="61.016962" lon="25.799652">
<time>2020-09-13T10:46:44Z</time>
</trkpt>
<trkpt lat="61.017031" lon="25.799679">
<time>2020-09-13T10:46:45Z</time>
</trkpt>
<trkpt lat="61.0171" lon="25.799706">
<time>2020-09-13T10:46:46Z</time>
</trkpt>
<trkpt lat="61.017169" lon="25.799731">
<time>2020-09-13T10:46:47Z</time>
</trkpt>
<trkpt lat="61.017237" lon="25.799755">
<time>2020-09-13T10:46:48Z</time>
</trkpt>
<trkpt lat="61.017306" lon="25.799781">
<time>2020-09-13T10:46:49Z</time>
</trkpt>
<trkpt lat="61.017375" lon="25.799808">
<time>2020-09-13T10:46:50Z</time>
</trkpt>
<trkpt lat="61.017444" lon="25.799836">
<time>2020-09-13T10:46:51Z</time>
</trkpt>
<trkpt lat="61.017514" lon="25.799864">
<time>2020-09-13T10:46:52Z</time>
</trkpt>
<trkpt lat="61.017584" lon="25.79989">
<time>2020-09-13T10:46:53Z</time>
</trkpt>
<trkpt lat="61.017654" lon="25.799915">
<time>2020-09-13T10:46:54Z</time>
</trkpt>
<trkpt lat="61.017723" lon="25.799937">
<time>2020-09-13T10:46:55Z</time>
</trkpt>
<trkpt lat="61.01779" lon="25.799958">
<time>2020-09-13T10:46:56Z</time>
</trkpt>
<trkpt lat="61.017853" lon="25.799987">
<time>2020-09-13T10:46:57Z</time>
</trkpt>
<trkpt lat="61.017915" lon="25.800027">
<time>2020-09-13T10:46:58Z</time>
</trkpt>
<trkpt lat="61.017974" lon="25.800088">
<time>2020-09-13T10:46:59Z</time>
</trkpt>
<trkpt lat="61.01803" lon="25.800173">
<time>2020-09-13T10:47:00Z</time>
</trkpt>
<trkpt lat="61.01808" lon="25.800279">
<time>2020-09-13T10:47:01Z</time>
</trkpt>
<trkpt lat="61.018117" lon="25.800395">
<time>2020-09-13T10:47:02Z</time>
</trkpt>
<trkpt lat="61.018139" lon="25.80051">
<time>2020-09-13T10:47:03Z</time>
</trkpt>
<trkpt lat="61.018155" lon="25.800621">
<time>2020-09-13T10:47:04Z</time>
</trkpt>
<trkpt lat="61.018173" lon="25.800728">
<time>2020-09-13T10:47:05Z</time>
</trkpt>
<trkpt lat="61.018201" lon="25.800833">
<time>2020-09-13T10:47:06Z</time>
</trkpt>
<trkpt lat="61.01823" lon="25.800937">
<time>2020-09-13T10:47:07Z</time>
</trkpt>
<trkpt lat="61.018261" lon="25.801041">
<time>2020-09-13T10:47:08Z</time>
</trkpt>
<trkpt lat="61.018291" lon="25.801144">
<time>2020-09-13T10:47:09Z</time>
</trkpt>
<trkpt lat="61.018319" lon="25.801247">
<time>2020-09-13T10:47:10Z</time>
</trkpt>
<trkpt lat="61.018346" lon="25.801347">
<time>2020-09-13T10:47:11Z</time>
</trkpt>
<trkpt lat="61.018374" lon="25.801448">
<time>2020-09-13T10:47:12Z</time>
</trkpt>
<trkpt lat="61.018402" lon="25.801551">
<time>2020-09-13T10:47:13Z</time>
</trkpt>
<trkpt lat="61.01843" lon="25.801655">
<time>2020-09-13T10:47:14Z</time>
</trkpt>
<trkpt lat="61.018458" lon="25.801758">
<time>2020-09-13T10:47:15Z</time>
</trkpt>
<trkpt lat="61.018487" lon="25.801861">
<time>2020-09-13T10:47:16Z</time>
</trkpt>
<trkpt lat="61.018517" lon="25.801966">
<time>2020-09-13T10:47:17Z</time>
</trkpt>
<trkpt lat="61.018548" lon="25.802072">
<time>2020-09-13T10:47:18Z</time>
</trkpt>
<trkpt lat="61.018576" lon="25.802179">
<time>2020-09-13T10:47:19Z</time>
</trkpt>
<trkpt lat="61.018603" lon="25.802283">
<time>2020-09-13T10:47:20Z</time>
</trkpt>
<trkpt lat="61.018627" lon="25.802383">
<time>2020-09-13T10:47:21Z</time>
</trkpt>
<trkpt lat="61.018654" lon="25.802475">
<time>2020-09-13T10:47:22Z</time>
</trkpt>
<trkpt lat="61.018683" lon="25.802557">
<time>2020-09-13T10:47:23Z</time>
</trkpt>
<trkpt lat="61.018715" lon="25.802631">
<time>2020-09-13T10:47:24Z</time>
</trkpt>
<trkpt lat="61.01875" lon="25.802696">
<time>2020-09-13T10:47:25Z</time>
</trkpt>
<trkpt lat="61.018789" lon="25.802757">
<time>2020-09-13T10:47:26Z</time>
</trkpt>
<trkpt lat="61.018838" lon="25.802814">
<time>2020-09-13T10:47:27Z</time>
</trkpt>
<trkpt lat="61.018892" lon="25.802872">
<time>2020-09-13T10:47:28Z</time>
</trkpt>
<trkpt lat="61.018949" lon="25.802928">
<time>2020-09-13T10:47:29Z</time>
</trkpt>
<trkpt lat="61.019" lon="25.802981">
<time>2020-09-13T10:47:30Z</time>
</trkpt>
<trkpt lat="61.019044" lon="25.803028">
<time>2020-09-13T10:47:31Z</time>
</trkpt>
<trkpt lat="61.019085" lon="25.803072">
<time>2020-09-13T10:47:32Z</time>
</trkpt>
<trkpt lat="61.019122" lon="25.803112">
<time>2020-09-13T10:47:33Z</time>
</trkpt>
<trkpt lat="61.019158" lon="25.803153">
<time>2020-09-13T10:47:34Z</time>
</trkpt>
<trkpt lat="61.019193" lon="25.803197">
<time>2020-09-13T10:47:35Z</time>
</trkpt>
<trkpt lat="61.019227" lon="25.803248">
<time>2020-09-13T10:47:36Z</time>
</trkpt>
<trkpt lat="61.01926" lon="25.8033">
<time>2020-09-13T10:47:37Z</time>
</trkpt>
<trkpt lat="61.019292" lon="25.803351">
<time>2020-09-13T10:47:38Z</time>
</trkpt>
<trkpt lat="61.019325" lon="25.803402">
<time>2020-09-13T10:47:39Z</time>
</trkpt>
<trkpt lat="61.019357" lon="25.803458">
<time>2020-09-13T10:47:40Z</time>
</trkpt>
<trkpt lat="61.019388" lon="25.803516">
<time>2020-09-13T10:47:41Z</time>
</trkpt>
<trkpt lat="61.019419" lon="25.803572">
<time>2020-09-13T10:47:42Z</time>
</trkpt>
<trkpt lat="61.019447" lon="25.803624">
<time>2020-09-13T10:47:43Z</time>
</trkpt>
<trkpt lat="61.019477" lon="25.803676">
<time>2020-09-13T10:47:44Z</time>
</trkpt>
<trkpt lat="61.019511" lon="25.80373">
<time>2020-09-13T10:47:45Z</time>
</trkpt>
<trkpt lat="61.019549" lon="25.80379">
<time>2020-09-13T10:47:46Z</time>
</trkpt>
<trkpt lat="61.019594" lon="25.803863">
<time>2020-09-13T10:47:47Z</time>
</trkpt>
<trkpt lat="61.019648" lon="25.803952">
<time>2020-09-13T10:47:48Z</time>
</trkpt>
<trkpt lat="61.019705" lon="25.80405">
<time>2020-09-13T10:47:49Z</time>
</trkpt>
<trkpt lat="61.019761" lon="25.804151">
<time>2020-09-13T10:47:50Z</time>
</trkpt>
<trkpt lat="61.01981" lon="25.804245">
<time>2020-09-13T10:47:51Z</time>
</trkpt>
<trkpt lat="61.019856" lon="25.804343">
<time>2020-09-13T10:47:52Z</time>
</trkpt>
<trkpt lat="61.019902" lon="25.804442">
<time>2020-09-13T10:47:53Z</time>
</trkpt>
<trkpt lat="61.019946" lon="25.804544">
<time>2020-09-13T10:47:54Z</time>
</trkpt>
<trkpt lat="61.019992" lon="25.804646">
<time>2020-09-13T10:47:55Z</time>
</trkpt>
<trkpt lat="61.020037" lon="25.804746">
<time>2020-09-13T10:47:56Z</time>
</trkpt>
<trkpt lat="61.020078" lon="25.804845">
<time>2020-09-13T10:47:57Z</time>
</trkpt>
<trkpt lat="61.020115" lon="25.804945">
<time>2020-09-13T10:47:58Z</time>
</trkpt>
<trkpt lat="61.02015" lon="25.80505">
<time>2020-09-13T10:47:59Z</time>
</trkpt>
<trkpt lat="61.020184" lon="25.805155">
<time>2020-09-13T10:48:00Z</time>
</trkpt>
<trkpt lat="61.02022" lon="25.805255">
<time>2020-09-13T10:48:01Z</time>
</trkpt>
<trkpt lat="61.020256" lon="25.805352">
<time>2020-09-13T10:48:02Z</time>
</trkpt>
<trkpt lat="61.020295" lon="25.805447">
<time>2020-09-13T10:48:03Z</time>
</trkpt>
<trkpt lat="61.020336" lon="25.805538">
<time>2020-09-13T10:48:04Z</time>
</trkpt>
<trkpt lat="61.020378" lon="25.805623">
<time>2020-09-13T10:48:05Z</time>
</trkpt>
<trkpt lat="61.02042" lon="25.805704">
<time>2020-09-13T10:48:06Z</time>
</trkpt>
<trkpt lat="61.020466" lon="25.805781">
<time>2020-09-13T10:48:07Z</time>
</trkpt>
<trkpt lat="61.020518" lon="25.805859">
<time>2020-09-13T10:48:08Z</time>
</trkpt>
<trkpt lat="61.02057" lon="25.805945">
<time>2020-09-13T10:48:09Z</time>
</trkpt>
<trkpt lat="61.020617" lon="25.80604">
<time>2020-09-13T10:48:10Z</time>
</trkpt>
<trkpt lat="61.020656" lon="25.806146">
<time>2020-09-13T10:48:11Z</time>
</trkpt>
<trkpt lat="61.020693" lon="25.806251">
<time>2020-09-13T10:48:12Z</time>
</trkpt>
<trkpt lat="61.020731" lon="25.806352">
<time>2020-09-13T10:48:13Z</time>
</trkpt>
<trkpt lat="61.020766" lon="25.806447">
<time>2020-09-13T10:48:14Z</time>
</trkpt>
<trkpt lat="61.020799" lon="25.806542">
<time>2020-09-13T10:48:15Z</time>
</trkpt>
<trkpt lat="61.020829" lon="25.806643">
<time>2020-09-13T10:48:16Z</time>
</trkpt>
<trkpt lat="61.020862" lon="25.806745">
<time>2020-09-13T10:48:17Z</time>
</trkpt>
<trkpt lat="61.020899" lon="25.806844">
<time>2020-09-13T10:48:18Z</time>
</trkpt>
<trkpt lat="61.020943" lon="25.806943">
<time>2020-09-13T10:48:19Z</time>
</trkpt>
<trkpt lat="61.02099" lon="25.807047">
<time>2020-09-13T10:48:20Z</time>
</trkpt>
<trkpt lat="61.021036" lon="25.807156">
<time>2020-09-13T10:48:21Z</time>
</trkpt>
<trkpt lat="61.021081" lon="25.80727">
<time>2020-09-13T10:48:22Z</time>
</trkpt>
<trkpt lat="61.021124" lon="25.807383">
<time>2020-09-13T10:48:23Z</time>
</trkpt>
<trkpt lat="61.021168" lon="25.807492">
<time>2020-09-13T10:48:24Z</time>
</trkpt>
<trkpt lat="61.021212" lon="25.807592">
<time>2020-09-13T10:48:25Z</time>
</trkpt>
<trkpt lat="61.021258" lon="25.807683">
<time>2020-09-13T10:48:26Z</time>
</trkpt>
<trkpt lat="61.021307" lon="25.807775">
<time>2020-09-13T10:48:27Z</time>
</trkpt>
<trkpt lat="61.02136" lon="25.80787">
<time>2020-09-13T10:48:28Z</time>
</trkpt>
<trkpt lat="61.021413" lon="25.807968">
<time>2020-09-13T10:48:29Z</time>
</trkpt>
<trkpt lat="61.021466" lon="25.808066">
<time>2020-09-13T10:48:30Z</time>
</trkpt>
<trkpt lat="61.021516" lon="25.808157">
<time>2020-09-13T10:48:31Z</time>
</trkpt>
<trkpt lat="61.021567" lon="25.808241">
<time>2020-09-13T10:48:32Z</time>
</trkpt>
<trkpt lat="61.021623" lon="25.808316">
<time>2020-09-13T10:48:33Z</time>
</trkpt>
<trkpt lat="61.021688" lon="25.808372">
<time>2020-09-13T10:48:34Z</time>
</trkpt>
<trkpt lat="61.021758" lon="25.808414">
<time>2020-09-13T10:48:35Z</time>
</trkpt>
<trkpt lat="61.02183" lon="25.808443">
<time>2020-09-13T10:48:36Z</time>
</trkpt>
<trkpt lat="61.021898" lon="25.808474">
<time>2020-09-13T10:48:37Z</time>
</trkpt>
<trkpt lat="61.021964" lon="25.808503">
<time>2020-09-13T10:48:38Z</time>
</trkpt>
<trkpt lat="61.02203" lon="25.808527">
<time>2020-09-13T10:48:39Z</time>
</trkpt>
<trkpt lat="61.022101" lon="25.808529">
<time>2020-09-13T10:48:40Z</time>
</trkpt>
<trkpt lat="61.022174" lon="25.808521">
<time>2020-09-13T10:48:41Z</time>
</trkpt>
<trkpt lat="61.022248" lon="25.808511">
<time>2020-09-13T10:48:42Z</time>
</trkpt>
<trkpt lat="61.022318" lon="25.808514">
<time>2020-09-13T10:48:43Z</time>
</trkpt>
<trkpt lat="61.022386" lon="25.80852">
<time>2020-09-13T10:48:44Z</time>
</trkpt>
<trkpt lat="61.022455" lon="25.808525">
<time>2020-09-13T10:48:45Z</time>
</trkpt>
<trkpt lat="61.022524" lon="25.808534">
<time>2020-09-13T10:48:46Z</time>
</trkpt>
<trkpt lat="61.022592" lon="25.80855">
<time>2020-09-13T10:48:47Z</time>
</trkpt>
<trkpt lat="61.022659" lon="25.808571">
<time>2020-09-13T10:48:48Z</time>
</trkpt>
<trkpt lat="61.022727" lon="25.808601">
<time>2020-09-13T10:48:49Z</time>
</trkpt>
<trkpt lat="61.022795" lon="25.808633">
<time>2020-09-13T10:48:50Z</time>
</trkpt>
<trkpt lat="61.022863" lon="25.808669">
<time>2020-09-13T10:48:51Z</time>
</trkpt>
<trkpt lat="61.022929" lon="25.808701">
<time>2020-09-13T10:48:52Z</time>
</trkpt>
<trkpt lat="61.022993" lon="25.808735">
<time>2020-09-13T10:48:53Z</time>
</trkpt>
<trkpt lat="61.023054" lon="25.808773">
<time>2020-09-13T10:48:54Z</time>
</trkpt>
<trkpt lat="61.023114" lon="25.80881">
<time>2020-09-13T10:48:55Z</time>
</trkpt>
<trkpt lat="61.023175" lon="25.808837">
<time>2020-09-13T10:48:56Z</time>
</trkpt>
<trkpt lat="61.02324" lon="25.808855">
<time>2020-09-13T10:48:57Z</time>
</trkpt>
<trkpt lat="61.023308" lon="25.80887">
<time>2020-09-13T10:48:58Z</time>
</trkpt>
<trkpt lat="61.023377" lon="25.80889">
<time>2020-09-13T10:48:59Z</time>
</trkpt>
<trkpt lat="61.023445" lon="25.808917">
<time>2020-09-13T10:49:00Z</time>
</trkpt>
<trkpt lat="61.023514" lon="25.80895">
<time>2020-09-13T10:49:01Z</time>
</trkpt>
<trkpt lat="61.023581" lon="25.808993">
<time>2020-09-13T10:49:02Z</time>
</trkpt>
<trkpt lat="61.023648" lon="25.809037">
<time>2020-09-13T10:49:03Z</time>
</trkpt>
<trkpt lat="61.023717" lon="25.809074">
<time>2020-09-13T10:49:04Z</time>
</trkpt>
<trkpt lat="61.023787" lon="25.809098">
<time>2020-09-13T10:49:05Z</time>
</trkpt>
<trkpt lat="61.023857" lon="25.809117">
<time>2020-09-13T10:49:06Z</time>
</trkpt>
<trkpt lat="61.023925" lon="25.809139">
<time>2020-09-13T10:49:07Z</time>
</trkpt>
<trkpt lat="61.023989" lon="25.80916">
<time>2020-09-13T10:49:08Z</time>
</trkpt>
<trkpt lat="61.024054" lon="25.809172">
<time>2020-09-13T10:49:09Z</time>
</trkpt>
<trkpt lat="61.02412" lon="25.809174">
<time>2020-09-13T10:49:10Z</time>
</trkpt>
<trkpt lat="61.024194" lon="25.809163">
<time>2020-09-13T10:49:11Z</time>
</trkpt>
<trkpt lat="61.024275" lon="25.809138">
<time>2020-09-13T10:49:12Z</time>
</trkpt>
<trkpt lat="61.024358" lon="25.809101">
<time>2020-09-13T10:49:13Z</time>
</trkpt>
<trkpt lat="61.024437" lon="25.809068">
<time>2020-09-13T10:49:14Z</time>
</trkpt>
<trkpt lat="61.024513" lon="25.809052">
<time>2020-09-13T10:49:15Z</time>
</trkpt>
<trkpt lat="61.024588" lon="25.809055">
<time>2020-09-13T10:49:16Z</time>
</trkpt>
<trkpt lat="61.024661" lon="25.80906">
<time>2020-09-13T10:49:17Z</time>
</trkpt>
<trkpt lat="61.024731" lon="25.809066">
<time>2020-09-13T10:49:18Z</time>
</trkpt>
<trkpt lat="61.024802" lon="25.80907">
<time>2020-09-13T10:49:19Z</time>
</trkpt>
<trkpt lat="61.024873" lon="25.809069">
<time>2020-09-13T10:49:20Z</time>
</trkpt>
<trkpt lat="61.024944" lon="25.809062">
<time>2020-09-13T10:49:21Z</time>
</trkpt>
<trkpt lat="61.025012" lon="25.80906">
<time>2020-09-13T10:49:22Z</time>
</trkpt>
<trkpt lat="61.025081" lon="25.809076">
<time>2020-09-13T10:49:23Z</time>
</trkpt>
<trkpt lat="61.02515" lon="25.809104">
<time>2020-09-13T10:49:24Z</time>
</trkpt>
<trkpt lat="61.025216" lon="25.809138">
<time>2020-09-13T10:49:25Z</time>
</trkpt>
<trkpt lat="61.025272" lon="25.809171">
<time>2020-09-13T10:49:26Z</time>
</trkpt>
<trkpt lat="61.025311" lon="25.809196">
<time>2020-09-13T10:49:27Z</time>
</trkpt>
<trkpt lat="61.025324" lon="25.809214">
<time>2020-09-13T10:49:28Z</time>
</trkpt>
<trkpt lat="61.025322" lon="25.809221">
<time>2020-09-13T10:49:29Z</time>
</trkpt>
<trkpt lat="61.025305" lon="25.80923">
<time>2020-09-13T10:49:30Z</time>
</trkpt>
<trkpt lat="61.025289" lon="25.809231">
<time>2020-09-13T10:49:31Z</time>
</trkpt>
<trkpt lat="61.025274" lon="25.809229">
<time>2020-09-13T10:49:32Z</time>
</trkpt>
<trkpt lat="61.025261" lon="25.809217">
<time>2020-09-13T10:49:33Z</time>
</trkpt>
<trkpt lat="61.02524" lon="25.809192">
<time>2020-09-13T10:49:34Z</time>
</trkpt>
<trkpt lat="61.025212" lon="25.809168">
<time>2020-09-13T10:49:35Z</time>
</trkpt>
<trkpt lat="61.025181" lon="25.809149">
<time>2020-09-13T10:49:36Z</time>
</trkpt>
<trkpt lat="61.025152" lon="25.809154">
<time>2020-09-13T10:49:37Z</time>
</trkpt>
<trkpt lat="61.025117" lon="25.809163">
<time>2020-09-13T10:49:38Z</time>
</trkpt>
<trkpt lat="61.025076" lon="25.809167">
<time>2020-09-13T10:49:39Z</time>
</trkpt>
<trkpt lat="61.025033" lon="25.809154">
<time>2020-09-13T10:49:40Z</time>
</trkpt>
<trkpt lat="61.024989" lon="25.809133">
<time>2020-09-13T10:49:41Z</time>
</trkpt>
<trkpt lat="61.024946" lon="25.809113">
<time>2020-09-13T10:49:42Z</time>
</trkpt>
<trkpt lat="61.024898" lon="25.809102">
<time>2020-09-13T10:49:43Z</time>
</trkpt>
<trkpt lat="61.024847" lon="25.809101">
<time>2020-09-13T10:49:44Z</time>
</trkpt>
<trkpt lat="61.024796" lon="25.809105">
<time>2020-09-13T10:49:45Z</time>
</trkpt>
<trkpt lat="61.024744" lon="25.809105">
<time>2020-09-13T10:49:46Z</time>
</trkpt>
<trkpt lat="61.02469" lon="25.809107">
<time>2020-09-13T10:49:47Z</time>
</trkpt>
<trkpt lat="61.024633" lon="25.809112">
<time>2020-09-13T10:49:48Z</time>
</trkpt>
<trkpt lat="61.024575" lon="25.809121">
<time>2020-09-13T10:49:49Z</time>
</trkpt>
<trkpt lat="61.024516" lon="25.80913">
<time>2020-09-13T10:49:50Z</time>
</trkpt>
<trkpt lat="61.024456" lon="25.809141">
<time>2020-09-13T10:49:51Z</time>
</trkpt>
<trkpt lat="61.024396" lon="25.809151">
<time>2020-09-13T10:49:52Z</time>
</trkpt>
<trkpt lat="61.024336" lon="25.809155">
<time>2020-09-13T10:49:53Z</time>
</trkpt>
<trkpt lat="61.02428" lon="25.809153">
<time>2020-09-13T10:49:54Z</time>
</trkpt>
<trkpt lat="61.024222" lon="25.809148">
<time>2020-09-13T10:49:55Z</time>
</trkpt>
<trkpt lat="61.024166" lon="25.809145">
<time>2020-09-13T10:49:56Z</time>
</trkpt>
<trkpt lat="61.024111" lon="25.809138">
<time>2020-09-13T10:49:57Z</time>
</trkpt>
<trkpt lat="61.024058" lon="25.809128">
<time>2020-09-13T10:49:58Z</time>
</trkpt>
<trkpt lat="61.024002" lon="25.809111">
<time>2020-09-13T10:49:59Z</time>
</trkpt>
<trkpt lat="61.023946" lon="25.809095">
<time>2020-09-13T10:50:00Z</time>
</trkpt>
<trkpt lat="61.023886" lon="25.809077">
<time>2020-09-13T10:50:01Z</time>
</trkpt>
<trkpt lat="61.023832" lon="25.809054">
<time>2020-09-13T10:50:02Z</time>
</trkpt>
<trkpt lat="61.023777" lon="25.809026">
<time>2020-09-13T10:50:03Z</time>
</trkpt>
<trkpt lat="61.023723" lon="25.808993">
<time>2020-09-13T10:50:04Z</time>
</trkpt>
<trkpt lat="61.023666" lon="25.808955">
<time>2020-09-13T10:50:05Z</time>
</trkpt>
<trkpt lat="61.023608" lon="25.80892">
<time>2020-09-13T10:50:06Z</time>
</trkpt>
<trkpt lat="61.02355" lon="25.808892">
<time>2020-09-13T10:50:07Z</time>
</trkpt>
<trkpt lat="61.023497" lon="25.808874">
<time>2020-09-13T10:50:08Z</time>
</trkpt>
<trkpt lat="61.023443" lon="25.808863">
<time>2020-09-13T10:50:09Z</time>
</trkpt>
<trkpt lat="61.023385" lon="25.808853">
<time>2020-09-13T10:50:10Z</time>
</trkpt>
<trkpt lat="61.023323" lon="25.808835">
<time>2020-09-13T10:50:11Z</time>
</trkpt>
<trkpt lat="61.023262" lon="25.808801">
<time>2020-09-13T10:50:12Z</time>
</trkpt>
<trkpt lat="61.023207" lon="25.808751">
<time>2020-09-13T10:50:13Z</time>
</trkpt>
<trkpt lat="61.023149" lon="25.8087">
<time>2020-09-13T10:50:14Z</time>
</trkpt>
<trkpt lat="61.023093" lon="25.808658">
<time>2020-09-13T10:50:15Z</time>
</trkpt>
<trkpt lat="61.023034" lon="25.808639">
<time>2020-09-13T10:50:16Z</time>
</trkpt>
<trkpt lat="61.022979" lon="25.808658">
<time>2020-09-13T10:50:17Z</time>
</trkpt>
<trkpt lat="61.022918" lon="25.808717">
<time>2020-09-13T10:50:18Z</time>
</trkpt>
<trkpt lat="61.022858" lon="25.808791">
<time>2020-09-13T10:50:19Z</time>
</trkpt>
<trkpt lat="61.022799" lon="25.808868">
<time>2020-09-13T10:50:20Z</time>
</trkpt>
<trkpt lat="61.022752" lon="25.808937">
<time>2020-09-13T10:50:21Z</time>
</trkpt>
<trkpt lat="61.022711" lon="25.809018">
<time>2020-09-13T10:50:22Z</time>
</trkpt>
<trkpt lat="61.02268" lon="25.809119">
<time>2020-09-13T10:50:23Z</time>
</trkpt>
<trkpt lat="61.022658" lon="25.809241">
<time>2020-09-13T10:50:24Z</time>
</trkpt>
<trkpt lat="61.022647" lon="25.809376">
<time>2020-09-13T10:50:25Z</time>
</trkpt>
<trkpt lat="61.022641" lon="25.809508">
<time>2020-09-13T10:50:26Z</time>
</trkpt>
<trkpt lat="61.022641" lon="25.809639">
<time>2020-09-13T10:50:27Z</time>
</trkpt>
<trkpt lat="61.022648" lon="25.809772">
<time>2020-09-13T10:50:28Z</time>
</trkpt>
<trkpt lat="61.022667" lon="25.809903">
<time>2020-09-13T10:50:29Z</time>
</trkpt>
<trkpt lat="61.0227" lon="25.810026">
<time>2020-09-13T10:50:30Z</time>
</trkpt>
<trkpt lat="61.02274" lon="25.810141">
<time>2020-09-13T10:50:31Z</time>
</trkpt>
<trkpt lat="61.022782" lon="25.810255">
<time>2020-09-13T10:50:32Z</time>
</trkpt>
<trkpt lat="61.02282" lon="25.810372">
<time>2020-09-13T10:50:33Z</time>
</trkpt>
<trkpt lat="61.022862" lon="25.81049">
<time>2020-09-13T10:50:34Z</time>
</trkpt>
<trkpt lat="61.022908" lon="25.810608">
<time>2020-09-13T10:50:35Z</time>
</trkpt>
<trkpt lat="61.022956" lon="25.81073">
<time>2020-09-13T10:50:36Z</time>
</trkpt>
<trkpt lat="61.023001" lon="25.81086">
<time>2020-09-13T10:50:37Z</time>
</trkpt>
<trkpt lat="61.023041" lon="25.810996">
<time>2020-09-13T10:50:38Z</time>
</trkpt>
<trkpt lat="61.023076" lon="25.81114">
<time>2020-09-13T10:50:39Z</time>
</trkpt>
<trkpt lat="61.02311" lon="25.811285">
<time>2020-09-13T10:50:40Z</time>
</trkpt>
<trkpt lat="61.023144" lon="25.811431">
<time>2020-09-13T10:50:41Z</time>
</trkpt>
<trkpt lat="61.02318" lon="25.811574">
<time>2020-09-13T10:50:42Z</time>
</trkpt>
<trkpt lat="61.023214" lon="25.81171">
<time>2020-09-13T10:50:43Z</time>
</trkpt>
<trkpt lat="61.023245" lon="25.811841">
<time>2020-09-13T10:50:44Z</time>
</trkpt>
<trkpt lat="61.023269" lon="25.811973">
<time>2020-09-13T10:50:45Z</time>
</trkpt>
<trkpt lat="61.02329" lon="25.812104">
<time>2020-09-13T10:50:46Z</time>
</trkpt>
<trkpt lat="61.023305" lon="25.812236">
<time>2020-09-13T10:50:47Z</time>
</trkpt>
<trkpt lat="61.02331" lon="25.812359">
<time>2020-09-13T10:50:48Z</time>
</trkpt>
<trkpt lat="61.023299" lon="25.812471">
<time>2020-09-13T10:50:49Z</time>
</trkpt>
<trkpt lat="61.023275" lon="25.812564">
<time>2020-09-13T10:50:50Z</time>
</trkpt>
<trkpt lat="61.023238" lon="25.812631">
<time>2020-09-13T10:50:51Z</time>
</trkpt>
<trkpt lat="61.023202" lon="25.81268">
<time>2020-09-13T10:50:52Z</time>
</trkpt>
<trkpt lat="61.023159" lon="25.812701">
<time>2020-09-13T10:50:53Z</time>
</trkpt>
<trkpt lat="61.02311" lon="25.812707">
<time>2020-09-13T10:50:54Z</time>
</trkpt>
<trkpt lat="61.023046" lon="25.812696">
<time>2020-09-13T10:50:55Z</time>
</trkpt>
<trkpt lat="61.022979" lon="25.812684">
<time>2020-09-13T10:50:56Z</time>
</trkpt>
<trkpt lat="61.02291" lon="25.812675">
<time>2020-09-13T10:50:57Z</time>
</trkpt>
<trkpt lat="61.022846" lon="25.81267">
<time>2020-09-13T10:50:58Z</time>
</trkpt>
<trkpt lat="61.022783" lon="25.812662">
<time>2020-09-13T10:50:59Z</time>
</trkpt>
<trkpt lat="61.022721" lon="25.812652">
<time>2020-09-13T10:51:00Z</time>
</trkpt>
<trkpt lat="61.02266" lon="25.812641">
<time>2020-09-13T10:51:01Z</time>
</trkpt>
<trkpt lat="61.022598" lon="25.812642">
<time>2020-09-13T10:51:02Z</time>
</trkpt>
<trkpt lat="61.022536" lon="25.81265">
<time>2020-09-13T10:51:03Z</time>
</trkpt>
<trkpt lat="61.022476" lon="25.812673">
<time>2020-09-13T10:51:04Z</time>
</trkpt>
<trkpt lat="61.022421" lon="25.812704">
<time>2020-09-13T10:51:05Z</time>
</trkpt>
<trkpt lat="61.02237" lon="25.812752">
<time>2020-09-13T10:51:06Z</time>
</trkpt>
<trkpt lat="61.022322" lon="25.812819">
<time>2020-09-13T10:51:07Z</time>
</trkpt>
<trkpt lat="61.022281" lon="25.8129">
<time>2020-09-13T10:51:08Z</time>
</trkpt>
<trkpt lat="61.022244" lon="25.813019">
<time>2020-09-13T10:51:09Z</time>
</trkpt>
<trkpt lat="61.022213" lon="25.813151">
<time>2020-09-13T10:51:10Z</time>
</trkpt>
<trkpt lat="61.022185" lon="25.813282">
<time>2020-09-13T10:51:11Z</time>
</trkpt>
<trkpt lat="61.022161" lon="25.813385">
<time>2020-09-13T10:51:12Z</time>
</trkpt>
<trkpt lat="61.022143" lon="25.813484">
<time>2020-09-13T10:51:13Z</time>
</trkpt>
<trkpt lat="61.022124" lon="25.813591">
<time>2020-09-13T10:51:14Z</time>
</trkpt>
<trkpt lat="61.022108" lon="25.813709">
<time>2020-09-13T10:51:15Z</time>
</trkpt>
<trkpt lat="61.022091" lon="25.813834">
<time>2020-09-13T10:51:16Z</time>
</trkpt>
<trkpt lat="61.022076" lon="25.813961">
<time>2020-09-13T10:51:17Z</time>
</trkpt>
<trkpt lat="61.022062" lon="25.814087">
<time>2020-09-13T10:51:18Z</time>
</trkpt>
<trkpt lat="61.022046" lon="25.814205">
<time>2020-09-13T10:51:19Z</time>
</trkpt>
<trkpt lat="61.022027" lon="25.81432">
<time>2020-09-13T10:51:20Z</time>
</trkpt>
<trkpt lat="61.021998" lon="25.814419">
<time>2020-09-13T10:51:21Z</time>
</trkpt>
<trkpt lat="61.021963" lon="25.814501">
<time>2020-09-13T10:51:22Z</time>
</trkpt>
<trkpt lat="61.02192" lon="25.814568">
<time>2020-09-13T10:51:23Z</time>
</trkpt>
<trkpt lat="61.021869" lon="25.814623">
<time>2020-09-13T10:51:24Z</time>
</trkpt>
<trkpt lat="61.021813" lon="25.814679">
<time>2020-09-13T10:51:25Z</time>
</trkpt>
<trkpt lat="61.021753" lon="25.814736">
<time>2020-09-13T10:51:26Z</time>
</trkpt>
<trkpt lat="61.021693" lon="25.814801">
<time>2020-09-13T10:51:27Z</time>
</trkpt>
<trkpt lat="61.021631" lon="25.814867">
<time>2020-09-13T10:51:28Z</time>
</trkpt>
<trkpt lat="61.021567" lon="25.814935">
<time>2020-09-13T10:51:29Z</time>
</trkpt>
<trkpt lat="61.0215" lon="25.814999">
<time>2020-09-13T10:51:30Z</time>
</trkpt>
<trkpt lat="61.021431" lon="25.815058">
<time>2020-09-13T10:51:31Z</time>
</trkpt>
<trkpt lat="61.021361" lon="25.815112">
<time>2020-09-13T10:51:32Z</time>
</trkpt>
<trkpt lat="61.021295" lon="25.815165">
<time>2020-09-13T10:51:33Z</time>
</trkpt>
<trkpt lat="61.021231" lon="25.815216">
<time>2020-09-13T10:51:34Z</time>
</trkpt>
<trkpt lat="61.02117" lon="25.815261">
<time>2020-09-13T10:51:35Z</time>
</trkpt>
<trkpt lat="61.021112" lon="25.815302">
<time>2020-09-13T10:51:36Z</time>
</trkpt>
<trkpt lat="61.021057" lon="25.815332">
<time>2020-09-13T10:51:37Z</time>
</trkpt>
<trkpt lat="61.021003" lon="25.81535">
<time>2020-09-13T10:51:38Z</time>
</trkpt>
<trkpt lat="61.020945" lon="25.815357">
<time>2020-09-13T10:51:39Z</time>
</trkpt>
<trkpt lat="61.020887" lon="25.815359">
<time>2020-09-13T10:51:40Z</time>
</trkpt>
<trkpt lat="61.020828" lon="25.815354">
<time>2020-09-13T10:51:41Z</time>
</trkpt>
<trkpt lat="61.020771" lon="25.815348">
<time>2020-09-13T10:51:42Z</time>
</trkpt>
<trkpt lat="61.020712" lon="25.815347">
<time>2020-09-13T10:51:43Z</time>
</trkpt>
<trkpt lat="61.020652" lon="25.81536">
<time>2020-09-13T10:51:44Z</time>
</trkpt>
<trkpt lat="61.020586" lon="25.815379">
<time>2020-09-13T10:51:45Z</time>
</trkpt>
<trkpt lat="61.020521" lon="25.815399">
<time>2020-09-13T10:51:46Z</time>
</trkpt>
<trkpt lat="61.020458" lon="25.815423">
<time>2020-09-13T10:51:47Z</time>
</trkpt>
<trkpt lat="61.020399" lon="25.815454">
<time>2020-09-13T10:51:48Z</time>
</trkpt>
<trkpt lat="61.020342" lon="25.815498">
<time>2020-09-13T10:51:49Z</time>
</trkpt>
<trkpt lat="61.020291" lon="25.815555">
<time>2020-09-13T10:51:50Z</time>
</trkpt>
<trkpt lat="61.020241" lon="25.815627">
<time>2020-09-13T10:51:51Z</time>
</trkpt>
<trkpt lat="61.020195" lon="25.815707">
<time>2020-09-13T10:51:52Z</time>
</trkpt>
<trkpt lat="61.020149" lon="25.815789">
<time>2020-09-13T10:51:53Z</time>
</trkpt>
<trkpt lat="61.020105" lon="25.815864">
<time>2020-09-13T10:51:54Z</time>
</trkpt>
<trkpt lat="61.02006" lon="25.815931">
<time>2020-09-13T10:51:55Z</time>
</trkpt>
<trkpt lat="61.020015" lon="25.815989">
<time>2020-09-13T10:51:56Z</time>
</trkpt>
<trkpt lat="61.019971" lon="25.816046">
<time>2020-09-13T10:51:57Z</time>
</trkpt>
<trkpt lat="61.019926" lon="25.8161">
<time>2020-09-13T10:51:58Z</time>
</trkpt>
<trkpt lat="61.019885" lon="25.816148">
<time>2020-09-13T10:51:59Z</time>
</trkpt>
<trkpt lat="61.019853" lon="25.81617">
<time>2020-09-13T10:52:00Z</time>
</trkpt>
<trkpt lat="61.019828" lon="25.816178">
<time>2020-09-13T10:52:01Z</time>
</trkpt>
<trkpt lat="61.019811" lon="25.816169">
<time>2020-09-13T10:52:02Z</time>
</trkpt>
<trkpt lat="61.019796" lon="25.816159">
<time>2020-09-13T10:52:03Z</time>
</trkpt>
<trkpt lat="61.019788" lon="25.816135">
<time>2020-09-13T10:52:04Z</time>
</trkpt>
<trkpt lat="61.019785" lon="25.816097">
<time>2020-09-13T10:52:05Z</time>
</trkpt>
<trkpt lat="61.019787" lon="25.816044">
<time>2020-09-13T10:52:06Z</time>
</trkpt>
<trkpt lat="61.019789" lon="25.815976">
<time>2020-09-13T10:52:07Z</time>
</trkpt>
<trkpt lat="61.019788" lon="25.815905">
<time>2020-09-13T10:52:08Z</time>
</trkpt>
<trkpt lat="61.019782" lon="25.815831">
<time>2020-09-13T10:52:09Z</time>
</trkpt>
<trkpt lat="61.019773" lon="25.815766">
<time>2020-09-13T10:52:10Z</time>
</trkpt>
<trkpt lat="61.019761" lon="25.815722">
<time>2020-09-13T10:52:11Z</time>
</trkpt>
<trkpt lat="61.019747" lon="25.815693">
<time>2020-09-13T10:52:12Z</time>
</trkpt>
<trkpt lat="61.019731" lon="25.815673">
<time>2020-09-13T10:52:13Z</time>
</trkpt>
<trkpt lat="61.019712" lon="25.815645">
<time>2020-09-13T10:52:14Z</time>
</trkpt>
<trkpt lat="61.019692" lon="25.815609">
<time>2020-09-13T10:52:15Z</time>
</trkpt>
<trkpt lat="61.019673" lon="25.815567">
<time>2020-09-13T10:52:16Z</time>
</trkpt>
<trkpt lat="61.01965" lon="25.81551">
<time>2020-09-13T10:52:17Z</time>
</trkpt>
<trkpt lat="61.019623" lon="25.815449">
<time>2020-09-13T10:52:18Z</time>
</trkpt>
<trkpt lat="61.019593" lon="25.815385">
<time>2020-09-13T10:52:19Z</time>
</trkpt>
<trkpt lat="61.019568" lon="25.815331">
<time>2020-09-13T10:52:20Z</time>
</trkpt>
<trkpt lat="61.019542" lon="25.815284">
<time>2020-09-13T10:52:21Z</time>
</trkpt>
<trkpt lat="61.019517" lon="25.815247">
<time>2020-09-13T10:52:22Z</time>
</trkpt>
<trkpt lat="61.019488" lon="25.815222">
<time>2020-09-13T10:52:23Z</time>
</trkpt>
<trkpt lat="61.019458" lon="25.815203">
<time>2020-09-13T10:52:24Z</time>
</trkpt>
<trkpt lat="61.019426" lon="25.815189">
<time>2020-09-13T10:52:25Z</time>
</trkpt>
<trkpt lat="61.019394" lon="25.815183">
<time>2020-09-13T10:52:26Z</time>
</trkpt>
<trkpt lat="61.019368" lon="25.815191">
<time>2020-09-13T10:52:27Z</time>
</trkpt>
<trkpt lat="61.019348" lon="25.815213">
<time>2020-09-13T10:52:28Z</time>
</trkpt>
<trkpt lat="61.019328" lon="25.815245">
<time>2020-09-13T10:52:29Z</time>
</trkpt>
<trkpt lat="61.019303" lon="25.815283">
<time>2020-09-13T10:52:30Z</time>
</trkpt>
<trkpt lat="61.019275" lon="25.815322">
<time>2020-09-13T10:52:31Z</time>
</trkpt>
<trkpt lat="61.019241" lon="25.815345">
<time>2020-09-13T10:52:32Z</time>
</trkpt>
<trkpt lat="61.019208" lon="25.815343">
<time>2020-09-13T10:52:33Z</time>
</trkpt>
<trkpt lat="61.019172" lon="25.81532">
<time>2020-09-13T10:52:34Z</time>
</trkpt>
<trkpt lat="61.019142" lon="25.815295">
<time>2020-09-13T10:52:35Z</time>
</trkpt>
<trkpt lat="61.019113" lon="25.815271">
<time>2020-09-13T10:52:36Z</time>
</trkpt>
<trkpt lat="61.019087" lon="25.815253">
<time>2020-09-13T10:52:37Z</time>
</trkpt>
<trkpt lat="61.019064" lon="25.815233">
<time>2020-09-13T10:52:38Z</time>
</trkpt>
<trkpt lat="61.019035" lon="25.815213">
<time>2020-09-13T10:52:39Z</time>
</trkpt>
<trkpt lat="61.019003" lon="25.815183">
<time>2020-09-13T10:52:40Z</time>
</trkpt>
<trkpt lat="61.018967" lon="25.815143">
<time>2020-09-13T10:52:41Z</time>
</trkpt>
<trkpt lat="61.018932" lon="25.815098">
<time>2020-09-13T10:52:42Z</time>
</trkpt>
<trkpt lat="61.018896" lon="25.815051">
<time>2020-09-13T10:52:43Z</time>
</trkpt>
<trkpt lat="61.018855" lon="25.815007">
<time>2020-09-13T10:52:44Z</time>
</trkpt>
<trkpt lat="61.018811" lon="25.814967">
<time>2020-09-13T10:52:45Z</time>
</trkpt>
<trkpt lat="61.018767" lon="25.814935">
<time>2020-09-13T10:52:46Z</time>
</trkpt>
<trkpt lat="61.01872" lon="25.814903">
<time>2020-09-13T10:52:47Z</time>
</trkpt>
<trkpt lat="61.018672" lon="25.814872">
<time>2020-09-13T10:52:48Z</time>
</trkpt>
<trkpt lat="61.01862" lon="25.814834">
<time>2020-09-13T10:52:49Z</time>
</trkpt>
<trkpt lat="61.018572" lon="25.814782">
<time>2020-09-13T10:52:50Z</time>
</trkpt>
<trkpt lat="61.018531" lon="25.814703">
<time>2020-09-13T10:52:51Z</time>
</trkpt>
<trkpt lat="61.018502" lon="25.814606">
<time>2020-09-13T10:52:52Z</time>
</trkpt>
<trkpt lat="61.018479" lon="25.814503">
<time>2020-09-13T10:52:53Z</time>
</trkpt>
<trkpt lat="61.018459" lon="25.814405">
<time>2020-09-13T10:52:54Z</time>
</trkpt>
<trkpt lat="61.018438" lon="25.814313">
<time>2020-09-13T10:52:55Z</time>
</trkpt>
<trkpt lat="61.01841" lon="25.814226">
<time>2020-09-13T10:52:56Z</time>
</trkpt>
<trkpt lat="61.018371" lon="25.814146">
<time>2020-09-13T10:52:57Z</time>
</trkpt>
<trkpt lat="61.018326" lon="25.814076">
<time>2020-09-13T10:52:58Z</time>
</trkpt>
<trkpt lat="61.018276" lon="25.814012">
<time>2020-09-13T10:52:59Z</time>
</trkpt>
<trkpt lat="61.01823" lon="25.813947">
<time>2020-09-13T10:53:00Z</time>
</trkpt>
<trkpt lat="61.018184" lon="25.813875">
<time>2020-09-13T10:53:01Z</time>
</trkpt>
<trkpt lat="61.018144" lon="25.813791">
<time>2020-09-13T10:53:02Z</time>
</trkpt>
<trkpt lat="61.018107" lon="25.813698">
<time>2020-09-13T10:53:03Z</time>
</trkpt>
<trkpt lat="61.018073" lon="25.813601">
<time>2020-09-13T10:53:04Z</time>
</trkpt>
<trkpt lat="61.018041" lon="25.813506">
<time>2020-09-13T10:53:05Z</time>
</trkpt>
<trkpt lat="61.018009" lon="25.81341">
<time>2020-09-13T10:53:06Z</time>
</trkpt>
<trkpt lat="61.01797" lon="25.813319">
<time>2020-09-13T10:53:07Z</time>
</trkpt>
<trkpt lat="61.017925" lon="25.813236">
<time>2020-09-13T10:53:08Z</time>
</trkpt>
<trkpt lat="61.017872" lon="25.813168">
<time>2020-09-13T10:53:09Z</time>
</trkpt>
<trkpt lat="61.017824" lon="25.813101">
<time>2020-09-13T10:53:10Z</time>
</trkpt>
<trkpt lat="61.017781" lon="25.813027">
<time>2020-09-13T10:53:11Z</time>
</trkpt>
<trkpt lat="61.017745" lon="25.812939">
<time>2020-09-13T10:53:12Z</time>
</trkpt>
<trkpt lat="61.017711" lon="25.812844">
<time>2020-09-13T10:53:13Z</time>
</trkpt>
<trkpt lat="61.017676" lon="25.812748">
<time>2020-09-13T10:53:14Z</time>
</trkpt>
<trkpt lat="61.017639" lon="25.812658">
<time>2020-09-13T10:53:15Z</time>
</trkpt>
<trkpt lat="61.0176" lon="25.812569">
<time>2020-09-13T10:53:16Z</time>
</trkpt>
<trkpt lat="61.017561" lon="25.812483">
<time>2020-09-13T10:53:17Z</time>
</trkpt>
<trkpt lat="61.017524" lon="25.812396">
<time>2020-09-13T10:53:18Z</time>
</trkpt>
<trkpt lat="61.017487" lon="25.812311">
<time>2020-09-13T10:53:19Z</time>
</trkpt>
<trkpt lat="61.017447" lon="25.812225">
<time>2020-09-13T10:53:20Z</time>
</trkpt>
<trkpt lat="61.017408" lon="25.812134">
<time>2020-09-13T10:53:21Z</time>
</trkpt>
<trkpt lat="61.017373" lon="25.812038">
<time>2020-09-13T10:53:22Z</time>
</trkpt>
<trkpt lat="61.017345" lon="25.811939">
<time>2020-09-13T10:53:23Z</time>
</trkpt>
<trkpt lat="61.017321" lon="25.811842">
<time>2020-09-13T10:53:24Z</time>
</trkpt>
<trkpt lat="61.017296" lon="25.811747">
<time>2020-09-13T10:53:25Z</time>
</trkpt>
<trkpt lat="61.017275" lon="25.811649">
<time>2020-09-13T10:53:26Z</time>
</trkpt>
<trkpt lat="61.017263" lon="25.811547">
<time>2020-09-13T10:53:27Z</time>
</trkpt>
<trkpt lat="61.017252" lon="25.81144">
<time>2020-09-13T10:53:28Z</time>
</trkpt>
<trkpt lat="61.01724" lon="25.811331">
<time>2020-09-13T10:53:29Z</time>
</trkpt>
<trkpt lat="61.017227" lon="25.811222">
<time>2020-09-13T10:53:30Z</time>
</trkpt>
<trkpt lat="61.017222" lon="25.811117">
<time>2020-09-13T10:53:31Z</time>
</trkpt>
<trkpt lat="61.017225" lon="25.811019">
<time>2020-09-13T10:53:32Z</time>
</trkpt>
<trkpt lat="61.01723" lon="25.810928">
<time>2020-09-13T10:53:33Z</time>
</trkpt>
<trkpt lat="61.017236" lon="25.81084">
<time>2020-09-13T10:53:34Z</time>
</trkpt>
<trkpt lat="61.017238" lon="25.810755">
<time>2020-09-13T10:53:35Z</time>
</trkpt>
<trkpt lat="61.017242" lon="25.810675">
<time>2020-09-13T10:53:36Z</time>
</trkpt>
<trkpt lat="61.017243" lon="25.810599">
<time>2020-09-13T10:53:37Z</time>
</trkpt>
<trkpt lat="61.017242" lon="25.810525">
<time>2020-09-13T10:53:38Z</time>
</trkpt>
<trkpt lat="61.017239" lon="25.810441">
<time>2020-09-13T10:53:39Z</time>
</trkpt>
<trkpt lat="61.017235" lon="25.810346">
<time>2020-09-13T10:53:40Z</time>
</trkpt>
<trkpt lat="61.017223" lon="25.81023">
<time>2020-09-13T10:53:41Z</time>
</trkpt>
<trkpt lat="61.017209" lon="25.810093">
<time>2020-09-13T10:53:42Z</time>
</trkpt>
<trkpt lat="61.017195" lon="25.809937">
<time>2020-09-13T10:53:43Z</time>
</trkpt>
<trkpt lat="61.017195" lon="25.809769">
<time>2020-09-13T10:53:44Z</time>
</trkpt>
<trkpt lat="61.017201" lon="25.809601">
<time>2020-09-13T10:53:45Z</time>
</trkpt>
<trkpt lat="61.017212" lon="25.809441">
<time>2020-09-13T10:53:46Z</time>
</trkpt>
<trkpt lat="61.017225" lon="25.809295">
<time>2020-09-13T10:53:47Z</time>
</trkpt>
<trkpt lat="61.017239" lon="25.809157">
<time>2020-09-13T10:53:48Z</time>
</trkpt>
<trkpt lat="61.017258" lon="25.809017">
<time>2020-09-13T10:53:49Z</time>
</trkpt>
<trkpt lat="61.017284" lon="25.808876">
<time>2020-09-13T10:53:50Z</time>
</trkpt>
<trkpt lat="61.017317" lon="25.808736">
<time>2020-09-13T10:53:51Z</time>
</trkpt>
<trkpt lat="61.017363" lon="25.808596">
<time>2020-09-13T10:53:52Z</time>
</trkpt>
<trkpt lat="61.017418" lon="25.80845">
<time>2020-09-13T10:53:53Z</time>
</trkpt>
<trkpt lat="61.017483" lon="25.808293">
<time>2020-09-13T10:53:54Z</time>
</trkpt>
<trkpt lat="61.017549" lon="25.808133">
<time>2020-09-13T10:53:55Z</time>
</trkpt>
<trkpt lat="61.017617" lon="25.80797">
<time>2020-09-13T10:53:56Z</time>
</trkpt>
<trkpt lat="61.017676" lon="25.807823">
<time>2020-09-13T10:53:57Z</time>
</trkpt>
<trkpt lat="61.017723" lon="25.807695">
<time>2020-09-13T10:53:58Z</time>
</trkpt>
<trkpt lat="61.017764" lon="25.807592">
<time>2020-09-13T10:53:59Z</time>
</trkpt>
<trkpt lat="61.0178" lon="25.807505">
<time>2020-09-13T10:54:00Z</time>
</trkpt>
<trkpt lat="61.017829" lon="25.807432">
<time>2020-09-13T10:54:01Z</time>
</trkpt>
<trkpt lat="61.017849" lon="25.807368">
<time>2020-09-13T10:54:02Z</time>
</trkpt>
<trkpt lat="61.017864" lon="25.807308">
<time>2020-09-13T10:54:03Z</time>
</trkpt>
<trkpt lat="61.017879" lon="25.807249">
<time>2020-09-13T10:54:04Z</time>
</trkpt>
<trkpt lat="61.01789" lon="25.80719">
<time>2020-09-13T10:54:05Z</time>
</trkpt>
<trkpt lat="61.0179" lon="25.807134">
<time>2020-09-13T10:54:06Z</time>
</trkpt>
<trkpt lat="61.017909" lon="25.807076">
<time>2020-09-13T10:54:07Z</time>
</trkpt>
<trkpt lat="61.01792" lon="25.807019">
<time>2020-09-13T10:54:08Z</time>
</trkpt>
<trkpt lat="61.017931" lon="25.806964">
<time>2020-09-13T10:54:09Z</time>
</trkpt>
<trkpt lat="61.017943" lon="25.806916">
<time>2020-09-13T10:54:10Z</time>
</trkpt>
<trkpt lat="61.017958" lon="25.80687">
<time>2020-09-13T10:54:11Z</time>
</trkpt>
<trkpt lat="61.017979" lon="25.806825">
<time>2020-09-13T10:54:12Z</time>
</trkpt>
<trkpt lat="61.018003" lon="25.80678">
<time>2020-09-13T10:54:13Z</time>
</trkpt>
<trkpt lat="61.018028" lon="25.80674">
<time>2020-09-13T10:54:14Z</time>
</trkpt>
<trkpt lat="61.018053" lon="25.806702">
<time>2020-09-13T10:54:15Z</time>
</trkpt>
<trkpt lat="61.01808" lon="25.806668">
<time>2020-09-13T10:54:16Z</time>
</trkpt>
<trkpt lat="61.018107" lon="25.806634">
<time>2020-09-13T10:54:17Z</time>
</trkpt>
<trkpt lat="61.018135" lon="25.806604">
<time>2020-09-13T10:54:18Z</time>
</trkpt>
<trkpt lat="61.018161" lon="25.806574">
<time>2020-09-13T10:54:19Z</time>
</trkpt>
<trkpt lat="61.018182" lon="25.806539">
<time>2020-09-13T10:54:20Z</time>
</trkpt>
<trkpt lat="61.018199" lon="25.806496">
<time>2020-09-13T10:54:21Z</time>
</trkpt>
<trkpt lat="61.018211" lon="25.806448">
<time>2020-09-13T10:54:22Z</time>
</trkpt>
<trkpt lat="61.018218" lon="25.806394">
<time>2020-09-13T10:54:23Z</time>
</trkpt>
<trkpt lat="61.018221" lon="25.806342">
<time>2020-09-13T10:54:24Z</time>
</trkpt>
<trkpt lat="61.018224" lon="25.806289">
<time>2020-09-13T10:54:25Z</time>
</trkpt>
<trkpt lat="61.018229" lon="25.806237">
<time>2020-09-13T10:54:26Z</time>
</trkpt>
<trkpt lat="61.018235" lon="25.806181">
<time>2020-09-13T10:54:27Z</time>
</trkpt>
<trkpt lat="61.018242" lon="25.806119">
<time>2020-09-13T10:54:28Z</time>
</trkpt>
<trkpt lat="61.018246" lon="25.806047">
<time>2020-09-13T10:54:29Z</time>
</trkpt>
<trkpt lat="61.018248" lon="25.805967">
<time>2020-09-13T10:54:30Z</time>
</trkpt>
<trkpt lat="61.018246" lon="25.805879">
<time>2020-09-13T10:54:31Z</time>
</trkpt>
<trkpt lat="61.018247" lon="25.805788">
<time>2020-09-13T10:54:32Z</time>
</trkpt>
<trkpt lat="61.018253" lon="25.805689">
<time>2020-09-13T10:54:33Z</time>
</trkpt>
<trkpt lat="61.018265" lon="25.805589">
<time>2020-09-13T10:54:34Z</time>
</trkpt>
<trkpt lat="61.018278" lon="25.80549">
<time>2020-09-13T10:54:35Z</time>
</trkpt>
<trkpt lat="61.018288" lon="25.805398">
<time>2020-09-13T10:54:36Z</time>
</trkpt>
<trkpt lat="61.018291" lon="25.805311">
<time>2020-09-13T10:54:37Z</time>
</trkpt>
<trkpt lat="61.018282" lon="25.805238">
<time>2020-09-13T10:54:38Z</time>
</trkpt>
<trkpt lat="61.018261" lon="25.805176">
<time>2020-09-13T10:54:39Z</time>
</trkpt>
<trkpt lat="61.018237" lon="25.805126">
<time>2020-09-13T10:54:40Z</time>
</trkpt>
<trkpt lat="61.018218" lon="25.805074">
<time>2020-09-13T10:54:41Z</time>
</trkpt>
<trkpt lat="61.018209" lon="25.805009">
<time>2020-09-13T10:54:42Z</time>
</trkpt>
<trkpt lat="61.01821" lon="25.804937">
<time>2020-09-13T10:54:43Z</time>
</trkpt>
<trkpt lat="61.018221" lon="25.804865">
<time>2020-09-13T10:54:44Z</time>
</trkpt>
<trkpt lat="61.018242" lon="25.804798">
<time>2020-09-13T10:54:45Z</time>
</trkpt>
<trkpt lat="61.018264" lon="25.804728">
<time>2020-09-13T10:54:46Z</time>
</trkpt>
<trkpt lat="61.018284" lon="25.804649">
<time>2020-09-13T10:54:47Z</time>
</trkpt>
<trkpt lat="61.018303" lon="25.804563">
<time>2020-09-13T10:54:48Z</time>
</trkpt>
<trkpt lat="61.018322" lon="25.804474">
<time>2020-09-13T10:54:49Z</time>
</trkpt>
<trkpt lat="61.01834" lon="25.804385">
<time>2020-09-13T10:54:50Z</time>
</trkpt>
<trkpt lat="61.018355" lon="25.80429">
<time>2020-09-13T10:54:51Z</time>
</trkpt>
<trkpt lat="61.018368" lon="25.804186">
<time>2020-09-13T10:54:52Z</time>
</trkpt>
<trkpt lat="61.01838" lon="25.804069">
<time>2020-09-13T10:54:53Z</time>
</trkpt>
<trkpt lat="61.018391" lon="25.803945">
<time>2020-09-13T10:54:54Z</time>
</trkpt>
<trkpt lat="61.018398" lon="25.803813">
<time>2020-09-13T10:54:55Z</time>
</trkpt>
<trkpt lat="61.018402" lon="25.803671">
<time>2020-09-13T10:54:56Z</time>
</trkpt>
<trkpt lat="61.018402" lon="25.80352">
<time>2020-09-13T10:54:57Z</time>
</trkpt>
<trkpt lat="61.018399" lon="25.803368">
<time>2020-09-13T10:54:58Z</time>
</trkpt>
<trkpt lat="61.01839" lon="25.803221">
<time>2020-09-13T10:54:59Z</time>
</trkpt>
<trkpt lat="61.018367" lon="25.803089">
<time>2020-09-13T10:55:00Z</time>
</trkpt>
<trkpt lat="61.018328" lon="25.802968">
<time>2020-09-13T10:55:01Z</time>
</trkpt>
<trkpt lat="61.018285" lon="25.802855">
<time>2020-09-13T10:55:02Z</time>
</trkpt>
<trkpt lat="61.018249" lon="25.80274">
<time>2020-09-13T10:55:03Z</time>
</trkpt>
<trkpt lat="61.018224" lon="25.80262">
<time>2020-09-13T10:55:04Z</time>
</trkpt>
<trkpt lat="61.018196" lon="25.802499">
<time>2020-09-13T10:55:05Z</time>
</trkpt>
<trkpt lat="61.018158" lon="25.802368">
<time>2020-09-13T10:55:06Z</time>
</trkpt>
<trkpt lat="61.018105" lon="25.802221">
<time>2020-09-13T10:55:07Z</time>
</trkpt>
<trkpt lat="61.01805" lon="25.802059">
<time>2020-09-13T10:55:08Z</time>
</trkpt>
<trkpt lat="61.017998" lon="25.801893">
<time>2020-09-13T10:55:09Z</time>
</trkpt>
<trkpt lat="61.017953" lon="25.801729">
<time>2020-09-13T10:55:10Z</time>
</trkpt>
<trkpt lat="61.017912" lon="25.801567">
<time>2020-09-13T10:55:11Z</time>
</trkpt>
<trkpt lat="61.017873" lon="25.801405">
<time>2020-09-13T10:55:12Z</time>
</trkpt>
<trkpt lat="61.017834" lon="25.80125">
<time>2020-09-13T10:55:13Z</time>
</trkpt>
<trkpt lat="61.017795" lon="25.801101">
<time>2020-09-13T10:55:14Z</time>
</trkpt>
<trkpt lat="61.017753" lon="25.800956">
<time>2020-09-13T10:55:15Z</time>
</trkpt>
<trkpt lat="61.017712" lon="25.800814">
<time>2020-09-13T10:55:16Z</time>
</trkpt>
<trkpt lat="61.017671" lon="25.800674">
<time>2020-09-13T10:55:17Z</time>
</trkpt>
<trkpt lat="61.017632" lon="25.800533">
<time>2020-09-13T10:55:18Z</time>
</trkpt>
<trkpt lat="61.017593" lon="25.800391">
<time>2020-09-13T10:55:19Z</time>
</trkpt>
<trkpt lat="61.017556" lon="25.800246">
<time>2020-09-13T10:55:20Z</time>
</trkpt>
<trkpt lat="61.017518" lon="25.8001">
<time>2020-09-13T10:55:21Z</time>
</trkpt>
<trkpt lat="61.017477" lon="25.799957">
<time>2020-09-13T10:55:22Z</time>
</trkpt>
<trkpt lat="61.017427" lon="25.799827">
<time>2020-09-13T10:55:23Z</time>
</trkpt>
<trkpt lat="61.017361" lon="25.799726">
<time>2020-09-13T10:55:24Z</time>
</trkpt>
<trkpt lat="61.017282" lon="25.799657">
<time>2020-09-13T10:55:25Z</time>
</trkpt>
<trkpt lat="61.017195" lon="25.79961">
<time>2020-09-13T10:55:26Z</time>
</trkpt>
<trkpt lat="61.017105" lon="25.799567">
<time>2020-09-13T10:55:27Z</time>
</trkpt>
<trkpt lat="61.017011" lon="25.799524">
<time>2020-09-13T10:55:28Z</time>
</trkpt>
<trkpt lat="61.016915" lon="25.799484">
<time>2020-09-13T10:55:29Z</time>
</trkpt>
<trkpt lat="61.016819" lon="25.799445">
<time>2020-09-13T10:55:30Z</time>
</trkpt>
<trkpt lat="61.016721" lon="25.799407">
<time>2020-09-13T10:55:31Z</time>
</trkpt>
<trkpt lat="61.016623" lon="25.79937">
<time>2020-09-13T10:55:32Z</time>
</trkpt>
<trkpt lat="61.016525" lon="25.799334">
<time>2020-09-13T10:55:33Z</time>
</trkpt>
<trkpt lat="61.01643" lon="25.799298">
<time>2020-09-13T10:55:34Z</time>
</trkpt>
<trkpt lat="61.016337" lon="25.799261">
<time>2020-09-13T10:55:35Z</time>
</trkpt>
<trkpt lat="61.016249" lon="25.79922">
<time>2020-09-13T10:55:36Z</time>
</trkpt>
<trkpt lat="61.016164" lon="25.799177">
<time>2020-09-13T10:55:37Z</time>
</trkpt>
<trkpt lat="61.016081" lon="25.799132">
<time>2020-09-13T10:55:38Z</time>
</trkpt>
<trkpt lat="61.016001" lon="25.799088">
<time>2020-09-13T10:55:39Z</time>
</trkpt>
<trkpt lat="61.015922" lon="25.799044">
<time>2020-09-13T10:55:40Z</time>
</trkpt>
<trkpt lat="61.015842" lon="25.798999">
<time>2020-09-13T10:55:41Z</time>
</trkpt>
<trkpt lat="61.015759" lon="25.798956">
<time>2020-09-13T10:55:42Z</time>
</trkpt>
<trkpt lat="61.015674" lon="25.798912">
<time>2020-09-13T10:55:43Z</time>
</trkpt>
<trkpt lat="61.015588" lon="25.798868">
<time>2020-09-13T10:55:44Z</time>
</trkpt>
<trkpt lat="61.015499" lon="25.798828">
<time>2020-09-13T10:55:45Z</time>
</trkpt>
<trkpt lat="61.015408" lon="25.798795">
<time>2020-09-13T10:55:46Z</time>
</trkpt>
<trkpt lat="61.015316" lon="25.798771">
<time>2020-09-13T10:55:47Z</time>
</trkpt>
<trkpt lat="61.015224" lon="25.798751">
<time>2020-09-13T10:55:48Z</time>
</trkpt>
<trkpt lat="61.015131" lon="25.798734">
<time>2020-09-13T10:55:49Z</time>
</trkpt>
<trkpt lat="61.015038" lon="25.798718">
<time>2020-09-13T10:55:50Z</time>
</trkpt>
<trkpt lat="61.014947" lon="25.798704">
<time>2020-09-13T10:55:51Z</time>
</trkpt>
<trkpt lat="61.014858" lon="25.79869">
<time>2020-09-13T10:55:52Z</time>
</trkpt>
<trkpt lat="61.014769" lon="25.798676">
<time>2020-09-13T10:55:53Z</time>
</trkpt>
<trkpt lat="61.01468" lon="25.798663">
<time>2020-09-13T10:55:54Z</time>
</trkpt>
<trkpt lat="61.014592" lon="25.798654">
<time>2020-09-13T10:55:55Z</time>
</trkpt>
<trkpt lat="61.014504" lon="25.798647">
<time>2020-09-13T10:55:56Z</time>
</trkpt>
<trkpt lat="61.014418" lon="25.798644">
<time>2020-09-13T10:55:57Z</time>
</trkpt>
<trkpt lat="61.014333" lon="25.798644">
<time>2020-09-13T10:55:58Z</time>
</trkpt>
<trkpt lat="61.014249" lon="25.798647">
<time>2020-09-13T10:55:59Z</time>
</trkpt>
<trkpt lat="61.014164" lon="25.798644">
<time>2020-09-13T10:56:00Z</time>
</trkpt>
<trkpt lat="61.014078" lon="25.79863">
<time>2020-09-13T10:56:01Z</time>
</trkpt>
<trkpt lat="61.01399" lon="25.798603">
<time>2020-09-13T10:56:02Z</time>
</trkpt>
<trkpt lat="61.013905" lon="25.798565">
<time>2020-09-13T10:56:03Z</time>
</trkpt>
<trkpt lat="61.013821" lon="25.798523">
<time>2020-09-13T10:56:04Z</time>
</trkpt>
<trkpt lat="61.013742" lon="25.798478">
<time>2020-09-13T10:56:05Z</time>
</trkpt>
<trkpt lat="61.013666" lon="25.79843">
<time>2020-09-13T10:56:06Z</time>
</trkpt>
<trkpt lat="61.013597" lon="25.798371">
<time>2020-09-13T10:56:07Z</time>
</trkpt>
<trkpt lat="61.013534" lon="25.798298">
<time>2020-09-13T10:56:08Z</time>
</trkpt>
<trkpt lat="61.013481" lon="25.798211">
<time>2020-09-13T10:56:09Z</time>
</trkpt>
<trkpt lat="61.013449" lon="25.798092">
<time>2020-09-13T10:56:10Z</time>
</trkpt>
<trkpt lat="61.013436" lon="25.797954">
<time>2020-09-13T10:56:11Z</time>
</trkpt>
<trkpt lat="61.013438" lon="25.797805">
<time>2020-09-13T10:56:12Z</time>
</trkpt>
<trkpt lat="61.013449" lon="25.797665">
<time>2020-09-13T10:56:13Z</time>
</trkpt>
<trkpt lat="61.013469" lon="25.797538">
<time>2020-09-13T10:56:14Z</time>
</trkpt>
<trkpt lat="61.013496" lon="25.797414">
<time>2020-09-13T10:56:15Z</time>
</trkpt>
<trkpt lat="61.01352" lon="25.797302">
<time>2020-09-13T10:56:16Z</time>
</trkpt>
<trkpt lat="61.01354" lon="25.797191">
<time>2020-09-13T10:56:17Z</time>
</trkpt>
<trkpt lat="61.013559" lon="25.797086">
<time>2020-09-13T10:56:18Z</time>
</trkpt>
<trkpt lat="61.013577" lon="25.796986">
<time>2020-09-13T10:56:19Z</time>
</trkpt>
<trkpt lat="61.013595" lon="25.796888">
<time>2020-09-13T10:56:20Z</time>
</trkpt>
<trkpt lat="61.013613" lon="25.796793">
<time>2020-09-13T10:56:21Z</time>
</trkpt>
<trkpt lat="61.013632" lon="25.796699">
<time>2020-09-13T10:56:22Z</time>
</trkpt>
<trkpt lat="61.01365" lon="25.796607">
<time>2020-09-13T10:56:23Z</time>
</trkpt>
<trkpt lat="61.013671" lon="25.796512">
<time>2020-09-13T10:56:24Z</time>
</trkpt>
<trkpt lat="61.013691" lon="25.796415">
<time>2020-09-13T10:56:25Z</time>
</trkpt>
<trkpt lat="61.01371" lon="25.796313">
<time>2020-09-13T10:56:26Z</time>
</trkpt>
<trkpt lat="61.013726" lon="25.796204">
<time>2020-09-13T10:56:27Z</time>
</trkpt>
<trkpt lat="61.013741" lon="25.796086">
<time>2020-09-13T10:56:28Z</time>
</trkpt>
<trkpt lat="61.013756" lon="25.795964">
<time>2020-09-13T10:56:29Z</time>
</trkpt>
<trkpt lat="61.013767" lon="25.79584">
<time>2020-09-13T10:56:30Z</time>
</trkpt>
<trkpt lat="61.013775" lon="25.795717">
<time>2020-09-13T10:56:31Z</time>
</trkpt>
<trkpt lat="61.013781" lon="25.79559">
<time>2020-09-13T10:56:32Z</time>
</trkpt>
<trkpt lat="61.013783" lon="25.795464">
<time>2020-09-13T10:56:33Z</time>
</trkpt>
<trkpt lat="61.013781" lon="25.79534">
<time>2020-09-13T10:56:34Z</time>
</trkpt>
<trkpt lat="61.013772" lon="25.795227">
<time>2020-09-13T10:56:35Z</time>
</trkpt>
<trkpt lat="61.013768" lon="25.795131">
<time>2020-09-13T10:56:36Z</time>
</trkpt>
<trkpt lat="61.013779" lon="25.795064">
<time>2020-09-13T10:56:37Z</time>
</trkpt>
<trkpt lat="61.013793" lon="25.79504">
<time>2020-09-13T10:56:38Z</time>
</trkpt>
<trkpt lat="61.01381" lon="25.795048">
<time>2020-09-13T10:56:39Z</time>
</trkpt>
<trkpt lat="61.013817" lon="25.795067">
<time>2020-09-13T10:56:40Z</time>
</trkpt>
<trkpt lat="61.013829" lon="25.795077">
<time>2020-09-13T10:56:41Z</time>
</trkpt>
<trkpt lat="61.013847" lon="25.795074">
<time>2020-09-13T10:56:42Z</time>
</trkpt>
<trkpt lat="61.013871" lon="25.795063">
<time>2020-09-13T10:56:43Z</time>
</trkpt>
<trkpt lat="61.0139" lon="25.795052">
<time>2020-09-13T10:56:44Z</time>
</trkpt>
<trkpt lat="61.01393" lon="25.795037">
<time>2020-09-13T10:56:45Z</time>
</trkpt>
<trkpt lat="61.013957" lon="25.795013">
<time>2020-09-13T10:56:46Z</time>
</trkpt>
<trkpt lat="61.013991" lon="25.794965">
<time>2020-09-13T10:56:47Z</time>
</trkpt>
<trkpt lat="61.014028" lon="25.794908">
<time>2020-09-13T10:56:48Z</time>
</trkpt>
<trkpt lat="61.014071" lon="25.794851">
<time>2020-09-13T10:56:49Z</time>
</trkpt>
<trkpt lat="61.014109" lon="25.794806">
<time>2020-09-13T10:56:50Z</time>
</trkpt>
<trkpt lat="61.014145" lon="25.794761">
<time>2020-09-13T10:56:51Z</time>
</trkpt>
<trkpt lat="61.01418" lon="25.794722">
<time>2020-09-13T10:56:52Z</time>
</trkpt>
<trkpt lat="61.014215" lon="25.794682">
<time>2020-09-13T10:56:53Z</time>
</trkpt>
<trkpt lat="61.014245" lon="25.794647">
<time>2020-09-13T10:56:54Z</time>
</trkpt>
<trkpt lat="61.014269" lon="25.794607">
<time>2020-09-13T10:56:55Z</time>
</trkpt>
<trkpt lat="61.014282" lon="25.794587">
<time>2020-09-13T10:56:56Z</time>
</trkpt>
<trkpt lat="61.014284" lon="25.794587">
<time>2020-09-13T10:56:57Z</time>
</trkpt>
<trkpt lat="61.014278" lon="25.7946">
<time>2020-09-13T10:56:58Z</time>
</trkpt>
<trkpt lat="61.014273" lon="25.794605">
<time>2020-09-13T10:56:59Z</time>
</trkpt>
<trkpt lat="61.014268" lon="25.794596">
<time>2020-09-13T10:57:00Z</time>
</trkpt>
<trkpt lat="61.014261" lon="25.79458">
<time>2020-09-13T10:57:01Z</time>
</trkpt>
<trkpt lat="61.014252" lon="25.794556">
<time>2020-09-13T10:57:02Z</time>
</trkpt>
<trkpt lat="61.014246" lon="25.794524">
<time>2020-09-13T10:57:03Z</time>
</trkpt>
<trkpt lat="61.014244" lon="25.794483">
<time>2020-09-13T10:57:04Z</time>
</trkpt>
<trkpt lat="61.014243" lon="25.794432">
<time>2020-09-13T10:57:05Z</time>
</trkpt>
<trkpt lat="61.014242" lon="25.794368">
<time>2020-09-13T10:57:06Z</time>
</trkpt>
<trkpt lat="61.014239" lon="25.794274">
<time>2020-09-13T10:57:07Z</time>
</trkpt>
<trkpt lat="61.014231" lon="25.794121">
<time>2020-09-13T10:57:08Z</time>
</trkpt>
<trkpt lat="61.014211" lon="25.793923">
<time>2020-09-13T10:57:09Z</time>
</trkpt>
<trkpt lat="61.01418" lon="25.793703">
<time>2020-09-13T10:57:10Z</time>
</trkpt>
<trkpt lat="61.014146" lon="25.793505">
<time>2020-09-13T10:57:11Z</time>
</trkpt>
<trkpt lat="61.014113" lon="25.79333">
<time>2020-09-13T10:57:12Z</time>
</trkpt>
<trkpt lat="61.014077" lon="25.793191">
<time>2020-09-13T10:57:13Z</time>
</trkpt>
<trkpt lat="61.014039" lon="25.793091">
<time>2020-09-13T10:57:14Z</time>
</trkpt>
<trkpt lat="61.013998" lon="25.793036">
<time>2020-09-13T10:57:15Z</time>
</trkpt>
<trkpt lat="61.013956" lon="25.793017">
<time>2020-09-13T10:57:16Z</time>
</trkpt>
<trkpt lat="61.013904" lon="25.793015">
<time>2020-09-13T10:57:17Z</time>
</trkpt>
<trkpt lat="61.013847" lon="25.793006">
<time>2020-09-13T10:57:18Z</time>
</trkpt>
<trkpt lat="61.013786" lon="25.792958">
<time>2020-09-13T10:57:19Z</time>
</trkpt>
<trkpt lat="61.013735" lon="25.792862">
<time>2020-09-13T10:57:20Z</time>
</trkpt>
<trkpt lat="61.0137" lon="25.792724">
<time>2020-09-13T10:57:21Z</time>
</trkpt>
<trkpt lat="61.013683" lon="25.79257">
<time>2020-09-13T10:57:22Z</time>
</trkpt>
<trkpt lat="61.013678" lon="25.792415">
<time>2020-09-13T10:57:23Z</time>
</trkpt>
<trkpt lat="61.013676" lon="25.792258">
<time>2020-09-13T10:57:24Z</time>
</trkpt>
<trkpt lat="61.013674" lon="25.792102">
<time>2020-09-13T10:57:25Z</time>
</trkpt>
<trkpt lat="61.013666" lon="25.791946">
<time>2020-09-13T10:57:26Z</time>
</trkpt>
<trkpt lat="61.01365" lon="25.791791">
<time>2020-09-13T10:57:27Z</time>
</trkpt>
<trkpt lat="61.013632" lon="25.791634">
<time>2020-09-13T10:57:28Z</time>
</trkpt>
<trkpt lat="61.013613" lon="25.791475">
<time>2020-09-13T10:57:29Z</time>
</trkpt>
<trkpt lat="61.013594" lon="25.791317">
<time>2020-09-13T10:57:30Z</time>
</trkpt>
<trkpt lat="61.01358" lon="25.791158">
<time>2020-09-13T10:57:31Z</time>
</trkpt>
<trkpt lat="61.013582" lon="25.791005">
<time>2020-09-13T10:57:32Z</time>
</trkpt>
<trkpt lat="61.01361" lon="25.790875">
<time>2020-09-13T10:57:33Z</time>
</trkpt>
<trkpt lat="61.013662" lon="25.790785">
<time>2020-09-13T10:57:34Z</time>
</trkpt>
<trkpt lat="61.013736" lon="25.790741">
<time>2020-09-13T10:57:35Z</time>
</trkpt>
<trkpt lat="61.013817" lon="25.790713">
<time>2020-09-13T10:57:36Z</time>
</trkpt>
<trkpt lat="61.013899" lon="25.790688">
<time>2020-09-13T10:57:37Z</time>
</trkpt>
<trkpt lat="61.013973" lon="25.790648">
<time>2020-09-13T10:57:38Z</time>
</trkpt>
<trkpt lat="61.014045" lon="25.790598">
<time>2020-09-13T10:57:39Z</time>
</trkpt>
<trkpt lat="61.014114" lon="25.790533">
<time>2020-09-13T10:57:40Z</time>
</trkpt>
<trkpt lat="61.01418" lon="25.790452">
<time>2020-09-13T10:57:41Z</time>
</trkpt>
<trkpt lat="61.014242" lon="25.790354">
<time>2020-09-13T10:57:42Z</time>
</trkpt>
<trkpt lat="61.014301" lon="25.790239">
<time>2020-09-13T10:57:43Z</time>
</trkpt>
<trkpt lat="61.014352" lon="25.790108">
<time>2020-09-13T10:57:44Z</time>
</trkpt>
<trkpt lat="61.014395" lon="25.789965">
<time>2020-09-13T10:57:45Z</time>
</trkpt>
<trkpt lat="61.014418" lon="25.789802">
<time>2020-09-13T10:57:46Z</time>
</trkpt>
<trkpt lat="61.014411" lon="25.789623">
<time>2020-09-13T10:57:47Z</time>
</trkpt>
<trkpt lat="61.014382" lon="25.789433">
<time>2020-09-13T10:57:48Z</time>
</trkpt>
<trkpt lat="61.014345" lon="25.789245">
<time>2020-09-13T10:57:49Z</time>
</trkpt>
<trkpt lat="61.014315" lon="25.789058">
<time>2020-09-13T10:57:50Z</time>
</trkpt>
<trkpt lat="61.014288" lon="25.788867">
<time>2020-09-13T10:57:51Z</time>
</trkpt>
<trkpt lat="61.014262" lon="25.788676">
<time>2020-09-13T10:57:52Z</time>
</trkpt>
<trkpt lat="61.014234" lon="25.788486">
<time>2020-09-13T10:57:53Z</time>
</trkpt>
<trkpt lat="61.014205" lon="25.788298">
<time>2020-09-13T10:57:54Z</time>
</trkpt>
<trkpt lat="61.014176" lon="25.788114">
<time>2020-09-13T10:57:55Z</time>
</trkpt>
<trkpt lat="61.014148" lon="25.787931">
<time>2020-09-13T10:57:56Z</time>
</trkpt>
<trkpt lat="61.014121" lon="25.787751">
<time>2020-09-13T10:57:57Z</time>
</trkpt>
<trkpt lat="61.014093" lon="25.787573">
<time>2020-09-13T10:57:58Z</time>
</trkpt>
<trkpt lat="61.014067" lon="25.787395">
<time>2020-09-13T10:57:59Z</time>
</trkpt>
<trkpt lat="61.014043" lon="25.787218">
<time>2020-09-13T10:58:00Z</time>
</trkpt>
<trkpt lat="61.014021" lon="25.787041">
<time>2020-09-13T10:58:01Z</time>
</trkpt>
<trkpt lat="61.014001" lon="25.786864">
<time>2020-09-13T10:58:02Z</time>
</trkpt>
<trkpt lat="61.01398" lon="25.786686">
<time>2020-09-13T10:58:03Z</time>
</trkpt>
<trkpt lat="61.013959" lon="25.786505">
<time>2020-09-13T10:58:04Z</time>
</trkpt>
<trkpt lat="61.013932" lon="25.786327">
<time>2020-09-13T10:58:05Z</time>
</trkpt>
<trkpt lat="61.013898" lon="25.786155">
<time>2020-09-13T10:58:06Z</time>
</trkpt>
<trkpt lat="61.01385" lon="25.786001">
<time>2020-09-13T10:58:07Z</time>
</trkpt>
<trkpt lat="61.013791" lon="25.785865">
<time>2020-09-13T10:58:08Z</time>
</trkpt>
<trkpt lat="61.013721" lon="25.785747">
<time>2020-09-13T10:58:09Z</time>
</trkpt>
<trkpt lat="61.013649" lon="25.785635">
<time>2020-09-13T10:58:10Z</time>
</trkpt>
<trkpt lat="61.013578" lon="25.785523">
<time>2020-09-13T10:58:11Z</time>
</trkpt>
<trkpt lat="61.013508" lon="25.785412">
<time>2020-09-13T10:58:12Z</time>
</trkpt>
<trkpt lat="61.01344" lon="25.785304">
<time>2020-09-13T10:58:13Z</time>
</trkpt>
<trkpt lat="61.013372" lon="25.785199">
<time>2020-09-13T10:58:14Z</time>
</trkpt>
<trkpt lat="61.013302" lon="25.7851">
<time>2020-09-13T10:58:15Z</time>
</trkpt>
<trkpt lat="61.013232" lon="25.785">
<time>2020-09-13T10:58:16Z</time>
</trkpt>
<trkpt lat="61.013164" lon="25.784895">
<time>2020-09-13T10:58:17Z</time>
</trkpt>
<trkpt lat="61.013097" lon="25.784786">
<time>2020-09-13T10:58:18Z</time>
</trkpt>
<trkpt lat="61.013032" lon="25.784676">
<time>2020-09-13T10:58:19Z</time>
</trkpt>
<trkpt lat="61.012966" lon="25.784569">
<time>2020-09-13T10:58:20Z</time>
</trkpt>
<trkpt lat="61.012904" lon="25.78446">
<time>2020-09-13T10:58:21Z</time>
</trkpt>
<trkpt lat="61.012846" lon="25.784345">
<time>2020-09-13T10:58:22Z</time>
</trkpt>
<trkpt lat="61.012795" lon="25.78422">
<time>2020-09-13T10:58:23Z</time>
</trkpt>
<trkpt lat="61.012749" lon="25.784087">
<time>2020-09-13T10:58:24Z</time>
</trkpt>
<trkpt lat="61.012706" lon="25.783953">
<time>2020-09-13T10:58:25Z</time>
</trkpt>
<trkpt lat="61.012666" lon="25.78382">
<time>2020-09-13T10:58:26Z</time>
</trkpt>
<trkpt lat="61.012628" lon="25.78369">
<time>2020-09-13T10:58:27Z</time>
</trkpt>
<trkpt lat="61.012591" lon="25.783562">
<time>2020-09-13T10:58:28Z</time>
</trkpt>
<trkpt lat="61.012556" lon="25.783434">
<time>2020-09-13T10:58:29Z</time>
</trkpt>
<trkpt lat="61.012521" lon="25.783305">
<time>2020-09-13T10:58:30Z</time>
</trkpt>
<trkpt lat="61.012488" lon="25.783174">
<time>2020-09-13T10:58:31Z</time>
</trkpt>
<trkpt lat="61.012454" lon="25.783044">
<time>2020-09-13T10:58:32Z</time>
</trkpt>
<trkpt lat="61.012421" lon="25.782912">
<time>2020-09-13T10:58:33Z</time>
</trkpt>
<trkpt lat="61.012398" lon="25.782777">
<time>2020-09-13T10:58:34Z</time>
</trkpt>
<trkpt lat="61.012406" lon="25.782646">
<time>2020-09-13T10:58:35Z</time>
</trkpt>
<trkpt lat="61.012446" lon="25.78254">
<time>2020-09-13T10:58:36Z</time>
</trkpt>
<trkpt lat="61.012513" lon="25.78247">
<time>2020-09-13T10:58:37Z</time>
</trkpt>
<trkpt lat="61.012592" lon="25.782432">
<time>2020-09-13T10:58:38Z</time>
</trkpt>
<trkpt lat="61.012671" lon="25.782402">
<time>2020-09-13T10:58:39Z</time>
</trkpt>
<trkpt lat="61.012747" lon="25.782371">
<time>2020-09-13T10:58:40Z</time>
</trkpt>
<trkpt lat="61.012817" lon="25.782332">
<time>2020-09-13T10:58:41Z</time>
</trkpt>
<trkpt lat="61.012891" lon="25.782292">
<time>2020-09-13T10:58:42Z</time>
</trkpt>
<trkpt lat="61.012969" lon="25.782248">
<time>2020-09-13T10:58:43Z</time>
</trkpt>
<trkpt lat="61.01305" lon="25.782204">
<time>2020-09-13T10:58:44Z</time>
</trkpt>
<trkpt lat="61.013132" lon="25.782157">
<time>2020-09-13T10:58:45Z</time>
</trkpt>
<trkpt lat="61.013212" lon="25.782109">
<time>2020-09-13T10:58:46Z</time>
</trkpt>
<trkpt lat="61.013291" lon="25.782054">
<time>2020-09-13T10:58:47Z</time>
</trkpt>
<trkpt lat="61.013367" lon="25.781991">
<time>2020-09-13T10:58:48Z</time>
</trkpt>
<trkpt lat="61.013441" lon="25.781919">
<time>2020-09-13T10:58:49Z</time>
</trkpt>
<trkpt lat="61.013515" lon="25.78184">
<time>2020-09-13T10:58:50Z</time>
</trkpt>
<trkpt lat="61.013587" lon="25.781754">
<time>2020-09-13T10:58:51Z</time>
</trkpt>
<trkpt lat="61.013657" lon="25.781664">
<time>2020-09-13T10:58:52Z</time>
</trkpt>
<trkpt lat="61.013725" lon="25.781567">
<time>2020-09-13T10:58:53Z</time>
</trkpt>
<trkpt lat="61.013792" lon="25.781465">
<time>2020-09-13T10:58:54Z</time>
</trkpt>
<trkpt lat="61.013855" lon="25.781357">
<time>2020-09-13T10:58:55Z</time>
</trkpt>
<trkpt lat="61.013915" lon="25.781245">
<time>2020-09-13T10:58:56Z</time>
</trkpt>
<trkpt lat="61.013972" lon="25.781128">
<time>2020-09-13T10:58:57Z</time>
</trkpt>
<trkpt lat="61.014027" lon="25.78101">
<time>2020-09-13T10:58:58Z</time>
</trkpt>
<trkpt lat="61.014082" lon="25.780887">
<time>2020-09-13T10:58:59Z</time>
</trkpt>
<trkpt lat="61.014133" lon="25.780759">
<time>2020-09-13T10:59:00Z</time>
</trkpt>
<trkpt lat="61.01418" lon="25.780621">
<time>2020-09-13T10:59:01Z</time>
</trkpt>
<trkpt lat="61.014223" lon="25.780478">
<time>2020-09-13T10:59:02Z</time>
</trkpt>
<trkpt lat="61.014265" lon="25.780333">
<time>2020-09-13T10:59:03Z</time>
</trkpt>
<trkpt lat="61.014307" lon="25.78019">
<time>2020-09-13T10:59:04Z</time>
</trkpt>
<trkpt lat="61.01435" lon="25.780045">
<time>2020-09-13T10:59:05Z</time>
</trkpt>
<trkpt lat="61.014394" lon="25.7799">
<time>2020-09-13T10:59:06Z</time>
</trkpt>
<trkpt lat="61.014437" lon="25.779754">
<time>2020-09-13T10:59:07Z</time>
</trkpt>
<trkpt lat="61.014481" lon="25.779608">
<time>2020-09-13T10:59:08Z</time>
</trkpt>
<trkpt lat="61.014523" lon="25.779462">
<time>2020-09-13T10:59:09Z</time>
</trkpt>
<trkpt lat="61.014564" lon="25.779317">
<time>2020-09-13T10:59:10Z</time>
</trkpt>
<trkpt lat="61.014604" lon="25.779176">
<time>2020-09-13T10:59:11Z</time>
</trkpt>
<trkpt lat="61.014644" lon="25.779037">
<time>2020-09-13T10:59:12Z</time>
</trkpt>
<trkpt lat="61.014685" lon="25.778903">
<time>2020-09-13T10:59:13Z</time>
</trkpt>
<trkpt lat="61.014728" lon="25.77877">
<time>2020-09-13T10:59:14Z</time>
</trkpt>
<trkpt lat="61.014771" lon="25.778642">
<time>2020-09-13T10:59:15Z</time>
</trkpt>
<trkpt lat="61.014814" lon="25.778515">
<time>2020-09-13T10:59:16Z</time>
</trkpt>
<trkpt lat="61.014856" lon="25.77839">
<time>2020-09-13T10:59:17Z</time>
</trkpt>
<trkpt lat="61.014895" lon="25.778265">
<time>2020-09-13T10:59:18Z</time>
</trkpt>
<trkpt lat="61.014931" lon="25.778141">
<time>2020-09-13T10:59:19Z</time>
</trkpt>
<trkpt lat="61.014964" lon="25.778014">
<time>2020-09-13T10:59:20Z</time>
</trkpt>
<trkpt lat="61.014996" lon="25.777889">
<time>2020-09-13T10:59:21Z</time>
</trkpt>
<trkpt lat="61.015026" lon="25.777763">
<time>2020-09-13T10:59:22Z</time>
</trkpt>
<trkpt lat="61.015054" lon="25.777634">
<time>2020-09-13T10:59:23Z</time>
</trkpt>
<trkpt lat="61.015082" lon="25.7775">
<time>2020-09-13T10:59:24Z</time>
</trkpt>
<trkpt lat="61.015109" lon="25.777362">
<time>2020-09-13T10:59:25Z</time>
</trkpt>
<trkpt lat="61.015138" lon="25.777223">
<time>2020-09-13T10:59:26Z</time>
</trkpt>
<trkpt lat="61.015167" lon="25.777082">
<time>2020-09-13T10:59:27Z</time>
</trkpt>
<trkpt lat="61.015195" lon="25.776941">
<time>2020-09-13T10:59:28Z</time>
</trkpt>
<trkpt lat="61.015222" lon="25.776799">
<time>2020-09-13T10:59:29Z</time>
</trkpt>
<trkpt lat="61.015246" lon="25.776657">
<time>2020-09-13T10:59:30Z</time>
</trkpt>
<trkpt lat="61.015268" lon="25.776514">
<time>2020-09-13T10:59:31Z</time>
</trkpt>
<trkpt lat="61.01529" lon="25.776368">
<time>2020-09-13T10:59:32Z</time>
</trkpt>
<trkpt lat="61.015312" lon="25.776216">
<time>2020-09-13T10:59:33Z</time>
</trkpt>
<trkpt lat="61.015333" lon="25.776058">
<time>2020-09-13T10:59:34Z</time>
</trkpt>
<trkpt lat="61.015352" lon="25.775896">
<time>2020-09-13T10:59:35Z</time>
</trkpt>
<trkpt lat="61.015376" lon="25.775734">
<time>2020-09-13T10:59:36Z</time>
</trkpt>
<trkpt lat="61.015406" lon="25.775576">
<time>2020-09-13T10:59:37Z</time>
</trkpt>
<trkpt lat="61.015441" lon="25.775423">
<time>2020-09-13T10:59:38Z</time>
</trkpt>
<trkpt lat="61.015472" lon="25.775268">
<time>2020-09-13T10:59:39Z</time>
</trkpt>
<trkpt lat="61.015496" lon="25.775111">
<time>2020-09-13T10:59:40Z</time>
</trkpt>
<trkpt lat="61.015519" lon="25.774951">
<time>2020-09-13T10:59:41Z</time>
</trkpt>
<trkpt lat="61.015549" lon="25.7748">
<time>2020-09-13T10:59:42Z</time>
</trkpt>
<trkpt lat="61.015589" lon="25.774662">
<time>2020-09-13T10:59:43Z</time>
</trkpt>
<trkpt lat="61.015642" lon="25.77454">
<time>2020-09-13T10:59:44Z</time>
</trkpt>
<trkpt lat="61.015704" lon="25.774433">
<time>2020-09-13T10:59:45Z</time>
</trkpt>
<trkpt lat="61.015771" lon="25.774337">
<time>2020-09-13T10:59:46Z</time>
</trkpt>
<trkpt lat="61.015842" lon="25.774253">
<time>2020-09-13T10:59:47Z</time>
</trkpt>
<trkpt lat="61.015918" lon="25.774178">
<time>2020-09-13T10:59:48Z</time>
</trkpt>
<trkpt lat="61.015995" lon="25.774109">
<time>2020-09-13T10:59:49Z</time>
</trkpt>
<trkpt lat="61.016069" lon="25.774043">
<time>2020-09-13T10:59:50Z</time>
</trkpt>
<trkpt lat="61.016138" lon="25.773975">
<time>2020-09-13T10:59:51Z</time>
</trkpt>
<trkpt lat="61.016206" lon="25.773905">
<time>2020-09-13T10:59:52Z</time>
</trkpt>
<trkpt lat="61.016275" lon="25.773837">
<time>2020-09-13T10:59:53Z</time>
</trkpt>
<trkpt lat="61.016346" lon="25.77377">
<time>2020-09-13T10:59:54Z</time>
</trkpt>
<trkpt lat="61.016418" lon="25.773705">
<time>2020-09-13T10:59:55Z</time>
</trkpt>
<trkpt lat="61.016488" lon="25.77364">
<time>2020-09-13T10:59:56Z</time>
</trkpt>
<trkpt lat="61.016558" lon="25.773581">
<time>2020-09-13T10:59:57Z</time>
</trkpt>
<trkpt lat="61.016629" lon="25.773532">
<time>2020-09-13T10:59:58Z</time>
</trkpt>
<trkpt lat="61.0167" lon="25.773494">
<time>2020-09-13T10:59:59Z</time>
</trkpt>
<trkpt lat="61.016772" lon="25.773465">
<time>2020-09-13T11:00:00Z</time>
</trkpt>
<trkpt lat="61.016844" lon="25.77344">
<time>2020-09-13T11:00:01Z</time>
</trkpt>
<trkpt lat="61.016915" lon="25.773417">
<time>2020-09-13T11:00:02Z</time>
</trkpt>
<trkpt lat="61.016986" lon="25.773392">
<time>2020-09-13T11:00:03Z</time>
</trkpt>
<trkpt lat="61.017056" lon="25.773366">
<time>2020-09-13T11:00:04Z</time>
</trkpt>
<trkpt lat="61.017123" lon="25.773333">
<time>2020-09-13T11:00:05Z</time>
</trkpt>
<trkpt lat="61.017186" lon="25.77329">
<time>2020-09-13T11:00:06Z</time>
</trkpt>
<trkpt lat="61.017245" lon="25.773222">
<time>2020-09-13T11:00:07Z</time>
</trkpt>
<trkpt lat="61.017296" lon="25.773121">
<time>2020-09-13T11:00:08Z</time>
</trkpt>
<trkpt lat="61.017342" lon="25.773002">
<time>2020-09-13T11:00:09Z</time>
</trkpt>
<trkpt lat="61.01738" lon="25.77285">
<time>2020-09-13T11:00:10Z</time>
</trkpt>
<trkpt lat="61.017404" lon="25.772682">
<time>2020-09-13T11:00:11Z</time>
</trkpt>
<trkpt lat="61.017421" lon="25.772494">
<time>2020-09-13T11:00:12Z</time>
</trkpt>
<trkpt lat="61.017434" lon="25.77232">
<time>2020-09-13T11:00:13Z</time>
</trkpt>
<trkpt lat="61.017446" lon="25.772161">
<time>2020-09-13T11:00:14Z</time>
</trkpt>
<trkpt lat="61.017447" lon="25.772028">
<time>2020-09-13T11:00:15Z</time>
</trkpt>
<trkpt lat="61.017447" lon="25.771916">
<time>2020-09-13T11:00:16Z</time>
</trkpt>
<trkpt lat="61.017452" lon="25.771813">
<time>2020-09-13T11:00:17Z</time>
</trkpt>
<trkpt lat="61.017463" lon="25.771708">
<time>2020-09-13T11:00:18Z</time>
</trkpt>
<trkpt lat="61.017474" lon="25.771602">
<time>2020-09-13T11:00:19Z</time>
</trkpt>
<trkpt lat="61.017495" lon="25.771512">
<time>2020-09-13T11:00:20Z</time>
</trkpt>
<trkpt lat="61.017528" lon="25.771441">
<time>2020-09-13T11:00:21Z</time>
</trkpt>
<trkpt lat="61.017566" lon="25.77138">
<time>2020-09-13T11:00:22Z</time>
</trkpt>
<trkpt lat="61.017594" lon="25.771309">
<time>2020-09-13T11:00:23Z</time>
</trkpt>
<trkpt lat="61.017615" lon="25.771217">
<time>2020-09-13T11:00:24Z</time>
</trkpt>
<trkpt lat="61.017634" lon="25.771122">
<time>2020-09-13T11:00:25Z</time>
</trkpt>
<trkpt lat="61.017658" lon="25.771026">
<time>2020-09-13T11:00:26Z</time>
</trkpt>
<trkpt lat="61.017685" lon="25.770939">
<time>2020-09-13T11:00:27Z</time>
</trkpt>
<trkpt lat="61.017703" lon="25.770846">
<time>2020-09-13T11:00:28Z</time>
</trkpt>
<trkpt lat="61.017711" lon="25.770744">
<time>2020-09-13T11:00:29Z</time>
</trkpt>
<trkpt lat="61.017703" lon="25.770626">
<time>2020-09-13T11:00:30Z</time>
</trkpt>
<trkpt lat="61.017683" lon="25.770494">
<time>2020-09-13T11:00:31Z</time>
</trkpt>
<trkpt lat="61.01765" lon="25.770352">
<time>2020-09-13T11:00:32Z</time>
</trkpt>
<trkpt lat="61.01761" lon="25.770208">
<time>2020-09-13T11:00:33Z</time>
</trkpt>
<trkpt lat="61.017567" lon="25.77007">
<time>2020-09-13T11:00:34Z</time>
</trkpt>
<trkpt lat="61.017525" lon="25.769931">
<time>2020-09-13T11:00:35Z</time>
</trkpt>
<trkpt lat="61.01749" lon="25.769785">
<time>2020-09-13T11:00:36Z</time>
</trkpt>
<trkpt lat="61.017479" lon="25.769634">
<time>2020-09-13T11:00:37Z</time>
</trkpt>
<trkpt lat="61.017496" lon="25.769495">
<time>2020-09-13T11:00:38Z</time>
</trkpt>
<trkpt lat="61.017544" lon="25.769389">
<time>2020-09-13T11:00:39Z</time>
</trkpt>
<trkpt lat="61.017608" lon="25.769316">
<time>2020-09-13T11:00:40Z</time>
</trkpt>
<trkpt lat="61.01768" lon="25.769264">
<time>2020-09-13T11:00:41Z</time>
</trkpt>
<trkpt lat="61.017752" lon="25.769216">
<time>2020-09-13T11:00:42Z</time>
</trkpt>
<trkpt lat="61.017825" lon="25.769176">
<time>2020-09-13T11:00:43Z</time>
</trkpt>
<trkpt lat="61.017899" lon="25.769151">
<time>2020-09-13T11:00:44Z</time>
</trkpt>
<trkpt lat="61.017974" lon="25.769143">
<time>2020-09-13T11:00:45Z</time>
</trkpt>
<trkpt lat="61.018046" lon="25.769148">
<time>2020-09-13T11:00:46Z</time>
</trkpt>
<trkpt lat="61.018114" lon="25.769161">
<time>2020-09-13T11:00:47Z</time>
</trkpt>
<trkpt lat="61.018181" lon="25.76918">
<time>2020-09-13T11:00:48Z</time>
</trkpt>
<trkpt lat="61.018246" lon="25.7692">
<time>2020-09-13T11:00:49Z</time>
</trkpt>
<trkpt lat="61.018311" lon="25.769216">
<time>2020-09-13T11:00:50Z</time>
</trkpt>
<trkpt lat="61.018376" lon="25.769225">
<time>2020-09-13T11:00:51Z</time>
</trkpt>
<trkpt lat="61.018443" lon="25.769231">
<time>2020-09-13T11:00:52Z</time>
</trkpt>
<trkpt lat="61.018513" lon="25.769242">
<time>2020-09-13T11:00:53Z</time>
</trkpt>
<trkpt lat="61.018584" lon="25.769252">
<time>2020-09-13T11:00:54Z</time>
</trkpt>
<trkpt lat="61.018655" lon="25.769261">
<time>2020-09-13T11:00:55Z</time>
</trkpt>
<trkpt lat="61.018726" lon="25.769268">
<time>2020-09-13T11:00:56Z</time>
</trkpt>
<trkpt lat="61.018796" lon="25.769275">
<time>2020-09-13T11:00:57Z</time>
</trkpt>
<trkpt lat="61.018864" lon="25.769278">
<time>2020-09-13T11:00:58Z</time>
</trkpt>
<trkpt lat="61.01893" lon="25.769274">
<time>2020-09-13T11:00:59Z</time>
</trkpt>
<trkpt lat="61.018997" lon="25.769262">
<time>2020-09-13T11:01:00Z</time>
</trkpt>
<trkpt lat="61.019062" lon="25.769243">
<time>2020-09-13T11:01:01Z</time>
</trkpt>
<trkpt lat="61.019124" lon="25.769209">
<time>2020-09-13T11:01:02Z</time>
</trkpt>
<trkpt lat="61.019182" lon="25.769159">
<time>2020-09-13T11:01:03Z</time>
</trkpt>
<trkpt lat="61.019237" lon="25.769091">
<time>2020-09-13T11:01:04Z</time>
</trkpt>
<trkpt lat="61.01929" lon="25.769013">
<time>2020-09-13T11:01:05Z</time>
</trkpt>
<trkpt lat="61.019343" lon="25.768928">
<time>2020-09-13T11:01:06Z</time>
</trkpt>
<trkpt lat="61.019392" lon="25.768835">
<time>2020-09-13T11:01:07Z</time>
</trkpt>
<trkpt lat="61.019439" lon="25.768735">
<time>2020-09-13T11:01:08Z</time>
</trkpt>
<trkpt lat="61.019483" lon="25.768632">
<time>2020-09-13T11:01:09Z</time>
</trkpt>
<trkpt lat="61.019529" lon="25.768531">
<time>2020-09-13T11:01:10Z</time>
</trkpt>
<trkpt lat="61.019579" lon="25.768437">
<time>2020-09-13T11:01:11Z</time>
</trkpt>
<trkpt lat="61.019631" lon="25.768351">
<time>2020-09-13T11:01:12Z</time>
</trkpt>
<trkpt lat="61.019684" lon="25.768268">
<time>2020-09-13T11:01:13Z</time>
</trkpt>
<trkpt lat="61.019729" lon="25.768177">
<time>2020-09-13T11:01:14Z</time>
</trkpt>
<trkpt lat="61.019761" lon="25.768069">
<time>2020-09-13T11:01:15Z</time>
</trkpt>
<trkpt lat="61.01977" lon="25.767937">
<time>2020-09-13T11:01:16Z</time>
</trkpt>
<trkpt lat="61.019759" lon="25.76779">
<time>2020-09-13T11:01:17Z</time>
</trkpt>
<trkpt lat="61.019737" lon="25.767634">
<time>2020-09-13T11:01:18Z</time>
</trkpt>
<trkpt lat="61.019717" lon="25.767477">
<time>2020-09-13T11:01:19Z</time>
</trkpt>
<trkpt lat="61.019699" lon="25.767318">
<time>2020-09-13T11:01:20Z</time>
</trkpt>
<trkpt lat="61.019683" lon="25.767158">
<time>2020-09-13T11:01:21Z</time>
</trkpt>
<trkpt lat="61.019669" lon="25.766999">
<time>2020-09-13T11:01:22Z</time>
</trkpt>
<trkpt lat="61.019655" lon="25.766837">
<time>2020-09-13T11:01:23Z</time>
</trkpt>
<trkpt lat="61.019643" lon="25.766673">
<time>2020-09-13T11:01:24Z</time>
</trkpt>
<trkpt lat="61.019631" lon="25.766508">
<time>2020-09-13T11:01:25Z</time>
</trkpt>
<trkpt lat="61.019622" lon="25.766347">
<time>2020-09-13T11:01:26Z</time>
</trkpt>
<trkpt lat="61.019613" lon="25.766195">
<time>2020-09-13T11:01:27Z</time>
</trkpt>
<trkpt lat="61.019602" lon="25.766055">
<time>2020-09-13T11:01:28Z</time>
</trkpt>
<trkpt lat="61.019586" lon="25.765924">
<time>2020-09-13T11:01:29Z</time>
</trkpt>
<trkpt lat="61.019566" lon="25.765802">
<time>2020-09-13T11:01:30Z</time>
</trkpt>
<trkpt lat="61.019541" lon="25.765688">
<time>2020-09-13T11:01:31Z</time>
</trkpt>
<trkpt lat="61.01951" lon="25.765581">
<time>2020-09-13T11:01:32Z</time>
</trkpt>
<trkpt lat="61.019473" lon="25.765482">
<time>2020-09-13T11:01:33Z</time>
</trkpt>
<trkpt lat="61.019431" lon="25.765394">
<time>2020-09-13T11:01:34Z</time>
</trkpt>
<trkpt lat="61.019386" lon="25.765316">
<time>2020-09-13T11:01:35Z</time>
</trkpt>
<trkpt lat="61.019338" lon="25.765248">
<time>2020-09-13T11:01:36Z</time>
</trkpt>
<trkpt lat="61.019289" lon="25.765182">
<time>2020-09-13T11:01:37Z</time>
</trkpt>
<trkpt lat="61.019244" lon="25.765115">
<time>2020-09-13T11:01:38Z</time>
</trkpt>
<trkpt lat="61.019206" lon="25.765053">
<time>2020-09-13T11:01:39Z</time>
</trkpt>
<trkpt lat="61.019177" lon="25.765012">
<time>2020-09-13T11:01:40Z</time>
</trkpt>
<trkpt lat="61.019162" lon="25.764994">
<time>2020-09-13T11:01:41Z</time>
</trkpt>
<trkpt lat="61.019153" lon="25.764993">
<time>2020-09-13T11:01:42Z</time>
</trkpt>
<trkpt lat="61.019149" lon="25.764994">
<time>2020-09-13T11:01:43Z</time>
</trkpt>
<trkpt lat="61.019149" lon="25.764995">
<time>2020-09-13T11:01:44Z</time>
</trkpt>
<trkpt lat="61.01915" lon="25.764995">
<time>2020-09-13T11:01:45Z</time>
</trkpt>
<trkpt lat="61.019151" lon="25.764998">
<time>2020-09-13T11:01:46Z</time>
</trkpt>
<trkpt lat="61.019151" lon="25.765002">
<time>2020-09-13T11:01:47Z</time>
</trkpt>
<trkpt lat="61.019151" lon="25.765005">
<time>2020-09-13T11:01:48Z</time>
</trkpt>
<trkpt lat="61.019152" lon="25.765004">
<time>2020-09-13T11:01:49Z</time>
</trkpt>
<trkpt lat="61.019151" lon="25.765004">
<time>2020-09-13T11:01:50Z</time>
</trkpt>
<trkpt lat="61.01915" lon="25.765006">
<time>2020-09-13T11:01:51Z</time>
</trkpt>
<trkpt lat="61.019149" lon="25.765008">
<time>2020-09-13T11:01:52Z</time>
</trkpt>
<trkpt lat="61.019148" lon="25.765009">
<time>2020-09-13T11:01:53Z</time>
</trkpt>
<trkpt lat="61.019148" lon="25.765009">
<time>2020-09-13T11:01:54Z</time>
</trkpt>
<trkpt lat="61.019148" lon="25.76501">
<time>2020-09-13T11:01:55Z</time>
</trkpt>
<trkpt lat="61.019149" lon="25.76501">
<time>2020-09-13T11:01:56Z</time>
</trkpt>
<trkpt lat="61.01915" lon="25.765011">
<time>2020-09-13T11:01:57Z</time>
</trkpt>
<trkpt lat="61.019151" lon="25.765014">
<time>2020-09-13T11:01:58Z</time>
</trkpt>
<trkpt lat="61.019154" lon="25.765019">
<time>2020-09-13T11:01:59Z</time>
</trkpt>
<trkpt lat="61.019159" lon="25.765033">
<time>2020-09-13T11:02:00Z</time>
</trkpt>
<trkpt lat="61.019168" lon="25.765049">
<time>2020-09-13T11:02:01Z</time>
</trkpt>
<trkpt lat="61.019183" lon="25.765064">
<time>2020-09-13T11:02:02Z</time>
</trkpt>
<trkpt lat="61.019203" lon="25.765074">
<time>2020-09-13T11:02:03Z</time>
</trkpt>
<trkpt lat="61.01923" lon="25.765086">
<time>2020-09-13T11:02:04Z</time>
</trkpt>
<trkpt lat="61.019261" lon="25.765107">
<time>2020-09-13T11:02:05Z</time>
</trkpt>
<trkpt lat="61.019293" lon="25.765139">
<time>2020-09-13T11:02:06Z</time>
</trkpt>
<trkpt lat="61.019326" lon="25.765184">
<time>2020-09-13T11:02:07Z</time>
</trkpt>
<trkpt lat="61.01936" lon="25.765244">
<time>2020-09-13T11:02:08Z</time>
</trkpt>
<trkpt lat="61.019396" lon="25.765318">
<time>2020-09-13T11:02:09Z</time>
</trkpt>
<trkpt lat="61.019433" lon="25.765405">
<time>2020-09-13T11:02:10Z</time>
</trkpt>
<trkpt lat="61.01947" lon="25.765504">
<time>2020-09-13T11:02:11Z</time>
</trkpt>
<trkpt lat="61.019504" lon="25.765616">
<time>2020-09-13T11:02:12Z</time>
</trkpt>
<trkpt lat="61.019535" lon="25.765742">
<time>2020-09-13T11:02:13Z</time>
</trkpt>
<trkpt lat="61.01956" lon="25.76588">
<time>2020-09-13T11:02:14Z</time>
</trkpt>
<trkpt lat="61.019578" lon="25.766029">
<time>2020-09-13T11:02:15Z</time>
</trkpt>
<trkpt lat="61.019588" lon="25.766182">
<time>2020-09-13T11:02:16Z</time>
</trkpt>
<trkpt lat="61.019599" lon="25.766333">
<time>2020-09-13T11:02:17Z</time>
</trkpt>
<trkpt lat="61.01962" lon="25.766468">
<time>2020-09-13T11:02:18Z</time>
</trkpt>
<trkpt lat="61.019654" lon="25.766572">
<time>2020-09-13T11:02:19Z</time>
</trkpt>
<trkpt lat="61.019701" lon="25.766624">
<time>2020-09-13T11:02:20Z</time>
</trkpt>
<trkpt lat="61.019755" lon="25.766633">
<time>2020-09-13T11:02:21Z</time>
</trkpt>
<trkpt lat="61.019818" lon="25.766619">
<time>2020-09-13T11:02:22Z</time>
</trkpt>
<trkpt lat="61.019884" lon="25.7666">
<time>2020-09-13T11:02:23Z</time>
</trkpt>
<trkpt lat="61.019949" lon="25.766575">
<time>2020-09-13T11:02:24Z</time>
</trkpt>
<trkpt lat="61.020011" lon="25.766537">
<time>2020-09-13T11:02:25Z</time>
</trkpt>
<trkpt lat="61.020069" lon="25.766494">
<time>2020-09-13T11:02:26Z</time>
</trkpt>
<trkpt lat="61.020126" lon="25.766447">
<time>2020-09-13T11:02:27Z</time>
</trkpt>
<trkpt lat="61.020183" lon="25.766394">
<time>2020-09-13T11:02:28Z</time>
</trkpt>
<trkpt lat="61.02024" lon="25.766336">
<time>2020-09-13T11:02:29Z</time>
</trkpt>
<trkpt lat="61.020294" lon="25.766274">
<time>2020-09-13T11:02:30Z</time>
</trkpt>
<trkpt lat="61.020346" lon="25.76621">
<time>2020-09-13T11:02:31Z</time>
</trkpt>
<trkpt lat="61.020394" lon="25.766143">
<time>2020-09-13T11:02:32Z</time>
</trkpt>
<trkpt lat="61.020439" lon="25.766071">
<time>2020-09-13T11:02:33Z</time>
</trkpt>
<trkpt lat="61.020482" lon="25.765999">
<time>2020-09-13T11:02:34Z</time>
</trkpt>
<trkpt lat="61.020526" lon="25.765927">
<time>2020-09-13T11:02:35Z</time>
</trkpt>
<trkpt lat="61.02057" lon="25.765855">
<time>2020-09-13T11:02:36Z</time>
</trkpt>
<trkpt lat="61.020614" lon="25.76578">
<time>2020-09-13T11:02:37Z</time>
</trkpt>
<trkpt lat="61.020658" lon="25.765703">
<time>2020-09-13T11:02:38Z</time>
</trkpt>
<trkpt lat="61.0207" lon="25.765623">
<time>2020-09-13T11:02:39Z</time>
</trkpt>
<trkpt lat="61.020744" lon="25.765547">
<time>2020-09-13T11:02:40Z</time>
</trkpt>
<trkpt lat="61.020788" lon="25.765476">
<time>2020-09-13T11:02:41Z</time>
</trkpt>
<trkpt lat="61.020832" lon="25.765407">
<time>2020-09-13T11:02:42Z</time>
</trkpt>
<trkpt lat="61.020877" lon="25.765339">
<time>2020-09-13T11:02:43Z</time>
</trkpt>
<trkpt lat="61.020924" lon="25.765271">
<time>2020-09-13T11:02:44Z</time>
</trkpt>
<trkpt lat="61.020973" lon="25.765209">
<time>2020-09-13T11:02:45Z</time>
</trkpt>
<trkpt lat="61.021028" lon="25.765156">
<time>2020-09-13T11:02:46Z</time>
</trkpt>
<trkpt lat="61.021085" lon="25.765112">
<time>2020-09-13T11:02:47Z</time>
</trkpt>
<trkpt lat="61.021145" lon="25.76507">
<time>2020-09-13T11:02:48Z</time>
</trkpt>
<trkpt lat="61.021204" lon="25.765023">
<time>2020-09-13T11:02:49Z</time>
</trkpt>
<trkpt lat="61.021263" lon="25.76497">
<time>2020-09-13T11:02:50Z</time>
</trkpt>
<trkpt lat="61.02132" lon="25.764913">
<time>2020-09-13T11:02:51Z</time>
</trkpt>
<trkpt lat="61.021378" lon="25.764858">
<time>2020-09-13T11:02:52Z</time>
</trkpt>
<trkpt lat="61.021436" lon="25.764807">
<time>2020-09-13T11:02:53Z</time>
</trkpt>
<trkpt lat="61.021496" lon="25.764765">
<time>2020-09-13T11:02:54Z</time>
</trkpt>
<trkpt lat="61.021558" lon="25.764743">
<time>2020-09-13T11:02:55Z</time>
</trkpt>
<trkpt lat="61.021623" lon="25.764752">
<time>2020-09-13T11:02:56Z</time>
</trkpt>
<trkpt lat="61.021688" lon="25.764795">
<time>2020-09-13T11:02:57Z</time>
</trkpt>
<trkpt lat="61.021749" lon="25.764867">
<time>2020-09-13T11:02:58Z</time>
</trkpt>
<trkpt lat="61.021805" lon="25.764966">
<time>2020-09-13T11:02:59Z</time>
</trkpt>
<trkpt lat="61.021854" lon="25.765089">
<time>2020-09-13T11:03:00Z</time>
</trkpt>
<trkpt lat="61.021899" lon="25.765231">
<time>2020-09-13T11:03:01Z</time>
</trkpt>
<trkpt lat="61.021942" lon="25.765385">
<time>2020-09-13T11:03:02Z</time>
</trkpt>
<trkpt lat="61.021982" lon="25.765547">
<time>2020-09-13T11:03:03Z</time>
</trkpt>
<trkpt lat="61.022021" lon="25.765714">
<time>2020-09-13T11:03:04Z</time>
</trkpt>
<trkpt lat="61.022056" lon="25.765879">
<time>2020-09-13T11:03:05Z</time>
</trkpt>
<trkpt lat="61.022087" lon="25.766044">
<time>2020-09-13T11:03:06Z</time>
</trkpt>
<trkpt lat="61.022112" lon="25.766207">
<time>2020-09-13T11:03:07Z</time>
</trkpt>
<trkpt lat="61.022135" lon="25.766358">
<time>2020-09-13T11:03:08Z</time>
</trkpt>
<trkpt lat="61.022165" lon="25.766484">
<time>2020-09-13T11:03:09Z</time>
</trkpt>
<trkpt lat="61.02221" lon="25.766572">
<time>2020-09-13T11:03:10Z</time>
</trkpt>
<trkpt lat="61.02227" lon="25.766622">
<time>2020-09-13T11:03:11Z</time>
</trkpt>
<trkpt lat="61.022338" lon="25.766639">
<time>2020-09-13T11:03:12Z</time>
</trkpt>
<trkpt lat="61.02241" lon="25.766633">
<time>2020-09-13T11:03:13Z</time>
</trkpt>
<trkpt lat="61.022483" lon="25.766616">
<time>2020-09-13T11:03:14Z</time>
</trkpt>
<trkpt lat="61.022556" lon="25.76659">
<time>2020-09-13T11:03:15Z</time>
</trkpt>
<trkpt lat="61.022627" lon="25.766562">
<time>2020-09-13T11:03:16Z</time>
</trkpt>
<trkpt lat="61.022695" lon="25.766534">
<time>2020-09-13T11:03:17Z</time>
</trkpt>
<trkpt lat="61.022758" lon="25.766514">
<time>2020-09-13T11:03:18Z</time>
</trkpt>
<trkpt lat="61.022815" lon="25.766493">
<time>2020-09-13T11:03:19Z</time>
</trkpt>
<trkpt lat="61.022863" lon="25.766473">
<time>2020-09-13T11:03:20Z</time>
</trkpt>
<trkpt lat="61.022901" lon="25.766442">
<time>2020-09-13T11:03:21Z</time>
</trkpt>
<trkpt lat="61.022933" lon="25.76641">
<time>2020-09-13T11:03:22Z</time>
</trkpt>
<trkpt lat="61.022963" lon="25.766376">
<time>2020-09-13T11:03:23Z</time>
</trkpt>
<trkpt lat="61.022997" lon="25.766344">
<time>2020-09-13T11:03:24Z</time>
</trkpt>
<trkpt lat="61.023035" lon="25.766316">
<time>2020-09-13T11:03:25Z</time>
</trkpt>
<trkpt lat="61.023076" lon="25.766284">
<time>2020-09-13T11:03:26Z</time>
</trkpt>
<trkpt lat="61.023119" lon="25.766252">
<time>2020-09-13T11:03:27Z</time>
</trkpt>
<trkpt lat="61.02316" lon="25.766225">
<time>2020-09-13T11:03:28Z</time>
</trkpt>
<trkpt lat="61.023203" lon="25.766211">
<time>2020-09-13T11:03:29Z</time>
</trkpt>
<trkpt lat="61.023248" lon="25.766201">
<time>2020-09-13T11:03:30Z</time>
</trkpt>
<trkpt lat="61.023295" lon="25.766196">
<time>2020-09-13T11:03:31Z</time>
</trkpt>
<trkpt lat="61.023343" lon="25.766198">
<time>2020-09-13T11:03:32Z</time>
</trkpt>
<trkpt lat="61.023388" lon="25.76621">
<time>2020-09-13T11:03:33Z</time>
</trkpt>
<trkpt lat="61.023429" lon="25.766217">
<time>2020-09-13T11:03:34Z</time>
</trkpt>
<trkpt lat="61.023462" lon="25.766224">
<time>2020-09-13T11:03:35Z</time>
</trkpt>
<trkpt lat="61.023492" lon="25.766229">
<time>2020-09-13T11:03:36Z</time>
</trkpt>
<trkpt lat="61.02352" lon="25.766236">
<time>2020-09-13T11:03:37Z</time>
</trkpt>
<trkpt lat="61.023549" lon="25.766236">
<time>2020-09-13T11:03:38Z</time>
</trkpt>
<trkpt lat="61.023579" lon="25.766237">
<time>2020-09-13T11:03:39Z</time>
</trkpt>
<trkpt lat="61.023612" lon="25.766237">
<time>2020-09-13T11:03:40Z</time>
</trkpt>
<trkpt lat="61.023647" lon="25.766236">
<time>2020-09-13T11:03:41Z</time>
</trkpt>
<trkpt lat="61.023686" lon="25.76624">
<time>2020-09-13T11:03:42Z</time>
</trkpt>
<trkpt lat="61.023722" lon="25.766259">
<time>2020-09-13T11:03:43Z</time>
</trkpt>
<trkpt lat="61.023754" lon="25.766289">
<time>2020-09-13T11:03:44Z</time>
</trkpt>
<trkpt lat="61.023781" lon="25.766312">
<time>2020-09-13T11:03:45Z</time>
</trkpt>
<trkpt lat="61.023811" lon="25.766321">
<time>2020-09-13T11:03:46Z</time>
</trkpt>
<trkpt lat="61.02384" lon="25.766328">
<time>2020-09-13T11:03:47Z</time>
</trkpt>
<trkpt lat="61.023864" lon="25.766358">
<time>2020-09-13T11:03:48Z</time>
</trkpt>
<trkpt lat="61.023881" lon="25.766409">
<time>2020-09-13T11:03:49Z</time>
</trkpt>
<trkpt lat="61.023893" lon="25.766466">
<time>2020-09-13T11:03:50Z</time>
</trkpt>
<trkpt lat="61.023907" lon="25.76651">
<time>2020-09-13T11:03:51Z</time>
</trkpt>
<trkpt lat="61.02392" lon="25.766549">
<time>2020-09-13T11:03:52Z</time>
</trkpt>
<trkpt lat="61.023931" lon="25.766603">
<time>2020-09-13T11:03:53Z</time>
</trkpt>
<trkpt lat="61.023943" lon="25.766667">
<time>2020-09-13T11:03:54Z</time>
</trkpt>
<trkpt lat="61.023956" lon="25.766736">
<time>2020-09-13T11:03:55Z</time>
</trkpt>
<trkpt lat="61.023973" lon="25.766795">
<time>2020-09-13T11:03:56Z</time>
</trkpt>
<trkpt lat="61.023991" lon="25.766848">
<time>2020-09-13T11:03:57Z</time>
</trkpt>
<trkpt lat="61.024011" lon="25.766894">
<time>2020-09-13T11:03:58Z</time>
</trkpt>
<trkpt lat="61.024035" lon="25.766938">
<time>2020-09-13T11:03:59Z</time>
</trkpt>
<trkpt lat="61.024063" lon="25.766985">
<time>2020-09-13T11:04:00Z</time>
</trkpt>
<trkpt lat="61.024088" lon="25.767038">
<time>2020-09-13T11:04:01Z</time>
</trkpt>
<trkpt lat="61.024108" lon="25.767097">
<time>2020-09-13T11:04:02Z</time>
</trkpt>
<trkpt lat="61.02413" lon="25.767166">
<time>2020-09-13T11:04:03Z</time>
</trkpt>
<trkpt lat="61.024159" lon="25.767236">
<time>2020-09-13T11:04:04Z</time>
</trkpt>
<trkpt lat="61.024195" lon="25.767304">
<time>2020-09-13T11:04:05Z</time>
</trkpt>
<trkpt lat="61.024235" lon="25.767367">
<time>2020-09-13T11:04:06Z</time>
</trkpt>
<trkpt lat="61.024276" lon="25.767423">
<time>2020-09-13T11:04:07Z</time>
</trkpt>
<trkpt lat="61.02432" lon="25.767471">
<time>2020-09-13T11:04:08Z</time>
</trkpt>
<trkpt lat="61.024364" lon="25.76751">
<time>2020-09-13T11:04:09Z</time>
</trkpt>
<trkpt lat="61.024408" lon="25.767544">
<time>2020-09-13T11:04:10Z</time>
</trkpt>
<trkpt lat="61.024456" lon="25.767555">
<time>2020-09-13T11:04:11Z</time>
</trkpt>
<trkpt lat="61.024507" lon="25.767537">
<time>2020-09-13T11:04:12Z</time>
</trkpt>
<trkpt lat="61.024557" lon="25.767495">
<time>2020-09-13T11:04:13Z</time>
</trkpt>
<trkpt lat="61.024602" lon="25.767455">
<time>2020-09-13T11:04:14Z</time>
</trkpt>
<trkpt lat="61.024645" lon="25.767434">
<time>2020-09-13T11:04:15Z</time>
</trkpt>
<trkpt lat="61.024686" lon="25.767431">
<time>2020-09-13T11:04:16Z</time>
</trkpt>
<trkpt lat="61.024724" lon="25.767439">
<time>2020-09-13T11:04:17Z</time>
</trkpt>
<trkpt lat="61.024764" lon="25.767447">
<time>2020-09-13T11:04:18Z</time>
</trkpt>
<trkpt lat="61.024807" lon="25.767449">
<time>2020-09-13T11:04:19Z</time>
</trkpt>
<trkpt lat="61.024851" lon="25.767462">
<time>2020-09-13T11:04:20Z</time>
</trkpt>
<trkpt lat="61.024896" lon="25.767479">
<time>2020-09-13T11:04:21Z</time>
</trkpt>
<trkpt lat="61.024936" lon="25.767503">
<time>2020-09-13T11:04:22Z</time>
</trkpt>
<trkpt lat="61.024974" lon="25.767529">
<time>2020-09-13T11:04:23Z</time>
</trkpt>
<trkpt lat="61.025008" lon="25.76756">
<time>2020-09-13T11:04:24Z</time>
</trkpt>
<trkpt lat="61.025041" lon="25.767598">
<time>2020-09-13T11:04:25Z</time>
</trkpt>
<trkpt lat="61.025071" lon="25.767641">
<time>2020-09-13T11:04:26Z</time>
</trkpt>
<trkpt lat="61.025099" lon="25.767698">
<time>2020-09-13T11:04:27Z</time>
</trkpt>
<trkpt lat="61.025124" lon="25.767771">
<time>2020-09-13T11:04:28Z</time>
</trkpt>
<trkpt lat="61.025144" lon="25.767848">
<time>2020-09-13T11:04:29Z</time>
</trkpt>
<trkpt lat="61.025159" lon="25.767923">
<time>2020-09-13T11:04:30Z</time>
</trkpt>
<trkpt lat="61.025171" lon="25.767989">
<time>2020-09-13T11:04:31Z</time>
</trkpt>
<trkpt lat="61.025187" lon="25.768049">
<time>2020-09-13T11:04:32Z</time>
</trkpt>
<trkpt lat="61.025205" lon="25.768097">
<time>2020-09-13T11:04:33Z</time>
</trkpt>
<trkpt lat="61.025226" lon="25.768145">
<time>2020-09-13T11:04:34Z</time>
</trkpt>
<trkpt lat="61.025245" lon="25.768193">
<time>2020-09-13T11:04:35Z</time>
</trkpt>
<trkpt lat="61.025261" lon="25.768241">
<time>2020-09-13T11:04:36Z</time>
</trkpt>
<trkpt lat="61.025271" lon="25.768286">
<time>2020-09-13T11:04:37Z</time>
</trkpt>
<trkpt lat="61.025281" lon="25.76833">
<time>2020-09-13T11:04:38Z</time>
</trkpt>
<trkpt lat="61.025287" lon="25.768376">
<time>2020-09-13T11:04:39Z</time>
</trkpt>
<trkpt lat="61.025291" lon="25.768424">
<time>2020-09-13T11:04:40Z</time>
</trkpt>
<trkpt lat="61.025288" lon="25.76847">
<time>2020-09-13T11:04:41Z</time>
</trkpt>
<trkpt lat="61.025285" lon="25.768517">
<time>2020-09-13T11:04:42Z</time>
</trkpt>
<trkpt lat="61.025274" lon="25.76858">
<time>2020-09-13T11:04:43Z</time>
</trkpt>
<trkpt lat="61.025261" lon="25.768649">
<time>2020-09-13T11:04:44Z</time>
</trkpt>
<trkpt lat="61.02525" lon="25.76872">
<time>2020-09-13T11:04:45Z</time>
</trkpt>
<trkpt lat="61.025245" lon="25.768777">
<time>2020-09-13T11:04:46Z</time>
</trkpt>
<trkpt lat="61.025244" lon="25.76883">
<time>2020-09-13T11:04:47Z</time>
</trkpt>
<trkpt lat="61.025242" lon="25.768888">
<time>2020-09-13T11:04:48Z</time>
</trkpt>
<trkpt lat="61.025241" lon="25.768944">
<time>2020-09-13T11:04:49Z</time>
</trkpt>
<trkpt lat="61.02524" lon="25.769001">
<time>2020-09-13T11:04:50Z</time>
</trkpt>
<trkpt lat="61.025237" lon="25.769053">
<time>2020-09-13T11:04:51Z</time>
</trkpt>
<trkpt lat="61.025232" lon="25.769105">
<time>2020-09-13T11:04:52Z</time>
</trkpt>
<trkpt lat="61.025228" lon="25.769156">
<time>2020-09-13T11:04:53Z</time>
</trkpt>
<trkpt lat="61.025221" lon="25.769207">
<time>2020-09-13T11:04:54Z</time>
</trkpt>
<trkpt lat="61.025215" lon="25.769258">
<time>2020-09-13T11:04:55Z</time>
</trkpt>
<trkpt lat="61.025208" lon="25.769304">
<time>2020-09-13T11:04:56Z</time>
</trkpt>
<trkpt lat="61.025202" lon="25.769355">
<time>2020-09-13T11:04:57Z</time>
</trkpt>
<trkpt lat="61.025194" lon="25.769412">
<time>2020-09-13T11:04:58Z</time>
</trkpt>
<trkpt lat="61.025188" lon="25.769472">
<time>2020-09-13T11:04:59Z</time>
</trkpt>
<trkpt lat="61.025186" lon="25.769526">
<time>2020-09-13T11:05:00Z</time>
</trkpt>
<trkpt lat="61.025187" lon="25.769575">
<time>2020-09-13T11:05:01Z</time>
</trkpt>
<trkpt lat="61.025189" lon="25.769629">
<time>2020-09-13T11:05:02Z</time>
</trkpt>
<trkpt lat="61.025192" lon="25.769684">
<time>2020-09-13T11:05:03Z</time>
</trkpt>
<trkpt lat="61.025194" lon="25.769742">
<time>2020-09-13T11:05:04Z</time>
</trkpt>
<trkpt lat="61.025196" lon="25.769803">
<time>2020-09-13T11:05:05Z</time>
</trkpt>
<trkpt lat="61.025199" lon="25.769861">
<time>2020-09-13T11:05:06Z</time>
</trkpt>
<trkpt lat="61.025202" lon="25.769906">
<time>2020-09-13T11:05:07Z</time>
</trkpt>
<trkpt lat="61.025209" lon="25.769933">
<time>2020-09-13T11:05:08Z</time>
</trkpt>
<trkpt lat="61.02522" lon="25.769948">
<time>2020-09-13T11:05:09Z</time>
</trkpt>
<trkpt lat="61.025234" lon="25.769963">
<time>2020-09-13T11:05:10Z</time>
</trkpt>
<trkpt lat="61.025246" lon="25.769985">
<time>2020-09-13T11:05:11Z</time>
</trkpt>
<trkpt lat="61.025255" lon="25.770014">
<time>2020-09-13T11:05:12Z</time>
</trkpt>
<trkpt lat="61.025263" lon="25.770048">
<time>2020-09-13T11:05:13Z</time>
</trkpt>
<trkpt lat="61.025273" lon="25.770088">
<time>2020-09-13T11:05:14Z</time>
</trkpt>
<trkpt lat="61.025289" lon="25.770132">
<time>2020-09-13T11:05:15Z</time>
</trkpt>
<trkpt lat="61.025306" lon="25.77018">
<time>2020-09-13T11:05:16Z</time>
</trkpt>
<trkpt lat="61.025322" lon="25.770244">
<time>2020-09-13T11:05:17Z</time>
</trkpt>
<trkpt lat="61.025335" lon="25.770315">
<time>2020-09-13T11:05:18Z</time>
</trkpt>
<trkpt lat="61.025352" lon="25.770385">
<time>2020-09-13T11:05:19Z</time>
</trkpt>
<trkpt lat="61.025373" lon="25.770442">
<time>2020-09-13T11:05:20Z</time>
</trkpt>
<trkpt lat="61.025396" lon="25.770488">
<time>2020-09-13T11:05:21Z</time>
</trkpt>
<trkpt lat="61.025415" lon="25.770532">
<time>2020-09-13T11:05:22Z</time>
</trkpt>
<trkpt lat="61.025433" lon="25.770576">
<time>2020-09-13T11:05:23Z</time>
</trkpt>
<trkpt lat="61.025452" lon="25.770621">
<time>2020-09-13T11:05:24Z</time>
</trkpt>
<trkpt lat="61.025475" lon="25.770662">
<time>2020-09-13T11:05:25Z</time>
</trkpt>
<trkpt lat="61.025502" lon="25.770697">
<time>2020-09-13T11:05:26Z</time>
</trkpt>
<trkpt lat="61.025527" lon="25.770734">
<time>2020-09-13T11:05:27Z</time>
</trkpt>
<trkpt lat="61.02555" lon="25.77078">
<time>2020-09-13T11:05:28Z</time>
</trkpt>
<trkpt lat="61.02557" lon="25.770831">
<time>2020-09-13T11:05:29Z</time>
</trkpt>
<trkpt lat="61.025591" lon="25.770872">
<time>2020-09-13T11:05:30Z</time>
</trkpt>
<trkpt lat="61.025615" lon="25.77091">
<time>2020-09-13T11:05:31Z</time>
</trkpt>
<trkpt lat="61.025639" lon="25.770946">
<time>2020-09-13T11:05:32Z</time>
</trkpt>
<trkpt lat="61.025663" lon="25.770986">
<time>2020-09-13T11:05:33Z</time>
</trkpt>
<trkpt lat="61.025684" lon="25.77102">
<time>2020-09-13T11:05:34Z</time>
</trkpt>
<trkpt lat="61.025705" lon="25.771046">
<time>2020-09-13T11:05:35Z</time>
</trkpt>
<trkpt lat="61.025727" lon="25.77106">
<time>2020-09-13T11:05:36Z</time>
</trkpt>
<trkpt lat="61.025754" lon="25.77107">
<time>2020-09-13T11:05:37Z</time>
</trkpt>
<trkpt lat="61.025788" lon="25.771077">
<time>2020-09-13T11:05:38Z</time>
</trkpt>
<trkpt lat="61.025823" lon="25.771088">
<time>2020-09-13T11:05:39Z</time>
</trkpt>
<trkpt lat="61.025857" lon="25.7711">
<time>2020-09-13T11:05:40Z</time>
</trkpt>
<trkpt lat="61.025886" lon="25.771112">
<time>2020-09-13T11:05:41Z</time>
</trkpt>
<trkpt lat="61.025913" lon="25.771125">
<time>2020-09-13T11:05:42Z</time>
</trkpt>
<trkpt lat="61.025939" lon="25.771135">
<time>2020-09-13T11:05:43Z</time>
</trkpt>
<trkpt lat="61.025965" lon="25.771151">
<time>2020-09-13T11:05:44Z</time>
</trkpt>
<trkpt lat="61.02599" lon="25.771169">
<time>2020-09-13T11:05:45Z</time>
</trkpt>
<trkpt lat="61.026014" lon="25.771191">
<time>2020-09-13T11:05:46Z</time>
</trkpt>
<trkpt lat="61.026037" lon="25.771209">
<time>2020-09-13T11:05:47Z</time>
</trkpt>
<trkpt lat="61.026057" lon="25.77123">
<time>2020-09-13T11:05:48Z</time>
</trkpt>
<trkpt lat="61.026072" lon="25.77126">
<time>2020-09-13T11:05:49Z</time>
</trkpt>
<trkpt lat="61.026087" lon="25.77129">
<time>2020-09-13T11:05:50Z</time>
</trkpt>
<trkpt lat="61.026104" lon="25.771314">
<time>2020-09-13T11:05:51Z</time>
</trkpt>
<trkpt lat="61.026126" lon="25.771332">
<time>2020-09-13T11:05:52Z</time>
</trkpt>
<trkpt lat="61.026145" lon="25.771353">
<time>2020-09-13T11:05:53Z</time>
</trkpt>
<trkpt lat="61.026157" lon="25.771383">
<time>2020-09-13T11:05:54Z</time>
</trkpt>
<trkpt lat="61.026161" lon="25.771421">
<time>2020-09-13T11:05:55Z</time>
</trkpt>
<trkpt lat="61.026162" lon="25.771462">
<time>2020-09-13T11:05:56Z</time>
</trkpt>
<trkpt lat="61.026164" lon="25.771504">
<time>2020-09-13T11:05:57Z</time>
</trkpt>
<trkpt lat="61.02617" lon="25.771545">
<time>2020-09-13T11:05:58Z</time>
</trkpt>
<trkpt lat="61.026175" lon="25.771584">
<time>2020-09-13T11:05:59Z</time>
</trkpt>
<trkpt lat="61.026179" lon="25.771623">
<time>2020-09-13T11:06:00Z</time>
</trkpt>
<trkpt lat="61.026177" lon="25.771659">
<time>2020-09-13T11:06:01Z</time>
</trkpt>
<trkpt lat="61.026174" lon="25.771692">
<time>2020-09-13T11:06:02Z</time>
</trkpt>
<trkpt lat="61.026169" lon="25.771729">
<time>2020-09-13T11:06:03Z</time>
</trkpt>
<trkpt lat="61.026165" lon="25.771766">
<time>2020-09-13T11:06:04Z</time>
</trkpt>
<trkpt lat="61.026164" lon="25.771805">
<time>2020-09-13T11:06:05Z</time>
</trkpt>
<trkpt lat="61.026166" lon="25.771839">
<time>2020-09-13T11:06:06Z</time>
</trkpt>
<trkpt lat="61.026169" lon="25.771867">
<time>2020-09-13T11:06:07Z</time>
</trkpt>
<trkpt lat="61.026173" lon="25.771895">
<time>2020-09-13T11:06:08Z</time>
</trkpt>
<trkpt lat="61.026179" lon="25.771925">
<time>2020-09-13T11:06:09Z</time>
</trkpt>
<trkpt lat="61.026188" lon="25.771961">
<time>2020-09-13T11:06:10Z</time>
</trkpt>
<trkpt lat="61.026195" lon="25.771998">
<time>2020-09-13T11:06:11Z</time>
</trkpt>
<trkpt lat="61.026201" lon="25.772039">
<time>2020-09-13T11:06:12Z</time>
</trkpt>
<trkpt lat="61.026209" lon="25.772083">
<time>2020-09-13T11:06:13Z</time>
</trkpt>
<trkpt lat="61.026224" lon="25.772132">
<time>2020-09-13T11:06:14Z</time>
</trkpt>
<trkpt lat="61.026239" lon="25.772185">
<time>2020-09-13T11:06:15Z</time>
</trkpt>
<trkpt lat="61.026253" lon="25.772241">
<time>2020-09-13T11:06:16Z</time>
</trkpt>
<trkpt lat="61.026265" lon="25.772298">
<time>2020-09-13T11:06:17Z</time>
</trkpt>
<trkpt lat="61.026277" lon="25.77235">
<time>2020-09-13T11:06:18Z</time>
</trkpt>
<trkpt lat="61.026291" lon="25.772388">
<time>2020-09-13T11:06:19Z</time>
</trkpt>
<trkpt lat="61.026313" lon="25.772417">
<time>2020-09-13T11:06:20Z</time>
</trkpt>
<trkpt lat="61.026337" lon="25.772442">
<time>2020-09-13T11:06:21Z</time>
</trkpt>
<trkpt lat="61.026365" lon="25.772477">
<time>2020-09-13T11:06:22Z</time>
</trkpt>
<trkpt lat="61.026387" lon="25.772519">
<time>2020-09-13T11:06:23Z</time>
</trkpt>
<trkpt lat="61.026408" lon="25.77256">
<time>2020-09-13T11:06:24Z</time>
</trkpt>
<trkpt lat="61.026431" lon="25.772585">
<time>2020-09-13T11:06:25Z</time>
</trkpt>
<trkpt lat="61.026458" lon="25.772594">
<time>2020-09-13T11:06:26Z</time>
</trkpt>
<trkpt lat="61.026488" lon="25.772593">
<time>2020-09-13T11:06:27Z</time>
</trkpt>
<trkpt lat="61.026519" lon="25.772588">
<time>2020-09-13T11:06:28Z</time>
</trkpt>
<trkpt lat="61.026547" lon="25.772574">
<time>2020-09-13T11:06:29Z</time>
</trkpt>
<trkpt lat="61.026576" lon="25.772551">
<time>2020-09-13T11:06:30Z</time>
</trkpt>
<trkpt lat="61.026605" lon="25.772526">
<time>2020-09-13T11:06:31Z</time>
</trkpt>
<trkpt lat="61.026636" lon="25.772509">
<time>2020-09-13T11:06:32Z</time>
</trkpt>
<trkpt lat="61.026669" lon="25.7725">
<time>2020-09-13T11:06:33Z</time>
</trkpt>
<trkpt lat="61.026701" lon="25.772497">
<time>2020-09-13T11:06:34Z</time>
</trkpt>
<trkpt lat="61.026733" lon="25.772492">
<time>2020-09-13T11:06:35Z</time>
</trkpt>
<trkpt lat="61.026767" lon="25.772478">
<time>2020-09-13T11:06:36Z</time>
</trkpt>
<trkpt lat="61.026805" lon="25.772454">
<time>2020-09-13T11:06:37Z</time>
</trkpt>
<trkpt lat="61.026845" lon="25.772424">
<time>2020-09-13T11:06:38Z</time>
</trkpt>
<trkpt lat="61.026888" lon="25.772396">
<time>2020-09-13T11:06:39Z</time>
</trkpt>
<trkpt lat="61.026934" lon="25.772373">
<time>2020-09-13T11:06:40Z</time>
</trkpt>
<trkpt lat="61.026982" lon="25.772354">
<time>2020-09-13T11:06:41Z</time>
</trkpt>
<trkpt lat="61.02703" lon="25.772335">
<time>2020-09-13T11:06:42Z</time>
</trkpt>
<trkpt lat="61.027079" lon="25.772313">
<time>2020-09-13T11:06:43Z</time>
</trkpt>
<trkpt lat="61.02713" lon="25.772291">
<time>2020-09-13T11:06:44Z</time>
</trkpt>
<trkpt lat="61.027182" lon="25.772273">
<time>2020-09-13T11:06:45Z</time>
</trkpt>
<trkpt lat="61.027233" lon="25.77226">
<time>2020-09-13T11:06:46Z</time>
</trkpt>
<trkpt lat="61.027283" lon="25.772253">
<time>2020-09-13T11:06:47Z</time>
</trkpt>
<trkpt lat="61.027331" lon="25.772247">
<time>2020-09-13T11:06:48Z</time>
</trkpt>
<trkpt lat="61.027381" lon="25.772242">
<time>2020-09-13T11:06:49Z</time>
</trkpt>
<trkpt lat="61.027431" lon="25.772237">
<time>2020-09-13T11:06:50Z</time>
</trkpt>
<trkpt lat="61.027484" lon="25.772233">
<time>2020-09-13T11:06:51Z</time>
</trkpt>
<trkpt lat="61.027537" lon="25.772231">
<time>2020-09-13T11:06:52Z</time>
</trkpt>
<trkpt lat="61.027593" lon="25.772229">
<time>2020-09-13T11:06:53Z</time>
</trkpt>
<trkpt lat="61.02765" lon="25.772227">
<time>2020-09-13T11:06:54Z</time>
</trkpt>
<trkpt lat="61.027708" lon="25.772227">
<time>2020-09-13T11:06:55Z</time>
</trkpt>
<trkpt lat="61.027765" lon="25.772228">
<time>2020-09-13T11:06:56Z</time>
</trkpt>
<trkpt lat="61.027821" lon="25.772232">
<time>2020-09-13T11:06:57Z</time>
</trkpt>
<trkpt lat="61.027878" lon="25.772236">
<time>2020-09-13T11:06:58Z</time>
</trkpt>
<trkpt lat="61.027935" lon="25.772238">
<time>2020-09-13T11:06:59Z</time>
</trkpt>
<trkpt lat="61.027991" lon="25.77224">
<time>2020-09-13T11:07:00Z</time>
</trkpt>
<trkpt lat="61.028048" lon="25.772247">
<time>2020-09-13T11:07:01Z</time>
</trkpt>
<trkpt lat="61.028105" lon="25.772259">
<time>2020-09-13T11:07:02Z</time>
</trkpt>
<trkpt lat="61.028162" lon="25.772275">
<time>2020-09-13T11:07:03Z</time>
</trkpt>
<trkpt lat="61.028222" lon="25.772295">
<time>2020-09-13T11:07:04Z</time>
</trkpt>
<trkpt lat="61.028284" lon="25.772315">
<time>2020-09-13T11:07:05Z</time>
</trkpt>
<trkpt lat="61.02835" lon="25.772335">
<time>2020-09-13T11:07:06Z</time>
</trkpt>
<trkpt lat="61.028417" lon="25.772356">
<time>2020-09-13T11:07:07Z</time>
</trkpt>
<trkpt lat="61.028486" lon="25.772379">
<time>2020-09-13T11:07:08Z</time>
</trkpt>
<trkpt lat="61.028555" lon="25.772404">
<time>2020-09-13T11:07:09Z</time>
</trkpt>
<trkpt lat="61.028625" lon="25.772426">
<time>2020-09-13T11:07:10Z</time>
</trkpt>
<trkpt lat="61.028696" lon="25.772447">
<time>2020-09-13T11:07:11Z</time>
</trkpt>
<trkpt lat="61.028767" lon="25.772467">
<time>2020-09-13T11:07:12Z</time>
</trkpt>
<trkpt lat="61.028839" lon="25.772489">
<time>2020-09-13T11:07:13Z</time>
</trkpt>
<trkpt lat="61.028911" lon="25.77251">
<time>2020-09-13T11:07:14Z</time>
</trkpt>
<trkpt lat="61.028983" lon="25.77253">
<time>2020-09-13T11:07:15Z</time>
</trkpt>
<trkpt lat="61.029054" lon="25.77255">
<time>2020-09-13T11:07:16Z</time>
</trkpt>
<trkpt lat="61.029123" lon="25.772569">
<time>2020-09-13T11:07:17Z</time>
</trkpt>
<trkpt lat="61.029191" lon="25.772587">
<time>2020-09-13T11:07:18Z</time>
</trkpt>
<trkpt lat="61.029258" lon="25.772607">
<time>2020-09-13T11:07:19Z</time>
</trkpt>
<trkpt lat="61.029325" lon="25.772627">
<time>2020-09-13T11:07:20Z</time>
</trkpt>
<trkpt lat="61.029393" lon="25.772649">
<time>2020-09-13T11:07:21Z</time>
</trkpt>
<trkpt lat="61.029463" lon="25.772672">
<time>2020-09-13T11:07:22Z</time>
</trkpt>
<trkpt lat="61.029534" lon="25.772697">
<time>2020-09-13T11:07:23Z</time>
</trkpt>
<trkpt lat="61.029607" lon="25.772722">
<time>2020-09-13T11:07:24Z</time>
</trkpt>
<trkpt lat="61.029682" lon="25.772747">
<time>2020-09-13T11:07:25Z</time>
</trkpt>
<trkpt lat="61.029758" lon="25.77277">
<time>2020-09-13T11:07:26Z</time>
</trkpt>
<trkpt lat="61.029835" lon="25.772794">
<time>2020-09-13T11:07:27Z</time>
</trkpt>
<trkpt lat="61.029909" lon="25.77282">
<time>2020-09-13T11:07:28Z</time>
</trkpt>
<trkpt lat="61.029977" lon="25.772862">
<time>2020-09-13T11:07:29Z</time>
</trkpt>
<trkpt lat="61.030033" lon="25.77293">
<time>2020-09-13T11:07:30Z</time>
</trkpt>
<trkpt lat="61.030068" lon="25.773044">
<time>2020-09-13T11:07:31Z</time>
</trkpt>
<trkpt lat="61.03009" lon="25.773181">
<time>2020-09-13T11:07:32Z</time>
</trkpt>
<trkpt lat="61.030108" lon="25.773332">
<time>2020-09-13T11:07:33Z</time>
</trkpt>
<trkpt lat="61.030129" lon="25.773482">
<time>2020-09-13T11:07:34Z</time>
</trkpt>
<trkpt lat="61.030149" lon="25.773641">
<time>2020-09-13T11:07:35Z</time>
</trkpt>
<trkpt lat="61.030168" lon="25.773804">
<time>2020-09-13T11:07:36Z</time>
</trkpt>
<trkpt lat="61.030188" lon="25.773965">
<time>2020-09-13T11:07:37Z</time>
</trkpt>
<trkpt lat="61.030208" lon="25.774129">
<time>2020-09-13T11:07:38Z</time>
</trkpt>
<trkpt lat="61.030228" lon="25.7743">
<time>2020-09-13T11:07:39Z</time>
</trkpt>
<trkpt lat="61.030244" lon="25.774479">
<time>2020-09-13T11:07:40Z</time>
</trkpt>
<trkpt lat="61.030257" lon="25.774661">
<time>2020-09-13T11:07:41Z</time>
</trkpt>
<trkpt lat="61.030266" lon="25.774842">
<time>2020-09-13T11:07:42Z</time>
</trkpt>
<trkpt lat="61.030271" lon="25.775019">
<time>2020-09-13T11:07:43Z</time>
</trkpt>
<trkpt lat="61.030269" lon="25.775191">
<time>2020-09-13T11:07:44Z</time>
</trkpt>
<trkpt lat="61.030263" lon="25.775357">
<time>2020-09-13T11:07:45Z</time>
</trkpt>
<trkpt lat="61.030256" lon="25.775518">
<time>2020-09-13T11:07:46Z</time>
</trkpt>
<trkpt lat="61.030254" lon="25.775676">
<time>2020-09-13T11:07:47Z</time>
</trkpt>
<trkpt lat="61.030252" lon="25.775833">
<time>2020-09-13T11:07:48Z</time>
</trkpt>
<trkpt lat="61.03025" lon="25.775989">
<time>2020-09-13T11:07:49Z</time>
</trkpt>
<trkpt lat="61.030248" lon="25.776144">
<time>2020-09-13T11:07:50Z</time>
</trkpt>
<trkpt lat="61.03025" lon="25.776298">
<time>2020-09-13T11:07:51Z</time>
</trkpt>
<trkpt lat="61.030258" lon="25.776451">
<time>2020-09-13T11:07:52Z</time>
</trkpt>
<trkpt lat="61.030275" lon="25.776601">
<time>2020-09-13T11:07:53Z</time>
</trkpt>
<trkpt lat="61.030298" lon="25.776743">
<time>2020-09-13T11:07:54Z</time>
</trkpt>
<trkpt lat="61.030333" lon="25.776873">
<time>2020-09-13T11:07:55Z</time>
</trkpt>
<trkpt lat="61.030378" lon="25.776992">
<time>2020-09-13T11:07:56Z</time>
</trkpt>
<trkpt lat="61.030428" lon="25.777107">
<time>2020-09-13T11:07:57Z</time>
</trkpt>
<trkpt lat="61.030476" lon="25.777227">
<time>2020-09-13T11:07:58Z</time>
</trkpt>
<trkpt lat="61.030524" lon="25.777353">
<time>2020-09-13T11:07:59Z</time>
</trkpt>
<trkpt lat="61.030575" lon="25.777482">
<time>2020-09-13T11:08:00Z</time>
</trkpt>
<trkpt lat="61.030632" lon="25.777612">
<time>2020-09-13T11:08:01Z</time>
</trkpt>
<trkpt lat="61.030693" lon="25.777744">
<time>2020-09-13T11:08:02Z</time>
</trkpt>
<trkpt lat="61.030757" lon="25.777879">
<time>2020-09-13T11:08:03Z</time>
</trkpt>
<trkpt lat="61.030821" lon="25.778016">
<time>2020-09-13T11:08:04Z</time>
</trkpt>
<trkpt lat="61.030884" lon="25.778154">
<time>2020-09-13T11:08:05Z</time>
</trkpt>
<trkpt lat="61.030943" lon="25.778296">
<time>2020-09-13T11:08:06Z</time>
</trkpt>
<trkpt lat="61.030995" lon="25.778451">
<time>2020-09-13T11:08:07Z</time>
</trkpt>
<trkpt lat="61.031039" lon="25.778623">
<time>2020-09-13T11:08:08Z</time>
</trkpt>
<trkpt lat="61.031072" lon="25.77881">
<time>2020-09-13T11:08:09Z</time>
</trkpt>
<trkpt lat="61.031095" lon="25.779004">
<time>2020-09-13T11:08:10Z</time>
</trkpt>
<trkpt lat="61.031111" lon="25.779197">
<time>2020-09-13T11:08:11Z</time>
</trkpt>
<trkpt lat="61.031125" lon="25.779388">
<time>2020-09-13T11:08:12Z</time>
</trkpt>
<trkpt lat="61.031142" lon="25.779573">
<time>2020-09-13T11:08:13Z</time>
</trkpt>
<trkpt lat="61.031168" lon="25.779754">
<time>2020-09-13T11:08:14Z</time>
</trkpt>
<trkpt lat="61.031205" lon="25.779934">
<time>2020-09-13T11:08:15Z</time>
</trkpt>
<trkpt lat="61.031256" lon="25.780107">
<time>2020-09-13T11:08:16Z</time>
</trkpt>
<trkpt lat="61.03132" lon="25.780258">
<time>2020-09-13T11:08:17Z</time>
</trkpt>
<trkpt lat="61.031395" lon="25.780385">
<time>2020-09-13T11:08:18Z</time>
</trkpt>
<trkpt lat="61.031477" lon="25.780486">
<time>2020-09-13T11:08:19Z</time>
</trkpt>
<trkpt lat="61.031559" lon="25.780578">
<time>2020-09-13T11:08:20Z</time>
</trkpt>
<trkpt lat="61.03164" lon="25.780666">
<time>2020-09-13T11:08:21Z</time>
</trkpt>
<trkpt lat="61.031722" lon="25.780758">
<time>2020-09-13T11:08:22Z</time>
</trkpt>
<trkpt lat="61.031809" lon="25.78086">
<time>2020-09-13T11:08:23Z</time>
</trkpt>
<trkpt lat="61.031898" lon="25.780975">
<time>2020-09-13T11:08:24Z</time>
</trkpt>
<trkpt lat="61.031986" lon="25.781104">
<time>2020-09-13T11:08:25Z</time>
</trkpt>
<trkpt lat="61.032062" lon="25.781256">
<time>2020-09-13T11:08:26Z</time>
</trkpt>
<trkpt lat="61.032128" lon="25.781443">
<time>2020-09-13T11:08:27Z</time>
</trkpt>
<trkpt lat="61.032185" lon="25.781657">
<time>2020-09-13T11:08:28Z</time>
</trkpt>
<trkpt lat="61.032234" lon="25.781879">
<time>2020-09-13T11:08:29Z</time>
</trkpt>
<trkpt lat="61.032261" lon="25.782101">
<time>2020-09-13T11:08:30Z</time>
</trkpt>
<trkpt lat="61.032259" lon="25.782329">
<time>2020-09-13T11:08:31Z</time>
</trkpt>
<trkpt lat="61.032236" lon="25.782566">
<time>2020-09-13T11:08:32Z</time>
</trkpt>
<trkpt lat="61.032207" lon="25.7828">
<time>2020-09-13T11:08:33Z</time>
</trkpt>
<trkpt lat="61.032182" lon="25.783022">
<time>2020-09-13T11:08:34Z</time>
</trkpt>
<trkpt lat="61.032153" lon="25.783213">
<time>2020-09-13T11:08:35Z</time>
</trkpt>
<trkpt lat="61.032124" lon="25.783379">
<time>2020-09-13T11:08:36Z</time>
</trkpt>
<trkpt lat="61.032094" lon="25.783528">
<time>2020-09-13T11:08:37Z</time>
</trkpt>
<trkpt lat="61.03207" lon="25.783682">
<time>2020-09-13T11:08:38Z</time>
</trkpt>
<trkpt lat="61.032042" lon="25.783829">
<time>2020-09-13T11:08:39Z</time>
</trkpt>
<trkpt lat="61.032007" lon="25.783974">
<time>2020-09-13T11:08:40Z</time>
</trkpt>
<trkpt lat="61.031964" lon="25.784114">
<time>2020-09-13T11:08:41Z</time>
</trkpt>
<trkpt lat="61.031918" lon="25.784257">
<time>2020-09-13T11:08:42Z</time>
</trkpt>
<trkpt lat="61.031868" lon="25.784396">
<time>2020-09-13T11:08:43Z</time>
</trkpt>
<trkpt lat="61.031814" lon="25.784533">
<time>2020-09-13T11:08:44Z</time>
</trkpt>
<trkpt lat="61.031756" lon="25.784664">
<time>2020-09-13T11:08:45Z</time>
</trkpt>
<trkpt lat="61.031696" lon="25.784793">
<time>2020-09-13T11:08:46Z</time>
</trkpt>
<trkpt lat="61.031636" lon="25.784921">
<time>2020-09-13T11:08:47Z</time>
</trkpt>
<trkpt lat="61.03158" lon="25.785047">
<time>2020-09-13T11:08:48Z</time>
</trkpt>
<trkpt lat="61.031535" lon="25.785176">
<time>2020-09-13T11:08:49Z</time>
</trkpt>
<trkpt lat="61.031506" lon="25.78531">
<time>2020-09-13T11:08:50Z</time>
</trkpt>
<trkpt lat="61.031492" lon="25.78545">
<time>2020-09-13T11:08:51Z</time>
</trkpt>
<trkpt lat="61.031488" lon="25.785594">
<time>2020-09-13T11:08:52Z</time>
</trkpt>
<trkpt lat="61.031489" lon="25.785738">
<time>2020-09-13T11:08:53Z</time>
</trkpt>
<trkpt lat="61.031494" lon="25.785885">
<time>2020-09-13T11:08:54Z</time>
</trkpt>
<trkpt lat="61.0315" lon="25.786039">
<time>2020-09-13T11:08:55Z</time>
</trkpt>
<trkpt lat="61.03151" lon="25.786205">
<time>2020-09-13T11:08:56Z</time>
</trkpt>
<trkpt lat="61.031524" lon="25.786382">
<time>2020-09-13T11:08:57Z</time>
</trkpt>
<trkpt lat="61.031545" lon="25.786567">
<time>2020-09-13T11:08:58Z</time>
</trkpt>
<trkpt lat="61.031574" lon="25.786753">
<time>2020-09-13T11:08:59Z</time>
</trkpt>
<trkpt lat="61.031612" lon="25.786937">
<time>2020-09-13T11:09:00Z</time>
</trkpt>
<trkpt lat="61.03167" lon="25.787097">
<time>2020-09-13T11:09:01Z</time>
</trkpt>
<trkpt lat="61.031737" lon="25.787233">
<time>2020-09-13T11:09:02Z</time>
</trkpt>
<trkpt lat="61.031826" lon="25.787337">
<time>2020-09-13T11:09:03Z</time>
</trkpt>
<trkpt lat="61.031918" lon="25.787417">
<time>2020-09-13T11:09:04Z</time>
</trkpt>
<trkpt lat="61.032015" lon="25.787476">
<time>2020-09-13T11:09:05Z</time>
</trkpt>
<trkpt lat="61.0321" lon="25.787525">
<time>2020-09-13T11:09:06Z</time>
</trkpt>
<trkpt lat="61.03218" lon="25.787576">
<time>2020-09-13T11:09:07Z</time>
</trkpt>
<trkpt lat="61.032259" lon="25.787639">
<time>2020-09-13T11:09:08Z</time>
</trkpt>
<trkpt lat="61.032338" lon="25.78771">
<time>2020-09-13T11:09:09Z</time>
</trkpt>
<trkpt lat="61.032418" lon="25.787788">
<time>2020-09-13T11:09:10Z</time>
</trkpt>
<trkpt lat="61.032495" lon="25.787859">
<time>2020-09-13T11:09:11Z</time>
</trkpt>
<trkpt lat="61.032573" lon="25.78792">
<time>2020-09-13T11:09:12Z</time>
</trkpt>
<trkpt lat="61.032654" lon="25.787966">
<time>2020-09-13T11:09:13Z</time>
</trkpt>
<trkpt lat="61.032735" lon="25.788004">
<time>2020-09-13T11:09:14Z</time>
</trkpt>
<trkpt lat="61.032815" lon="25.788035">
<time>2020-09-13T11:09:15Z</time>
</trkpt>
<trkpt lat="61.032894" lon="25.788061">
<time>2020-09-13T11:09:16Z</time>
</trkpt>
<trkpt lat="61.032972" lon="25.788069">
<time>2020-09-13T11:09:17Z</time>
</trkpt>
<trkpt lat="61.033051" lon="25.788057">
<time>2020-09-13T11:09:18Z</time>
</trkpt>
<trkpt lat="61.033131" lon="25.788029">
<time>2020-09-13T11:09:19Z</time>
</trkpt>
<trkpt lat="61.033211" lon="25.788004">
<time>2020-09-13T11:09:20Z</time>
</trkpt>
<trkpt lat="61.033292" lon="25.78799">
<time>2020-09-13T11:09:21Z</time>
</trkpt>
<trkpt lat="61.033376" lon="25.787982">
<time>2020-09-13T11:09:22Z</time>
</trkpt>
<trkpt lat="61.033464" lon="25.787979">
<time>2020-09-13T11:09:23Z</time>
</trkpt>
<trkpt lat="61.033553" lon="25.787983">
<time>2020-09-13T11:09:24Z</time>
</trkpt>
<trkpt lat="61.033642" lon="25.788">
<time>2020-09-13T11:09:25Z</time>
</trkpt>
<trkpt lat="61.033738" lon="25.788039">
<time>2020-09-13T11:09:26Z</time>
</trkpt>
<trkpt lat="61.03383" lon="25.788091">
<time>2020-09-13T11:09:27Z</time>
</trkpt>
<trkpt lat="61.033918" lon="25.788153">
<time>2020-09-13T11:09:28Z</time>
</trkpt>
<trkpt lat="61.033991" lon="25.788217">
<time>2020-09-13T11:09:29Z</time>
</trkpt>
<trkpt lat="61.034063" lon="25.78829">
<time>2020-09-13T11:09:30Z</time>
</trkpt>
<trkpt lat="61.034137" lon="25.788369">
<time>2020-09-13T11:09:31Z</time>
</trkpt>
<trkpt lat="61.034218" lon="25.788452">
<time>2020-09-13T11:09:32Z</time>
</trkpt>
<trkpt lat="61.034309" lon="25.78854">
<time>2020-09-13T11:09:33Z</time>
</trkpt>
<trkpt lat="61.034407" lon="25.788628">
<time>2020-09-13T11:09:34Z</time>
</trkpt>
<trkpt lat="61.034507" lon="25.788716">
<time>2020-09-13T11:09:35Z</time>
</trkpt>
<trkpt lat="61.034611" lon="25.788807">
<time>2020-09-13T11:09:36Z</time>
</trkpt>
<trkpt lat="61.034717" lon="25.78889">
<time>2020-09-13T11:09:37Z</time>
</trkpt>
<trkpt lat="61.034827" lon="25.788959">
<time>2020-09-13T11:09:38Z</time>
</trkpt>
<trkpt lat="61.034936" lon="25.789008">
<time>2020-09-13T11:09:39Z</time>
</trkpt>
<trkpt lat="61.035041" lon="25.789053">
<time>2020-09-13T11:09:40Z</time>
</trkpt>
<trkpt lat="61.03514" lon="25.789111">
<time>2020-09-13T11:09:41Z</time>
</trkpt>
<trkpt lat="61.035221" lon="25.789225">
<time>2020-09-13T11:09:42Z</time>
</trkpt>
<trkpt lat="61.035294" lon="25.789387">
<time>2020-09-13T11:09:43Z</time>
</trkpt>
<trkpt lat="61.035351" lon="25.789582">
<time>2020-09-13T11:09:44Z</time>
</trkpt>
<trkpt lat="61.035404" lon="25.789761">
<time>2020-09-13T11:09:45Z</time>
</trkpt>
<trkpt lat="61.035439" lon="25.789929">
<time>2020-09-13T11:09:46Z</time>
</trkpt>
<trkpt lat="61.035467" lon="25.790086">
<time>2020-09-13T11:09:47Z</time>
</trkpt>
<trkpt lat="61.035483" lon="25.790234">
<time>2020-09-13T11:09:48Z</time>
</trkpt>
<trkpt lat="61.035489" lon="25.790374">
<time>2020-09-13T11:09:49Z</time>
</trkpt>
<trkpt lat="61.035492" lon="25.790504">
<time>2020-09-13T11:09:50Z</time>
</trkpt>
<trkpt lat="61.035501" lon="25.79063">
<time>2020-09-13T11:09:51Z</time>
</trkpt>
<trkpt lat="61.035518" lon="25.790751">
<time>2020-09-13T11:09:52Z</time>
</trkpt>
<trkpt lat="61.035537" lon="25.790876">
<time>2020-09-13T11:09:53Z</time>
</trkpt>
<trkpt lat="61.035556" lon="25.791008">
<time>2020-09-13T11:09:54Z</time>
</trkpt>
<trkpt lat="61.035574" lon="25.791148">
<time>2020-09-13T11:09:55Z</time>
</trkpt>
<trkpt lat="61.035593" lon="25.79129">
<time>2020-09-13T11:09:56Z</time>
</trkpt>
<trkpt lat="61.035616" lon="25.791433">
<time>2020-09-13T11:09:57Z</time>
</trkpt>
<trkpt lat="61.035641" lon="25.791575">
<time>2020-09-13T11:09:58Z</time>
</trkpt>
<trkpt lat="61.035668" lon="25.79172">
<time>2020-09-13T11:09:59Z</time>
</trkpt>
<trkpt lat="61.035696" lon="25.791868">
<time>2020-09-13T11:10:00Z</time>
</trkpt>
<trkpt lat="61.035725" lon="25.792018">
<time>2020-09-13T11:10:01Z</time>
</trkpt>
<trkpt lat="61.035754" lon="25.792171">
<time>2020-09-13T11:10:02Z</time>
</trkpt>
<trkpt lat="61.035783" lon="25.792326">
<time>2020-09-13T11:10:03Z</time>
</trkpt>
<trkpt lat="61.035812" lon="25.792483">
<time>2020-09-13T11:10:04Z</time>
</trkpt>
<trkpt lat="61.03584" lon="25.792641">
<time>2020-09-13T11:10:05Z</time>
</trkpt>
<trkpt lat="61.035864" lon="25.792796">
<time>2020-09-13T11:10:06Z</time>
</trkpt>
<trkpt lat="61.035883" lon="25.792951">
<time>2020-09-13T11:10:07Z</time>
</trkpt>
<trkpt lat="61.035899" lon="25.793106">
<time>2020-09-13T11:10:08Z</time>
</trkpt>
<trkpt lat="61.035911" lon="25.793263">
<time>2020-09-13T11:10:09Z</time>
</trkpt>
<trkpt lat="61.03592" lon="25.793421">
<time>2020-09-13T11:10:10Z</time>
</trkpt>
<trkpt lat="61.035921" lon="25.79358">
<time>2020-09-13T11:10:11Z</time>
</trkpt>
<trkpt lat="61.035912" lon="25.793739">
<time>2020-09-13T11:10:12Z</time>
</trkpt>
<trkpt lat="61.035895" lon="25.793898">
<time>2020-09-13T11:10:13Z</time>
</trkpt>
<trkpt lat="61.035874" lon="25.794058">
<time>2020-09-13T11:10:14Z</time>
</trkpt>
<trkpt lat="61.035852" lon="25.794219">
<time>2020-09-13T11:10:15Z</time>
</trkpt>
<trkpt lat="61.035833" lon="25.794379">
<time>2020-09-13T11:10:16Z</time>
</trkpt>
<trkpt lat="61.035818" lon="25.794539">
<time>2020-09-13T11:10:17Z</time>
</trkpt>
<trkpt lat="61.035806" lon="25.794699">
<time>2020-09-13T11:10:18Z</time>
</trkpt>
<trkpt lat="61.035798" lon="25.794862">
<time>2020-09-13T11:10:19Z</time>
</trkpt>
<trkpt lat="61.035794" lon="25.79503">
<time>2020-09-13T11:10:20Z</time>
</trkpt>
<trkpt lat="61.035793" lon="25.795202">
<time>2020-09-13T11:10:21Z</time>
</trkpt>
<trkpt lat="61.035794" lon="25.795378">
<time>2020-09-13T11:10:22Z</time>
</trkpt>
<trkpt lat="61.035797" lon="25.795557">
<time>2020-09-13T11:10:23Z</time>
</trkpt>
<trkpt lat="61.035803" lon="25.795737">
<time>2020-09-13T11:10:24Z</time>
</trkpt>
<trkpt lat="61.035818" lon="25.795922">
<time>2020-09-13T11:10:25Z</time>
</trkpt>
<trkpt lat="61.035842" lon="25.796111">
<time>2020-09-13T11:10:26Z</time>
</trkpt>
<trkpt lat="61.035871" lon="25.796304">
<time>2020-09-13T11:10:27Z</time>
</trkpt>
<trkpt lat="61.035898" lon="25.796493">
<time>2020-09-13T11:10:28Z</time>
</trkpt>
<trkpt lat="61.035922" lon="25.796678">
<time>2020-09-13T11:10:29Z</time>
</trkpt>
<trkpt lat="61.03595" lon="25.796855">
<time>2020-09-13T11:10:30Z</time>
</trkpt>
<trkpt lat="61.035978" lon="25.797031">
<time>2020-09-13T11:10:31Z</time>
</trkpt>
<trkpt lat="61.036008" lon="25.797202">
<time>2020-09-13T11:10:32Z</time>
</trkpt>
<trkpt lat="61.036037" lon="25.79737">
<time>2020-09-13T11:10:33Z</time>
</trkpt>
<trkpt lat="61.03607" lon="25.797528">
<time>2020-09-13T11:10:34Z</time>
</trkpt>
<trkpt lat="61.036101" lon="25.797678">
<time>2020-09-13T11:10:35Z</time>
</trkpt>
<trkpt lat="61.03613" lon="25.797822">
<time>2020-09-13T11:10:36Z</time>
</trkpt>
<trkpt lat="61.036154" lon="25.797965">
<time>2020-09-13T11:10:37Z</time>
</trkpt>
<trkpt lat="61.036172" lon="25.798112">
<time>2020-09-13T11:10:38Z</time>
</trkpt>
<trkpt lat="61.036184" lon="25.798263">
<time>2020-09-13T11:10:39Z</time>
</trkpt>
<trkpt lat="61.03619" lon="25.798421">
<time>2020-09-13T11:10:40Z</time>
</trkpt>
<trkpt lat="61.036191" lon="25.798583">
<time>2020-09-13T11:10:41Z</time>
</trkpt>
<trkpt lat="61.036188" lon="25.798749">
<time>2020-09-13T11:10:42Z</time>
</trkpt>
<trkpt lat="61.036183" lon="25.798918">
<time>2020-09-13T11:10:43Z</time>
</trkpt>
<trkpt lat="61.036175" lon="25.799087">
<time>2020-09-13T11:10:44Z</time>
</trkpt>
<trkpt lat="61.036166" lon="25.799257">
<time>2020-09-13T11:10:45Z</time>
</trkpt>
<trkpt lat="61.036156" lon="25.799426">
<time>2020-09-13T11:10:46Z</time>
</trkpt>
<trkpt lat="61.036145" lon="25.799594">
<time>2020-09-13T11:10:47Z</time>
</trkpt>
<trkpt lat="61.036136" lon="25.799759">
<time>2020-09-13T11:10:48Z</time>
</trkpt>
<trkpt lat="61.036126" lon="25.799922">
<time>2020-09-13T11:10:49Z</time>
</trkpt>
<trkpt lat="61.036116" lon="25.800084">
<time>2020-09-13T11:10:50Z</time>
</trkpt>
<trkpt lat="61.036102" lon="25.800244">
<time>2020-09-13T11:10:51Z</time>
</trkpt>
<trkpt lat="61.036086" lon="25.800398">
<time>2020-09-13T11:10:52Z</time>
</trkpt>
<trkpt lat="61.036068" lon="25.80055">
<time>2020-09-13T11:10:53Z</time>
</trkpt>
<trkpt lat="61.036049" lon="25.8007">
<time>2020-09-13T11:10:54Z</time>
</trkpt>
<trkpt lat="61.036029" lon="25.800853">
<time>2020-09-13T11:10:55Z</time>
</trkpt>
<trkpt lat="61.036009" lon="25.80101">
<time>2020-09-13T11:10:56Z</time>
</trkpt>
<trkpt lat="61.035988" lon="25.80117">
<time>2020-09-13T11:10:57Z</time>
</trkpt>
<trkpt lat="61.035966" lon="25.801331">
<time>2020-09-13T11:10:58Z</time>
</trkpt>
<trkpt lat="61.035944" lon="25.801496">
<time>2020-09-13T11:10:59Z</time>
</trkpt>
<trkpt lat="61.035921" lon="25.801668">
<time>2020-09-13T11:11:00Z</time>
</trkpt>
<trkpt lat="61.035889" lon="25.801851">
<time>2020-09-13T11:11:01Z</time>
</trkpt>
<trkpt lat="61.035844" lon="25.802044">
<time>2020-09-13T11:11:02Z</time>
</trkpt>
<trkpt lat="61.035787" lon="25.802227">
<time>2020-09-13T11:11:03Z</time>
</trkpt>
<trkpt lat="61.035721" lon="25.802371">
<time>2020-09-13T11:11:04Z</time>
</trkpt>
<trkpt lat="61.035653" lon="25.802486">
<time>2020-09-13T11:11:05Z</time>
</trkpt>
<trkpt lat="61.035583" lon="25.802577">
<time>2020-09-13T11:11:06Z</time>
</trkpt>
<trkpt lat="61.035515" lon="25.802663">
<time>2020-09-13T11:11:07Z</time>
</trkpt>
<trkpt lat="61.035432" lon="25.8027">
<time>2020-09-13T11:11:08Z</time>
</trkpt>
<trkpt lat="61.035343" lon="25.802701">
<time>2020-09-13T11:11:09Z</time>
</trkpt>
<trkpt lat="61.035249" lon="25.802651">
<time>2020-09-13T11:11:10Z</time>
</trkpt>
<trkpt lat="61.035161" lon="25.802585">
<time>2020-09-13T11:11:11Z</time>
</trkpt>
<trkpt lat="61.035079" lon="25.802506">
<time>2020-09-13T11:11:12Z</time>
</trkpt>
<trkpt lat="61.035005" lon="25.802433">
<time>2020-09-13T11:11:13Z</time>
</trkpt>
<trkpt lat="61.03494" lon="25.802368">
<time>2020-09-13T11:11:14Z</time>
</trkpt>
<trkpt lat="61.034875" lon="25.802307">
<time>2020-09-13T11:11:15Z</time>
</trkpt>
<trkpt lat="61.034807" lon="25.802255">
<time>2020-09-13T11:11:16Z</time>
</trkpt>
<trkpt lat="61.034734" lon="25.802216">
<time>2020-09-13T11:11:17Z</time>
</trkpt>
<trkpt lat="61.034659" lon="25.802189">
<time>2020-09-13T11:11:18Z</time>
</trkpt>
<trkpt lat="61.034581" lon="25.802179">
<time>2020-09-13T11:11:19Z</time>
</trkpt>
<trkpt lat="61.034503" lon="25.802183">
<time>2020-09-13T11:11:20Z</time>
</trkpt>
<trkpt lat="61.034428" lon="25.802194">
<time>2020-09-13T11:11:21Z</time>
</trkpt>
<trkpt lat="61.034356" lon="25.802208">
<time>2020-09-13T11:11:22Z</time>
</trkpt>
<trkpt lat="61.034287" lon="25.802224">
<time>2020-09-13T11:11:23Z</time>
</trkpt>
<trkpt lat="61.034219" lon="25.802244">
<time>2020-09-13T11:11:24Z</time>
</trkpt>
<trkpt lat="61.034152" lon="25.802266">
<time>2020-09-13T11:11:25Z</time>
</trkpt>
<trkpt lat="61.034085" lon="25.802288">
<time>2020-09-13T11:11:26Z</time>
</trkpt>
<trkpt lat="61.03402" lon="25.802309">
<time>2020-09-13T11:11:27Z</time>
</trkpt>
<trkpt lat="61.033956" lon="25.802331">
<time>2020-09-13T11:11:28Z</time>
</trkpt>
<trkpt lat="61.033892" lon="25.802354">
<time>2020-09-13T11:11:29Z</time>
</trkpt>
<trkpt lat="61.033828" lon="25.80238">
<time>2020-09-13T11:11:30Z</time>
</trkpt>
<trkpt lat="61.033765" lon="25.802409">
<time>2020-09-13T11:11:31Z</time>
</trkpt>
<trkpt lat="61.033702" lon="25.802442">
<time>2020-09-13T11:11:32Z</time>
</trkpt>
<trkpt lat="61.033639" lon="25.802476">
<time>2020-09-13T11:11:33Z</time>
</trkpt>
<trkpt lat="61.033577" lon="25.802513">
<time>2020-09-13T11:11:34Z</time>
</trkpt>
<trkpt lat="61.033515" lon="25.802555">
<time>2020-09-13T11:11:35Z</time>
</trkpt>
<trkpt lat="61.033453" lon="25.802605">
<time>2020-09-13T11:11:36Z</time>
</trkpt>
<trkpt lat="61.033393" lon="25.802657">
<time>2020-09-13T11:11:37Z</time>
</trkpt>
<trkpt lat="61.033333" lon="25.802712">
<time>2020-09-13T11:11:38Z</time>
</trkpt>
<trkpt lat="61.033272" lon="25.802759">
<time>2020-09-13T11:11:39Z</time>
</trkpt>
<trkpt lat="61.033205" lon="25.802795">
<time>2020-09-13T11:11:40Z</time>
</trkpt>
<trkpt lat="61.033136" lon="25.802823">
<time>2020-09-13T11:11:41Z</time>
</trkpt>
<trkpt lat="61.033064" lon="25.802851">
<time>2020-09-13T11:11:42Z</time>
</trkpt>
<trkpt lat="61.032991" lon="25.802886">
<time>2020-09-13T11:11:43Z</time>
</trkpt>
<trkpt lat="61.032917" lon="25.802929">
<time>2020-09-13T11:11:44Z</time>
</trkpt>
<trkpt lat="61.032846" lon="25.802985">
<time>2020-09-13T11:11:45Z</time>
</trkpt>
<trkpt lat="61.032776" lon="25.803056">
<time>2020-09-13T11:11:46Z</time>
</trkpt>
<trkpt lat="61.032709" lon="25.803136">
<time>2020-09-13T11:11:47Z</time>
</trkpt>
<trkpt lat="61.032645" lon="25.803221">
<time>2020-09-13T11:11:48Z</time>
</trkpt>
<trkpt lat="61.032585" lon="25.803306">
<time>2020-09-13T11:11:49Z</time>
</trkpt>
<trkpt lat="61.032525" lon="25.803391">
<time>2020-09-13T11:11:50Z</time>
</trkpt>
<trkpt lat="61.032464" lon="25.803473">
<time>2020-09-13T11:11:51Z</time>
</trkpt>
<trkpt lat="61.032404" lon="25.803555">
<time>2020-09-13T11:11:52Z</time>
</trkpt>
<trkpt lat="61.032344" lon="25.803637">
<time>2020-09-13T11:11:53Z</time>
</trkpt>
<trkpt lat="61.032285" lon="25.80372">
<time>2020-09-13T11:11:54Z</time>
</trkpt>
<trkpt lat="61.03223" lon="25.803805">
<time>2020-09-13T11:11:55Z</time>
</trkpt>
<trkpt lat="61.032178" lon="25.80389">
<time>2020-09-13T11:11:56Z</time>
</trkpt>
<trkpt lat="61.032127" lon="25.803972">
<time>2020-09-13T11:11:57Z</time>
</trkpt>
<trkpt lat="61.032075" lon="25.804045">
<time>2020-09-13T11:11:58Z</time>
</trkpt>
<trkpt lat="61.032026" lon="25.804112">
<time>2020-09-13T11:11:59Z</time>
</trkpt>
<trkpt lat="61.03198" lon="25.804172">
<time>2020-09-13T11:12:00Z</time>
</trkpt>
<trkpt lat="61.031942" lon="25.804234">
<time>2020-09-13T11:12:01Z</time>
</trkpt>
<trkpt lat="61.031905" lon="25.804288">
<time>2020-09-13T11:12:02Z</time>
</trkpt>
<trkpt lat="61.031873" lon="25.804344">
<time>2020-09-13T11:12:03Z</time>
</trkpt>
<trkpt lat="61.031842" lon="25.804398">
<time>2020-09-13T11:12:04Z</time>
</trkpt>
<trkpt lat="61.031816" lon="25.804458">
<time>2020-09-13T11:12:05Z</time>
</trkpt>
<trkpt lat="61.031789" lon="25.80451">
<time>2020-09-13T11:12:06Z</time>
</trkpt>
<trkpt lat="61.031762" lon="25.804564">
<time>2020-09-13T11:12:07Z</time>
</trkpt>
<trkpt lat="61.031732" lon="25.804616">
<time>2020-09-13T11:12:08Z</time>
</trkpt>
<trkpt lat="61.031702" lon="25.80467">
<time>2020-09-13T11:12:09Z</time>
</trkpt>
<trkpt lat="61.031669" lon="25.804712">
<time>2020-09-13T11:12:10Z</time>
</trkpt>
<trkpt lat="61.031636" lon="25.804741">
<time>2020-09-13T11:12:11Z</time>
</trkpt>
<trkpt lat="61.031602" lon="25.80474">
<time>2020-09-13T11:12:12Z</time>
</trkpt>
<trkpt lat="61.031576" lon="25.804717">
<time>2020-09-13T11:12:13Z</time>
</trkpt>
<trkpt lat="61.031555" lon="25.804682">
<time>2020-09-13T11:12:14Z</time>
</trkpt>
<trkpt lat="61.031546" lon="25.804663">
<time>2020-09-13T11:12:15Z</time>
</trkpt>
<trkpt lat="61.03154" lon="25.804659">
<time>2020-09-13T11:12:16Z</time>
</trkpt>
<trkpt lat="61.031536" lon="25.804665">
<time>2020-09-13T11:12:17Z</time>
</trkpt>
<trkpt lat="61.03153" lon="25.804686">
<time>2020-09-13T11:12:18Z</time>
</trkpt>
<trkpt lat="61.031526" lon="25.804727">
<time>2020-09-13T11:12:19Z</time>
</trkpt>
<trkpt lat="61.031511" lon="25.804796">
<time>2020-09-13T11:12:20Z</time>
</trkpt>
<trkpt lat="61.031483" lon="25.804881">
<time>2020-09-13T11:12:21Z</time>
</trkpt>
<trkpt lat="61.031445" lon="25.80497">
<time>2020-09-13T11:12:22Z</time>
</trkpt>
<trkpt lat="61.031409" lon="25.805044">
<time>2020-09-13T11:12:23Z</time>
</trkpt>
<trkpt lat="61.031378" lon="25.8051">
<time>2020-09-13T11:12:24Z</time>
</trkpt>
<trkpt lat="61.031344" lon="25.805146">
<time>2020-09-13T11:12:25Z</time>
</trkpt>
<trkpt lat="61.031307" lon="25.805192">
<time>2020-09-13T11:12:26Z</time>
</trkpt>
<trkpt lat="61.031264" lon="25.805239">
<time>2020-09-13T11:12:27Z</time>
</trkpt>
<trkpt lat="61.031218" lon="25.805287">
<time>2020-09-13T11:12:28Z</time>
</trkpt>
<trkpt lat="61.03117" lon="25.805336">
<time>2020-09-13T11:12:29Z</time>
</trkpt>
<trkpt lat="61.031118" lon="25.805383">
<time>2020-09-13T11:12:30Z</time>
</trkpt>
<trkpt lat="61.031041" lon="25.805408">
<time>2020-09-13T11:12:31Z</time>
</trkpt>
<trkpt lat="61.030952" lon="25.80542">
<time>2020-09-13T11:12:32Z</time>
</trkpt>
<trkpt lat="61.030857" lon="25.805425">
<time>2020-09-13T11:12:33Z</time>
</trkpt>
<trkpt lat="61.030777" lon="25.805446">
<time>2020-09-13T11:12:34Z</time>
</trkpt>
<trkpt lat="61.030703" lon="25.805469">
<time>2020-09-13T11:12:35Z</time>
</trkpt>
<trkpt lat="61.030633" lon="25.805496">
<time>2020-09-13T11:12:36Z</time>
</trkpt>
<trkpt lat="61.030569" lon="25.805523">
<time>2020-09-13T11:12:37Z</time>
</trkpt>
<trkpt lat="61.030505" lon="25.805554">
<time>2020-09-13T11:12:38Z</time>
</trkpt>
<trkpt lat="61.030438" lon="25.805587">
<time>2020-09-13T11:12:39Z</time>
</trkpt>
<trkpt lat="61.030369" lon="25.80562">
<time>2020-09-13T11:12:40Z</time>
</trkpt>
<trkpt lat="61.0303" lon="25.805654">
<time>2020-09-13T11:12:41Z</time>
</trkpt>
<trkpt lat="61.030235" lon="25.805687">
<time>2020-09-13T11:12:42Z</time>
</trkpt>
<trkpt lat="61.030174" lon="25.80573">
<time>2020-09-13T11:12:43Z</time>
</trkpt>
<trkpt lat="61.030113" lon="25.805789">
<time>2020-09-13T11:12:44Z</time>
</trkpt>
<trkpt lat="61.03005" lon="25.805859">
<time>2020-09-13T11:12:45Z</time>
</trkpt>
<trkpt lat="61.029987" lon="25.80593">
<time>2020-09-13T11:12:46Z</time>
</trkpt>
<trkpt lat="61.029928" lon="25.805997">
<time>2020-09-13T11:12:47Z</time>
</trkpt>
<trkpt lat="61.029871" lon="25.806068">
<time>2020-09-13T11:12:48Z</time>
</trkpt>
<trkpt lat="61.029816" lon="25.806148">
<time>2020-09-13T11:12:49Z</time>
</trkpt>
<trkpt lat="61.029764" lon="25.806235">
<time>2020-09-13T11:12:50Z</time>
</trkpt>
<trkpt lat="61.029715" lon="25.806332">
<time>2020-09-13T11:12:51Z</time>
</trkpt>
<trkpt lat="61.029668" lon="25.806433">
<time>2020-09-13T11:12:52Z</time>
</trkpt>
<trkpt lat="61.02962" lon="25.806545">
<time>2020-09-13T11:12:53Z</time>
</trkpt>
<trkpt lat="61.029573" lon="25.806663">
<time>2020-09-13T11:12:54Z</time>
</trkpt>
<trkpt lat="61.029526" lon="25.806783">
<time>2020-09-13T11:12:55Z</time>
</trkpt>
<trkpt lat="61.029477" lon="25.8069">
<time>2020-09-13T11:12:56Z</time>
</trkpt>
<trkpt lat="61.029426" lon="25.80701">
<time>2020-09-13T11:12:57Z</time>
</trkpt>
<trkpt lat="61.029372" lon="25.807113">
<time>2020-09-13T11:12:58Z</time>
</trkpt>
<trkpt lat="61.029319" lon="25.80721">
<time>2020-09-13T11:12:59Z</time>
</trkpt>
<trkpt lat="61.029267" lon="25.807299">
<time>2020-09-13T11:13:00Z</time>
</trkpt>
<trkpt lat="61.029219" lon="25.807377">
<time>2020-09-13T11:13:01Z</time>
</trkpt>
<trkpt lat="61.02918" lon="25.807452">
<time>2020-09-13T11:13:02Z</time>
</trkpt>
<trkpt lat="61.029153" lon="25.807526">
<time>2020-09-13T11:13:03Z</time>
</trkpt>
<trkpt lat="61.02913" lon="25.807602">
<time>2020-09-13T11:13:04Z</time>
</trkpt>
<trkpt lat="61.029106" lon="25.807678">
<time>2020-09-13T11:13:05Z</time>
</trkpt>
<trkpt lat="61.029079" lon="25.807759">
<time>2020-09-13T11:13:06Z</time>
</trkpt>
<trkpt lat="61.029051" lon="25.807846">
<time>2020-09-13T11:13:07Z</time>
</trkpt>
<trkpt lat="61.029021" lon="25.807935">
<time>2020-09-13T11:13:08Z</time>
</trkpt>
<trkpt lat="61.02899" lon="25.80802">
<time>2020-09-13T11:13:09Z</time>
</trkpt>
<trkpt lat="61.028957" lon="25.808099">
<time>2020-09-13T11:13:10Z</time>
</trkpt>
<trkpt lat="61.02892" lon="25.808162">
<time>2020-09-13T11:13:11Z</time>
</trkpt>
<trkpt lat="61.028881" lon="25.808206">
<time>2020-09-13T11:13:12Z</time>
</trkpt>
<trkpt lat="61.02884" lon="25.808234">
<time>2020-09-13T11:13:13Z</time>
</trkpt>
<trkpt lat="61.028799" lon="25.808257">
<time>2020-09-13T11:13:14Z</time>
</trkpt>
<trkpt lat="61.028756" lon="25.808279">
<time>2020-09-13T11:13:15Z</time>
</trkpt>
<trkpt lat="61.028714" lon="25.808305">
<time>2020-09-13T11:13:16Z</time>
</trkpt>
<trkpt lat="61.028674" lon="25.808336">
<time>2020-09-13T11:13:17Z</time>
</trkpt>
<trkpt lat="61.028636" lon="25.808368">
<time>2020-09-13T11:13:18Z</time>
</trkpt>
<trkpt lat="61.028598" lon="25.808393">
<time>2020-09-13T11:13:19Z</time>
</trkpt>
<trkpt lat="61.028561" lon="25.808405">
<time>2020-09-13T11:13:20Z</time>
</trkpt>
<trkpt lat="61.028525" lon="25.808418">
<time>2020-09-13T11:13:21Z</time>
</trkpt>
<trkpt lat="61.028492" lon="25.808426">
<time>2020-09-13T11:13:22Z</time>
</trkpt>
<trkpt lat="61.028462" lon="25.808435">
<time>2020-09-13T11:13:23Z</time>
</trkpt>
<trkpt lat="61.028436" lon="25.808436">
<time>2020-09-13T11:13:24Z</time>
</trkpt>
<trkpt lat="61.028412" lon="25.808439">
<time>2020-09-13T11:13:25Z</time>
</trkpt>
<trkpt lat="61.028386" lon="25.80844">
<time>2020-09-13T11:13:26Z</time>
</trkpt>
<trkpt lat="61.028361" lon="25.808443">
<time>2020-09-13T11:13:27Z</time>
</trkpt>
<trkpt lat="61.028333" lon="25.808448">
<time>2020-09-13T11:13:28Z</time>
</trkpt>
<trkpt lat="61.028303" lon="25.808457">
<time>2020-09-13T11:13:29Z</time>
</trkpt>
<trkpt lat="61.028268" lon="25.808469">
<time>2020-09-13T11:13:30Z</time>
</trkpt>
<trkpt lat="61.028228" lon="25.808492">
<time>2020-09-13T11:13:31Z</time>
</trkpt>
<trkpt lat="61.028187" lon="25.808525">
<time>2020-09-13T11:13:32Z</time>
</trkpt>
<trkpt lat="61.02815" lon="25.808569">
<time>2020-09-13T11:13:33Z</time>
</trkpt>
<trkpt lat="61.028117" lon="25.808623">
<time>2020-09-13T11:13:34Z</time>
</trkpt>
<trkpt lat="61.028087" lon="25.808677">
<time>2020-09-13T11:13:35Z</time>
</trkpt>
<trkpt lat="61.02806" lon="25.808733">
<time>2020-09-13T11:13:36Z</time>
</trkpt>
<trkpt lat="61.028033" lon="25.808781">
<time>2020-09-13T11:13:37Z</time>
</trkpt>
<trkpt lat="61.028004" lon="25.80883">
<time>2020-09-13T11:13:38Z</time>
</trkpt>
<trkpt lat="61.027975" lon="25.808876">
<time>2020-09-13T11:13:39Z</time>
</trkpt>
<trkpt lat="61.02795" lon="25.808919">
<time>2020-09-13T11:13:40Z</time>
</trkpt>
<trkpt lat="61.027931" lon="25.808961">
<time>2020-09-13T11:13:41Z</time>
</trkpt>
<trkpt lat="61.027912" lon="25.808999">
<time>2020-09-13T11:13:42Z</time>
</trkpt>
<trkpt lat="61.027892" lon="25.809032">
<time>2020-09-13T11:13:43Z</time>
</trkpt>
<trkpt lat="61.027867" lon="25.809061">
<time>2020-09-13T11:13:44Z</time>
</trkpt>
<trkpt lat="61.027839" lon="25.809088">
<time>2020-09-13T11:13:45Z</time>
</trkpt>
<trkpt lat="61.027808" lon="25.80912">
<time>2020-09-13T11:13:46Z</time>
</trkpt>
<trkpt lat="61.027777" lon="25.809152">
<time>2020-09-13T11:13:47Z</time>
</trkpt>
<trkpt lat="61.027743" lon="25.809179">
<time>2020-09-13T11:13:48Z</time>
</trkpt>
<trkpt lat="61.027708" lon="25.809202">
<time>2020-09-13T11:13:49Z</time>
</trkpt>
<trkpt lat="61.027674" lon="25.809223">
<time>2020-09-13T11:13:50Z</time>
</trkpt>
<trkpt lat="61.027639" lon="25.809244">
<time>2020-09-13T11:13:51Z</time>
</trkpt>
<trkpt lat="61.027603" lon="25.809261">
<time>2020-09-13T11:13:52Z</time>
</trkpt>
<trkpt lat="61.027564" lon="25.809271">
<time>2020-09-13T11:13:53Z</time>
</trkpt>
<trkpt lat="61.027524" lon="25.809281">
<time>2020-09-13T11:13:54Z</time>
</trkpt>
<trkpt lat="61.027478" lon="25.809293">
<time>2020-09-13T11:13:55Z</time>
</trkpt>
<trkpt lat="61.02743" lon="25.809311">
<time>2020-09-13T11:13:56Z</time>
</trkpt>
<trkpt lat="61.027383" lon="25.809332">
<time>2020-09-13T11:13:57Z</time>
</trkpt>
<trkpt lat="61.027336" lon="25.80936">
<time>2020-09-13T11:13:58Z</time>
</trkpt>
<trkpt lat="61.027291" lon="25.809391">
<time>2020-09-13T11:13:59Z</time>
</trkpt>
<trkpt lat="61.027248" lon="25.809427">
<time>2020-09-13T11:14:00Z</time>
</trkpt>
<trkpt lat="61.027204" lon="25.80947">
<time>2020-09-13T11:14:01Z</time>
</trkpt>
<trkpt lat="61.02716" lon="25.809519">
<time>2020-09-13T11:14:02Z</time>
</trkpt>
<trkpt lat="61.027115" lon="25.809571">
<time>2020-09-13T11:14:03Z</time>
</trkpt>
<trkpt lat="61.027075" lon="25.809623">
<time>2020-09-13T11:14:04Z</time>
</trkpt>
<trkpt lat="61.027037" lon="25.809678">
<time>2020-09-13T11:14:05Z</time>
</trkpt>
<trkpt lat="61.027001" lon="25.809731">
<time>2020-09-13T11:14:06Z</time>
</trkpt>
<trkpt lat="61.02696" lon="25.809771">
<time>2020-09-13T11:14:07Z</time>
</trkpt>
<trkpt lat="61.026914" lon="25.80979">
<time>2020-09-13T11:14:08Z</time>
</trkpt>
<trkpt lat="61.026864" lon="25.809793">
<time>2020-09-13T11:14:09Z</time>
</trkpt>
<trkpt lat="61.026818" lon="25.809783">
<time>2020-09-13T11:14:10Z</time>
</trkpt>
<trkpt lat="61.026777" lon="25.809766">
<time>2020-09-13T11:14:11Z</time>
</trkpt>
<trkpt lat="61.026739" lon="25.809742">
<time>2020-09-13T11:14:12Z</time>
</trkpt>
<trkpt lat="61.026699" lon="25.809719">
<time>2020-09-13T11:14:13Z</time>
</trkpt>
<trkpt lat="61.02666" lon="25.8097">
<time>2020-09-13T11:14:14Z</time>
</trkpt>
<trkpt lat="61.026623" lon="25.809683">
<time>2020-09-13T11:14:15Z</time>
</trkpt>
<trkpt lat="61.026588" lon="25.809667">
<time>2020-09-13T11:14:16Z</time>
</trkpt>
<trkpt lat="61.026554" lon="25.809646">
<time>2020-09-13T11:14:17Z</time>
</trkpt>
<trkpt lat="61.026523" lon="25.809624">
<time>2020-09-13T11:14:18Z</time>
</trkpt>
<trkpt lat="61.026493" lon="25.809597">
<time>2020-09-13T11:14:19Z</time>
</trkpt>
<trkpt lat="61.026464" lon="25.809573">
<time>2020-09-13T11:14:20Z</time>
</trkpt>
<trkpt lat="61.026433" lon="25.809554">
<time>2020-09-13T11:14:21Z</time>
</trkpt>
<trkpt lat="61.026402" lon="25.80954">
<time>2020-09-13T11:14:22Z</time>
</trkpt>
<trkpt lat="61.026369" lon="25.809527">
<time>2020-09-13T11:14:23Z</time>
</trkpt>
<trkpt lat="61.026338" lon="25.809513">
<time>2020-09-13T11:14:24Z</time>
</trkpt>
<trkpt lat="61.026305" lon="25.8095">
<time>2020-09-13T11:14:25Z</time>
</trkpt>
<trkpt lat="61.026269" lon="25.809492">
<time>2020-09-13T11:14:26Z</time>
</trkpt>
<trkpt lat="61.026232" lon="25.809488">
<time>2020-09-13T11:14:27Z</time>
</trkpt>
<trkpt lat="61.026198" lon="25.809485">
<time>2020-09-13T11:14:28Z</time>
</trkpt>
<trkpt lat="61.026169" lon="25.809481">
<time>2020-09-13T11:14:29Z</time>
</trkpt>
<trkpt lat="61.02614" lon="25.809475">
<time>2020-09-13T11:14:30Z</time>
</trkpt>
<trkpt lat="61.026112" lon="25.809471">
<time>2020-09-13T11:14:31Z</time>
</trkpt>
<trkpt lat="61.026083" lon="25.809466">
<time>2020-09-13T11:14:32Z</time>
</trkpt>
<trkpt lat="61.026056" lon="25.80946">
<time>2020-09-13T11:14:33Z</time>
</trkpt>
<trkpt lat="61.026029" lon="25.809455">
<time>2020-09-13T11:14:34Z</time>
</trkpt>
<trkpt lat="61.026002" lon="25.809453">
<time>2020-09-13T11:14:35Z</time>
</trkpt>
<trkpt lat="61.025975" lon="25.809456">
<time>2020-09-13T11:14:36Z</time>
</trkpt>
<trkpt lat="61.025951" lon="25.809462">
<time>2020-09-13T11:14:37Z</time>
</trkpt>
<trkpt lat="61.025927" lon="25.809472">
<time>2020-09-13T11:14:38Z</time>
</trkpt>
<trkpt lat="61.025905" lon="25.809488">
<time>2020-09-13T11:14:39Z</time>
</trkpt>
<trkpt lat="61.025882" lon="25.809503">
<time>2020-09-13T11:14:40Z</time>
</trkpt>
<trkpt lat="61.025862" lon="25.809515">
<time>2020-09-13T11:14:41Z</time>
</trkpt>
<trkpt lat="61.025838" lon="25.809509">
<time>2020-09-13T11:14:42Z</time>
</trkpt>
<trkpt lat="61.025812" lon="25.809497">
<time>2020-09-13T11:14:43Z</time>
</trkpt>
<trkpt lat="61.025778" lon="25.809481">
<time>2020-09-13T11:14:44Z</time>
</trkpt>
<trkpt lat="61.025747" lon="25.809469">
<time>2020-09-13T11:14:45Z</time>
</trkpt>
<trkpt lat="61.025718" lon="25.809458">
<time>2020-09-13T11:14:46Z</time>
</trkpt>
<trkpt lat="61.025694" lon="25.809446">
<time>2020-09-13T11:14:47Z</time>
</trkpt>
<trkpt lat="61.025671" lon="25.809434">
<time>2020-09-13T11:14:48Z</time>
</trkpt>
<trkpt lat="61.025647" lon="25.809422">
<time>2020-09-13T11:14:49Z</time>
</trkpt>
<trkpt lat="61.025617" lon="25.809414">
<time>2020-09-13T11:14:50Z</time>
</trkpt>
<trkpt lat="61.025584" lon="25.809405">
<time>2020-09-13T11:14:51Z</time>
</trkpt>
<trkpt lat="61.025546" lon="25.809389">
<time>2020-09-13T11:14:52Z</time>
</trkpt>
<trkpt lat="61.025509" lon="25.809367">
<time>2020-09-13T11:14:53Z</time>
</trkpt>
<trkpt lat="61.025471" lon="25.809343">
<time>2020-09-13T11:14:54Z</time>
</trkpt>
<trkpt lat="61.025435" lon="25.809323">
<time>2020-09-13T11:14:55Z</time>
</trkpt>
<trkpt lat="61.0254" lon="25.809303">
<time>2020-09-13T11:14:56Z</time>
</trkpt>
<trkpt lat="61.025365" lon="25.809279">
<time>2020-09-13T11:14:57Z</time>
</trkpt>
<trkpt lat="61.025327" lon="25.809256">
<time>2020-09-13T11:14:58Z</time>
</trkpt>
<trkpt lat="61.025287" lon="25.809234">
<time>2020-09-13T11:14:59Z</time>
</trkpt>
<trkpt lat="61.025248" lon="25.809216">
<time>2020-09-13T11:15:00Z</time>
</trkpt>
<trkpt lat="61.025209" lon="25.809197">
<time>2020-09-13T11:15:01Z</time>
</trkpt>
<trkpt lat="61.025173" lon="25.809187">
<time>2020-09-13T11:15:02Z</time>
</trkpt>
<trkpt lat="61.025136" lon="25.809186">
<time>2020-09-13T11:15:03Z</time>
</trkpt>
<trkpt lat="61.025097" lon="25.809184">
<time>2020-09-13T11:15:04Z</time>
</trkpt>
<trkpt lat="61.025055" lon="25.809172">
<time>2020-09-13T11:15:05Z</time>
</trkpt>
<trkpt lat="61.025011" lon="25.809154">
<time>2020-09-13T11:15:06Z</time>
</trkpt>
<trkpt lat="61.024962" lon="25.80914">
<time>2020-09-13T11:15:07Z</time>
</trkpt>
<trkpt lat="61.024911" lon="25.809131">
<time>2020-09-13T11:15:08Z</time>
</trkpt>
<trkpt lat="61.024856" lon="25.809128">
<time>2020-09-13T11:15:09Z</time>
</trkpt>
<trkpt lat="61.024807" lon="25.809128">
<time>2020-09-13T11:15:10Z</time>
</trkpt>
<trkpt lat="61.024758" lon="25.809128">
<time>2020-09-13T11:15:11Z</time>
</trkpt>
<trkpt lat="61.024712" lon="25.809134">
<time>2020-09-13T11:15:12Z</time>
</trkpt>
<trkpt lat="61.024663" lon="25.809147">
<time>2020-09-13T11:15:13Z</time>
</trkpt>
<trkpt lat="61.024614" lon="25.809171">
<time>2020-09-13T11:15:14Z</time>
</trkpt>
<trkpt lat="61.024563" lon="25.809191">
<time>2020-09-13T11:15:15Z</time>
</trkpt>
<trkpt lat="61.024516" lon="25.809208">
<time>2020-09-13T11:15:16Z</time>
</trkpt>
<trkpt lat="61.02447" lon="25.809214">
<time>2020-09-13T11:15:17Z</time>
</trkpt>
<trkpt lat="61.024427" lon="25.809219">
<time>2020-09-13T11:15:18Z</time>
</trkpt>
<trkpt lat="61.024382" lon="25.809223">
<time>2020-09-13T11:15:19Z</time>
</trkpt>
<trkpt lat="61.024341" lon="25.809222">
<time>2020-09-13T11:15:20Z</time>
</trkpt>
<trkpt lat="61.024305" lon="25.809214">
<time>2020-09-13T11:15:21Z</time>
</trkpt>
<trkpt lat="61.024269" lon="25.809202">
<time>2020-09-13T11:15:22Z</time>
</trkpt>
<trkpt lat="61.02423" lon="25.809192">
<time>2020-09-13T11:15:23Z</time>
</trkpt>
<trkpt lat="61.024187" lon="25.809187">
<time>2020-09-13T11:15:24Z</time>
</trkpt>
<trkpt lat="61.024146" lon="25.809181">
<time>2020-09-13T11:15:25Z</time>
</trkpt>
<trkpt lat="61.024102" lon="25.809175">
<time>2020-09-13T11:15:26Z</time>
</trkpt>
<trkpt lat="61.024056" lon="25.809164">
<time>2020-09-13T11:15:27Z</time>
</trkpt>
<trkpt lat="61.024006" lon="25.809153">
<time>2020-09-13T11:15:28Z</time>
</trkpt>
<trkpt lat="61.023956" lon="25.809141">
<time>2020-09-13T11:15:29Z</time>
</trkpt>
<trkpt lat="61.0239" lon="25.809128">
<time>2020-09-13T11:15:30Z</time>
</trkpt>
<trkpt lat="61.023844" lon="25.809107">
<time>2020-09-13T11:15:31Z</time>
</trkpt>
<trkpt lat="61.023787" lon="25.809081">
<time>2020-09-13T11:15:32Z</time>
</trkpt>
<trkpt lat="61.023731" lon="25.809054">
<time>2020-09-13T11:15:33Z</time>
</trkpt>
<trkpt lat="61.023676" lon="25.809026">
<time>2020-09-13T11:15:34Z</time>
</trkpt>
<trkpt lat="61.023623" lon="25.809004">
<time>2020-09-13T11:15:35Z</time>
</trkpt>
<trkpt lat="61.023568" lon="25.808985">
<time>2020-09-13T11:15:36Z</time>
</trkpt>
<trkpt lat="61.023512" lon="25.808963">
<time>2020-09-13T11:15:37Z</time>
</trkpt>
<trkpt lat="61.023456" lon="25.808943">
<time>2020-09-13T11:15:38Z</time>
</trkpt>
<trkpt lat="61.023399" lon="25.80892">
<time>2020-09-13T11:15:39Z</time>
</trkpt>
<trkpt lat="61.023333" lon="25.808885">
<time>2020-09-13T11:15:40Z</time>
</trkpt>
<trkpt lat="61.023266" lon="25.808839">
<time>2020-09-13T11:15:41Z</time>
</trkpt>
<trkpt lat="61.023199" lon="25.808791">
<time>2020-09-13T11:15:42Z</time>
</trkpt>
<trkpt lat="61.023147" lon="25.808752">
<time>2020-09-13T11:15:43Z</time>
</trkpt>
<trkpt lat="61.023095" lon="25.808712">
<time>2020-09-13T11:15:44Z</time>
</trkpt>
<trkpt lat="61.023044" lon="25.808678">
<time>2020-09-13T11:15:45Z</time>
</trkpt>
<trkpt lat="61.022988" lon="25.808654">
<time>2020-09-13T11:15:46Z</time>
</trkpt>
<trkpt lat="61.02293" lon="25.80863">
<time>2020-09-13T11:15:47Z</time>
</trkpt>
<trkpt lat="61.022872" lon="25.808604">
<time>2020-09-13T11:15:48Z</time>
</trkpt>
<trkpt lat="61.022815" lon="25.808578">
<time>2020-09-13T11:15:49Z</time>
</trkpt>
<trkpt lat="61.022761" lon="25.808555">
<time>2020-09-13T11:15:50Z</time>
</trkpt>
<trkpt lat="61.022707" lon="25.808529">
<time>2020-09-13T11:15:51Z</time>
</trkpt>
<trkpt lat="61.022651" lon="25.808505">
<time>2020-09-13T11:15:52Z</time>
</trkpt>
<trkpt lat="61.022594" lon="25.808486">
<time>2020-09-13T11:15:53Z</time>
</trkpt>
<trkpt lat="61.022536" lon="25.808474">
<time>2020-09-13T11:15:54Z</time>
</trkpt>
<trkpt lat="61.022475" lon="25.808467">
<time>2020-09-13T11:15:55Z</time>
</trkpt>
<trkpt lat="61.022412" lon="25.808462">
<time>2020-09-13T11:15:56Z</time>
</trkpt>
<trkpt lat="61.022349" lon="25.808456">
<time>2020-09-13T11:15:57Z</time>
</trkpt>
<trkpt lat="61.022286" lon="25.808456">
<time>2020-09-13T11:15:58Z</time>
</trkpt>
<trkpt lat="61.022224" lon="25.808456">
<time>2020-09-13T11:15:59Z</time>
</trkpt>
<trkpt lat="61.022161" lon="25.808454">
<time>2020-09-13T11:16:00Z</time>
</trkpt>
<trkpt lat="61.022098" lon="25.808444">
<time>2020-09-13T11:16:01Z</time>
</trkpt>
<trkpt lat="61.022033" lon="25.808433">
<time>2020-09-13T11:16:02Z</time>
</trkpt>
<trkpt lat="61.021967" lon="25.808416">
<time>2020-09-13T11:16:03Z</time>
</trkpt>
<trkpt lat="61.021899" lon="25.808392">
<time>2020-09-13T11:16:04Z</time>
</trkpt>
<trkpt lat="61.021829" lon="25.808358">
<time>2020-09-13T11:16:05Z</time>
</trkpt>
<trkpt lat="61.021761" lon="25.80832">
<time>2020-09-13T11:16:06Z</time>
</trkpt>
<trkpt lat="61.021699" lon="25.808269">
<time>2020-09-13T11:16:07Z</time>
</trkpt>
<trkpt lat="61.021645" lon="25.808191">
<time>2020-09-13T11:16:08Z</time>
</trkpt>
<trkpt lat="61.021595" lon="25.808093">
<time>2020-09-13T11:16:09Z</time>
</trkpt>
<trkpt lat="61.021543" lon="25.807989">
<time>2020-09-13T11:16:10Z</time>
</trkpt>
<trkpt lat="61.021489" lon="25.807892">
<time>2020-09-13T11:16:11Z</time>
</trkpt>
<trkpt lat="61.021434" lon="25.807803">
<time>2020-09-13T11:16:12Z</time>
</trkpt>
<trkpt lat="61.021382" lon="25.807719">
<time>2020-09-13T11:16:13Z</time>
</trkpt>
<trkpt lat="61.021331" lon="25.807635">
<time>2020-09-13T11:16:14Z</time>
</trkpt>
<trkpt lat="61.021283" lon="25.807545">
<time>2020-09-13T11:16:15Z</time>
</trkpt>
<trkpt lat="61.021239" lon="25.80744">
<time>2020-09-13T11:16:16Z</time>
</trkpt>
<trkpt lat="61.021196" lon="25.807332">
<time>2020-09-13T11:16:17Z</time>
</trkpt>
<trkpt lat="61.021158" lon="25.80722">
<time>2020-09-13T11:16:18Z</time>
</trkpt>
<trkpt lat="61.021124" lon="25.807118">
<time>2020-09-13T11:16:19Z</time>
</trkpt>
<trkpt lat="61.021112" lon="25.807028">
<time>2020-09-13T11:16:20Z</time>
</trkpt>
<trkpt lat="61.021113" lon="25.806948">
<time>2020-09-13T11:16:21Z</time>
</trkpt>
<trkpt lat="61.021127" lon="25.806863">
<time>2020-09-13T11:16:22Z</time>
</trkpt>
<trkpt lat="61.021139" lon="25.806769">
<time>2020-09-13T11:16:23Z</time>
</trkpt>
<trkpt lat="61.021152" lon="25.806672">
<time>2020-09-13T11:16:24Z</time>
</trkpt>
<trkpt lat="61.021165" lon="25.806584">
<time>2020-09-13T11:16:25Z</time>
</trkpt>
<trkpt lat="61.021176" lon="25.806497">
<time>2020-09-13T11:16:26Z</time>
</trkpt>
<trkpt lat="61.021191" lon="25.806421">
<time>2020-09-13T11:16:27Z</time>
</trkpt>
<trkpt lat="61.021211" lon="25.806353">
<time>2020-09-13T11:16:28Z</time>
</trkpt>
<trkpt lat="61.021232" lon="25.806289">
<time>2020-09-13T11:16:29Z</time>
</trkpt>
<trkpt lat="61.021251" lon="25.806231">
<time>2020-09-13T11:16:30Z</time>
</trkpt>
<trkpt lat="61.021266" lon="25.806182">
<time>2020-09-13T11:16:31Z</time>
</trkpt>
<trkpt lat="61.02128" lon="25.806159">
<time>2020-09-13T11:16:32Z</time>
</trkpt>
<trkpt lat="61.021287" lon="25.806147">
<time>2020-09-13T11:16:33Z</time>
</trkpt>
<trkpt lat="61.021284" lon="25.806157">
<time>2020-09-13T11:16:34Z</time>
</trkpt>
<trkpt lat="61.021268" lon="25.806174">
<time>2020-09-13T11:16:35Z</time>
</trkpt>
<trkpt lat="61.021244" lon="25.806222">
<time>2020-09-13T11:16:36Z</time>
</trkpt>
<trkpt lat="61.021221" lon="25.806284">
<time>2020-09-13T11:16:37Z</time>
</trkpt>
<trkpt lat="61.021203" lon="25.806357">
<time>2020-09-13T11:16:38Z</time>
</trkpt>
<trkpt lat="61.021186" lon="25.806429">
<time>2020-09-13T11:16:39Z</time>
</trkpt>
<trkpt lat="61.021164" lon="25.806506">
<time>2020-09-13T11:16:40Z</time>
</trkpt>
<trkpt lat="61.021141" lon="25.806591">
<time>2020-09-13T11:16:41Z</time>
</trkpt>
<trkpt lat="61.02112" lon="25.806677">
<time>2020-09-13T11:16:42Z</time>
</trkpt>
<trkpt lat="61.021101" lon="25.806758">
<time>2020-09-13T11:16:43Z</time>
</trkpt>
<trkpt lat="61.021075" lon="25.806832">
<time>2020-09-13T11:16:44Z</time>
</trkpt>
<trkpt lat="61.021052" lon="25.806903">
<time>2020-09-13T11:16:45Z</time>
</trkpt>
<trkpt lat="61.021041" lon="25.806968">
<time>2020-09-13T11:16:46Z</time>
</trkpt>
<trkpt lat="61.021044" lon="25.80702">
<time>2020-09-13T11:16:47Z</time>
</trkpt>
<trkpt lat="61.021054" lon="25.807068">
<time>2020-09-13T11:16:48Z</time>
</trkpt>
<trkpt lat="61.021065" lon="25.80712">
<time>2020-09-13T11:16:49Z</time>
</trkpt>
<trkpt lat="61.021075" lon="25.807182">
<time>2020-09-13T11:16:50Z</time>
</trkpt>
<trkpt lat="61.021088" lon="25.807247">
<time>2020-09-13T11:16:51Z</time>
</trkpt>
<trkpt lat="61.021107" lon="25.807318">
<time>2020-09-13T11:16:52Z</time>
</trkpt>
<trkpt lat="61.021128" lon="25.807391">
<time>2020-09-13T11:16:53Z</time>
</trkpt>
<trkpt lat="61.021149" lon="25.807466">
<time>2020-09-13T11:16:54Z</time>
</trkpt>
<trkpt lat="61.021171" lon="25.807532">
<time>2020-09-13T11:16:55Z</time>
</trkpt>
<trkpt lat="61.021204" lon="25.807603">
<time>2020-09-13T11:16:56Z</time>
</trkpt>
<trkpt lat="61.021245" lon="25.807677">
<time>2020-09-13T11:16:57Z</time>
</trkpt>
<trkpt lat="61.021287" lon="25.807752">
<time>2020-09-13T11:16:58Z</time>
</trkpt>
<trkpt lat="61.021325" lon="25.807825">
<time>2020-09-13T11:16:59Z</time>
</trkpt>
<trkpt lat="61.021362" lon="25.807894">
<time>2020-09-13T11:17:00Z</time>
</trkpt>
<trkpt lat="61.021397" lon="25.807966">
<time>2020-09-13T11:17:01Z</time>
</trkpt>
<trkpt lat="61.021432" lon="25.808039">
<time>2020-09-13T11:17:02Z</time>
</trkpt>
<trkpt lat="61.021468" lon="25.808111">
<time>2020-09-13T11:17:03Z</time>
</trkpt>
<trkpt lat="61.021506" lon="25.808178">
<time>2020-09-13T11:17:04Z</time>
</trkpt>
<trkpt lat="61.021547" lon="25.808236">
<time>2020-09-13T11:17:05Z</time>
</trkpt>
<trkpt lat="61.02159" lon="25.808287">
<time>2020-09-13T11:17:06Z</time>
</trkpt>
<trkpt lat="61.021633" lon="25.808337">
<time>2020-09-13T11:17:07Z</time>
</trkpt>
<trkpt lat="61.021671" lon="25.808401">
<time>2020-09-13T11:17:08Z</time>
</trkpt>
<trkpt lat="61.021697" lon="25.808478">
<time>2020-09-13T11:17:09Z</time>
</trkpt>
<trkpt lat="61.021711" lon="25.808564">
<time>2020-09-13T11:17:10Z</time>
</trkpt>
<trkpt lat="61.021714" lon="25.808657">
<time>2020-09-13T11:17:11Z</time>
</trkpt>
<trkpt lat="61.021714" lon="25.808749">
<time>2020-09-13T11:17:12Z</time>
</trkpt>
<trkpt lat="61.021714" lon="25.808835">
<time>2020-09-13T11:17:13Z</time>
</trkpt>
<trkpt lat="61.021711" lon="25.808898">
<time>2020-09-13T11:17:14Z</time>
</trkpt>
<trkpt lat="61.021705" lon="25.808951">
<time>2020-09-13T11:17:15Z</time>
</trkpt>
<trkpt lat="61.021694" lon="25.809">
<time>2020-09-13T11:17:16Z</time>
</trkpt>
<trkpt lat="61.021686" lon="25.809058">
<time>2020-09-13T11:17:17Z</time>
</trkpt>
<trkpt lat="61.021677" lon="25.809116">
<time>2020-09-13T11:17:18Z</time>
</trkpt>
<trkpt lat="61.021666" lon="25.809173">
<time>2020-09-13T11:17:19Z</time>
</trkpt>
<trkpt lat="61.021656" lon="25.809228">
<time>2020-09-13T11:17:20Z</time>
</trkpt>
<trkpt lat="61.021648" lon="25.809287">
<time>2020-09-13T11:17:21Z</time>
</trkpt>
<trkpt lat="61.021643" lon="25.809361">
<time>2020-09-13T11:17:22Z</time>
</trkpt>
<trkpt lat="61.021643" lon="25.809445">
<time>2020-09-13T11:17:23Z</time>
</trkpt>
<trkpt lat="61.021647" lon="25.80953">
<time>2020-09-13T11:17:24Z</time>
</trkpt>
<trkpt lat="61.021658" lon="25.809612">
<time>2020-09-13T11:17:25Z</time>
</trkpt>
<trkpt lat="61.02167" lon="25.809692">
<time>2020-09-13T11:17:26Z</time>
</trkpt>
<trkpt lat="61.021682" lon="25.809776">
<time>2020-09-13T11:17:27Z</time>
</trkpt>
<trkpt lat="61.021691" lon="25.809857">
<time>2020-09-13T11:17:28Z</time>
</trkpt>
<trkpt lat="61.021702" lon="25.809943">
<time>2020-09-13T11:17:29Z</time>
</trkpt>
<trkpt lat="61.021712" lon="25.810029">
<time>2020-09-13T11:17:30Z</time>
</trkpt>
<trkpt lat="61.02172" lon="25.810122">
<time>2020-09-13T11:17:31Z</time>
</trkpt>
<trkpt lat="61.021724" lon="25.810214">
<time>2020-09-13T11:17:32Z</time>
</trkpt>
<trkpt lat="61.021727" lon="25.810307">
<time>2020-09-13T11:17:33Z</time>
</trkpt>
<trkpt lat="61.021729" lon="25.810397">
<time>2020-09-13T11:17:34Z</time>
</trkpt>
<trkpt lat="61.021729" lon="25.810488">
<time>2020-09-13T11:17:35Z</time>
</trkpt>
<trkpt lat="61.021723" lon="25.810578">
<time>2020-09-13T11:17:36Z</time>
</trkpt>
<trkpt lat="61.021709" lon="25.810666">
<time>2020-09-13T11:17:37Z</time>
</trkpt>
<trkpt lat="61.021692" lon="25.810744">
<time>2020-09-13T11:17:38Z</time>
</trkpt>
<trkpt lat="61.021674" lon="25.810818">
<time>2020-09-13T11:17:39Z</time>
</trkpt>
<trkpt lat="61.021655" lon="25.810892">
<time>2020-09-13T11:17:40Z</time>
</trkpt>
<trkpt lat="61.021635" lon="25.81097">
<time>2020-09-13T11:17:41Z</time>
</trkpt>
<trkpt lat="61.021613" lon="25.811048">
<time>2020-09-13T11:17:42Z</time>
</trkpt>
<trkpt lat="61.02159" lon="25.811122">
<time>2020-09-13T11:17:43Z</time>
</trkpt>
<trkpt lat="61.021565" lon="25.811199">
<time>2020-09-13T11:17:44Z</time>
</trkpt>
<trkpt lat="61.021538" lon="25.811293">
<time>2020-09-13T11:17:45Z</time>
</trkpt>
<trkpt lat="61.021511" lon="25.811395">
<time>2020-09-13T11:17:46Z</time>
</trkpt>
<trkpt lat="61.021485" lon="25.811503">
<time>2020-09-13T11:17:47Z</time>
</trkpt>
<trkpt lat="61.021459" lon="25.811603">
<time>2020-09-13T11:17:48Z</time>
</trkpt>
<trkpt lat="61.021429" lon="25.8117">
<time>2020-09-13T11:17:49Z</time>
</trkpt>
<trkpt lat="61.02139" lon="25.811804">
<time>2020-09-13T11:17:50Z</time>
</trkpt>
<trkpt lat="61.021348" lon="25.811915">
<time>2020-09-13T11:17:51Z</time>
</trkpt>
<trkpt lat="61.021307" lon="25.812038">
<time>2020-09-13T11:17:52Z</time>
</trkpt>
<trkpt lat="61.021266" lon="25.812168">
<time>2020-09-13T11:17:53Z</time>
</trkpt>
<trkpt lat="61.021218" lon="25.812318">
<time>2020-09-13T11:17:54Z</time>
</trkpt>
<trkpt lat="61.021166" lon="25.812472">
<time>2020-09-13T11:17:55Z</time>
</trkpt>
<trkpt lat="61.021114" lon="25.812622">
<time>2020-09-13T11:17:56Z</time>
</trkpt>
<trkpt lat="61.021064" lon="25.812748">
<time>2020-09-13T11:17:57Z</time>
</trkpt>
<trkpt lat="61.021011" lon="25.812859">
<time>2020-09-13T11:17:58Z</time>
</trkpt>
<trkpt lat="61.020956" lon="25.812956">
<time>2020-09-13T11:17:59Z</time>
</trkpt>
<trkpt lat="61.020902" lon="25.813048">
<time>2020-09-13T11:18:00Z</time>
</trkpt>
<trkpt lat="61.020845" lon="25.813138">
<time>2020-09-13T11:18:01Z</time>
</trkpt>
<trkpt lat="61.020788" lon="25.813231">
<time>2020-09-13T11:18:02Z</time>
</trkpt>
<trkpt lat="61.020732" lon="25.813316">
<time>2020-09-13T11:18:03Z</time>
</trkpt>
<trkpt lat="61.02068" lon="25.813385">
<time>2020-09-13T11:18:04Z</time>
</trkpt>
<trkpt lat="61.020634" lon="25.813418">
<time>2020-09-13T11:18:05Z</time>
</trkpt>
<trkpt lat="61.020585" lon="25.81342">
<time>2020-09-13T11:18:06Z</time>
</trkpt>
<trkpt lat="61.020541" lon="25.813413">
<time>2020-09-13T11:18:07Z</time>
</trkpt>
<trkpt lat="61.0205" lon="25.813418">
<time>2020-09-13T11:18:08Z</time>
</trkpt>
<trkpt lat="61.020469" lon="25.81345">
<time>2020-09-13T11:18:09Z</time>
</trkpt>
<trkpt lat="61.020438" lon="25.813488">
<time>2020-09-13T11:18:10Z</time>
</trkpt>
<trkpt lat="61.020409" lon="25.813536">
<time>2020-09-13T11:18:11Z</time>
</trkpt>
<trkpt lat="61.02038" lon="25.813583">
<time>2020-09-13T11:18:12Z</time>
</trkpt>
<trkpt lat="61.020351" lon="25.813635">
<time>2020-09-13T11:18:13Z</time>
</trkpt>
<trkpt lat="61.020324" lon="25.813684">
<time>2020-09-13T11:18:14Z</time>
</trkpt>
<trkpt lat="61.020299" lon="25.813734">
<time>2020-09-13T11:18:15Z</time>
</trkpt>
<trkpt lat="61.020278" lon="25.813783">
<time>2020-09-13T11:18:16Z</time>
</trkpt>
<trkpt lat="61.020258" lon="25.813829">
<time>2020-09-13T11:18:17Z</time>
</trkpt>
<trkpt lat="61.020238" lon="25.813876">
<time>2020-09-13T11:18:18Z</time>
</trkpt>
<trkpt lat="61.020216" lon="25.81392">
<time>2020-09-13T11:18:19Z</time>
</trkpt>
<trkpt lat="61.02019" lon="25.813962">
<time>2020-09-13T11:18:20Z</time>
</trkpt>
<trkpt lat="61.020166" lon="25.813992">
<time>2020-09-13T11:18:21Z</time>
</trkpt>
<trkpt lat="61.020141" lon="25.814015">
<time>2020-09-13T11:18:22Z</time>
</trkpt>
<trkpt lat="61.020114" lon="25.814032">
<time>2020-09-13T11:18:23Z</time>
</trkpt>
<trkpt lat="61.020082" lon="25.814053">
<time>2020-09-13T11:18:24Z</time>
</trkpt>
<trkpt lat="61.020052" lon="25.81408">
<time>2020-09-13T11:18:25Z</time>
</trkpt>
<trkpt lat="61.020019" lon="25.81412">
<time>2020-09-13T11:18:26Z</time>
</trkpt>
<trkpt lat="61.019983" lon="25.814167">
<time>2020-09-13T11:18:27Z</time>
</trkpt>
<trkpt lat="61.019942" lon="25.814217">
<time>2020-09-13T11:18:28Z</time>
</trkpt>
<trkpt lat="61.019908" lon="25.814277">
<time>2020-09-13T11:18:29Z</time>
</trkpt>
<trkpt lat="61.019877" lon="25.814351">
<time>2020-09-13T11:18:30Z</time>
</trkpt>
<trkpt lat="61.019846" lon="25.814447">
<time>2020-09-13T11:18:31Z</time>
</trkpt>
<trkpt lat="61.019815" lon="25.814547">
<time>2020-09-13T11:18:32Z</time>
</trkpt>
<trkpt lat="61.019787" lon="25.814649">
<time>2020-09-13T11:18:33Z</time>
</trkpt>
<trkpt lat="61.019768" lon="25.814746">
<time>2020-09-13T11:18:34Z</time>
</trkpt>
<trkpt lat="61.019749" lon="25.814841">
<time>2020-09-13T11:18:35Z</time>
</trkpt>
<trkpt lat="61.019737" lon="25.814941">
<time>2020-09-13T11:18:36Z</time>
</trkpt>
<trkpt lat="61.019729" lon="25.815038">
<time>2020-09-13T11:18:37Z</time>
</trkpt>
<trkpt lat="61.019724" lon="25.815134">
<time>2020-09-13T11:18:38Z</time>
</trkpt>
<trkpt lat="61.019719" lon="25.815216">
<time>2020-09-13T11:18:39Z</time>
</trkpt>
<trkpt lat="61.019716" lon="25.815285">
<time>2020-09-13T11:18:40Z</time>
</trkpt>
<trkpt lat="61.019712" lon="25.815332">
<time>2020-09-13T11:18:41Z</time>
</trkpt>
<trkpt lat="61.019707" lon="25.815354">
<time>2020-09-13T11:18:42Z</time>
</trkpt>
<trkpt lat="61.019699" lon="25.815365">
<time>2020-09-13T11:18:43Z</time>
</trkpt>
<trkpt lat="61.019694" lon="25.815368">
<time>2020-09-13T11:18:44Z</time>
</trkpt>
<trkpt lat="61.019692" lon="25.815371">
<time>2020-09-13T11:18:45Z</time>
</trkpt>
<trkpt lat="61.019693" lon="25.815361">
<time>2020-09-13T11:18:46Z</time>
</trkpt>
<trkpt lat="61.019693" lon="25.815341">
<time>2020-09-13T11:18:47Z</time>
</trkpt>
<trkpt lat="61.019688" lon="25.815319">
<time>2020-09-13T11:18:48Z</time>
</trkpt>
<trkpt lat="61.019679" lon="25.815299">
<time>2020-09-13T11:18:49Z</time>
</trkpt>
<trkpt lat="61.019674" lon="25.815287">
<time>2020-09-13T11:18:50Z</time>
</trkpt>
<trkpt lat="61.019675" lon="25.815274">
<time>2020-09-13T11:18:51Z</time>
</trkpt>
<trkpt lat="61.019678" lon="25.815263">
<time>2020-09-13T11:18:52Z</time>
</trkpt>
<trkpt lat="61.019685" lon="25.815252">
<time>2020-09-13T11:18:53Z</time>
</trkpt>
<trkpt lat="61.019696" lon="25.815242">
<time>2020-09-13T11:18:54Z</time>
</trkpt>
<trkpt lat="61.019708" lon="25.815231">
<time>2020-09-13T11:18:55Z</time>
</trkpt>
<trkpt lat="61.019721" lon="25.815219">
<time>2020-09-13T11:18:56Z</time>
</trkpt>
<trkpt lat="61.019734" lon="25.815202">
<time>2020-09-13T11:18:57Z</time>
</trkpt>
<trkpt lat="61.019751" lon="25.815181">
<time>2020-09-13T11:18:58Z</time>
</trkpt>
<trkpt lat="61.01977" lon="25.815155">
<time>2020-09-13T11:18:59Z</time>
</trkpt>
<trkpt lat="61.019791" lon="25.815125">
<time>2020-09-13T11:19:00Z</time>
</trkpt>
<trkpt lat="61.019814" lon="25.815097">
<time>2020-09-13T11:19:01Z</time>
</trkpt>
<trkpt lat="61.01984" lon="25.815073">
<time>2020-09-13T11:19:02Z</time>
</trkpt>
<trkpt lat="61.019865" lon="25.815056">
<time>2020-09-13T11:19:03Z</time>
</trkpt>
<trkpt lat="61.019892" lon="25.815049">
<time>2020-09-13T11:19:04Z</time>
</trkpt>
<trkpt lat="61.019922" lon="25.815066">
<time>2020-09-13T11:19:05Z</time>
</trkpt>
<trkpt lat="61.01995" lon="25.815094">
<time>2020-09-13T11:19:06Z</time>
</trkpt>
<trkpt lat="61.019978" lon="25.815122">
<time>2020-09-13T11:19:07Z</time>
</trkpt>
<trkpt lat="61.020007" lon="25.815131">
<time>2020-09-13T11:19:08Z</time>
</trkpt>
<trkpt lat="61.020038" lon="25.815139">
<time>2020-09-13T11:19:09Z</time>
</trkpt>
<trkpt lat="61.02007" lon="25.815139">
<time>2020-09-13T11:19:10Z</time>
</trkpt>
<trkpt lat="61.020099" lon="25.815131">
<time>2020-09-13T11:19:11Z</time>
</trkpt>
<trkpt lat="61.020127" lon="25.815116">
<time>2020-09-13T11:19:12Z</time>
</trkpt>
<trkpt lat="61.020152" lon="25.815105">
<time>2020-09-13T11:19:13Z</time>
</trkpt>
<trkpt lat="61.020177" lon="25.8151">
<time>2020-09-13T11:19:14Z</time>
</trkpt>
<trkpt lat="61.020203" lon="25.815096">
<time>2020-09-13T11:19:15Z</time>
</trkpt>
<trkpt lat="61.020232" lon="25.815088">
<time>2020-09-13T11:19:16Z</time>
</trkpt>
<trkpt lat="61.020263" lon="25.815077">
<time>2020-09-13T11:19:17Z</time>
</trkpt>
<trkpt lat="61.020299" lon="25.81506">
<time>2020-09-13T11:19:18Z</time>
</trkpt>
<trkpt lat="61.020336" lon="25.81504">
<time>2020-09-13T11:19:19Z</time>
</trkpt>
<trkpt lat="61.020371" lon="25.815018">
<time>2020-09-13T11:19:20Z</time>
</trkpt>
<trkpt lat="61.020401" lon="25.815002">
<time>2020-09-13T11:19:21Z</time>
</trkpt>
<trkpt lat="61.020432" lon="25.814988">
<time>2020-09-13T11:19:22Z</time>
</trkpt>
<trkpt lat="61.020464" lon="25.814974">
<time>2020-09-13T11:19:23Z</time>
</trkpt>
<trkpt lat="61.020498" lon="25.814956">
<time>2020-09-13T11:19:24Z</time>
</trkpt>
<trkpt lat="61.020532" lon="25.814939">
<time>2020-09-13T11:19:25Z</time>
</trkpt>
<trkpt lat="61.020569" lon="25.814928">
<time>2020-09-13T11:19:26Z</time>
</trkpt>
<trkpt lat="61.020606" lon="25.814923">
<time>2020-09-13T11:19:27Z</time>
</trkpt>
<trkpt lat="61.020641" lon="25.814921">
<time>2020-09-13T11:19:28Z</time>
</trkpt>
<trkpt lat="61.020676" lon="25.814912">
<time>2020-09-13T11:19:29Z</time>
</trkpt>
<trkpt lat="61.020707" lon="25.814901">
<time>2020-09-13T11:19:30Z</time>
</trkpt>
<trkpt lat="61.020737" lon="25.814887">
<time>2020-09-13T11:19:31Z</time>
</trkpt>
<trkpt lat="61.020767" lon="25.814879">
<time>2020-09-13T11:19:32Z</time>
</trkpt>
<trkpt lat="61.020797" lon="25.814875">
<time>2020-09-13T11:19:33Z</time>
</trkpt>
<trkpt lat="61.020827" lon="25.814883">
<time>2020-09-13T11:19:34Z</time>
</trkpt>
<trkpt lat="61.020855" lon="25.814908">
<time>2020-09-13T11:19:35Z</time>
</trkpt>
<trkpt lat="61.020886" lon="25.814946">
<time>2020-09-13T11:19:36Z</time>
</trkpt>
<trkpt lat="61.02092" lon="25.814985">
<time>2020-09-13T11:19:37Z</time>
</trkpt>
<trkpt lat="61.020954" lon="25.815015">
<time>2020-09-13T11:19:38Z</time>
</trkpt>
<trkpt lat="61.020987" lon="25.815041">
<time>2020-09-13T11:19:39Z</time>
</trkpt>
<trkpt lat="61.021017" lon="25.815071">
<time>2020-09-13T11:19:40Z</time>
</trkpt>
<trkpt lat="61.021047" lon="25.815104">
<time>2020-09-13T11:19:41Z</time>
</trkpt>
<trkpt lat="61.021079" lon="25.815137">
<time>2020-09-13T11:19:42Z</time>
</trkpt>
<trkpt lat="61.021113" lon="25.815171">
<time>2020-09-13T11:19:43Z</time>
</trkpt>
<trkpt lat="61.021146" lon="25.815199">
<time>2020-09-13T11:19:44Z</time>
</trkpt>
<trkpt lat="61.021178" lon="25.81522">
<time>2020-09-13T11:19:45Z</time>
</trkpt>
<trkpt lat="61.02121" lon="25.815227">
<time>2020-09-13T11:19:46Z</time>
</trkpt>
<trkpt lat="61.021241" lon="25.815225">
<time>2020-09-13T11:19:47Z</time>
</trkpt>
<trkpt lat="61.021274" lon="25.815215">
<time>2020-09-13T11:19:48Z</time>
</trkpt>
<trkpt lat="61.021309" lon="25.815197">
<time>2020-09-13T11:19:49Z</time>
</trkpt>
<trkpt lat="61.021347" lon="25.815174">
<time>2020-09-13T11:19:50Z</time>
</trkpt>
<trkpt lat="61.021384" lon="25.815149">
<time>2020-09-13T11:19:51Z</time>
</trkpt>
<trkpt lat="61.021422" lon="25.815118">
<time>2020-09-13T11:19:52Z</time>
</trkpt>
<trkpt lat="61.021458" lon="25.815089">
<time>2020-09-13T11:19:53Z</time>
</trkpt>
<trkpt lat="61.021489" lon="25.815063">
<time>2020-09-13T11:19:54Z</time>
</trkpt>
<trkpt lat="61.021512" lon="25.815047">
<time>2020-09-13T11:19:55Z</time>
</trkpt>
<trkpt lat="61.02153" lon="25.815031">
<time>2020-09-13T11:19:56Z</time>
</trkpt>
<trkpt lat="61.021547" lon="25.815018">
<time>2020-09-13T11:19:57Z</time>
</trkpt>
<trkpt lat="61.021559" lon="25.815006">
<time>2020-09-13T11:19:58Z</time>
</trkpt>
<trkpt lat="61.021569" lon="25.814997">
<time>2020-09-13T11:19:59Z</time>
</trkpt>
<trkpt lat="61.021575" lon="25.81499">
<time>2020-09-13T11:20:00Z</time>
</trkpt>
<trkpt lat="61.021581" lon="25.814984">
<time>2020-09-13T11:20:01Z</time>
</trkpt>
<trkpt lat="61.021584" lon="25.814982">
<time>2020-09-13T11:20:02Z</time>
</trkpt>
<trkpt lat="61.021589" lon="25.81498">
<time>2020-09-13T11:20:03Z</time>
</trkpt>
<trkpt lat="61.021594" lon="25.814979">
<time>2020-09-13T11:20:04Z</time>
</trkpt>
<trkpt lat="61.021599" lon="25.814978">
<time>2020-09-13T11:20:05Z</time>
</trkpt>
<trkpt lat="61.021607" lon="25.814973">
<time>2020-09-13T11:20:06Z</time>
</trkpt>
<trkpt lat="61.021622" lon="25.814969">
<time>2020-09-13T11:20:07Z</time>
</trkpt>
<trkpt lat="61.021643" lon="25.814964">
<time>2020-09-13T11:20:08Z</time>
</trkpt>
<trkpt lat="61.021669" lon="25.814954">
<time>2020-09-13T11:20:09Z</time>
</trkpt>
<trkpt lat="61.021693" lon="25.814941">
<time>2020-09-13T11:20:10Z</time>
</trkpt>
<trkpt lat="61.021717" lon="25.814922">
<time>2020-09-13T11:20:11Z</time>
</trkpt>
<trkpt lat="61.021743" lon="25.814895">
<time>2020-09-13T11:20:12Z</time>
</trkpt>
<trkpt lat="61.021771" lon="25.814864">
<time>2020-09-13T11:20:13Z</time>
</trkpt>
<trkpt lat="61.021807" lon="25.814823">
<time>2020-09-13T11:20:14Z</time>
</trkpt>
<trkpt lat="61.021843" lon="25.814781">
<time>2020-09-13T11:20:15Z</time>
</trkpt>
<trkpt lat="61.021875" lon="25.814729">
<time>2020-09-13T11:20:16Z</time>
</trkpt>
<trkpt lat="61.021893" lon="25.814672">
<time>2020-09-13T11:20:17Z</time>
</trkpt>
<trkpt lat="61.021892" lon="25.814595">
<time>2020-09-13T11:20:18Z</time>
</trkpt>
<trkpt lat="61.021884" lon="25.814516">
<time>2020-09-13T11:20:19Z</time>
</trkpt>
<trkpt lat="61.021874" lon="25.814439">
<time>2020-09-13T11:20:20Z</time>
</trkpt>
<trkpt lat="61.021869" lon="25.814374">
<time>2020-09-13T11:20:21Z</time>
</trkpt>
<trkpt lat="61.021862" lon="25.81431">
<time>2020-09-13T11:20:22Z</time>
</trkpt>
<trkpt lat="61.021854" lon="25.81425">
<time>2020-09-13T11:20:23Z</time>
</trkpt>
<trkpt lat="61.021846" lon="25.814195">
<time>2020-09-13T11:20:24Z</time>
</trkpt>
<trkpt lat="61.021841" lon="25.814146">
<time>2020-09-13T11:20:25Z</time>
</trkpt>
<trkpt lat="61.021833" lon="25.814099">
<time>2020-09-13T11:20:26Z</time>
</trkpt>
<trkpt lat="61.021819" lon="25.814057">
<time>2020-09-13T11:20:27Z</time>
</trkpt>
<trkpt lat="61.02179" lon="25.814016">
<time>2020-09-13T11:20:28Z</time>
</trkpt>
<trkpt lat="61.021756" lon="25.81398">
<time>2020-09-13T11:20:29Z</time>
</trkpt>
<trkpt lat="61.02172" lon="25.813944">
<time>2020-09-13T11:20:30Z</time>
</trkpt>
<trkpt lat="61.021691" lon="25.813912">
<time>2020-09-13T11:20:31Z</time>
</trkpt>
<trkpt lat="61.021663" lon="25.813884">
<time>2020-09-13T11:20:32Z</time>
</trkpt>
<trkpt lat="61.021633" lon="25.813866">
<time>2020-09-13T11:20:33Z</time>
</trkpt>
<trkpt lat="61.021598" lon="25.813853">
<time>2020-09-13T11:20:34Z</time>
</trkpt>
<trkpt lat="61.02156" lon="25.813845">
<time>2020-09-13T11:20:35Z</time>
</trkpt>
<trkpt lat="61.02152" lon="25.813834">
<time>2020-09-13T11:20:36Z</time>
</trkpt>
<trkpt lat="61.021477" lon="25.81382">
<time>2020-09-13T11:20:37Z</time>
</trkpt>
<trkpt lat="61.02143" lon="25.813803">
<time>2020-09-13T11:20:38Z</time>
</trkpt>
<trkpt lat="61.021381" lon="25.813789">
<time>2020-09-13T11:20:39Z</time>
</trkpt>
<trkpt lat="61.021331" lon="25.81378">
<time>2020-09-13T11:20:40Z</time>
</trkpt>
<trkpt lat="61.021281" lon="25.813787">
<time>2020-09-13T11:20:41Z</time>
</trkpt>
<trkpt lat="61.02123" lon="25.813795">
<time>2020-09-13T11:20:42Z</time>
</trkpt>
<trkpt lat="61.021175" lon="25.813803">
<time>2020-09-13T11:20:43Z</time>
</trkpt>
<trkpt lat="61.021117" lon="25.813797">
<time>2020-09-13T11:20:44Z</time>
</trkpt>
<trkpt lat="61.021052" lon="25.813783">
<time>2020-09-13T11:20:45Z</time>
</trkpt>
<trkpt lat="61.020987" lon="25.81376">
<time>2020-09-13T11:20:46Z</time>
</trkpt>
<trkpt lat="61.020921" lon="25.81373">
<time>2020-09-13T11:20:47Z</time>
</trkpt>
<trkpt lat="61.02086" lon="25.813696">
<time>2020-09-13T11:20:48Z</time>
</trkpt>
<trkpt lat="61.020802" lon="25.813661">
<time>2020-09-13T11:20:49Z</time>
</trkpt>
<trkpt lat="61.020748" lon="25.813619">
<time>2020-09-13T11:20:50Z</time>
</trkpt>
<trkpt lat="61.020694" lon="25.813574">
<time>2020-09-13T11:20:51Z</time>
</trkpt>
<trkpt lat="61.020641" lon="25.81352">
<time>2020-09-13T11:20:52Z</time>
</trkpt>
<trkpt lat="61.020588" lon="25.813464">
<time>2020-09-13T11:20:53Z</time>
</trkpt>
<trkpt lat="61.020538" lon="25.813416">
<time>2020-09-13T11:20:54Z</time>
</trkpt>
<trkpt lat="61.020486" lon="25.81338">
<time>2020-09-13T11:20:55Z</time>
</trkpt>
<trkpt lat="61.020436" lon="25.813355">
<time>2020-09-13T11:20:56Z</time>
</trkpt>
<trkpt lat="61.020387" lon="25.813329">
<time>2020-09-13T11:20:57Z</time>
</trkpt>
<trkpt lat="61.020338" lon="25.813305">
<time>2020-09-13T11:20:58Z</time>
</trkpt>
<trkpt lat="61.020286" lon="25.813282">
<time>2020-09-13T11:20:59Z</time>
</trkpt>
<trkpt lat="61.020231" lon="25.813262">
<time>2020-09-13T11:21:00Z</time>
</trkpt>
<trkpt lat="61.020175" lon="25.813251">
<time>2020-09-13T11:21:01Z</time>
</trkpt>
<trkpt lat="61.020118" lon="25.81325">
<time>2020-09-13T11:21:02Z</time>
</trkpt>
<trkpt lat="61.020055" lon="25.813249">
<time>2020-09-13T11:21:03Z</time>
</trkpt>
<trkpt lat="61.019993" lon="25.813218">
<time>2020-09-13T11:21:04Z</time>
</trkpt>
<trkpt lat="61.019938" lon="25.813164">
<time>2020-09-13T11:21:05Z</time>
</trkpt>
<trkpt lat="61.019892" lon="25.813085">
<time>2020-09-13T11:21:06Z</time>
</trkpt>
<trkpt lat="61.019854" lon="25.813007">
<time>2020-09-13T11:21:07Z</time>
</trkpt>
<trkpt lat="61.019816" lon="25.812926">
<time>2020-09-13T11:21:08Z</time>
</trkpt>
<trkpt lat="61.019781" lon="25.812845">
<time>2020-09-13T11:21:09Z</time>
</trkpt>
<trkpt lat="61.01975" lon="25.812736">
<time>2020-09-13T11:21:10Z</time>
</trkpt>
<trkpt lat="61.019721" lon="25.812609">
<time>2020-09-13T11:21:11Z</time>
</trkpt>
<trkpt lat="61.019693" lon="25.812464">
<time>2020-09-13T11:21:12Z</time>
</trkpt>
<trkpt lat="61.019663" lon="25.812338">
<time>2020-09-13T11:21:13Z</time>
</trkpt>
<trkpt lat="61.019636" lon="25.812224">
<time>2020-09-13T11:21:14Z</time>
</trkpt>
<trkpt lat="61.019609" lon="25.812119">
<time>2020-09-13T11:21:15Z</time>
</trkpt>
<trkpt lat="61.01958" lon="25.812018">
<time>2020-09-13T11:21:16Z</time>
</trkpt>
<trkpt lat="61.01955" lon="25.811918">
<time>2020-09-13T11:21:17Z</time>
</trkpt>
<trkpt lat="61.019524" lon="25.811821">
<time>2020-09-13T11:21:18Z</time>
</trkpt>
<trkpt lat="61.019498" lon="25.811723">
<time>2020-09-13T11:21:19Z</time>
</trkpt>
<trkpt lat="61.019477" lon="25.811627">
<time>2020-09-13T11:21:20Z</time>
</trkpt>
<trkpt lat="61.019465" lon="25.811528">
<time>2020-09-13T11:21:21Z</time>
</trkpt>
<trkpt lat="61.019456" lon="25.811439">
<time>2020-09-13T11:21:22Z</time>
</trkpt>
<trkpt lat="61.019447" lon="25.811356">
<time>2020-09-13T11:21:23Z</time>
</trkpt>
<trkpt lat="61.019432" lon="25.811279">
<time>2020-09-13T11:21:24Z</time>
</trkpt>
<trkpt lat="61.019416" lon="25.811198">
<time>2020-09-13T11:21:25Z</time>
</trkpt>
<trkpt lat="61.0194" lon="25.811116">
<time>2020-09-13T11:21:26Z</time>
</trkpt>
<trkpt lat="61.019384" lon="25.811029">
<time>2020-09-13T11:21:27Z</time>
</trkpt>
<trkpt lat="61.01937" lon="25.810937">
<time>2020-09-13T11:21:28Z</time>
</trkpt>
<trkpt lat="61.019356" lon="25.810839">
<time>2020-09-13T11:21:29Z</time>
</trkpt>
<trkpt lat="61.019341" lon="25.810739">
<time>2020-09-13T11:21:30Z</time>
</trkpt>
<trkpt lat="61.019314" lon="25.810633">
<time>2020-09-13T11:21:31Z</time>
</trkpt>
<trkpt lat="61.019272" lon="25.810522">
<time>2020-09-13T11:21:32Z</time>
</trkpt>
<trkpt lat="61.019227" lon="25.81041">
<time>2020-09-13T11:21:33Z</time>
</trkpt>
<trkpt lat="61.01918" lon="25.810288">
<time>2020-09-13T11:21:34Z</time>
</trkpt>
<trkpt lat="61.019143" lon="25.810156">
<time>2020-09-13T11:21:35Z</time>
</trkpt>
<trkpt lat="61.019108" lon="25.810016">
<time>2020-09-13T11:21:36Z</time>
</trkpt>
<trkpt lat="61.019079" lon="25.809882">
<time>2020-09-13T11:21:37Z</time>
</trkpt>
<trkpt lat="61.019045" lon="25.809759">
<time>2020-09-13T11:21:38Z</time>
</trkpt>
<trkpt lat="61.019009" lon="25.809641">
<time>2020-09-13T11:21:39Z</time>
</trkpt>
<trkpt lat="61.018974" lon="25.80953">
<time>2020-09-13T11:21:40Z</time>
</trkpt>
<trkpt lat="61.018943" lon="25.809425">
<time>2020-09-13T11:21:41Z</time>
</trkpt>
<trkpt lat="61.018913" lon="25.80933">
<time>2020-09-13T11:21:42Z</time>
</trkpt>
<trkpt lat="61.018882" lon="25.809239">
<time>2020-09-13T11:21:43Z</time>
</trkpt>
<trkpt lat="61.01885" lon="25.809149">
<time>2020-09-13T11:21:44Z</time>
</trkpt>
<trkpt lat="61.01882" lon="25.809052">
<time>2020-09-13T11:21:45Z</time>
</trkpt>
<trkpt lat="61.018792" lon="25.808952">
<time>2020-09-13T11:21:46Z</time>
</trkpt>
<trkpt lat="61.018765" lon="25.808849">
<time>2020-09-13T11:21:47Z</time>
</trkpt>
<trkpt lat="61.01874" lon="25.808745">
<time>2020-09-13T11:21:48Z</time>
</trkpt>
<trkpt lat="61.018715" lon="25.808638">
<time>2020-09-13T11:21:49Z</time>
</trkpt>
<trkpt lat="61.018691" lon="25.808529">
<time>2020-09-13T11:21:50Z</time>
</trkpt>
<trkpt lat="61.01867" lon="25.808418">
<time>2020-09-13T11:21:51Z</time>
</trkpt>
<trkpt lat="61.018651" lon="25.808305">
<time>2020-09-13T11:21:52Z</time>
</trkpt>
<trkpt lat="61.018636" lon="25.808187">
<time>2020-09-13T11:21:53Z</time>
</trkpt>
<trkpt lat="61.018614" lon="25.808051">
<time>2020-09-13T11:21:54Z</time>
</trkpt>
<trkpt lat="61.018589" lon="25.807898">
<time>2020-09-13T11:21:55Z</time>
</trkpt>
<trkpt lat="61.01856" lon="25.807738">
<time>2020-09-13T11:21:56Z</time>
</trkpt>
<trkpt lat="61.018538" lon="25.807587">
<time>2020-09-13T11:21:57Z</time>
</trkpt>
<trkpt lat="61.018514" lon="25.807448">
<time>2020-09-13T11:21:58Z</time>
</trkpt>
<trkpt lat="61.018487" lon="25.807314">
<time>2020-09-13T11:21:59Z</time>
</trkpt>
<trkpt lat="61.018452" lon="25.807184">
<time>2020-09-13T11:22:00Z</time>
</trkpt>
<trkpt lat="61.018414" lon="25.807055">
<time>2020-09-13T11:22:01Z</time>
</trkpt>
<trkpt lat="61.018381" lon="25.806925">
<time>2020-09-13T11:22:02Z</time>
</trkpt>
<trkpt lat="61.018351" lon="25.806798">
<time>2020-09-13T11:22:03Z</time>
</trkpt>
<trkpt lat="61.018331" lon="25.80667">
<time>2020-09-13T11:22:04Z</time>
</trkpt>
<trkpt lat="61.018317" lon="25.806538">
<time>2020-09-13T11:22:05Z</time>
</trkpt>
<trkpt lat="61.018309" lon="25.806402">
<time>2020-09-13T11:22:06Z</time>
</trkpt>
<trkpt lat="61.018306" lon="25.806265">
<time>2020-09-13T11:22:07Z</time>
</trkpt>
<trkpt lat="61.018304" lon="25.806128">
<time>2020-09-13T11:22:08Z</time>
</trkpt>
<trkpt lat="61.0183" lon="25.805993">
<time>2020-09-13T11:22:09Z</time>
</trkpt>
<trkpt lat="61.018297" lon="25.805858">
<time>2020-09-13T11:22:10Z</time>
</trkpt>
<trkpt lat="61.0183" lon="25.805721">
<time>2020-09-13T11:22:11Z</time>
</trkpt>
<trkpt lat="61.01831" lon="25.805584">
<time>2020-09-13T11:22:12Z</time>
</trkpt>
<trkpt lat="61.018326" lon="25.805448">
<time>2020-09-13T11:22:13Z</time>
</trkpt>
<trkpt lat="61.018342" lon="25.805317">
<time>2020-09-13T11:22:14Z</time>
</trkpt>
<trkpt lat="61.018357" lon="25.805191">
<time>2020-09-13T11:22:15Z</time>
</trkpt>
<trkpt lat="61.018367" lon="25.805066">
<time>2020-09-13T11:22:16Z</time>
</trkpt>
<trkpt lat="61.018371" lon="25.804941">
<time>2020-09-13T11:22:17Z</time>
</trkpt>
<trkpt lat="61.018369" lon="25.804813">
<time>2020-09-13T11:22:18Z</time>
</trkpt>
<trkpt lat="61.018367" lon="25.804683">
<time>2020-09-13T11:22:19Z</time>
</trkpt>
<trkpt lat="61.018369" lon="25.804554">
<time>2020-09-13T11:22:20Z</time>
</trkpt>
<trkpt lat="61.018378" lon="25.80442">
<time>2020-09-13T11:22:21Z</time>
</trkpt>
<trkpt lat="61.018391" lon="25.804287">
<time>2020-09-13T11:22:22Z</time>
</trkpt>
<trkpt lat="61.018402" lon="25.804147">
<time>2020-09-13T11:22:23Z</time>
</trkpt>
<trkpt lat="61.01841" lon="25.804002">
<time>2020-09-13T11:22:24Z</time>
</trkpt>
<trkpt lat="61.018415" lon="25.803849">
<time>2020-09-13T11:22:25Z</time>
</trkpt>
<trkpt lat="61.018418" lon="25.803691">
<time>2020-09-13T11:22:26Z</time>
</trkpt>
<trkpt lat="61.018419" lon="25.803531">
<time>2020-09-13T11:22:27Z</time>
</trkpt>
<trkpt lat="61.018413" lon="25.803364">
<time>2020-09-13T11:22:28Z</time>
</trkpt>
<trkpt lat="61.018397" lon="25.803205">
<time>2020-09-13T11:22:29Z</time>
</trkpt>
<trkpt lat="61.018365" lon="25.803047">
<time>2020-09-13T11:22:30Z</time>
</trkpt>
<trkpt lat="61.018325" lon="25.802895">
<time>2020-09-13T11:22:31Z</time>
</trkpt>
<trkpt lat="61.018284" lon="25.802744">
<time>2020-09-13T11:22:32Z</time>
</trkpt>
<trkpt lat="61.018256" lon="25.8026">
<time>2020-09-13T11:22:33Z</time>
</trkpt>
<trkpt lat="61.018229" lon="25.802465">
<time>2020-09-13T11:22:34Z</time>
</trkpt>
<trkpt lat="61.018185" lon="25.802331">
<time>2020-09-13T11:22:35Z</time>
</trkpt>
<trkpt lat="61.018117" lon="25.802179">
<time>2020-09-13T11:22:36Z</time>
</trkpt>
<trkpt lat="61.018046" lon="25.802013">
<time>2020-09-13T11:22:37Z</time>
</trkpt>
<trkpt lat="61.017982" lon="25.801838">
<time>2020-09-13T11:22:38Z</time>
</trkpt>
<trkpt lat="61.017934" lon="25.801673">
<time>2020-09-13T11:22:39Z</time>
</trkpt>
<trkpt lat="61.017888" lon="25.801511">
<time>2020-09-13T11:22:40Z</time>
</trkpt>
<trkpt lat="61.017843" lon="25.801349">
<time>2020-09-13T11:22:41Z</time>
</trkpt>
<trkpt lat="61.017798" lon="25.801189">
<time>2020-09-13T11:22:42Z</time>
</trkpt>
<trkpt lat="61.017754" lon="25.80103">
<time>2020-09-13T11:22:43Z</time>
</trkpt>
<trkpt lat="61.017711" lon="25.800872">
<time>2020-09-13T11:22:44Z</time>
</trkpt>
<trkpt lat="61.017668" lon="25.800715">
<time>2020-09-13T11:22:45Z</time>
</trkpt>
<trkpt lat="61.017624" lon="25.800561">
<time>2020-09-13T11:22:46Z</time>
</trkpt>
<trkpt lat="61.017579" lon="25.800407">
<time>2020-09-13T11:22:47Z</time>
</trkpt>
<trkpt lat="61.017539" lon="25.800253">
<time>2020-09-13T11:22:48Z</time>
</trkpt>
<trkpt lat="61.017508" lon="25.8001">
<time>2020-09-13T11:22:49Z</time>
</trkpt>
<trkpt lat="61.017488" lon="25.799952">
<time>2020-09-13T11:22:50Z</time>
</trkpt>
<trkpt lat="61.017487" lon="25.799829">
<time>2020-09-13T11:22:51Z</time>
</trkpt>
<trkpt lat="61.017512" lon="25.799754">
<time>2020-09-13T11:22:52Z</time>
</trkpt>
<trkpt lat="61.017552" lon="25.799717">
<time>2020-09-13T11:22:53Z</time>
</trkpt>
<trkpt lat="61.017595" lon="25.79971">
<time>2020-09-13T11:22:54Z</time>
</trkpt>
<trkpt lat="61.017625" lon="25.799705">
<time>2020-09-13T11:22:55Z</time>
</trkpt>
<trkpt lat="61.01766" lon="25.799712">
<time>2020-09-13T11:22:56Z</time>
</trkpt>
<trkpt lat="61.017697" lon="25.799723">
<time>2020-09-13T11:22:57Z</time>
</trkpt>
<trkpt lat="61.017741" lon="25.799739">
<time>2020-09-13T11:22:58Z</time>
</trkpt>
<trkpt lat="61.017789" lon="25.79974">
<time>2020-09-13T11:22:59Z</time>
</trkpt>
<trkpt lat="61.017834" lon="25.799719">
<time>2020-09-13T11:23:00Z</time>
</trkpt>
<trkpt lat="61.017876" lon="25.799664">
<time>2020-09-13T11:23:01Z</time>
</trkpt>
<trkpt lat="61.017901" lon="25.799569">
<time>2020-09-13T11:23:02Z</time>
</trkpt>
<trkpt lat="61.017916" lon="25.799454">
<time>2020-09-13T11:23:03Z</time>
</trkpt>
<trkpt lat="61.017919" lon="25.799341">
<time>2020-09-13T11:23:04Z</time>
</trkpt>
<trkpt lat="61.017918" lon="25.799257">
<time>2020-09-13T11:23:05Z</time>
</trkpt>
<trkpt lat="61.017909" lon="25.79918">
<time>2020-09-13T11:23:06Z</time>
</trkpt>
<trkpt lat="61.017872" lon="25.799083">
<time>2020-09-13T11:23:07Z</time>
</trkpt>
<trkpt lat="61.017823" lon="25.798972">
<time>2020-09-13T11:23:08Z</time>
</trkpt>
<trkpt lat="61.01777" lon="25.798852">
<time>2020-09-13T11:23:09Z</time>
</trkpt>
<trkpt lat="61.017733" lon="25.798738">
<time>2020-09-13T11:23:10Z</time>
</trkpt>
<trkpt lat="61.0177" lon="25.798619">
<time>2020-09-13T11:23:11Z</time>
</trkpt>
<trkpt lat="61.01767" lon="25.798498">
<time>2020-09-13T11:23:12Z</time>
</trkpt>
<trkpt lat="61.017638" lon="25.798379">
<time>2020-09-13T11:23:13Z</time>
</trkpt>
<trkpt lat="61.017608" lon="25.798262">
<time>2020-09-13T11:23:14Z</time>
</trkpt>
<trkpt lat="61.017576" lon="25.798157">
<time>2020-09-13T11:23:15Z</time>
</trkpt>
<trkpt lat="61.01754" lon="25.798063">
<time>2020-09-13T11:23:16Z</time>
</trkpt>
<trkpt lat="61.017496" lon="25.797981">
<time>2020-09-13T11:23:17Z</time>
</trkpt>
<trkpt lat="61.017446" lon="25.797906">
<time>2020-09-13T11:23:18Z</time>
</trkpt>
<trkpt lat="61.017399" lon="25.797823">
<time>2020-09-13T11:23:19Z</time>
</trkpt>
<trkpt lat="61.017359" lon="25.797734">
<time>2020-09-13T11:23:20Z</time>
</trkpt>
<trkpt lat="61.017325" lon="25.797639">
<time>2020-09-13T11:23:21Z</time>
</trkpt>
<trkpt lat="61.017297" lon="25.797542">
<time>2020-09-13T11:23:22Z</time>
</trkpt>
<trkpt lat="61.017269" lon="25.797449">
<time>2020-09-13T11:23:23Z</time>
</trkpt>
<trkpt lat="61.017242" lon="25.797355">
<time>2020-09-13T11:23:24Z</time>
</trkpt>
<trkpt lat="61.017213" lon="25.797261">
<time>2020-09-13T11:23:25Z</time>
</trkpt>
<trkpt lat="61.017185" lon="25.797168">
<time>2020-09-13T11:23:26Z</time>
</trkpt>
<trkpt lat="61.017164" lon="25.797076">
<time>2020-09-13T11:23:27Z</time>
</trkpt>
<trkpt lat="61.017148" lon="25.796996">
<time>2020-09-13T11:23:28Z</time>
</trkpt>
<trkpt lat="61.017134" lon="25.796926">
<time>2020-09-13T11:23:29Z</time>
</trkpt>
<trkpt lat="61.017119" lon="25.796862">
<time>2020-09-13T11:23:30Z</time>
</trkpt>
<trkpt lat="61.017101" lon="25.796796">
<time>2020-09-13T11:23:31Z</time>
</trkpt>
<trkpt lat="61.01708" lon="25.796726">
<time>2020-09-13T11:23:32Z</time>
</trkpt>
<trkpt lat="61.01706" lon="25.796654">
<time>2020-09-13T11:23:33Z</time>
</trkpt>
<trkpt lat="61.017041" lon="25.796583">
<time>2020-09-13T11:23:34Z</time>
</trkpt>
<trkpt lat="61.017023" lon="25.796515">
<time>2020-09-13T11:23:35Z</time>
</trkpt>
<trkpt lat="61.017004" lon="25.796452">
<time>2020-09-13T11:23:36Z</time>
</trkpt>
<trkpt lat="61.016984" lon="25.796392">
<time>2020-09-13T11:23:37Z</time>
</trkpt>
<trkpt lat="61.01696" lon="25.796338">
<time>2020-09-13T11:23:38Z</time>
</trkpt>
<trkpt lat="61.016933" lon="25.796291">
<time>2020-09-13T11:23:39Z</time>
</trkpt>
<trkpt lat="61.016904" lon="25.796243">
<time>2020-09-13T11:23:40Z</time>
</trkpt>
<trkpt lat="61.016876" lon="25.796192">
<time>2020-09-13T11:23:41Z</time>
</trkpt>
<trkpt lat="61.016852" lon="25.796135">
<time>2020-09-13T11:23:42Z</time>
</trkpt>
<trkpt lat="61.016833" lon="25.796073">
<time>2020-09-13T11:23:43Z</time>
</trkpt>
<trkpt lat="61.016816" lon="25.79601">
<time>2020-09-13T11:23:44Z</time>
</trkpt>
<trkpt lat="61.016798" lon="25.795949">
<time>2020-09-13T11:23:45Z</time>
</trkpt>
<trkpt lat="61.016781" lon="25.795891">
<time>2020-09-13T11:23:46Z</time>
</trkpt>
<trkpt lat="61.016764" lon="25.795836">
<time>2020-09-13T11:23:47Z</time>
</trkpt>
<trkpt lat="61.016742" lon="25.795783">
<time>2020-09-13T11:23:48Z</time>
</trkpt>
<trkpt lat="61.016718" lon="25.795734">
<time>2020-09-13T11:23:49Z</time>
</trkpt>
<trkpt lat="61.016694" lon="25.795685">
<time>2020-09-13T11:23:50Z</time>
</trkpt>
<trkpt lat="61.016674" lon="25.795642">
<time>2020-09-13T11:23:51Z</time>
</trkpt>
<trkpt lat="61.016655" lon="25.795621">
<time>2020-09-13T11:23:52Z</time>
</trkpt>
<trkpt lat="61.016634" lon="25.795612">
<time>2020-09-13T11:23:53Z</time>
</trkpt>
<trkpt lat="61.016614" lon="25.795615">
<time>2020-09-13T11:23:54Z</time>
</trkpt>
<trkpt lat="61.016592" lon="25.795626">
<time>2020-09-13T11:23:55Z</time>
</trkpt>
<trkpt lat="61.016573" lon="25.795651">
<time>2020-09-13T11:23:56Z</time>
</trkpt>
<trkpt lat="61.016553" lon="25.795686">
<time>2020-09-13T11:23:57Z</time>
</trkpt>
<trkpt lat="61.016533" lon="25.795719">
<time>2020-09-13T11:23:58Z</time>
</trkpt>
<trkpt lat="61.016515" lon="25.795752">
<time>2020-09-13T11:23:59Z</time>
</trkpt>
<trkpt lat="61.016499" lon="25.795786">
<time>2020-09-13T11:24:00Z</time>
</trkpt>
<trkpt lat="61.016488" lon="25.795819">
<time>2020-09-13T11:24:01Z</time>
</trkpt>
<trkpt lat="61.01648" lon="25.795838">
<time>2020-09-13T11:24:02Z</time>
</trkpt>
<trkpt lat="61.016476" lon="25.795844">
<time>2020-09-13T11:24:03Z</time>
</trkpt>
<trkpt lat="61.016475" lon="25.795848">
<time>2020-09-13T11:24:04Z</time>
</trkpt>
<trkpt lat="61.016474" lon="25.795854">
<time>2020-09-13T11:24:05Z</time>
</trkpt>
<trkpt lat="61.016472" lon="25.79586">
<time>2020-09-13T11:24:06Z</time>
</trkpt>
<trkpt lat="61.016468" lon="25.795862">
<time>2020-09-13T11:24:07Z</time>
</trkpt>
<trkpt lat="61.016465" lon="25.795865">
<time>2020-09-13T11:24:08Z</time>
</trkpt>
<trkpt lat="61.016464" lon="25.795866">
<time>2020-09-13T11:24:09Z</time>
</trkpt>
<trkpt lat="61.016466" lon="25.795859">
<time>2020-09-13T11:24:10Z</time>
</trkpt>
<trkpt lat="61.016472" lon="25.795839">
<time>2020-09-13T11:24:11Z</time>
</trkpt>
<trkpt lat="61.016483" lon="25.795807">
<time>2020-09-13T11:24:12Z</time>
</trkpt>
<trkpt lat="61.016494" lon="25.795774">
<time>2020-09-13T11:24:13Z</time>
</trkpt>
<trkpt lat="61.016509" lon="25.795744">
<time>2020-09-13T11:24:14Z</time>
</trkpt>
<trkpt lat="61.016522" lon="25.795717">
<time>2020-09-13T11:24:15Z</time>
</trkpt>
<trkpt lat="61.016536" lon="25.795686">
<time>2020-09-13T11:24:16Z</time>
</trkpt>
<trkpt lat="61.01655" lon="25.79565">
<time>2020-09-13T11:24:17Z</time>
</trkpt>
<trkpt lat="61.016573" lon="25.795623">
<time>2020-09-13T11:24:18Z</time>
</trkpt>
<trkpt lat="61.016601" lon="25.795609">
<time>2020-09-13T11:24:19Z</time>
</trkpt>
<trkpt lat="61.016628" lon="25.795612">
<time>2020-09-13T11:24:20Z</time>
</trkpt>
<trkpt lat="61.016647" lon="25.795631">
<time>2020-09-13T11:24:21Z</time>
</trkpt>
<trkpt lat="61.01666" lon="25.79566">
<time>2020-09-13T11:24:22Z</time>
</trkpt>
<trkpt lat="61.016674" lon="25.795694">
<time>2020-09-13T11:24:23Z</time>
</trkpt>
<trkpt lat="61.016692" lon="25.795726">
<time>2020-09-13T11:24:24Z</time>
</trkpt>
<trkpt lat="61.016711" lon="25.79576">
<time>2020-09-13T11:24:25Z</time>
</trkpt>
<trkpt lat="61.016729" lon="25.795807">
<time>2020-09-13T11:24:26Z</time>
</trkpt>
<trkpt lat="61.016746" lon="25.795869">
<time>2020-09-13T11:24:27Z</time>
</trkpt>
<trkpt lat="61.016762" lon="25.795949">
<time>2020-09-13T11:24:28Z</time>
</trkpt>
<trkpt lat="61.016781" lon="25.796032">
<time>2020-09-13T11:24:29Z</time>
</trkpt>
<trkpt lat="61.016805" lon="25.796105">
<time>2020-09-13T11:24:30Z</time>
</trkpt>
<trkpt lat="61.016834" lon="25.796166">
<time>2020-09-13T11:24:31Z</time>
</trkpt>
<trkpt lat="61.016867" lon="25.796224">
<time>2020-09-13T11:24:32Z</time>
</trkpt>
<trkpt lat="61.016902" lon="25.796298">
<time>2020-09-13T11:24:33Z</time>
</trkpt>
<trkpt lat="61.016934" lon="25.79639">
<time>2020-09-13T11:24:34Z</time>
</trkpt>
<trkpt lat="61.016963" lon="25.796488">
<time>2020-09-13T11:24:35Z</time>
</trkpt>
<trkpt lat="61.016988" lon="25.796584">
<time>2020-09-13T11:24:36Z</time>
</trkpt>
<trkpt lat="61.017013" lon="25.796668">
<time>2020-09-13T11:24:37Z</time>
</trkpt>
<trkpt lat="61.017036" lon="25.796742">
<time>2020-09-13T11:24:38Z</time>
</trkpt>
<trkpt lat="61.017059" lon="25.796813">
<time>2020-09-13T11:24:39Z</time>
</trkpt>
<trkpt lat="61.017083" lon="25.796892">
<time>2020-09-13T11:24:40Z</time>
</trkpt>
<trkpt lat="61.017103" lon="25.796988">
<time>2020-09-13T11:24:41Z</time>
</trkpt>
<trkpt lat="61.017123" lon="25.797094">
<time>2020-09-13T11:24:42Z</time>
</trkpt>
<trkpt lat="61.017141" lon="25.797202">
<time>2020-09-13T11:24:43Z</time>
</trkpt>
<trkpt lat="61.01716" lon="25.79731">
<time>2020-09-13T11:24:44Z</time>
</trkpt>
<trkpt lat="61.017181" lon="25.797418">
<time>2020-09-13T11:24:45Z</time>
</trkpt>
<trkpt lat="61.017204" lon="25.797528">
<time>2020-09-13T11:24:46Z</time>
</trkpt>
<trkpt lat="61.017226" lon="25.79764">
<time>2020-09-13T11:24:47Z</time>
</trkpt>
<trkpt lat="61.017246" lon="25.797751">
<time>2020-09-13T11:24:48Z</time>
</trkpt>
<trkpt lat="61.017272" lon="25.797852">
<time>2020-09-13T11:24:49Z</time>
</trkpt>
<trkpt lat="61.017305" lon="25.797944">
<time>2020-09-13T11:24:50Z</time>
</trkpt>
<trkpt lat="61.017343" lon="25.798026">
<time>2020-09-13T11:24:51Z</time>
</trkpt>
<trkpt lat="61.01738" lon="25.798116">
<time>2020-09-13T11:24:52Z</time>
</trkpt>
<trkpt lat="61.017415" lon="25.798215">
<time>2020-09-13T11:24:53Z</time>
</trkpt>
<trkpt lat="61.017447" lon="25.798342">
<time>2020-09-13T11:24:54Z</time>
</trkpt>
<trkpt lat="61.017481" lon="25.798482">
<time>2020-09-13T11:24:55Z</time>
</trkpt>
<trkpt lat="61.01752" lon="25.798633">
<time>2020-09-13T11:24:56Z</time>
</trkpt>
<trkpt lat="61.017564" lon="25.798778">
<time>2020-09-13T11:24:57Z</time>
</trkpt>
<trkpt lat="61.017613" lon="25.798918">
<time>2020-09-13T11:24:58Z</time>
</trkpt>
<trkpt lat="61.017663" lon="25.79905">
<time>2020-09-13T11:24:59Z</time>
</trkpt>
<trkpt lat="61.017715" lon="25.79917">
<time>2020-09-13T11:25:00Z</time>
</trkpt>
<trkpt lat="61.017766" lon="25.799279">
<time>2020-09-13T11:25:01Z</time>
</trkpt>
<trkpt lat="61.017815" lon="25.799384">
<time>2020-09-13T11:25:02Z</time>
</trkpt>
<trkpt lat="61.017858" lon="25.799496">
<time>2020-09-13T11:25:03Z</time>
</trkpt>
<trkpt lat="61.01789" lon="25.799616">
<time>2020-09-13T11:25:04Z</time>
</trkpt>
<trkpt lat="61.017912" lon="25.799738">
<time>2020-09-13T11:25:05Z</time>
</trkpt>
<trkpt lat="61.017937" lon="25.799846">
<time>2020-09-13T11:25:06Z</time>
</trkpt>
<trkpt lat="61.017971" lon="25.799942">
<time>2020-09-13T11:25:07Z</time>
</trkpt>
<trkpt lat="61.01801" lon="25.800024">
<time>2020-09-13T11:25:08Z</time>
</trkpt>
<trkpt lat="61.018053" lon="25.800089">
<time>2020-09-13T11:25:09Z</time>
</trkpt>
<trkpt lat="61.018097" lon="25.800134">
<time>2020-09-13T11:25:10Z</time>
</trkpt>
<trkpt lat="61.01815" lon="25.800166">
<time>2020-09-13T11:25:11Z</time>
</trkpt>
<trkpt lat="61.018202" lon="25.800193">
<time>2020-09-13T11:25:12Z</time>
</trkpt>
<trkpt lat="61.018257" lon="25.800209">
<time>2020-09-13T11:25:13Z</time>
</trkpt>
<trkpt lat="61.018319" lon="25.800211">
<time>2020-09-13T11:25:14Z</time>
</trkpt>
<trkpt lat="61.018387" lon="25.800206">
<time>2020-09-13T11:25:15Z</time>
</trkpt>
<trkpt lat="61.018456" lon="25.800198">
<time>2020-09-13T11:25:16Z</time>
</trkpt>
<trkpt lat="61.01852" lon="25.800191">
<time>2020-09-13T11:25:17Z</time>
</trkpt>
<trkpt lat="61.018584" lon="25.80018">
<time>2020-09-13T11:25:18Z</time>
</trkpt>
<trkpt lat="61.018646" lon="25.800176">
<time>2020-09-13T11:25:19Z</time>
</trkpt>
<trkpt lat="61.018709" lon="25.80018">
<time>2020-09-13T11:25:20Z</time>
</trkpt>
<trkpt lat="61.018773" lon="25.800194">
<time>2020-09-13T11:25:21Z</time>
</trkpt>
<trkpt lat="61.018836" lon="25.800213">
<time>2020-09-13T11:25:22Z</time>
</trkpt>
<trkpt lat="61.018898" lon="25.800231">
<time>2020-09-13T11:25:23Z</time>
</trkpt>
<trkpt lat="61.018957" lon="25.800246">
<time>2020-09-13T11:25:24Z</time>
</trkpt>
<trkpt lat="61.019014" lon="25.800263">
<time>2020-09-13T11:25:25Z</time>
</trkpt>
<trkpt lat="61.01907" lon="25.800285">
<time>2020-09-13T11:25:26Z</time>
</trkpt>
<trkpt lat="61.019127" lon="25.800311">
<time>2020-09-13T11:25:27Z</time>
</trkpt>
<trkpt lat="61.019182" lon="25.800336">
<time>2020-09-13T11:25:28Z</time>
</trkpt>
<trkpt lat="61.019237" lon="25.800358">
<time>2020-09-13T11:25:29Z</time>
</trkpt>
<trkpt lat="61.019289" lon="25.800375">
<time>2020-09-13T11:25:30Z</time>
</trkpt>
<trkpt lat="61.01934" lon="25.800395">
<time>2020-09-13T11:25:31Z</time>
</trkpt>
<trkpt lat="61.019391" lon="25.800413">
<time>2020-09-13T11:25:32Z</time>
</trkpt>
<trkpt lat="61.019443" lon="25.800427">
<time>2020-09-13T11:25:33Z</time>
</trkpt>
<trkpt lat="61.019498" lon="25.800438">
<time>2020-09-13T11:25:34Z</time>
</trkpt>
<trkpt lat="61.019553" lon="25.800452">
<time>2020-09-13T11:25:35Z</time>
</trkpt>
<trkpt lat="61.019607" lon="25.800469">
<time>2020-09-13T11:25:36Z</time>
</trkpt>
<trkpt lat="61.019662" lon="25.800481">
<time>2020-09-13T11:25:37Z</time>
</trkpt>
<trkpt lat="61.019717" lon="25.80049">
<time>2020-09-13T11:25:38Z</time>
</trkpt>
<trkpt lat="61.019771" lon="25.800499">
<time>2020-09-13T11:25:39Z</time>
</trkpt>
<trkpt lat="61.019825" lon="25.800504">
<time>2020-09-13T11:25:40Z</time>
</trkpt>
<trkpt lat="61.019878" lon="25.80051">
<time>2020-09-13T11:25:41Z</time>
</trkpt>
<trkpt lat="61.019929" lon="25.800517">
<time>2020-09-13T11:25:42Z</time>
</trkpt>
<trkpt lat="61.019981" lon="25.800525">
<time>2020-09-13T11:25:43Z</time>
</trkpt>
<trkpt lat="61.020032" lon="25.800528">
<time>2020-09-13T11:25:44Z</time>
</trkpt>
<trkpt lat="61.020086" lon="25.800528">
<time>2020-09-13T11:25:45Z</time>
</trkpt>
<trkpt lat="61.020143" lon="25.800526">
<time>2020-09-13T11:25:46Z</time>
</trkpt>
<trkpt lat="61.020205" lon="25.800523">
<time>2020-09-13T11:25:47Z</time>
</trkpt>
<trkpt lat="61.020269" lon="25.800519">
<time>2020-09-13T11:25:48Z</time>
</trkpt>
<trkpt lat="61.020343" lon="25.800515">
<time>2020-09-13T11:25:49Z</time>
</trkpt>
<trkpt lat="61.020422" lon="25.800514">
<time>2020-09-13T11:25:50Z</time>
</trkpt>
<trkpt lat="61.020507" lon="25.80051">
<time>2020-09-13T11:25:51Z</time>
</trkpt>
<trkpt lat="61.020583" lon="25.800506">
<time>2020-09-13T11:25:52Z</time>
</trkpt>
<trkpt lat="61.020659" lon="25.800494">
<time>2020-09-13T11:25:53Z</time>
</trkpt>
<trkpt lat="61.020732" lon="25.800482">
<time>2020-09-13T11:25:54Z</time>
</trkpt>
<trkpt lat="61.020807" lon="25.800461">
<time>2020-09-13T11:25:55Z</time>
</trkpt>
<trkpt lat="61.020879" lon="25.800441">
<time>2020-09-13T11:25:56Z</time>
</trkpt>
<trkpt lat="61.020952" lon="25.80042">
<time>2020-09-13T11:25:57Z</time>
</trkpt>
<trkpt lat="61.02102" lon="25.800407">
<time>2020-09-13T11:25:58Z</time>
</trkpt>
<trkpt lat="61.021089" lon="25.800394">
<time>2020-09-13T11:25:59Z</time>
</trkpt>
<trkpt lat="61.021158" lon="25.800381">
<time>2020-09-13T11:26:00Z</time>
</trkpt>
<trkpt lat="61.021228" lon="25.800372">
<time>2020-09-13T11:26:01Z</time>
</trkpt>
<trkpt lat="61.021296" lon="25.800373">
<time>2020-09-13T11:26:02Z</time>
</trkpt>
<trkpt lat="61.021362" lon="25.800383">
<time>2020-09-13T11:26:03Z</time>
</trkpt>
<trkpt lat="61.021428" lon="25.800397">
<time>2020-09-13T11:26:04Z</time>
</trkpt>
<trkpt lat="61.021494" lon="25.800417">
<time>2020-09-13T11:26:05Z</time>
</trkpt>
<trkpt lat="61.021562" lon="25.80044">
<time>2020-09-13T11:26:06Z</time>
</trkpt>
<trkpt lat="61.021628" lon="25.800464">
<time>2020-09-13T11:26:07Z</time>
</trkpt>
<trkpt lat="61.021694" lon="25.800485">
<time>2020-09-13T11:26:08Z</time>
</trkpt>
<trkpt lat="61.021761" lon="25.800501">
<time>2020-09-13T11:26:09Z</time>
</trkpt>
<trkpt lat="61.02183" lon="25.800517">
<time>2020-09-13T11:26:10Z</time>
</trkpt>
<trkpt lat="61.021901" lon="25.800531">
<time>2020-09-13T11:26:11Z</time>
</trkpt>
<trkpt lat="61.021972" lon="25.800541">
<time>2020-09-13T11:26:12Z</time>
</trkpt>
<trkpt lat="61.022041" lon="25.800547">
<time>2020-09-13T11:26:13Z</time>
</trkpt>
<trkpt lat="61.022112" lon="25.800545">
<time>2020-09-13T11:26:14Z</time>
</trkpt>
<trkpt lat="61.022181" lon="25.800542">
<time>2020-09-13T11:26:15Z</time>
</trkpt>
<trkpt lat="61.022249" lon="25.800533">
<time>2020-09-13T11:26:16Z</time>
</trkpt>
<trkpt lat="61.022316" lon="25.80052">
<time>2020-09-13T11:26:17Z</time>
</trkpt>
<trkpt lat="61.022385" lon="25.800504">
<time>2020-09-13T11:26:18Z</time>
</trkpt>
<trkpt lat="61.022455" lon="25.800487">
<time>2020-09-13T11:26:19Z</time>
</trkpt>
<trkpt lat="61.022525" lon="25.800465">
<time>2020-09-13T11:26:20Z</time>
</trkpt>
<trkpt lat="61.022592" lon="25.800437">
<time>2020-09-13T11:26:21Z</time>
</trkpt>
<trkpt lat="61.022654" lon="25.800402">
<time>2020-09-13T11:26:22Z</time>
</trkpt>
<trkpt lat="61.022714" lon="25.800368">
<time>2020-09-13T11:26:23Z</time>
</trkpt>
<trkpt lat="61.022774" lon="25.800333">
<time>2020-09-13T11:26:24Z</time>
</trkpt>
<trkpt lat="61.022836" lon="25.800301">
<time>2020-09-13T11:26:25Z</time>
</trkpt>
<trkpt lat="61.022898" lon="25.800265">
<time>2020-09-13T11:26:26Z</time>
</trkpt>
<trkpt lat="61.02296" lon="25.800227">
<time>2020-09-13T11:26:27Z</time>
</trkpt>
<trkpt lat="61.023023" lon="25.800186">
<time>2020-09-13T11:26:28Z</time>
</trkpt>
<trkpt lat="61.023087" lon="25.800148">
<time>2020-09-13T11:26:29Z</time>
</trkpt>
<trkpt lat="61.023149" lon="25.800121">
<time>2020-09-13T11:26:30Z</time>
</trkpt>
<trkpt lat="61.023213" lon="25.800108">
<time>2020-09-13T11:26:31Z</time>
</trkpt>
<trkpt lat="61.023279" lon="25.800101">
<time>2020-09-13T11:26:32Z</time>
</trkpt>
<trkpt lat="61.023346" lon="25.800092">
<time>2020-09-13T11:26:33Z</time>
</trkpt>
<trkpt lat="61.023416" lon="25.800076">
<time>2020-09-13T11:26:34Z</time>
</trkpt>
<trkpt lat="61.023489" lon="25.800053">
<time>2020-09-13T11:26:35Z</time>
</trkpt>
<trkpt lat="61.023569" lon="25.800015">
<time>2020-09-13T11:26:36Z</time>
</trkpt>
<trkpt lat="61.023648" lon="25.79997">
<time>2020-09-13T11:26:37Z</time>
</trkpt>
<trkpt lat="61.023727" lon="25.799922">
<time>2020-09-13T11:26:38Z</time>
</trkpt>
<trkpt lat="61.023803" lon="25.799884">
<time>2020-09-13T11:26:39Z</time>
</trkpt>
<trkpt lat="61.02388" lon="25.79985">
<time>2020-09-13T11:26:40Z</time>
</trkpt>
<trkpt lat="61.023958" lon="25.799813">
<time>2020-09-13T11:26:41Z</time>
</trkpt>
<trkpt lat="61.024034" lon="25.799776">
<time>2020-09-13T11:26:42Z</time>
</trkpt>
<trkpt lat="61.02411" lon="25.799739">
<time>2020-09-13T11:26:43Z</time>
</trkpt>
<trkpt lat="61.024187" lon="25.799703">
<time>2020-09-13T11:26:44Z</time>
</trkpt>
<trkpt lat="61.024264" lon="25.799667">
<time>2020-09-13T11:26:45Z</time>
</trkpt>
<trkpt lat="61.024338" lon="25.799629">
<time>2020-09-13T11:26:46Z</time>
</trkpt>
<trkpt lat="61.024411" lon="25.79959">
<time>2020-09-13T11:26:47Z</time>
</trkpt>
<trkpt lat="61.024483" lon="25.799549">
<time>2020-09-13T11:26:48Z</time>
</trkpt>
<trkpt lat="61.024555" lon="25.799513">
<time>2020-09-13T11:26:49Z</time>
</trkpt>
<trkpt lat="61.024628" lon="25.799477">
<time>2020-09-13T11:26:50Z</time>
</trkpt>
<trkpt lat="61.024701" lon="25.799439">
<time>2020-09-13T11:26:51Z</time>
</trkpt>
<trkpt lat="61.024772" lon="25.799381">
<time>2020-09-13T11:26:52Z</time>
</trkpt>
<trkpt lat="61.024844" lon="25.799313">
<time>2020-09-13T11:26:53Z</time>
</trkpt>
<trkpt lat="61.024917" lon="25.799244">
<time>2020-09-13T11:26:54Z</time>
</trkpt>
<trkpt lat="61.024993" lon="25.799188">
<time>2020-09-13T11:26:55Z</time>
</trkpt>
<trkpt lat="61.02507" lon="25.799152">
<time>2020-09-13T11:26:56Z</time>
</trkpt>
<trkpt lat="61.025148" lon="25.799141">
<time>2020-09-13T11:26:57Z</time>
</trkpt>
<trkpt lat="61.025227" lon="25.799155">
<time>2020-09-13T11:26:58Z</time>
</trkpt>
<trkpt lat="61.025304" lon="25.799182">
<time>2020-09-13T11:26:59Z</time>
</trkpt>
<trkpt lat="61.025383" lon="25.79921">
<time>2020-09-13T11:27:00Z</time>
</trkpt>
<trkpt lat="61.025466" lon="25.799238">
<time>2020-09-13T11:27:01Z</time>
</trkpt>
<trkpt lat="61.025551" lon="25.79927">
<time>2020-09-13T11:27:02Z</time>
</trkpt>
<trkpt lat="61.025642" lon="25.799315">
<time>2020-09-13T11:27:03Z</time>
</trkpt>
<trkpt lat="61.025738" lon="25.799372">
<time>2020-09-13T11:27:04Z</time>
</trkpt>
<trkpt lat="61.025837" lon="25.799452">
<time>2020-09-13T11:27:05Z</time>
</trkpt>
<trkpt lat="61.025936" lon="25.799541">
<time>2020-09-13T11:27:06Z</time>
</trkpt>
<trkpt lat="61.026035" lon="25.799629">
<time>2020-09-13T11:27:07Z</time>
</trkpt>
<trkpt lat="61.026132" lon="25.799702">
<time>2020-09-13T11:27:08Z</time>
</trkpt>
<trkpt lat="61.026232" lon="25.799761">
<time>2020-09-13T11:27:09Z</time>
</trkpt>
<trkpt lat="61.026331" lon="25.799808">
<time>2020-09-13T11:27:10Z</time>
</trkpt>
<trkpt lat="61.026428" lon="25.799844">
<time>2020-09-13T11:27:11Z</time>
</trkpt>
<trkpt lat="61.026524" lon="25.799871">
<time>2020-09-13T11:27:12Z</time>
</trkpt>
<trkpt lat="61.026622" lon="25.799886">
<time>2020-09-13T11:27:13Z</time>
</trkpt>
<trkpt lat="61.02672" lon="25.799897">
<time>2020-09-13T11:27:14Z</time>
</trkpt>
<trkpt lat="61.026819" lon="25.799901">
<time>2020-09-13T11:27:15Z</time>
</trkpt>
<trkpt lat="61.02692" lon="25.79991">
<time>2020-09-13T11:27:16Z</time>
</trkpt>
<trkpt lat="61.027023" lon="25.79992">
<time>2020-09-13T11:27:17Z</time>
</trkpt>
<trkpt lat="61.027126" lon="25.799935">
<time>2020-09-13T11:27:18Z</time>
</trkpt>
<trkpt lat="61.02723" lon="25.799944">
<time>2020-09-13T11:27:19Z</time>
</trkpt>
<trkpt lat="61.027337" lon="25.799931">
<time>2020-09-13T11:27:20Z</time>
</trkpt>
<trkpt lat="61.027442" lon="25.799898">
<time>2020-09-13T11:27:21Z</time>
</trkpt>
<trkpt lat="61.027545" lon="25.799856">
<time>2020-09-13T11:27:22Z</time>
</trkpt>
<trkpt lat="61.027646" lon="25.799816">
<time>2020-09-13T11:27:23Z</time>
</trkpt>
<trkpt lat="61.027753" lon="25.799784">
<time>2020-09-13T11:27:24Z</time>
</trkpt>
<trkpt lat="61.027861" lon="25.799764">
<time>2020-09-13T11:27:25Z</time>
</trkpt>
<trkpt lat="61.027973" lon="25.799766">
<time>2020-09-13T11:27:26Z</time>
</trkpt>
<trkpt lat="61.028078" lon="25.799799">
<time>2020-09-13T11:27:27Z</time>
</trkpt>
<trkpt lat="61.028183" lon="25.799841">
<time>2020-09-13T11:27:28Z</time>
</trkpt>
<trkpt lat="61.028284" lon="25.799885">
<time>2020-09-13T11:27:29Z</time>
</trkpt>
<trkpt lat="61.028387" lon="25.799909">
<time>2020-09-13T11:27:30Z</time>
</trkpt>
<trkpt lat="61.028484" lon="25.799921">
<time>2020-09-13T11:27:31Z</time>
</trkpt>
<trkpt lat="61.028579" lon="25.799918">
<time>2020-09-13T11:27:32Z</time>
</trkpt>
<trkpt lat="61.028676" lon="25.799891">
<time>2020-09-13T11:27:33Z</time>
</trkpt>
<trkpt lat="61.028773" lon="25.799843">
<time>2020-09-13T11:27:34Z</time>
</trkpt>
<trkpt lat="61.028869" lon="25.799771">
<time>2020-09-13T11:27:35Z</time>
</trkpt>
<trkpt lat="61.028961" lon="25.799688">
<time>2020-09-13T11:27:36Z</time>
</trkpt>
<trkpt lat="61.02906" lon="25.799614">
<time>2020-09-13T11:27:37Z</time>
</trkpt>
<trkpt lat="61.029151" lon="25.799584">
<time>2020-09-13T11:27:38Z</time>
</trkpt>
<trkpt lat="61.029238" lon="25.799606">
<time>2020-09-13T11:27:39Z</time>
</trkpt>
<trkpt lat="61.029322" lon="25.799659">
<time>2020-09-13T11:27:40Z</time>
</trkpt>
<trkpt lat="61.029412" lon="25.799707">
<time>2020-09-13T11:27:41Z</time>
</trkpt>
<trkpt lat="61.029507" lon="25.799732">
<time>2020-09-13T11:27:42Z</time>
</trkpt>
<trkpt lat="61.029603" lon="25.799741">
<time>2020-09-13T11:27:43Z</time>
</trkpt>
<trkpt lat="61.029701" lon="25.799737">
<time>2020-09-13T11:27:44Z</time>
</trkpt>
<trkpt lat="61.029798" lon="25.799729">
<time>2020-09-13T11:27:45Z</time>
</trkpt>
<trkpt lat="61.029897" lon="25.799717">
<time>2020-09-13T11:27:46Z</time>
</trkpt>
<trkpt lat="61.029994" lon="25.799691">
<time>2020-09-13T11:27:47Z</time>
</trkpt>
<trkpt lat="61.03009" lon="25.799634">
<time>2020-09-13T11:27:48Z</time>
</trkpt>
<trkpt lat="61.030185" lon="25.799537">
<time>2020-09-13T11:27:49Z</time>
</trkpt>
<trkpt lat="61.030287" lon="25.799384">
<time>2020-09-13T11:27:50Z</time>
</trkpt>
<trkpt lat="61.030389" lon="25.799222">
<time>2020-09-13T11:27:51Z</time>
</trkpt>
<trkpt lat="61.030484" lon="25.799055">
<time>2020-09-13T11:27:52Z</time>
</trkpt>
<trkpt lat="61.030567" lon="25.798902">
<time>2020-09-13T11:27:53Z</time>
</trkpt>
<trkpt lat="61.030642" lon="25.798737">
<time>2020-09-13T11:27:54Z</time>
</trkpt>
<trkpt lat="61.030714" lon="25.798569">
<time>2020-09-13T11:27:55Z</time>
</trkpt>
<trkpt lat="61.030782" lon="25.798398">
<time>2020-09-13T11:27:56Z</time>
</trkpt>
<trkpt lat="61.030844" lon="25.798224">
<time>2020-09-13T11:27:57Z</time>
</trkpt>
<trkpt lat="61.030891" lon="25.79804">
<time>2020-09-13T11:27:58Z</time>
</trkpt>
<trkpt lat="61.030925" lon="25.797855">
<time>2020-09-13T11:27:59Z</time>
</trkpt>
<trkpt lat="61.030955" lon="25.797672">
<time>2020-09-13T11:28:00Z</time>
</trkpt>
<trkpt lat="61.030988" lon="25.797495">
<time>2020-09-13T11:28:01Z</time>
</trkpt>
<trkpt lat="61.031022" lon="25.797323">
<time>2020-09-13T11:28:02Z</time>
</trkpt>
<trkpt lat="61.031053" lon="25.797155">
<time>2020-09-13T11:28:03Z</time>
</trkpt>
<trkpt lat="61.031084" lon="25.796994">
<time>2020-09-13T11:28:04Z</time>
</trkpt>
<trkpt lat="61.031119" lon="25.796836">
<time>2020-09-13T11:28:05Z</time>
</trkpt>
<trkpt lat="61.031154" lon="25.796684">
<time>2020-09-13T11:28:06Z</time>
</trkpt>
<trkpt lat="61.03119" lon="25.796534">
<time>2020-09-13T11:28:07Z</time>
</trkpt>
<trkpt lat="61.031226" lon="25.796394">
<time>2020-09-13T11:28:08Z</time>
</trkpt>
<trkpt lat="61.031271" lon="25.796278">
<time>2020-09-13T11:28:09Z</time>
</trkpt>
<trkpt lat="61.031317" lon="25.796184">
<time>2020-09-13T11:28:10Z</time>
</trkpt>
<trkpt lat="61.031361" lon="25.796105">
<time>2020-09-13T11:28:11Z</time>
</trkpt>
<trkpt lat="61.0314" lon="25.796028">
<time>2020-09-13T11:28:12Z</time>
</trkpt>
<trkpt lat="61.031438" lon="25.795969">
<time>2020-09-13T11:28:13Z</time>
</trkpt>
<trkpt lat="61.031477" lon="25.795918">
<time>2020-09-13T11:28:14Z</time>
</trkpt>
<trkpt lat="61.031516" lon="25.79588">
<time>2020-09-13T11:28:15Z</time>
</trkpt>
<trkpt lat="61.031559" lon="25.79584">
<time>2020-09-13T11:28:16Z</time>
</trkpt>
<trkpt lat="61.031605" lon="25.795806">
<time>2020-09-13T11:28:17Z</time>
</trkpt>
<trkpt lat="61.031651" lon="25.795771">
<time>2020-09-13T11:28:18Z</time>
</trkpt>
<trkpt lat="61.031701" lon="25.795747">
<time>2020-09-13T11:28:19Z</time>
</trkpt>
<trkpt lat="61.031753" lon="25.795735">
<time>2020-09-13T11:28:20Z</time>
</trkpt>
<trkpt lat="61.031807" lon="25.795741">
<time>2020-09-13T11:28:21Z</time>
</trkpt>
<trkpt lat="61.031862" lon="25.795755">
<time>2020-09-13T11:28:22Z</time>
</trkpt>
<trkpt lat="61.031919" lon="25.795778">
<time>2020-09-13T11:28:23Z</time>
</trkpt>
<trkpt lat="61.031978" lon="25.795816">
<time>2020-09-13T11:28:24Z</time>
</trkpt>
<trkpt lat="61.032038" lon="25.795865">
<time>2020-09-13T11:28:25Z</time>
</trkpt>
<trkpt lat="61.032099" lon="25.795917">
<time>2020-09-13T11:28:26Z</time>
</trkpt>
<trkpt lat="61.032154" lon="25.795958">
<time>2020-09-13T11:28:27Z</time>
</trkpt>
<trkpt lat="61.032206" lon="25.795996">
<time>2020-09-13T11:28:28Z</time>
</trkpt>
<trkpt lat="61.032253" lon="25.796034">
<time>2020-09-13T11:28:29Z</time>
</trkpt>
<trkpt lat="61.032297" lon="25.796067">
<time>2020-09-13T11:28:30Z</time>
</trkpt>
<trkpt lat="61.032337" lon="25.796099">
<time>2020-09-13T11:28:31Z</time>
</trkpt>
<trkpt lat="61.032378" lon="25.796128">
<time>2020-09-13T11:28:32Z</time>
</trkpt>
<trkpt lat="61.03242" lon="25.796156">
<time>2020-09-13T11:28:33Z</time>
</trkpt>
<trkpt lat="61.032461" lon="25.796176">
<time>2020-09-13T11:28:34Z</time>
</trkpt>
<trkpt lat="61.032501" lon="25.796188">
<time>2020-09-13T11:28:35Z</time>
</trkpt>
<trkpt lat="61.032538" lon="25.796195">
<time>2020-09-13T11:28:36Z</time>
</trkpt>
<trkpt lat="61.032572" lon="25.796196">
<time>2020-09-13T11:28:37Z</time>
</trkpt>
<trkpt lat="61.032607" lon="25.796198">
<time>2020-09-13T11:28:38Z</time>
</trkpt>
<trkpt lat="61.03264" lon="25.7962">
<time>2020-09-13T11:28:39Z</time>
</trkpt>
<trkpt lat="61.032673" lon="25.796215">
<time>2020-09-13T11:28:40Z</time>
</trkpt>
<trkpt lat="61.032705" lon="25.796234">
<time>2020-09-13T11:28:41Z</time>
</trkpt>
<trkpt lat="61.032737" lon="25.796255">
<time>2020-09-13T11:28:42Z</time>
</trkpt>
<trkpt lat="61.032768" lon="25.796273">
<time>2020-09-13T11:28:43Z</time>
</trkpt>
<trkpt lat="61.032799" lon="25.796293">
<time>2020-09-13T11:28:44Z</time>
</trkpt>
<trkpt lat="61.032835" lon="25.796319">
<time>2020-09-13T11:28:45Z</time>
</trkpt>
<trkpt lat="61.032877" lon="25.796357">
<time>2020-09-13T11:28:46Z</time>
</trkpt>
<trkpt lat="61.032924" lon="25.796408">
<time>2020-09-13T11:28:47Z</time>
</trkpt>
<trkpt lat="61.032966" lon="25.796468">
<time>2020-09-13T11:28:48Z</time>
</trkpt>
<trkpt lat="61.033007" lon="25.796528">
<time>2020-09-13T11:28:49Z</time>
</trkpt>
<trkpt lat="61.03305" lon="25.796581">
<time>2020-09-13T11:28:50Z</time>
</trkpt>
<trkpt lat="61.033094" lon="25.796629">
<time>2020-09-13T11:28:51Z</time>
</trkpt>
<trkpt lat="61.033137" lon="25.796667">
<time>2020-09-13T11:28:52Z</time>
</trkpt>
<trkpt lat="61.033177" lon="25.7967">
<time>2020-09-13T11:28:53Z</time>
</trkpt>
<trkpt lat="61.033215" lon="25.796723">
<time>2020-09-13T11:28:54Z</time>
</trkpt>
<trkpt lat="61.03325" lon="25.796733">
<time>2020-09-13T11:28:55Z</time>
</trkpt>
<trkpt lat="61.033283" lon="25.796738">
<time>2020-09-13T11:28:56Z</time>
</trkpt>
<trkpt lat="61.033315" lon="25.796742">
<time>2020-09-13T11:28:57Z</time>
</trkpt>
<trkpt lat="61.033347" lon="25.796751">
<time>2020-09-13T11:28:58Z</time>
</trkpt>
<trkpt lat="61.033382" lon="25.79676">
<time>2020-09-13T11:28:59Z</time>
</trkpt>
<trkpt lat="61.033419" lon="25.796769">
<time>2020-09-13T11:29:00Z</time>
</trkpt>
<trkpt lat="61.033452" lon="25.796781">
<time>2020-09-13T11:29:01Z</time>
</trkpt>
<trkpt lat="61.033482" lon="25.796797">
<time>2020-09-13T11:29:02Z</time>
</trkpt>
<trkpt lat="61.033509" lon="25.796812">
<time>2020-09-13T11:29:03Z</time>
</trkpt>
<trkpt lat="61.033536" lon="25.796822">
<time>2020-09-13T11:29:04Z</time>
</trkpt>
<trkpt lat="61.033561" lon="25.796829">
<time>2020-09-13T11:29:05Z</time>
</trkpt>
<trkpt lat="61.033586" lon="25.796832">
<time>2020-09-13T11:29:06Z</time>
</trkpt>
<trkpt lat="61.033606" lon="25.796835">
<time>2020-09-13T11:29:07Z</time>
</trkpt>
<trkpt lat="61.033624" lon="25.796834">
<time>2020-09-13T11:29:08Z</time>
</trkpt>
<trkpt lat="61.03364" lon="25.796827">
<time>2020-09-13T11:29:09Z</time>
</trkpt>
<trkpt lat="61.03366" lon="25.796816">
<time>2020-09-13T11:29:10Z</time>
</trkpt>
<trkpt lat="61.033684" lon="25.796807">
<time>2020-09-13T11:29:11Z</time>
</trkpt>
<trkpt lat="61.03371" lon="25.796807">
<time>2020-09-13T11:29:12Z</time>
</trkpt>
<trkpt lat="61.033737" lon="25.796814">
<time>2020-09-13T11:29:13Z</time>
</trkpt>
<trkpt lat="61.033763" lon="25.796828">
<time>2020-09-13T11:29:14Z</time>
</trkpt>
<trkpt lat="61.033789" lon="25.796849">
<time>2020-09-13T11:29:15Z</time>
</trkpt>
<trkpt lat="61.033813" lon="25.796869">
<time>2020-09-13T11:29:16Z</time>
</trkpt>
<trkpt lat="61.033837" lon="25.79689">
<time>2020-09-13T11:29:17Z</time>
</trkpt>
<trkpt lat="61.033861" lon="25.796906">
<time>2020-09-13T11:29:18Z</time>
</trkpt>
<trkpt lat="61.033884" lon="25.796927">
<time>2020-09-13T11:29:19Z</time>
</trkpt>
<trkpt lat="61.033906" lon="25.79695">
<time>2020-09-13T11:29:20Z</time>
</trkpt>
<trkpt lat="61.033929" lon="25.796978">
<time>2020-09-13T11:29:21Z</time>
</trkpt>
<trkpt lat="61.033952" lon="25.797005">
<time>2020-09-13T11:29:22Z</time>
</trkpt>
<trkpt lat="61.033974" lon="25.797032">
<time>2020-09-13T11:29:23Z</time>
</trkpt>
<trkpt lat="61.033994" lon="25.797055">
<time>2020-09-13T11:29:24Z</time>
</trkpt>
<trkpt lat="61.034014" lon="25.797077">
<time>2020-09-13T11:29:25Z</time>
</trkpt>
<trkpt lat="61.034035" lon="25.797102">
<time>2020-09-13T11:29:26Z</time>
</trkpt>
<trkpt lat="61.034054" lon="25.797128">
<time>2020-09-13T11:29:27Z</time>
</trkpt>
<trkpt lat="61.034072" lon="25.797158">
<time>2020-09-13T11:29:28Z</time>
</trkpt>
<trkpt lat="61.034088" lon="25.797184">
<time>2020-09-13T11:29:29Z</time>
</trkpt>
<trkpt lat="61.034103" lon="25.797202">
<time>2020-09-13T11:29:30Z</time>
</trkpt>
<trkpt lat="61.034115" lon="25.797209">
<time>2020-09-13T11:29:31Z</time>
</trkpt>
<trkpt lat="61.034123" lon="25.79721">
<time>2020-09-13T11:29:32Z</time>
</trkpt>
<trkpt lat="61.034131" lon="25.797217">
<time>2020-09-13T11:29:33Z</time>
</trkpt>
<trkpt lat="61.03414" lon="25.797225">
<time>2020-09-13T11:29:34Z</time>
</trkpt>
<trkpt lat="61.034151" lon="25.797235">
<time>2020-09-13T11:29:35Z</time>
</trkpt>
<trkpt lat="61.034163" lon="25.797245">
<time>2020-09-13T11:29:36Z</time>
</trkpt>
<trkpt lat="61.034177" lon="25.797255">
<time>2020-09-13T11:29:37Z</time>
</trkpt>
<trkpt lat="61.034191" lon="25.797266">
<time>2020-09-13T11:29:38Z</time>
</trkpt>
<trkpt lat="61.034207" lon="25.797274">
<time>2020-09-13T11:29:39Z</time>
</trkpt>
<trkpt lat="61.034226" lon="25.797288">
<time>2020-09-13T11:29:40Z</time>
</trkpt>
<trkpt lat="61.034247" lon="25.797306">
<time>2020-09-13T11:29:41Z</time>
</trkpt>
<trkpt lat="61.034271" lon="25.797324">
<time>2020-09-13T11:29:42Z</time>
</trkpt>
<trkpt lat="61.034295" lon="25.797332">
<time>2020-09-13T11:29:43Z</time>
</trkpt>
<trkpt lat="61.034317" lon="25.797335">
<time>2020-09-13T11:29:44Z</time>
</trkpt>
<trkpt lat="61.034338" lon="25.797337">
<time>2020-09-13T11:29:45Z</time>
</trkpt>
<trkpt lat="61.03436" lon="25.797342">
<time>2020-09-13T11:29:46Z</time>
</trkpt>
<trkpt lat="61.034383" lon="25.797349">
<time>2020-09-13T11:29:47Z</time>
</trkpt>
<trkpt lat="61.034408" lon="25.797358">
<time>2020-09-13T11:29:48Z</time>
</trkpt>
<trkpt lat="61.034433" lon="25.797369">
<time>2020-09-13T11:29:49Z</time>
</trkpt>
<trkpt lat="61.034456" lon="25.79738">
<time>2020-09-13T11:29:50Z</time>
</trkpt>
<trkpt lat="61.03448" lon="25.79739">
<time>2020-09-13T11:29:51Z</time>
</trkpt>
<trkpt lat="61.034505" lon="25.797397">
<time>2020-09-13T11:29:52Z</time>
</trkpt>
<trkpt lat="61.034534" lon="25.797402">
<time>2020-09-13T11:29:53Z</time>
</trkpt>
<trkpt lat="61.034564" lon="25.797404">
<time>2020-09-13T11:29:54Z</time>
</trkpt>
<trkpt lat="61.034593" lon="25.797404">
<time>2020-09-13T11:29:55Z</time>
</trkpt>
<trkpt lat="61.034621" lon="25.797403">
<time>2020-09-13T11:29:56Z</time>
</trkpt>
<trkpt lat="61.034648" lon="25.797399">
<time>2020-09-13T11:29:57Z</time>
</trkpt>
<trkpt lat="61.034677" lon="25.797388">
<time>2020-09-13T11:29:58Z</time>
</trkpt>
<trkpt lat="61.034711" lon="25.797371">
<time>2020-09-13T11:29:59Z</time>
</trkpt>
<trkpt lat="61.034747" lon="25.797357">
<time>2020-09-13T11:30:00Z</time>
</trkpt>
<trkpt lat="61.034786" lon="25.797351">
<time>2020-09-13T11:30:01Z</time>
</trkpt>
<trkpt lat="61.034825" lon="25.797351">
<time>2020-09-13T11:30:02Z</time>
</trkpt>
<trkpt lat="61.034867" lon="25.797353">
<time>2020-09-13T11:30:03Z</time>
</trkpt>
<trkpt lat="61.034909" lon="25.797353">
<time>2020-09-13T11:30:04Z</time>
</trkpt>
<trkpt lat="61.034951" lon="25.797353">
<time>2020-09-13T11:30:05Z</time>
</trkpt>
<trkpt lat="61.03499" lon="25.797356">
<time>2020-09-13T11:30:06Z</time>
</trkpt>
<trkpt lat="61.035024" lon="25.797358">
<time>2020-09-13T11:30:07Z</time>
</trkpt>
<trkpt lat="61.03505" lon="25.797359">
<time>2020-09-13T11:30:08Z</time>
</trkpt>
<trkpt lat="61.035074" lon="25.797353">
<time>2020-09-13T11:30:09Z</time>
</trkpt>
<trkpt lat="61.035102" lon="25.797347">
<time>2020-09-13T11:30:10Z</time>
</trkpt>
<trkpt lat="61.035134" lon="25.79734">
<time>2020-09-13T11:30:11Z</time>
</trkpt>
<trkpt lat="61.035172" lon="25.797336">
<time>2020-09-13T11:30:12Z</time>
</trkpt>
<trkpt lat="61.035208" lon="25.797333">
<time>2020-09-13T11:30:13Z</time>
</trkpt>
<trkpt lat="61.035246" lon="25.797329">
<time>2020-09-13T11:30:14Z</time>
</trkpt>
<trkpt lat="61.035284" lon="25.797331">
<time>2020-09-13T11:30:15Z</time>
</trkpt>
<trkpt lat="61.035325" lon="25.797341">
<time>2020-09-13T11:30:16Z</time>
</trkpt>
<trkpt lat="61.035366" lon="25.797365">
<time>2020-09-13T11:30:17Z</time>
</trkpt>
<trkpt lat="61.035407" lon="25.797395">
<time>2020-09-13T11:30:18Z</time>
</trkpt>
<trkpt lat="61.03545" lon="25.797429">
<time>2020-09-13T11:30:19Z</time>
</trkpt>
<trkpt lat="61.035497" lon="25.797466">
<time>2020-09-13T11:30:20Z</time>
</trkpt>
<trkpt lat="61.035546" lon="25.797503">
<time>2020-09-13T11:30:21Z</time>
</trkpt>
<trkpt lat="61.035595" lon="25.79754">
<time>2020-09-13T11:30:22Z</time>
</trkpt>
<trkpt lat="61.035642" lon="25.797571">
<time>2020-09-13T11:30:23Z</time>
</trkpt>
<trkpt lat="61.035686" lon="25.79759">
<time>2020-09-13T11:30:24Z</time>
</trkpt>
<trkpt lat="61.035729" lon="25.797598">
<time>2020-09-13T11:30:25Z</time>
</trkpt>
<trkpt lat="61.035774" lon="25.797595">
<time>2020-09-13T11:30:26Z</time>
</trkpt>
<trkpt lat="61.035821" lon="25.797582">
<time>2020-09-13T11:30:27Z</time>
</trkpt>
<trkpt lat="61.035868" lon="25.797553">
<time>2020-09-13T11:30:28Z</time>
</trkpt>
<trkpt lat="61.035915" lon="25.797513">
<time>2020-09-13T11:30:29Z</time>
</trkpt>
<trkpt lat="61.035958" lon="25.797467">
<time>2020-09-13T11:30:30Z</time>
</trkpt>
<trkpt lat="61.035998" lon="25.79741">
<time>2020-09-13T11:30:31Z</time>
</trkpt>
<trkpt lat="61.036031" lon="25.797342">
<time>2020-09-13T11:30:32Z</time>
</trkpt>
<trkpt lat="61.036044" lon="25.797246">
<time>2020-09-13T11:30:33Z</time>
</trkpt>
<trkpt lat="61.036048" lon="25.797133">
<time>2020-09-13T11:30:34Z</time>
</trkpt>
<trkpt lat="61.036042" lon="25.797005">
<time>2020-09-13T11:30:35Z</time>
</trkpt>
<trkpt lat="61.036039" lon="25.796884">
<time>2020-09-13T11:30:36Z</time>
</trkpt>
<trkpt lat="61.036031" lon="25.796766">
<time>2020-09-13T11:30:37Z</time>
</trkpt>
<trkpt lat="61.036019" lon="25.796645">
<time>2020-09-13T11:30:38Z</time>
</trkpt>
<trkpt lat="61.036008" lon="25.796519">
<time>2020-09-13T11:30:39Z</time>
</trkpt>
<trkpt lat="61.035993" lon="25.796391">
<time>2020-09-13T11:30:40Z</time>
</trkpt>
<trkpt lat="61.035971" lon="25.796265">
<time>2020-09-13T11:30:41Z</time>
</trkpt>
<trkpt lat="61.035942" lon="25.796138">
<time>2020-09-13T11:30:42Z</time>
</trkpt>
<trkpt lat="61.035913" lon="25.79601">
<time>2020-09-13T11:30:43Z</time>
</trkpt>
<trkpt lat="61.035887" lon="25.795879">
<time>2020-09-13T11:30:44Z</time>
</trkpt>
<trkpt lat="61.035868" lon="25.79575">
<time>2020-09-13T11:30:45Z</time>
</trkpt>
<trkpt lat="61.035852" lon="25.795624">
<time>2020-09-13T11:30:46Z</time>
</trkpt>
<trkpt lat="61.035841" lon="25.795502">
<time>2020-09-13T11:30:47Z</time>
</trkpt>
<trkpt lat="61.035833" lon="25.795382">
<time>2020-09-13T11:30:48Z</time>
</trkpt>
<trkpt lat="61.035827" lon="25.79526">
<time>2020-09-13T11:30:49Z</time>
</trkpt>
<trkpt lat="61.035822" lon="25.795138">
<time>2020-09-13T11:30:50Z</time>
</trkpt>
<trkpt lat="61.035819" lon="25.795016">
<time>2020-09-13T11:30:51Z</time>
</trkpt>
<trkpt lat="61.035821" lon="25.794899">
<time>2020-09-13T11:30:52Z</time>
</trkpt>
<trkpt lat="61.035826" lon="25.794783">
<time>2020-09-13T11:30:53Z</time>
</trkpt>
<trkpt lat="61.035833" lon="25.794668">
<time>2020-09-13T11:30:54Z</time>
</trkpt>
<trkpt lat="61.035842" lon="25.794551">
<time>2020-09-13T11:30:55Z</time>
</trkpt>
<trkpt lat="61.035852" lon="25.794431">
<time>2020-09-13T11:30:56Z</time>
</trkpt>
<trkpt lat="61.035862" lon="25.794306">
<time>2020-09-13T11:30:57Z</time>
</trkpt>
<trkpt lat="61.035873" lon="25.794177">
<time>2020-09-13T11:30:58Z</time>
</trkpt>
<trkpt lat="61.035887" lon="25.794047">
<time>2020-09-13T11:30:59Z</time>
</trkpt>
<trkpt lat="61.035904" lon="25.79392">
<time>2020-09-13T11:31:00Z</time>
</trkpt>
<trkpt lat="61.035919" lon="25.793797">
<time>2020-09-13T11:31:01Z</time>
</trkpt>
<trkpt lat="61.035931" lon="25.793674">
<time>2020-09-13T11:31:02Z</time>
</trkpt>
<trkpt lat="61.035937" lon="25.793547">
<time>2020-09-13T11:31:03Z</time>
</trkpt>
<trkpt lat="61.035938" lon="25.793418">
<time>2020-09-13T11:31:04Z</time>
</trkpt>
<trkpt lat="61.035934" lon="25.793283">
<time>2020-09-13T11:31:05Z</time>
</trkpt>
<trkpt lat="61.035927" lon="25.793146">
<time>2020-09-13T11:31:06Z</time>
</trkpt>
<trkpt lat="61.035911" lon="25.793004">
<time>2020-09-13T11:31:07Z</time>
</trkpt>
<trkpt lat="61.035889" lon="25.792862">
<time>2020-09-13T11:31:08Z</time>
</trkpt>
<trkpt lat="61.035863" lon="25.792717">
<time>2020-09-13T11:31:09Z</time>
</trkpt>
<trkpt lat="61.035836" lon="25.792574">
<time>2020-09-13T11:31:10Z</time>
</trkpt>
<trkpt lat="61.035809" lon="25.79243">
<time>2020-09-13T11:31:11Z</time>
</trkpt>
<trkpt lat="61.035783" lon="25.792286">
<time>2020-09-13T11:31:12Z</time>
</trkpt>
<trkpt lat="61.035758" lon="25.792142">
<time>2020-09-13T11:31:13Z</time>
</trkpt>
<trkpt lat="61.035733" lon="25.792002">
<time>2020-09-13T11:31:14Z</time>
</trkpt>
<trkpt lat="61.035707" lon="25.791864">
<time>2020-09-13T11:31:15Z</time>
</trkpt>
<trkpt lat="61.035682" lon="25.791729">
<time>2020-09-13T11:31:16Z</time>
</trkpt>
<trkpt lat="61.035655" lon="25.791595">
<time>2020-09-13T11:31:17Z</time>
</trkpt>
<trkpt lat="61.03563" lon="25.791465">
<time>2020-09-13T11:31:18Z</time>
</trkpt>
<trkpt lat="61.035605" lon="25.791333">
<time>2020-09-13T11:31:19Z</time>
</trkpt>
<trkpt lat="61.03558" lon="25.791198">
<time>2020-09-13T11:31:20Z</time>
</trkpt>
<trkpt lat="61.035555" lon="25.791059">
<time>2020-09-13T11:31:21Z</time>
</trkpt>
<trkpt lat="61.035532" lon="25.790914">
<time>2020-09-13T11:31:22Z</time>
</trkpt>
<trkpt lat="61.035511" lon="25.790763">
<time>2020-09-13T11:31:23Z</time>
</trkpt>
<trkpt lat="61.035492" lon="25.790604">
<time>2020-09-13T11:31:24Z</time>
</trkpt>
<trkpt lat="61.035473" lon="25.790436">
<time>2020-09-13T11:31:25Z</time>
</trkpt>
<trkpt lat="61.035455" lon="25.790261">
<time>2020-09-13T11:31:26Z</time>
</trkpt>
<trkpt lat="61.035439" lon="25.790077">
<time>2020-09-13T11:31:27Z</time>
</trkpt>
<trkpt lat="61.035424" lon="25.789888">
<time>2020-09-13T11:31:28Z</time>
</trkpt>
<trkpt lat="61.035409" lon="25.789695">
<time>2020-09-13T11:31:29Z</time>
</trkpt>
<trkpt lat="61.03539" lon="25.789507">
<time>2020-09-13T11:31:30Z</time>
</trkpt>
<trkpt lat="61.03534" lon="25.789338">
<time>2020-09-13T11:31:31Z</time>
</trkpt>
<trkpt lat="61.03527" lon="25.789192">
<time>2020-09-13T11:31:32Z</time>
</trkpt>
<trkpt lat="61.035185" lon="25.789061">
<time>2020-09-13T11:31:33Z</time>
</trkpt>
<trkpt lat="61.03512" lon="25.788935">
<time>2020-09-13T11:31:34Z</time>
</trkpt>
<trkpt lat="61.035064" lon="25.788809">
<time>2020-09-13T11:31:35Z</time>
</trkpt>
<trkpt lat="61.035012" lon="25.788703">
<time>2020-09-13T11:31:36Z</time>
</trkpt>
<trkpt lat="61.034951" lon="25.788626">
<time>2020-09-13T11:31:37Z</time>
</trkpt>
<trkpt lat="61.034883" lon="25.788585">
<time>2020-09-13T11:31:38Z</time>
</trkpt>
<trkpt lat="61.034817" lon="25.788558">
<time>2020-09-13T11:31:39Z</time>
</trkpt>
<trkpt lat="61.034751" lon="25.78853">
<time>2020-09-13T11:31:40Z</time>
</trkpt>
<trkpt lat="61.034689" lon="25.788497">
<time>2020-09-13T11:31:41Z</time>
</trkpt>
<trkpt lat="61.034629" lon="25.788466">
<time>2020-09-13T11:31:42Z</time>
</trkpt>
<trkpt lat="61.034573" lon="25.788441">
<time>2020-09-13T11:31:43Z</time>
</trkpt>
<trkpt lat="61.03452" lon="25.788417">
<time>2020-09-13T11:31:44Z</time>
</trkpt>
<trkpt lat="61.034469" lon="25.788392">
<time>2020-09-13T11:31:45Z</time>
</trkpt>
<trkpt lat="61.034419" lon="25.78836">
<time>2020-09-13T11:31:46Z</time>
</trkpt>
<trkpt lat="61.034371" lon="25.788326">
<time>2020-09-13T11:31:47Z</time>
</trkpt>
<trkpt lat="61.034325" lon="25.788291">
<time>2020-09-13T11:31:48Z</time>
</trkpt>
<trkpt lat="61.034284" lon="25.788257">
<time>2020-09-13T11:31:49Z</time>
</trkpt>
<trkpt lat="61.034246" lon="25.788222">
<time>2020-09-13T11:31:50Z</time>
</trkpt>
<trkpt lat="61.034208" lon="25.788184">
<time>2020-09-13T11:31:51Z</time>
</trkpt>
<trkpt lat="61.034169" lon="25.78815">
<time>2020-09-13T11:31:52Z</time>
</trkpt>
<trkpt lat="61.03413" lon="25.788122">
<time>2020-09-13T11:31:53Z</time>
</trkpt>
<trkpt lat="61.034092" lon="25.788097">
<time>2020-09-13T11:31:54Z</time>
</trkpt>
<trkpt lat="61.034055" lon="25.788069">
<time>2020-09-13T11:31:55Z</time>
</trkpt>
<trkpt lat="61.034018" lon="25.788035">
<time>2020-09-13T11:31:56Z</time>
</trkpt>
<trkpt lat="61.033979" lon="25.788002">
<time>2020-09-13T11:31:57Z</time>
</trkpt>
<trkpt lat="61.033938" lon="25.787968">
<time>2020-09-13T11:31:58Z</time>
</trkpt>
<trkpt lat="61.033897" lon="25.787939">
<time>2020-09-13T11:31:59Z</time>
</trkpt>
<trkpt lat="61.033855" lon="25.787914">
<time>2020-09-13T11:32:00Z</time>
</trkpt>
<trkpt lat="61.033813" lon="25.787896">
<time>2020-09-13T11:32:01Z</time>
</trkpt>
<trkpt lat="61.033768" lon="25.787879">
<time>2020-09-13T11:32:02Z</time>
</trkpt>
<trkpt lat="61.033722" lon="25.787867">
<time>2020-09-13T11:32:03Z</time>
</trkpt>
<trkpt lat="61.033675" lon="25.787858">
<time>2020-09-13T11:32:04Z</time>
</trkpt>
<trkpt lat="61.03363" lon="25.787851">
<time>2020-09-13T11:32:05Z</time>
</trkpt>
<trkpt lat="61.033588" lon="25.787847">
<time>2020-09-13T11:32:06Z</time>
</trkpt>
<trkpt lat="61.033545" lon="25.787851">
<time>2020-09-13T11:32:07Z</time>
</trkpt>
<trkpt lat="61.033501" lon="25.78786">
<time>2020-09-13T11:32:08Z</time>
</trkpt>
<trkpt lat="61.033459" lon="25.787873">
<time>2020-09-13T11:32:09Z</time>
</trkpt>
<trkpt lat="61.033421" lon="25.787883">
<time>2020-09-13T11:32:10Z</time>
</trkpt>
<trkpt lat="61.033384" lon="25.787891">
<time>2020-09-13T11:32:11Z</time>
</trkpt>
<trkpt lat="61.033347" lon="25.787898">
<time>2020-09-13T11:32:12Z</time>
</trkpt>
<trkpt lat="61.033306" lon="25.787911">
<time>2020-09-13T11:32:13Z</time>
</trkpt>
<trkpt lat="61.033258" lon="25.787929">
<time>2020-09-13T11:32:14Z</time>
</trkpt>
<trkpt lat="61.033203" lon="25.787947">
<time>2020-09-13T11:32:15Z</time>
</trkpt>
<trkpt lat="61.033146" lon="25.787957">
<time>2020-09-13T11:32:16Z</time>
</trkpt>
<trkpt lat="61.033087" lon="25.787958">
<time>2020-09-13T11:32:17Z</time>
</trkpt>
<trkpt lat="61.03303" lon="25.787952">
<time>2020-09-13T11:32:18Z</time>
</trkpt>
<trkpt lat="61.032971" lon="25.787947">
<time>2020-09-13T11:32:19Z</time>
</trkpt>
<trkpt lat="61.032912" lon="25.787937">
<time>2020-09-13T11:32:20Z</time>
</trkpt>
<trkpt lat="61.032851" lon="25.787924">
<time>2020-09-13T11:32:21Z</time>
</trkpt>
<trkpt lat="61.032787" lon="25.787896">
<time>2020-09-13T11:32:22Z</time>
</trkpt>
<trkpt lat="61.032724" lon="25.78787">
<time>2020-09-13T11:32:23Z</time>
</trkpt>
<trkpt lat="61.032659" lon="25.78783">
<time>2020-09-13T11:32:24Z</time>
</trkpt>
<trkpt lat="61.032596" lon="25.787782">
<time>2020-09-13T11:32:25Z</time>
</trkpt>
<trkpt lat="61.032529" lon="25.787711">
<time>2020-09-13T11:32:26Z</time>
</trkpt>
<trkpt lat="61.032461" lon="25.787639">
<time>2020-09-13T11:32:27Z</time>
</trkpt>
<trkpt lat="61.032392" lon="25.787574">
<time>2020-09-13T11:32:28Z</time>
</trkpt>
<trkpt lat="61.032324" lon="25.787525">
<time>2020-09-13T11:32:29Z</time>
</trkpt>
<trkpt lat="61.032256" lon="25.787481">
<time>2020-09-13T11:32:30Z</time>
</trkpt>
<trkpt lat="61.032188" lon="25.787438">
<time>2020-09-13T11:32:31Z</time>
</trkpt>
<trkpt lat="61.032122" lon="25.787396">
<time>2020-09-13T11:32:32Z</time>
</trkpt>
<trkpt lat="61.032052" lon="25.787365">
<time>2020-09-13T11:32:33Z</time>
</trkpt>
<trkpt lat="61.03198" lon="25.787333">
<time>2020-09-13T11:32:34Z</time>
</trkpt>
<trkpt lat="61.031906" lon="25.787288">
<time>2020-09-13T11:32:35Z</time>
</trkpt>
<trkpt lat="61.031837" lon="25.78722">
<time>2020-09-13T11:32:36Z</time>
</trkpt>
<trkpt lat="61.031778" lon="25.787127">
<time>2020-09-13T11:32:37Z</time>
</trkpt>
<trkpt lat="61.031727" lon="25.787021">
<time>2020-09-13T11:32:38Z</time>
</trkpt>
<trkpt lat="61.031683" lon="25.786907">
<time>2020-09-13T11:32:39Z</time>
</trkpt>
<trkpt lat="61.031645" lon="25.786795">
<time>2020-09-13T11:32:40Z</time>
</trkpt>
<trkpt lat="61.03161" lon="25.786684">
<time>2020-09-13T11:32:41Z</time>
</trkpt>
<trkpt lat="61.031578" lon="25.786573">
<time>2020-09-13T11:32:42Z</time>
</trkpt>
<trkpt lat="61.031547" lon="25.786464">
<time>2020-09-13T11:32:43Z</time>
</trkpt>
<trkpt lat="61.031531" lon="25.786355">
<time>2020-09-13T11:32:44Z</time>
</trkpt>
<trkpt lat="61.031522" lon="25.786253">
<time>2020-09-13T11:32:45Z</time>
</trkpt>
<trkpt lat="61.031517" lon="25.786156">
<time>2020-09-13T11:32:46Z</time>
</trkpt>
<trkpt lat="61.031507" lon="25.786064">
<time>2020-09-13T11:32:47Z</time>
</trkpt>
<trkpt lat="61.031496" lon="25.785973">
<time>2020-09-13T11:32:48Z</time>
</trkpt>
<trkpt lat="61.03149" lon="25.785884">
<time>2020-09-13T11:32:49Z</time>
</trkpt>
<trkpt lat="61.031486" lon="25.785793">
<time>2020-09-13T11:32:50Z</time>
</trkpt>
<trkpt lat="61.031483" lon="25.7857">
<time>2020-09-13T11:32:51Z</time>
</trkpt>
<trkpt lat="61.031479" lon="25.7856">
<time>2020-09-13T11:32:52Z</time>
</trkpt>
<trkpt lat="61.031476" lon="25.785492">
<time>2020-09-13T11:32:53Z</time>
</trkpt>
<trkpt lat="61.031479" lon="25.785376">
<time>2020-09-13T11:32:54Z</time>
</trkpt>
<trkpt lat="61.031493" lon="25.785258">
<time>2020-09-13T11:32:55Z</time>
</trkpt>
<trkpt lat="61.031516" lon="25.785145">
<time>2020-09-13T11:32:56Z</time>
</trkpt>
<trkpt lat="61.03155" lon="25.785035">
<time>2020-09-13T11:32:57Z</time>
</trkpt>
<trkpt lat="61.031591" lon="25.78493">
<time>2020-09-13T11:32:58Z</time>
</trkpt>
<trkpt lat="61.031638" lon="25.784828">
<time>2020-09-13T11:32:59Z</time>
</trkpt>
<trkpt lat="61.031687" lon="25.78473">
<time>2020-09-13T11:33:00Z</time>
</trkpt>
<trkpt lat="61.031734" lon="25.784632">
<time>2020-09-13T11:33:01Z</time>
</trkpt>
<trkpt lat="61.03178" lon="25.784534">
<time>2020-09-13T11:33:02Z</time>
</trkpt>
<trkpt lat="61.031824" lon="25.784432">
<time>2020-09-13T11:33:03Z</time>
</trkpt>
<trkpt lat="61.031866" lon="25.784328">
<time>2020-09-13T11:33:04Z</time>
</trkpt>
<trkpt lat="61.031907" lon="25.784221">
<time>2020-09-13T11:33:05Z</time>
</trkpt>
<trkpt lat="61.031942" lon="25.784112">
<time>2020-09-13T11:33:06Z</time>
</trkpt>
<trkpt lat="61.031973" lon="25.783997">
<time>2020-09-13T11:33:07Z</time>
</trkpt>
<trkpt lat="61.031999" lon="25.783878">
<time>2020-09-13T11:33:08Z</time>
</trkpt>
<trkpt lat="61.032025" lon="25.783757">
<time>2020-09-13T11:33:09Z</time>
</trkpt>
<trkpt lat="61.032051" lon="25.783637">
<time>2020-09-13T11:33:10Z</time>
</trkpt>
<trkpt lat="61.032076" lon="25.783509">
<time>2020-09-13T11:33:11Z</time>
</trkpt>
<trkpt lat="61.0321" lon="25.783374">
<time>2020-09-13T11:33:12Z</time>
</trkpt>
<trkpt lat="61.032124" lon="25.783234">
<time>2020-09-13T11:33:13Z</time>
</trkpt>
<trkpt lat="61.032146" lon="25.783096">
<time>2020-09-13T11:33:14Z</time>
</trkpt>
<trkpt lat="61.032169" lon="25.782958">
<time>2020-09-13T11:33:15Z</time>
</trkpt>
<trkpt lat="61.032191" lon="25.782822">
<time>2020-09-13T11:33:16Z</time>
</trkpt>
<trkpt lat="61.032217" lon="25.782691">
<time>2020-09-13T11:33:17Z</time>
</trkpt>
<trkpt lat="61.032241" lon="25.782566">
<time>2020-09-13T11:33:18Z</time>
</trkpt>
<trkpt lat="61.032261" lon="25.782444">
<time>2020-09-13T11:33:19Z</time>
</trkpt>
<trkpt lat="61.032277" lon="25.782325">
<time>2020-09-13T11:33:20Z</time>
</trkpt>
<trkpt lat="61.032286" lon="25.782209">
<time>2020-09-13T11:33:21Z</time>
</trkpt>
<trkpt lat="61.032292" lon="25.782101">
<time>2020-09-13T11:33:22Z</time>
</trkpt>
<trkpt lat="61.032293" lon="25.782001">
<time>2020-09-13T11:33:23Z</time>
</trkpt>
<trkpt lat="61.032288" lon="25.781908">
<time>2020-09-13T11:33:24Z</time>
</trkpt>
<trkpt lat="61.032274" lon="25.781818">
<time>2020-09-13T11:33:25Z</time>
</trkpt>
<trkpt lat="61.032255" lon="25.781731">
<time>2020-09-13T11:33:26Z</time>
</trkpt>
<trkpt lat="61.032236" lon="25.781646">
<time>2020-09-13T11:33:27Z</time>
</trkpt>
<trkpt lat="61.032221" lon="25.781563">
<time>2020-09-13T11:33:28Z</time>
</trkpt>
<trkpt lat="61.032205" lon="25.781481">
<time>2020-09-13T11:33:29Z</time>
</trkpt>
<trkpt lat="61.03219" lon="25.781401">
<time>2020-09-13T11:33:30Z</time>
</trkpt>
<trkpt lat="61.032173" lon="25.781324">
<time>2020-09-13T11:33:31Z</time>
</trkpt>
<trkpt lat="61.032154" lon="25.781249">
<time>2020-09-13T11:33:32Z</time>
</trkpt>
<trkpt lat="61.03213" lon="25.781178">
<time>2020-09-13T11:33:33Z</time>
</trkpt>
<trkpt lat="61.0321" lon="25.781109">
<time>2020-09-13T11:33:34Z</time>
</trkpt>
<trkpt lat="61.03206" lon="25.781045">
<time>2020-09-13T11:33:35Z</time>
</trkpt>
<trkpt lat="61.032018" lon="25.780984">
<time>2020-09-13T11:33:36Z</time>
</trkpt>
<trkpt lat="61.031977" lon="25.780927">
<time>2020-09-13T11:33:37Z</time>
</trkpt>
<trkpt lat="61.031941" lon="25.780873">
<time>2020-09-13T11:33:38Z</time>
</trkpt>
<trkpt lat="61.031904" lon="25.780822">
<time>2020-09-13T11:33:39Z</time>
</trkpt>
<trkpt lat="61.031864" lon="25.780775">
<time>2020-09-13T11:33:40Z</time>
</trkpt>
<trkpt lat="61.031821" lon="25.780735">
<time>2020-09-13T11:33:41Z</time>
</trkpt>
<trkpt lat="61.031778" lon="25.780699">
<time>2020-09-13T11:33:42Z</time>
</trkpt>
<trkpt lat="61.031737" lon="25.780665">
<time>2020-09-13T11:33:43Z</time>
</trkpt>
<trkpt lat="61.031698" lon="25.780636">
<time>2020-09-13T11:33:44Z</time>
</trkpt>
<trkpt lat="61.03166" lon="25.78061">
<time>2020-09-13T11:33:45Z</time>
</trkpt>
<trkpt lat="61.031624" lon="25.780583">
<time>2020-09-13T11:33:46Z</time>
</trkpt>
<trkpt lat="61.03159" lon="25.780547">
<time>2020-09-13T11:33:47Z</time>
</trkpt>
<trkpt lat="61.031558" lon="25.780507">
<time>2020-09-13T11:33:48Z</time>
</trkpt>
<trkpt lat="61.031524" lon="25.780466">
<time>2020-09-13T11:33:49Z</time>
</trkpt>
<trkpt lat="61.031489" lon="25.780426">
<time>2020-09-13T11:33:50Z</time>
</trkpt>
<trkpt lat="61.031452" lon="25.780386">
<time>2020-09-13T11:33:51Z</time>
</trkpt>
<trkpt lat="61.031414" lon="25.780343">
<time>2020-09-13T11:33:52Z</time>
</trkpt>
<trkpt lat="61.031377" lon="25.780295">
<time>2020-09-13T11:33:53Z</time>
</trkpt>
<trkpt lat="61.031342" lon="25.780242">
<time>2020-09-13T11:33:54Z</time>
</trkpt>
<trkpt lat="61.031309" lon="25.780183">
<time>2020-09-13T11:33:55Z</time>
</trkpt>
<trkpt lat="61.031278" lon="25.78012">
<time>2020-09-13T11:33:56Z</time>
</trkpt>
<trkpt lat="61.031252" lon="25.780052">
<time>2020-09-13T11:33:57Z</time>
</trkpt>
<trkpt lat="61.031228" lon="25.779981">
<time>2020-09-13T11:33:58Z</time>
</trkpt>
<trkpt lat="61.031208" lon="25.779908">
<time>2020-09-13T11:33:59Z</time>
</trkpt>
<trkpt lat="61.031193" lon="25.779833">
<time>2020-09-13T11:34:00Z</time>
</trkpt>
<trkpt lat="61.031183" lon="25.779754">
<time>2020-09-13T11:34:01Z</time>
</trkpt>
<trkpt lat="61.031175" lon="25.779675">
<time>2020-09-13T11:34:02Z</time>
</trkpt>
<trkpt lat="61.031163" lon="25.7796">
<time>2020-09-13T11:34:03Z</time>
</trkpt>
<trkpt lat="61.031149" lon="25.779526">
<time>2020-09-13T11:34:04Z</time>
</trkpt>
<trkpt lat="61.031135" lon="25.779446">
<time>2020-09-13T11:34:05Z</time>
</trkpt>
<trkpt lat="61.031127" lon="25.779358">
<time>2020-09-13T11:34:06Z</time>
</trkpt>
<trkpt lat="61.031124" lon="25.779263">
<time>2020-09-13T11:34:07Z</time>
</trkpt>
<trkpt lat="61.031123" lon="25.779163">
<time>2020-09-13T11:34:08Z</time>
</trkpt>
<trkpt lat="61.03112" lon="25.779062">
<time>2020-09-13T11:34:09Z</time>
</trkpt>
<trkpt lat="61.031112" lon="25.778962">
<time>2020-09-13T11:34:10Z</time>
</trkpt>
<trkpt lat="61.031102" lon="25.778865">
<time>2020-09-13T11:34:11Z</time>
</trkpt>
<trkpt lat="61.031092" lon="25.778771">
<time>2020-09-13T11:34:12Z</time>
</trkpt>
<trkpt lat="61.031079" lon="25.778681">
<time>2020-09-13T11:34:13Z</time>
</trkpt>
<trkpt lat="61.031063" lon="25.778597">
<time>2020-09-13T11:34:14Z</time>
</trkpt>
<trkpt lat="61.031043" lon="25.778518">
<time>2020-09-13T11:34:15Z</time>
</trkpt>
<trkpt lat="61.031021" lon="25.778443">
<time>2020-09-13T11:34:16Z</time>
</trkpt>
<trkpt lat="61.030998" lon="25.778372">
<time>2020-09-13T11:34:17Z</time>
</trkpt>
<trkpt lat="61.030973" lon="25.778305">
<time>2020-09-13T11:34:18Z</time>
</trkpt>
<trkpt lat="61.030947" lon="25.778241">
<time>2020-09-13T11:34:19Z</time>
</trkpt>
<trkpt lat="61.030918" lon="25.778177">
<time>2020-09-13T11:34:20Z</time>
</trkpt>
<trkpt lat="61.030888" lon="25.778111">
<time>2020-09-13T11:34:21Z</time>
</trkpt>
<trkpt lat="61.030858" lon="25.778042">
<time>2020-09-13T11:34:22Z</time>
</trkpt>
<trkpt lat="61.030827" lon="25.777974">
<time>2020-09-13T11:34:23Z</time>
</trkpt>
<trkpt lat="61.030795" lon="25.777907">
<time>2020-09-13T11:34:24Z</time>
</trkpt>
<trkpt lat="61.030763" lon="25.77784">
<time>2020-09-13T11:34:25Z</time>
</trkpt>
<trkpt lat="61.030731" lon="25.777775">
<time>2020-09-13T11:34:26Z</time>
</trkpt>
<trkpt lat="61.030701" lon="25.777708">
<time>2020-09-13T11:34:27Z</time>
</trkpt>
<trkpt lat="61.030669" lon="25.777642">
<time>2020-09-13T11:34:28Z</time>
</trkpt>
<trkpt lat="61.030639" lon="25.777574">
<time>2020-09-13T11:34:29Z</time>
</trkpt>
<trkpt lat="61.030609" lon="25.777508">
<time>2020-09-13T11:34:30Z</time>
</trkpt>
<trkpt lat="61.030582" lon="25.777445">
<time>2020-09-13T11:34:31Z</time>
</trkpt>
<trkpt lat="61.030555" lon="25.777385">
<time>2020-09-13T11:34:32Z</time>
</trkpt>
<trkpt lat="61.030527" lon="25.77733">
<time>2020-09-13T11:34:33Z</time>
</trkpt>
<trkpt lat="61.030499" lon="25.777275">
<time>2020-09-13T11:34:34Z</time>
</trkpt>
<trkpt lat="61.030474" lon="25.777216">
<time>2020-09-13T11:34:35Z</time>
</trkpt>
<trkpt lat="61.030449" lon="25.77715">
<time>2020-09-13T11:34:36Z</time>
</trkpt>
<trkpt lat="61.030424" lon="25.77708">
<time>2020-09-13T11:34:37Z</time>
</trkpt>
<trkpt lat="61.030396" lon="25.777008">
<time>2020-09-13T11:34:38Z</time>
</trkpt>
<trkpt lat="61.030367" lon="25.776931">
<time>2020-09-13T11:34:39Z</time>
</trkpt>
<trkpt lat="61.03034" lon="25.776846">
<time>2020-09-13T11:34:40Z</time>
</trkpt>
<trkpt lat="61.030316" lon="25.776752">
<time>2020-09-13T11:34:41Z</time>
</trkpt>
<trkpt lat="61.030297" lon="25.776649">
<time>2020-09-13T11:34:42Z</time>
</trkpt>
<trkpt lat="61.030279" lon="25.776542">
<time>2020-09-13T11:34:43Z</time>
</trkpt>
<trkpt lat="61.030261" lon="25.776432">
<time>2020-09-13T11:34:44Z</time>
</trkpt>
<trkpt lat="61.030242" lon="25.77632">
<time>2020-09-13T11:34:45Z</time>
</trkpt>
<trkpt lat="61.030229" lon="25.776206">
<time>2020-09-13T11:34:46Z</time>
</trkpt>
<trkpt lat="61.030231" lon="25.776088">
<time>2020-09-13T11:34:47Z</time>
</trkpt>
<trkpt lat="61.030242" lon="25.775968">
<time>2020-09-13T11:34:48Z</time>
</trkpt>
<trkpt lat="61.030255" lon="25.775848">
<time>2020-09-13T11:34:49Z</time>
</trkpt>
<trkpt lat="61.030259" lon="25.775727">
<time>2020-09-13T11:34:50Z</time>
</trkpt>
<trkpt lat="61.03026" lon="25.775604">
<time>2020-09-13T11:34:51Z</time>
</trkpt>
<trkpt lat="61.03026" lon="25.775476">
<time>2020-09-13T11:34:52Z</time>
</trkpt>
<trkpt lat="61.030261" lon="25.775345">
<time>2020-09-13T11:34:53Z</time>
</trkpt>
<trkpt lat="61.030261" lon="25.775209">
<time>2020-09-13T11:34:54Z</time>
</trkpt>
<trkpt lat="61.030261" lon="25.77507">
<time>2020-09-13T11:34:55Z</time>
</trkpt>
<trkpt lat="61.030259" lon="25.774927">
<time>2020-09-13T11:34:56Z</time>
</trkpt>
<trkpt lat="61.030255" lon="25.774781">
<time>2020-09-13T11:34:57Z</time>
</trkpt>
<trkpt lat="61.030247" lon="25.774631">
<time>2020-09-13T11:34:58Z</time>
</trkpt>
<trkpt lat="61.030237" lon="25.774481">
<time>2020-09-13T11:34:59Z</time>
</trkpt>
<trkpt lat="61.030224" lon="25.774333">
<time>2020-09-13T11:35:00Z</time>
</trkpt>
<trkpt lat="61.03021" lon="25.774189">
<time>2020-09-13T11:35:01Z</time>
</trkpt>
<trkpt lat="61.030194" lon="25.774051">
<time>2020-09-13T11:35:02Z</time>
</trkpt>
<trkpt lat="61.030177" lon="25.773915">
<time>2020-09-13T11:35:03Z</time>
</trkpt>
<trkpt lat="61.030162" lon="25.773778">
<time>2020-09-13T11:35:04Z</time>
</trkpt>
<trkpt lat="61.030146" lon="25.77364">
<time>2020-09-13T11:35:05Z</time>
</trkpt>
<trkpt lat="61.030129" lon="25.7735">
<time>2020-09-13T11:35:06Z</time>
</trkpt>
<trkpt lat="61.03011" lon="25.773363">
<time>2020-09-13T11:35:07Z</time>
</trkpt>
<trkpt lat="61.030091" lon="25.773227">
<time>2020-09-13T11:35:08Z</time>
</trkpt>
<trkpt lat="61.030072" lon="25.773099">
<time>2020-09-13T11:35:09Z</time>
</trkpt>
<trkpt lat="61.030042" lon="25.772983">
<time>2020-09-13T11:35:10Z</time>
</trkpt>
<trkpt lat="61.030002" lon="25.772883">
<time>2020-09-13T11:35:11Z</time>
</trkpt>
<trkpt lat="61.029955" lon="25.772805">
<time>2020-09-13T11:35:12Z</time>
</trkpt>
<trkpt lat="61.029905" lon="25.772749">
<time>2020-09-13T11:35:13Z</time>
</trkpt>
<trkpt lat="61.029847" lon="25.772713">
<time>2020-09-13T11:35:14Z</time>
</trkpt>
<trkpt lat="61.029781" lon="25.772685">
<time>2020-09-13T11:35:15Z</time>
</trkpt>
<trkpt lat="61.029711" lon="25.77266">
<time>2020-09-13T11:35:16Z</time>
</trkpt>
<trkpt lat="61.029643" lon="25.772638">
<time>2020-09-13T11:35:17Z</time>
</trkpt>
<trkpt lat="61.029577" lon="25.772617">
<time>2020-09-13T11:35:18Z</time>
</trkpt>
<trkpt lat="61.02951" lon="25.772598">
<time>2020-09-13T11:35:19Z</time>
</trkpt>
<trkpt lat="61.029445" lon="25.772575">
<time>2020-09-13T11:35:20Z</time>
</trkpt>
<trkpt lat="61.029381" lon="25.772551">
<time>2020-09-13T11:35:21Z</time>
</trkpt>
<trkpt lat="61.029316" lon="25.772525">
<time>2020-09-13T11:35:22Z</time>
</trkpt>
<trkpt lat="61.029251" lon="25.772506">
<time>2020-09-13T11:35:23Z</time>
</trkpt>
<trkpt lat="61.029182" lon="25.77249">
<time>2020-09-13T11:35:24Z</time>
</trkpt>
<trkpt lat="61.02911" lon="25.772477">
<time>2020-09-13T11:35:25Z</time>
</trkpt>
<trkpt lat="61.029037" lon="25.772464">
<time>2020-09-13T11:35:26Z</time>
</trkpt>
<trkpt lat="61.028962" lon="25.772451">
<time>2020-09-13T11:35:27Z</time>
</trkpt>
<trkpt lat="61.028888" lon="25.772437">
<time>2020-09-13T11:35:28Z</time>
</trkpt>
<trkpt lat="61.028814" lon="25.772417">
<time>2020-09-13T11:35:29Z</time>
</trkpt>
<trkpt lat="61.02874" lon="25.772396">
<time>2020-09-13T11:35:30Z</time>
</trkpt>
<trkpt lat="61.028665" lon="25.772373">
<time>2020-09-13T11:35:31Z</time>
</trkpt>
<trkpt lat="61.028591" lon="25.77235">
<time>2020-09-13T11:35:32Z</time>
</trkpt>
<trkpt lat="61.028516" lon="25.772329">
<time>2020-09-13T11:35:33Z</time>
</trkpt>
<trkpt lat="61.028439" lon="25.77231">
<time>2020-09-13T11:35:34Z</time>
</trkpt>
<trkpt lat="61.028363" lon="25.772291">
<time>2020-09-13T11:35:35Z</time>
</trkpt>
<trkpt lat="61.028288" lon="25.77227">
<time>2020-09-13T11:35:36Z</time>
</trkpt>
<trkpt lat="61.028216" lon="25.77225">
<time>2020-09-13T11:35:37Z</time>
</trkpt>
<trkpt lat="61.028147" lon="25.772234">
<time>2020-09-13T11:35:38Z</time>
</trkpt>
<trkpt lat="61.028078" lon="25.772221">
<time>2020-09-13T11:35:39Z</time>
</trkpt>
<trkpt lat="61.02801" lon="25.772211">
<time>2020-09-13T11:35:40Z</time>
</trkpt>
<trkpt lat="61.027941" lon="25.772209">
<time>2020-09-13T11:35:41Z</time>
</trkpt>
<trkpt lat="61.027873" lon="25.772209">
<time>2020-09-13T11:35:42Z</time>
</trkpt>
<trkpt lat="61.027804" lon="25.77221">
<time>2020-09-13T11:35:43Z</time>
</trkpt>
<trkpt lat="61.027735" lon="25.772207">
<time>2020-09-13T11:35:44Z</time>
</trkpt>
<trkpt lat="61.027665" lon="25.77221">
<time>2020-09-13T11:35:45Z</time>
</trkpt>
<trkpt lat="61.027594" lon="25.772214">
<time>2020-09-13T11:35:46Z</time>
</trkpt>
<trkpt lat="61.027525" lon="25.77222">
<time>2020-09-13T11:35:47Z</time>
</trkpt>
<trkpt lat="61.027457" lon="25.772224">
<time>2020-09-13T11:35:48Z</time>
</trkpt>
<trkpt lat="61.027389" lon="25.772228">
<time>2020-09-13T11:35:49Z</time>
</trkpt>
<trkpt lat="61.027321" lon="25.772233">
<time>2020-09-13T11:35:50Z</time>
</trkpt>
<trkpt lat="61.027249" lon="25.772246">
<time>2020-09-13T11:35:51Z</time>
</trkpt>
<trkpt lat="61.027175" lon="25.772269">
<time>2020-09-13T11:35:52Z</time>
</trkpt>
<trkpt lat="61.0271" lon="25.772301">
<time>2020-09-13T11:35:53Z</time>
</trkpt>
<trkpt lat="61.027026" lon="25.772335">
<time>2020-09-13T11:35:54Z</time>
</trkpt>
<trkpt lat="61.026954" lon="25.77237">
<time>2020-09-13T11:35:55Z</time>
</trkpt>
<trkpt lat="61.026882" lon="25.772402">
<time>2020-09-13T11:35:56Z</time>
</trkpt>
<trkpt lat="61.026813" lon="25.772436">
<time>2020-09-13T11:35:57Z</time>
</trkpt>
<trkpt lat="61.026746" lon="25.772469">
<time>2020-09-13T11:35:58Z</time>
</trkpt>
<trkpt lat="61.02668" lon="25.772502">
<time>2020-09-13T11:35:59Z</time>
</trkpt>
<trkpt lat="61.026617" lon="25.772537">
<time>2020-09-13T11:36:00Z</time>
</trkpt>
<trkpt lat="61.026558" lon="25.772578">
<time>2020-09-13T11:36:01Z</time>
</trkpt>
<trkpt lat="61.026502" lon="25.772621">
<time>2020-09-13T11:36:02Z</time>
</trkpt>
<trkpt lat="61.026445" lon="25.772661">
<time>2020-09-13T11:36:03Z</time>
</trkpt>
<trkpt lat="61.026388" lon="25.772701">
<time>2020-09-13T11:36:04Z</time>
</trkpt>
<trkpt lat="61.026336" lon="25.772752">
<time>2020-09-13T11:36:05Z</time>
</trkpt>
<trkpt lat="61.02629" lon="25.77281">
<time>2020-09-13T11:36:06Z</time>
</trkpt>
<trkpt lat="61.026253" lon="25.772876">
<time>2020-09-13T11:36:07Z</time>
</trkpt>
<trkpt lat="61.026219" lon="25.772937">
<time>2020-09-13T11:36:08Z</time>
</trkpt>
<trkpt lat="61.026187" lon="25.772995">
<time>2020-09-13T11:36:09Z</time>
</trkpt>
<trkpt lat="61.026158" lon="25.773048">
<time>2020-09-13T11:36:10Z</time>
</trkpt>
<trkpt lat="61.026133" lon="25.773102">
<time>2020-09-13T11:36:11Z</time>
</trkpt>
<trkpt lat="61.026111" lon="25.773164">
<time>2020-09-13T11:36:12Z</time>
</trkpt>
<trkpt lat="61.026089" lon="25.77323">
<time>2020-09-13T11:36:13Z</time>
</trkpt>
<trkpt lat="61.026067" lon="25.773303">
<time>2020-09-13T11:36:14Z</time>
</trkpt>
<trkpt lat="61.026046" lon="25.77338">
<time>2020-09-13T11:36:15Z</time>
</trkpt>
<trkpt lat="61.026021" lon="25.773463">
<time>2020-09-13T11:36:16Z</time>
</trkpt>
<trkpt lat="61.025994" lon="25.773551">
<time>2020-09-13T11:36:17Z</time>
</trkpt>
<trkpt lat="61.025963" lon="25.773637">
<time>2020-09-13T11:36:18Z</time>
</trkpt>
<trkpt lat="61.025929" lon="25.773714">
<time>2020-09-13T11:36:19Z</time>
</trkpt>
<trkpt lat="61.025891" lon="25.773777">
<time>2020-09-13T11:36:20Z</time>
</trkpt>
<trkpt lat="61.025854" lon="25.773829">
<time>2020-09-13T11:36:21Z</time>
</trkpt>
<trkpt lat="61.025818" lon="25.773869">
<time>2020-09-13T11:36:22Z</time>
</trkpt>
<trkpt lat="61.025782" lon="25.773902">
<time>2020-09-13T11:36:23Z</time>
</trkpt>
<trkpt lat="61.02574" lon="25.773938">
<time>2020-09-13T11:36:24Z</time>
</trkpt>
<trkpt lat="61.025695" lon="25.77399">
<time>2020-09-13T11:36:25Z</time>
</trkpt>
<trkpt lat="61.02565" lon="25.774048">
<time>2020-09-13T11:36:26Z</time>
</trkpt>
<trkpt lat="61.025607" lon="25.774101">
<time>2020-09-13T11:36:27Z</time>
</trkpt>
<trkpt lat="61.025572" lon="25.77414">
<time>2020-09-13T11:36:28Z</time>
</trkpt>
<trkpt lat="61.025542" lon="25.774171">
<time>2020-09-13T11:36:29Z</time>
</trkpt>
<trkpt lat="61.025518" lon="25.774192">
<time>2020-09-13T11:36:30Z</time>
</trkpt>
<trkpt lat="61.025498" lon="25.774201">
<time>2020-09-13T11:36:31Z</time>
</trkpt>
<trkpt lat="61.025484" lon="25.774208">
<time>2020-09-13T11:36:32Z</time>
</trkpt>
<trkpt lat="61.025469" lon="25.774221">
<time>2020-09-13T11:36:33Z</time>
</trkpt>
<trkpt lat="61.025449" lon="25.774242">
<time>2020-09-13T11:36:34Z</time>
</trkpt>
<trkpt lat="61.025425" lon="25.774264">
<time>2020-09-13T11:36:35Z</time>
</trkpt>
<trkpt lat="61.025399" lon="25.774281">
<time>2020-09-13T11:36:36Z</time>
</trkpt>
<trkpt lat="61.025375" lon="25.774302">
<time>2020-09-13T11:36:37Z</time>
</trkpt>
<trkpt lat="61.025353" lon="25.774329">
<time>2020-09-13T11:36:38Z</time>
</trkpt>
<trkpt lat="61.025334" lon="25.774359">
<time>2020-09-13T11:36:39Z</time>
</trkpt>
<trkpt lat="61.025315" lon="25.774389">
<time>2020-09-13T11:36:40Z</time>
</trkpt>
<trkpt lat="61.025296" lon="25.77442">
<time>2020-09-13T11:36:41Z</time>
</trkpt>
<trkpt lat="61.025275" lon="25.774454">
<time>2020-09-13T11:36:42Z</time>
</trkpt>
<trkpt lat="61.025252" lon="25.774488">
<time>2020-09-13T11:36:43Z</time>
</trkpt>
<trkpt lat="61.02523" lon="25.774519">
<time>2020-09-13T11:36:44Z</time>
</trkpt>
<trkpt lat="61.025208" lon="25.774552">
<time>2020-09-13T11:36:45Z</time>
</trkpt>
<trkpt lat="61.025183" lon="25.774586">
<time>2020-09-13T11:36:46Z</time>
</trkpt>
<trkpt lat="61.025153" lon="25.774616">
<time>2020-09-13T11:36:47Z</time>
</trkpt>
<trkpt lat="61.025123" lon="25.774643">
<time>2020-09-13T11:36:48Z</time>
</trkpt>
<trkpt lat="61.025101" lon="25.774666">
<time>2020-09-13T11:36:49Z</time>
</trkpt>
<trkpt lat="61.025084" lon="25.774684">
<time>2020-09-13T11:36:50Z</time>
</trkpt>
<trkpt lat="61.025069" lon="25.774697">
<time>2020-09-13T11:36:51Z</time>
</trkpt>
<trkpt lat="61.025051" lon="25.774708">
<time>2020-09-13T11:36:52Z</time>
</trkpt>
<trkpt lat="61.025026" lon="25.774716">
<time>2020-09-13T11:36:53Z</time>
</trkpt>
<trkpt lat="61.025" lon="25.774716">
<time>2020-09-13T11:36:54Z</time>
</trkpt>
<trkpt lat="61.024972" lon="25.774702">
<time>2020-09-13T11:36:55Z</time>
</trkpt>
<trkpt lat="61.024944" lon="25.774679">
<time>2020-09-13T11:36:56Z</time>
</trkpt>
<trkpt lat="61.024914" lon="25.774644">
<time>2020-09-13T11:36:57Z</time>
</trkpt>
<trkpt lat="61.024887" lon="25.774613">
<time>2020-09-13T11:36:58Z</time>
</trkpt>
<trkpt lat="61.02486" lon="25.77459">
<time>2020-09-13T11:36:59Z</time>
</trkpt>
<trkpt lat="61.024834" lon="25.774582">
<time>2020-09-13T11:37:00Z</time>
</trkpt>
<trkpt lat="61.024807" lon="25.77458">
<time>2020-09-13T11:37:01Z</time>
</trkpt>
<trkpt lat="61.02478" lon="25.774564">
<time>2020-09-13T11:37:02Z</time>
</trkpt>
<trkpt lat="61.02475" lon="25.77453">
<time>2020-09-13T11:37:03Z</time>
</trkpt>
<trkpt lat="61.024716" lon="25.774487">
<time>2020-09-13T11:37:04Z</time>
</trkpt>
<trkpt lat="61.024681" lon="25.774444">
<time>2020-09-13T11:37:05Z</time>
</trkpt>
<trkpt lat="61.024637" lon="25.774396">
<time>2020-09-13T11:37:06Z</time>
</trkpt>
<trkpt lat="61.024595" lon="25.774353">
<time>2020-09-13T11:37:07Z</time>
</trkpt>
<trkpt lat="61.024548" lon="25.774321">
<time>2020-09-13T11:37:08Z</time>
</trkpt>
<trkpt lat="61.024512" lon="25.774312">
<time>2020-09-13T11:37:09Z</time>
</trkpt>
<trkpt lat="61.024476" lon="25.774306">
<time>2020-09-13T11:37:10Z</time>
</trkpt>
<trkpt lat="61.024443" lon="25.7743">
<time>2020-09-13T11:37:11Z</time>
</trkpt>
<trkpt lat="61.024406" lon="25.774272">
<time>2020-09-13T11:37:12Z</time>
</trkpt>
<trkpt lat="61.024371" lon="25.774237">
<time>2020-09-13T11:37:13Z</time>
</trkpt>
<trkpt lat="61.024339" lon="25.774194">
<time>2020-09-13T11:37:14Z</time>
</trkpt>
<trkpt lat="61.024312" lon="25.774161">
<time>2020-09-13T11:37:15Z</time>
</trkpt>
<trkpt lat="61.024286" lon="25.774128">
<time>2020-09-13T11:37:16Z</time>
</trkpt>
<trkpt lat="61.024255" lon="25.774104">
<time>2020-09-13T11:37:17Z</time>
</trkpt>
<trkpt lat="61.024224" lon="25.774083">
<time>2020-09-13T11:37:18Z</time>
</trkpt>
<trkpt lat="61.024191" lon="25.774062">
<time>2020-09-13T11:37:19Z</time>
</trkpt>
<trkpt lat="61.02416" lon="25.774035">
<time>2020-09-13T11:37:20Z</time>
</trkpt>
<trkpt lat="61.024131" lon="25.774008">
<time>2020-09-13T11:37:21Z</time>
</trkpt>
<trkpt lat="61.024103" lon="25.773989">
<time>2020-09-13T11:37:22Z</time>
</trkpt>
<trkpt lat="61.024076" lon="25.773975">
<time>2020-09-13T11:37:23Z</time>
</trkpt>
<trkpt lat="61.024049" lon="25.773957">
<time>2020-09-13T11:37:24Z</time>
</trkpt>
<trkpt lat="61.024022" lon="25.773939">
<time>2020-09-13T11:37:25Z</time>
</trkpt>
<trkpt lat="61.023993" lon="25.773925">
<time>2020-09-13T11:37:26Z</time>
</trkpt>
<trkpt lat="61.023962" lon="25.773922">
<time>2020-09-13T11:37:27Z</time>
</trkpt>
<trkpt lat="61.02393" lon="25.773923">
<time>2020-09-13T11:37:28Z</time>
</trkpt>
<trkpt lat="61.023898" lon="25.773922">
<time>2020-09-13T11:37:29Z</time>
</trkpt>
<trkpt lat="61.023865" lon="25.773921">
<time>2020-09-13T11:37:30Z</time>
</trkpt>
<trkpt lat="61.023831" lon="25.773912">
<time>2020-09-13T11:37:31Z</time>
</trkpt>
<trkpt lat="61.023796" lon="25.773905">
<time>2020-09-13T11:37:32Z</time>
</trkpt>
<trkpt lat="61.023763" lon="25.773906">
<time>2020-09-13T11:37:33Z</time>
</trkpt>
<trkpt lat="61.02373" lon="25.77392">
<time>2020-09-13T11:37:34Z</time>
</trkpt>
<trkpt lat="61.0237" lon="25.773931">
<time>2020-09-13T11:37:35Z</time>
</trkpt>
<trkpt lat="61.02367" lon="25.773933">
<time>2020-09-13T11:37:36Z</time>
</trkpt>
<trkpt lat="61.02364" lon="25.773911">
<time>2020-09-13T11:37:37Z</time>
</trkpt>
<trkpt lat="61.023609" lon="25.773886">
<time>2020-09-13T11:37:38Z</time>
</trkpt>
<trkpt lat="61.023575" lon="25.77386">
<time>2020-09-13T11:37:39Z</time>
</trkpt>
<trkpt lat="61.023539" lon="25.773842">
<time>2020-09-13T11:37:40Z</time>
</trkpt>
<trkpt lat="61.023499" lon="25.773805">
<time>2020-09-13T11:37:41Z</time>
</trkpt>
<trkpt lat="61.023456" lon="25.773761">
<time>2020-09-13T11:37:42Z</time>
</trkpt>
<trkpt lat="61.023413" lon="25.773718">
<time>2020-09-13T11:37:43Z</time>
</trkpt>
<trkpt lat="61.023376" lon="25.773692">
<time>2020-09-13T11:37:44Z</time>
</trkpt>
<trkpt lat="61.023343" lon="25.773673">
<time>2020-09-13T11:37:45Z</time>
</trkpt>
<trkpt lat="61.023312" lon="25.77366">
<time>2020-09-13T11:37:46Z</time>
</trkpt>
<trkpt lat="61.023282" lon="25.773655">
<time>2020-09-13T11:37:47Z</time>
</trkpt>
<trkpt lat="61.023254" lon="25.77366">
<time>2020-09-13T11:37:48Z</time>
</trkpt>
<trkpt lat="61.023227" lon="25.773674">
<time>2020-09-13T11:37:49Z</time>
</trkpt>
<trkpt lat="61.023201" lon="25.773691">
<time>2020-09-13T11:37:50Z</time>
</trkpt>
<trkpt lat="61.023172" lon="25.773716">
<time>2020-09-13T11:37:51Z</time>
</trkpt>
<trkpt lat="61.023142" lon="25.773742">
<time>2020-09-13T11:37:52Z</time>
</trkpt>
<trkpt lat="61.023111" lon="25.773759">
<time>2020-09-13T11:37:53Z</time>
</trkpt>
<trkpt lat="61.023078" lon="25.773756">
<time>2020-09-13T11:37:54Z</time>
</trkpt>
<trkpt lat="61.023043" lon="25.773743">
<time>2020-09-13T11:37:55Z</time>
</trkpt>
<trkpt lat="61.023004" lon="25.773734">
<time>2020-09-13T11:37:56Z</time>
</trkpt>
<trkpt lat="61.022966" lon="25.773727">
<time>2020-09-13T11:37:57Z</time>
</trkpt>
<trkpt lat="61.022928" lon="25.773713">
<time>2020-09-13T11:37:58Z</time>
</trkpt>
<trkpt lat="61.022888" lon="25.773686">
<time>2020-09-13T11:37:59Z</time>
</trkpt>
<trkpt lat="61.022847" lon="25.773658">
<time>2020-09-13T11:38:00Z</time>
</trkpt>
<trkpt lat="61.022804" lon="25.773632">
<time>2020-09-13T11:38:01Z</time>
</trkpt>
<trkpt lat="61.022762" lon="25.773612">
<time>2020-09-13T11:38:02Z</time>
</trkpt>
<trkpt lat="61.022721" lon="25.773588">
<time>2020-09-13T11:38:03Z</time>
</trkpt>
<trkpt lat="61.022683" lon="25.773559">
<time>2020-09-13T11:38:04Z</time>
</trkpt>
<trkpt lat="61.022649" lon="25.773525">
<time>2020-09-13T11:38:05Z</time>
</trkpt>
<trkpt lat="61.02262" lon="25.7735">
<time>2020-09-13T11:38:06Z</time>
</trkpt>
<trkpt lat="61.022595" lon="25.773488">
<time>2020-09-13T11:38:07Z</time>
</trkpt>
<trkpt lat="61.022568" lon="25.773493">
<time>2020-09-13T11:38:08Z</time>
</trkpt>
<trkpt lat="61.022536" lon="25.7735">
<time>2020-09-13T11:38:09Z</time>
</trkpt>
<trkpt lat="61.022498" lon="25.773511">
<time>2020-09-13T11:38:10Z</time>
</trkpt>
<trkpt lat="61.022462" lon="25.77353">
<time>2020-09-13T11:38:11Z</time>
</trkpt>
<trkpt lat="61.022425" lon="25.773564">
<time>2020-09-13T11:38:12Z</time>
</trkpt>
<trkpt lat="61.022387" lon="25.773599">
<time>2020-09-13T11:38:13Z</time>
</trkpt>
<trkpt lat="61.022349" lon="25.773629">
<time>2020-09-13T11:38:14Z</time>
</trkpt>
<trkpt lat="61.022311" lon="25.773656">
<time>2020-09-13T11:38:15Z</time>
</trkpt>
<trkpt lat="61.022272" lon="25.773693">
<time>2020-09-13T11:38:16Z</time>
</trkpt>
<trkpt lat="61.022235" lon="25.773751">
<time>2020-09-13T11:38:17Z</time>
</trkpt>
<trkpt lat="61.022201" lon="25.773815">
<time>2020-09-13T11:38:18Z</time>
</trkpt>
<trkpt lat="61.022171" lon="25.773878">
<time>2020-09-13T11:38:19Z</time>
</trkpt>
<trkpt lat="61.022142" lon="25.77393">
<time>2020-09-13T11:38:20Z</time>
</trkpt>
<trkpt lat="61.022115" lon="25.773975">
<time>2020-09-13T11:38:21Z</time>
</trkpt>
<trkpt lat="61.022088" lon="25.774022">
<time>2020-09-13T11:38:22Z</time>
</trkpt>
<trkpt lat="61.022064" lon="25.774072">
<time>2020-09-13T11:38:23Z</time>
</trkpt>
<trkpt lat="61.022043" lon="25.774125">
<time>2020-09-13T11:38:24Z</time>
</trkpt>
<trkpt lat="61.022029" lon="25.774183">
<time>2020-09-13T11:38:25Z</time>
</trkpt>
<trkpt lat="61.022016" lon="25.774245">
<time>2020-09-13T11:38:26Z</time>
</trkpt>
<trkpt lat="61.022004" lon="25.7743">
<time>2020-09-13T11:38:27Z</time>
</trkpt>
<trkpt lat="61.021988" lon="25.774339">
<time>2020-09-13T11:38:28Z</time>
</trkpt>
<trkpt lat="61.021967" lon="25.774353">
<time>2020-09-13T11:38:29Z</time>
</trkpt>
<trkpt lat="61.021939" lon="25.774343">
<time>2020-09-13T11:38:30Z</time>
</trkpt>
<trkpt lat="61.02191" lon="25.77432">
<time>2020-09-13T11:38:31Z</time>
</trkpt>
<trkpt lat="61.021878" lon="25.7743">
<time>2020-09-13T11:38:32Z</time>
</trkpt>
<trkpt lat="61.02185" lon="25.77429">
<time>2020-09-13T11:38:33Z</time>
</trkpt>
<trkpt lat="61.021822" lon="25.774281">
<time>2020-09-13T11:38:34Z</time>
</trkpt>
<trkpt lat="61.021795" lon="25.774268">
<time>2020-09-13T11:38:35Z</time>
</trkpt>
<trkpt lat="61.021768" lon="25.774255">
<time>2020-09-13T11:38:36Z</time>
</trkpt>
<trkpt lat="61.021746" lon="25.774257">
<time>2020-09-13T11:38:37Z</time>
</trkpt>
<trkpt lat="61.021726" lon="25.774262">
<time>2020-09-13T11:38:38Z</time>
</trkpt>
<trkpt lat="61.021704" lon="25.774262">
<time>2020-09-13T11:38:39Z</time>
</trkpt>
<trkpt lat="61.021679" lon="25.774248">
<time>2020-09-13T11:38:40Z</time>
</trkpt>
<trkpt lat="61.021655" lon="25.774229">
<time>2020-09-13T11:38:41Z</time>
</trkpt>
<trkpt lat="61.021629" lon="25.774216">
<time>2020-09-13T11:38:42Z</time>
</trkpt>
<trkpt lat="61.021603" lon="25.774213">
<time>2020-09-13T11:38:43Z</time>
</trkpt>
<trkpt lat="61.021579" lon="25.77422">
<time>2020-09-13T11:38:44Z</time>
</trkpt>
<trkpt lat="61.021562" lon="25.774241">
<time>2020-09-13T11:38:45Z</time>
</trkpt>
<trkpt lat="61.021544" lon="25.774278">
<time>2020-09-13T11:38:46Z</time>
</trkpt>
<trkpt lat="61.021519" lon="25.774336">
<time>2020-09-13T11:38:47Z</time>
</trkpt>
<trkpt lat="61.021486" lon="25.774394">
<time>2020-09-13T11:38:48Z</time>
</trkpt>
<trkpt lat="61.021449" lon="25.774435">
<time>2020-09-13T11:38:49Z</time>
</trkpt>
<trkpt lat="61.02141" lon="25.774451">
<time>2020-09-13T11:38:50Z</time>
</trkpt>
<trkpt lat="61.021372" lon="25.774454">
<time>2020-09-13T11:38:51Z</time>
</trkpt>
<trkpt lat="61.021332" lon="25.774451">
<time>2020-09-13T11:38:52Z</time>
</trkpt>
<trkpt lat="61.021296" lon="25.77444">
<time>2020-09-13T11:38:53Z</time>
</trkpt>
<trkpt lat="61.021261" lon="25.77442">
<time>2020-09-13T11:38:54Z</time>
</trkpt>
<trkpt lat="61.021232" lon="25.774388">
<time>2020-09-13T11:38:55Z</time>
</trkpt>
<trkpt lat="61.021208" lon="25.774344">
<time>2020-09-13T11:38:56Z</time>
</trkpt>
<trkpt lat="61.021188" lon="25.774287">
<time>2020-09-13T11:38:57Z</time>
</trkpt>
<trkpt lat="61.021168" lon="25.774224">
<time>2020-09-13T11:38:58Z</time>
</trkpt>
<trkpt lat="61.021146" lon="25.774162">
<time>2020-09-13T11:38:59Z</time>
</trkpt>
<trkpt lat="61.021128" lon="25.774104">
<time>2020-09-13T11:39:00Z</time>
</trkpt>
<trkpt lat="61.021123" lon="25.774042">
<time>2020-09-13T11:39:01Z</time>
</trkpt>
<trkpt lat="61.021127" lon="25.773968">
<time>2020-09-13T11:39:02Z</time>
</trkpt>
<trkpt lat="61.021134" lon="25.773887">
<time>2020-09-13T11:39:03Z</time>
</trkpt>
<trkpt lat="61.02113" lon="25.773804">
<time>2020-09-13T11:39:04Z</time>
</trkpt>
<trkpt lat="61.021122" lon="25.77373">
<time>2020-09-13T11:39:05Z</time>
</trkpt>
<trkpt lat="61.021115" lon="25.773661">
<time>2020-09-13T11:39:06Z</time>
</trkpt>
<trkpt lat="61.021113" lon="25.773596">
<time>2020-09-13T11:39:07Z</time>
</trkpt>
<trkpt lat="61.021114" lon="25.773532">
<time>2020-09-13T11:39:08Z</time>
</trkpt>
<trkpt lat="61.021111" lon="25.773473">
<time>2020-09-13T11:39:09Z</time>
</trkpt>
<trkpt lat="61.021096" lon="25.77342">
<time>2020-09-13T11:39:10Z</time>
</trkpt>
<trkpt lat="61.021068" lon="25.77338">
<time>2020-09-13T11:39:11Z</time>
</trkpt>
<trkpt lat="61.021032" lon="25.773341">
<time>2020-09-13T11:39:12Z</time>
</trkpt>
<trkpt lat="61.021" lon="25.773298">
<time>2020-09-13T11:39:13Z</time>
</trkpt>
<trkpt lat="61.020972" lon="25.773246">
<time>2020-09-13T11:39:14Z</time>
</trkpt>
<trkpt lat="61.020946" lon="25.773197">
<time>2020-09-13T11:39:15Z</time>
</trkpt>
<trkpt lat="61.020917" lon="25.773155">
<time>2020-09-13T11:39:16Z</time>
</trkpt>
<trkpt lat="61.020889" lon="25.773122">
<time>2020-09-13T11:39:17Z</time>
</trkpt>
<trkpt lat="61.020863" lon="25.773093">
<time>2020-09-13T11:39:18Z</time>
</trkpt>
<trkpt lat="61.020831" lon="25.77307">
<time>2020-09-13T11:39:19Z</time>
</trkpt>
<trkpt lat="61.020797" lon="25.773044">
<time>2020-09-13T11:39:20Z</time>
</trkpt>
<trkpt lat="61.020761" lon="25.773021">
<time>2020-09-13T11:39:21Z</time>
</trkpt>
<trkpt lat="61.02073" lon="25.772997">
<time>2020-09-13T11:39:22Z</time>
</trkpt>
<trkpt lat="61.020703" lon="25.772969">
<time>2020-09-13T11:39:23Z</time>
</trkpt>
<trkpt lat="61.02068" lon="25.77293">
<time>2020-09-13T11:39:24Z</time>
</trkpt>
<trkpt lat="61.020665" lon="25.772878">
<time>2020-09-13T11:39:25Z</time>
</trkpt>
<trkpt lat="61.020648" lon="25.772831">
<time>2020-09-13T11:39:26Z</time>
</trkpt>
<trkpt lat="61.020629" lon="25.772795">
<time>2020-09-13T11:39:27Z</time>
</trkpt>
<trkpt lat="61.020602" lon="25.772769">
<time>2020-09-13T11:39:28Z</time>
</trkpt>
<trkpt lat="61.020578" lon="25.772741">
<time>2020-09-13T11:39:29Z</time>
</trkpt>
<trkpt lat="61.020555" lon="25.772702">
<time>2020-09-13T11:39:30Z</time>
</trkpt>
<trkpt lat="61.020532" lon="25.772656">
<time>2020-09-13T11:39:31Z</time>
</trkpt>
<trkpt lat="61.020498" lon="25.772601">
<time>2020-09-13T11:39:32Z</time>
</trkpt>
<trkpt lat="61.020455" lon="25.772555">
<time>2020-09-13T11:39:33Z</time>
</trkpt>
<trkpt lat="61.020408" lon="25.772518">
<time>2020-09-13T11:39:34Z</time>
</trkpt>
<trkpt lat="61.02037" lon="25.772493">
<time>2020-09-13T11:39:35Z</time>
</trkpt>
<trkpt lat="61.020339" lon="25.772474">
<time>2020-09-13T11:39:36Z</time>
</trkpt>
<trkpt lat="61.020311" lon="25.772467">
<time>2020-09-13T11:39:37Z</time>
</trkpt>
<trkpt lat="61.020287" lon="25.772472">
<time>2020-09-13T11:39:38Z</time>
</trkpt>
<trkpt lat="61.020264" lon="25.772477">
<time>2020-09-13T11:39:39Z</time>
</trkpt>
<trkpt lat="61.020242" lon="25.772477">
<time>2020-09-13T11:39:40Z</time>
</trkpt>
<trkpt lat="61.020214" lon="25.772474">
<time>2020-09-13T11:39:41Z</time>
</trkpt>
<trkpt lat="61.020184" lon="25.772464">
<time>2020-09-13T11:39:42Z</time>
</trkpt>
<trkpt lat="61.02015" lon="25.772457">
<time>2020-09-13T11:39:43Z</time>
</trkpt>
<trkpt lat="61.020116" lon="25.77245">
<time>2020-09-13T11:39:44Z</time>
</trkpt>
<trkpt lat="61.020082" lon="25.77245">
<time>2020-09-13T11:39:45Z</time>
</trkpt>
<trkpt lat="61.020047" lon="25.772446">
<time>2020-09-13T11:39:46Z</time>
</trkpt>
<trkpt lat="61.020005" lon="25.772434">
<time>2020-09-13T11:39:47Z</time>
</trkpt>
<trkpt lat="61.019961" lon="25.77242">
<time>2020-09-13T11:39:48Z</time>
</trkpt>
<trkpt lat="61.019915" lon="25.772408">
<time>2020-09-13T11:39:49Z</time>
</trkpt>
<trkpt lat="61.019874" lon="25.772403">
<time>2020-09-13T11:39:50Z</time>
</trkpt>
<trkpt lat="61.019837" lon="25.772404">
<time>2020-09-13T11:39:51Z</time>
</trkpt>
<trkpt lat="61.019803" lon="25.772407">
<time>2020-09-13T11:39:52Z</time>
</trkpt>
<trkpt lat="61.019772" lon="25.772402">
<time>2020-09-13T11:39:53Z</time>
</trkpt>
<trkpt lat="61.019743" lon="25.772393">
<time>2020-09-13T11:39:54Z</time>
</trkpt>
<trkpt lat="61.019713" lon="25.772383">
<time>2020-09-13T11:39:55Z</time>
</trkpt>
<trkpt lat="61.019683" lon="25.772378">
<time>2020-09-13T11:39:56Z</time>
</trkpt>
<trkpt lat="61.019649" lon="25.772362">
<time>2020-09-13T11:39:57Z</time>
</trkpt>
<trkpt lat="61.019615" lon="25.772347">
<time>2020-09-13T11:39:58Z</time>
</trkpt>
<trkpt lat="61.019581" lon="25.772326">
<time>2020-09-13T11:39:59Z</time>
</trkpt>
<trkpt lat="61.019549" lon="25.772302">
<time>2020-09-13T11:40:00Z</time>
</trkpt>
<trkpt lat="61.019519" lon="25.772256">
<time>2020-09-13T11:40:01Z</time>
</trkpt>
<trkpt lat="61.019494" lon="25.772188">
<time>2020-09-13T11:40:02Z</time>
</trkpt>
<trkpt lat="61.019472" lon="25.772116">
<time>2020-09-13T11:40:03Z</time>
</trkpt>
<trkpt lat="61.019462" lon="25.772068">
<time>2020-09-13T11:40:04Z</time>
</trkpt>
<trkpt lat="61.019451" lon="25.772051">
<time>2020-09-13T11:40:05Z</time>
</trkpt>
<trkpt lat="61.01944" lon="25.772048">
<time>2020-09-13T11:40:06Z</time>
</trkpt>
<trkpt lat="61.019419" lon="25.77205">
<time>2020-09-13T11:40:07Z</time>
</trkpt>
<trkpt lat="61.019397" lon="25.772055">
<time>2020-09-13T11:40:08Z</time>
</trkpt>
<trkpt lat="61.019371" lon="25.772069">
<time>2020-09-13T11:40:09Z</time>
</trkpt>
<trkpt lat="61.019346" lon="25.772086">
<time>2020-09-13T11:40:10Z</time>
</trkpt>
<trkpt lat="61.019321" lon="25.772115">
<time>2020-09-13T11:40:11Z</time>
</trkpt>
<trkpt lat="61.019301" lon="25.772149">
<time>2020-09-13T11:40:12Z</time>
</trkpt>
<trkpt lat="61.019278" lon="25.77219">
<time>2020-09-13T11:40:13Z</time>
</trkpt>
<trkpt lat="61.019258" lon="25.772223">
<time>2020-09-13T11:40:14Z</time>
</trkpt>
<trkpt lat="61.01924" lon="25.772247">
<time>2020-09-13T11:40:15Z</time>
</trkpt>
<trkpt lat="61.019226" lon="25.772263">
<time>2020-09-13T11:40:16Z</time>
</trkpt>
<trkpt lat="61.019213" lon="25.772275">
<time>2020-09-13T11:40:17Z</time>
</trkpt>
<trkpt lat="61.019203" lon="25.772284">
<time>2020-09-13T11:40:18Z</time>
</trkpt>
<trkpt lat="61.019197" lon="25.772287">
<time>2020-09-13T11:40:19Z</time>
</trkpt>
<trkpt lat="61.01919" lon="25.77229">
<time>2020-09-13T11:40:20Z</time>
</trkpt>
<trkpt lat="61.019178" lon="25.772296">
<time>2020-09-13T11:40:21Z</time>
</trkpt>
<trkpt lat="61.019161" lon="25.772306">
<time>2020-09-13T11:40:22Z</time>
</trkpt>
<trkpt lat="61.01914" lon="25.772319">
<time>2020-09-13T11:40:23Z</time>
</trkpt>
<trkpt lat="61.019117" lon="25.772329">
<time>2020-09-13T11:40:24Z</time>
</trkpt>
<trkpt lat="61.019093" lon="25.772339">
<time>2020-09-13T11:40:25Z</time>
</trkpt>
<trkpt lat="61.019068" lon="25.772353">
<time>2020-09-13T11:40:26Z</time>
</trkpt>
<trkpt lat="61.019039" lon="25.772375">
<time>2020-09-13T11:40:27Z</time>
</trkpt>
<trkpt lat="61.01901" lon="25.772398">
<time>2020-09-13T11:40:28Z</time>
</trkpt>
<trkpt lat="61.018981" lon="25.772414">
<time>2020-09-13T11:40:29Z</time>
</trkpt>
<trkpt lat="61.018951" lon="25.772422">
<time>2020-09-13T11:40:30Z</time>
</trkpt>
<trkpt lat="61.018917" lon="25.772423">
<time>2020-09-13T11:40:31Z</time>
</trkpt>
<trkpt lat="61.01888" lon="25.77242">
<time>2020-09-13T11:40:32Z</time>
</trkpt>
<trkpt lat="61.018841" lon="25.772416">
<time>2020-09-13T11:40:33Z</time>
</trkpt>
<trkpt lat="61.0188" lon="25.772418">
<time>2020-09-13T11:40:34Z</time>
</trkpt>
<trkpt lat="61.018759" lon="25.772436">
<time>2020-09-13T11:40:35Z</time>
</trkpt>
<trkpt lat="61.018724" lon="25.772477">
<time>2020-09-13T11:40:36Z</time>
</trkpt>
<trkpt lat="61.01871" lon="25.772525">
<time>2020-09-13T11:40:37Z</time>
</trkpt>
<trkpt lat="61.01871" lon="25.772549">
<time>2020-09-13T11:40:38Z</time>
</trkpt>
<trkpt lat="61.018709" lon="25.772541">
<time>2020-09-13T11:40:39Z</time>
</trkpt>
<trkpt lat="61.018699" lon="25.772525">
<time>2020-09-13T11:40:40Z</time>
</trkpt>
<trkpt lat="61.018686" lon="25.772525">
<time>2020-09-13T11:40:41Z</time>
</trkpt>
<trkpt lat="61.018678" lon="25.772538">
<time>2020-09-13T11:40:42Z</time>
</trkpt>
<trkpt lat="61.01867" lon="25.772561">
<time>2020-09-13T11:40:43Z</time>
</trkpt>
<trkpt lat="61.018663" lon="25.772592">
<time>2020-09-13T11:40:44Z</time>
</trkpt>
<trkpt lat="61.018653" lon="25.772658">
<time>2020-09-13T11:40:45Z</time>
</trkpt>
<trkpt lat="61.018642" lon="25.772736">
<time>2020-09-13T11:40:46Z</time>
</trkpt>
<trkpt lat="61.018629" lon="25.772823">
<time>2020-09-13T11:40:47Z</time>
</trkpt>
<trkpt lat="61.018616" lon="25.772892">
<time>2020-09-13T11:40:48Z</time>
</trkpt>
<trkpt lat="61.018602" lon="25.772956">
<time>2020-09-13T11:40:49Z</time>
</trkpt>
<trkpt lat="61.018588" lon="25.773016">
<time>2020-09-13T11:40:50Z</time>
</trkpt>
<trkpt lat="61.018575" lon="25.773074">
<time>2020-09-13T11:40:51Z</time>
</trkpt>
<trkpt lat="61.018565" lon="25.77314">
<time>2020-09-13T11:40:52Z</time>
</trkpt>
<trkpt lat="61.018553" lon="25.773215">
<time>2020-09-13T11:40:53Z</time>
</trkpt>
<trkpt lat="61.018541" lon="25.773294">
<time>2020-09-13T11:40:54Z</time>
</trkpt>
<trkpt lat="61.018526" lon="25.773365">
<time>2020-09-13T11:40:55Z</time>
</trkpt>
<trkpt lat="61.018513" lon="25.773431">
<time>2020-09-13T11:40:56Z</time>
</trkpt>
<trkpt lat="61.018503" lon="25.7735">
<time>2020-09-13T11:40:57Z</time>
</trkpt>
<trkpt lat="61.018496" lon="25.773576">
<time>2020-09-13T11:40:58Z</time>
</trkpt>
<trkpt lat="61.018491" lon="25.773655">
<time>2020-09-13T11:40:59Z</time>
</trkpt>
<trkpt lat="61.018489" lon="25.773734">
<time>2020-09-13T11:41:00Z</time>
</trkpt>
<trkpt lat="61.018488" lon="25.77381">
<time>2020-09-13T11:41:01Z</time>
</trkpt>
<trkpt lat="61.018487" lon="25.773886">
<time>2020-09-13T11:41:02Z</time>
</trkpt>
<trkpt lat="61.018482" lon="25.773962">
<time>2020-09-13T11:41:03Z</time>
</trkpt>
<trkpt lat="61.018477" lon="25.774039">
<time>2020-09-13T11:41:04Z</time>
</trkpt>
<trkpt lat="61.018472" lon="25.774116">
<time>2020-09-13T11:41:05Z</time>
</trkpt>
<trkpt lat="61.018465" lon="25.774193">
<time>2020-09-13T11:41:06Z</time>
</trkpt>
<trkpt lat="61.018459" lon="25.774271">
<time>2020-09-13T11:41:07Z</time>
</trkpt>
<trkpt lat="61.018449" lon="25.774349">
<time>2020-09-13T11:41:08Z</time>
</trkpt>
<trkpt lat="61.018437" lon="25.774423">
<time>2020-09-13T11:41:09Z</time>
</trkpt>
<trkpt lat="61.018418" lon="25.774499">
<time>2020-09-13T11:41:10Z</time>
</trkpt>
<trkpt lat="61.018397" lon="25.774574">
<time>2020-09-13T11:41:11Z</time>
</trkpt>
<trkpt lat="61.018372" lon="25.774646">
<time>2020-09-13T11:41:12Z</time>
</trkpt>
<trkpt lat="61.018348" lon="25.774707">
<time>2020-09-13T11:41:13Z</time>
</trkpt>
<trkpt lat="61.018327" lon="25.774765">
<time>2020-09-13T11:41:14Z</time>
</trkpt>
<trkpt lat="61.018309" lon="25.774824">
<time>2020-09-13T11:41:15Z</time>
</trkpt>
<trkpt lat="61.018293" lon="25.774885">
<time>2020-09-13T11:41:16Z</time>
</trkpt>
<trkpt lat="61.018277" lon="25.774946">
<time>2020-09-13T11:41:17Z</time>
</trkpt>
<trkpt lat="61.018255" lon="25.775002">
<time>2020-09-13T11:41:18Z</time>
</trkpt>
<trkpt lat="61.018226" lon="25.775052">
<time>2020-09-13T11:41:19Z</time>
</trkpt>
<trkpt lat="61.018194" lon="25.775093">
<time>2020-09-13T11:41:20Z</time>
</trkpt>
<trkpt lat="61.018171" lon="25.775137">
<time>2020-09-13T11:41:21Z</time>
</trkpt>
<trkpt lat="61.018157" lon="25.775189">
<time>2020-09-13T11:41:22Z</time>
</trkpt>
<trkpt lat="61.018148" lon="25.775244">
<time>2020-09-13T11:41:23Z</time>
</trkpt>
<trkpt lat="61.018142" lon="25.775296">
<time>2020-09-13T11:41:24Z</time>
</trkpt>
<trkpt lat="61.018137" lon="25.775339">
<time>2020-09-13T11:41:25Z</time>
</trkpt>
<trkpt lat="61.018137" lon="25.775381">
<time>2020-09-13T11:41:26Z</time>
</trkpt>
<trkpt lat="61.01814" lon="25.775429">
<time>2020-09-13T11:41:27Z</time>
</trkpt>
<trkpt lat="61.018144" lon="25.775486">
<time>2020-09-13T11:41:28Z</time>
</trkpt>
<trkpt lat="61.018147" lon="25.775548">
<time>2020-09-13T11:41:29Z</time>
</trkpt>
<trkpt lat="61.018149" lon="25.775614">
<time>2020-09-13T11:41:30Z</time>
</trkpt>
<trkpt lat="61.018148" lon="25.775676">
<time>2020-09-13T11:41:31Z</time>
</trkpt>
<trkpt lat="61.018128" lon="25.775727">
<time>2020-09-13T11:41:32Z</time>
</trkpt>
<trkpt lat="61.018097" lon="25.775771">
<time>2020-09-13T11:41:33Z</time>
</trkpt>
<trkpt lat="61.018056" lon="25.775816">
<time>2020-09-13T11:41:34Z</time>
</trkpt>
<trkpt lat="61.018021" lon="25.775876">
<time>2020-09-13T11:41:35Z</time>
</trkpt>
<trkpt lat="61.017985" lon="25.775944">
<time>2020-09-13T11:41:36Z</time>
</trkpt>
<trkpt lat="61.017947" lon="25.77602">
<time>2020-09-13T11:41:37Z</time>
</trkpt>
<trkpt lat="61.017907" lon="25.776093">
<time>2020-09-13T11:41:38Z</time>
</trkpt>
<trkpt lat="61.017864" lon="25.776161">
<time>2020-09-13T11:41:39Z</time>
</trkpt>
<trkpt lat="61.017816" lon="25.776223">
<time>2020-09-13T11:41:40Z</time>
</trkpt>
<trkpt lat="61.017763" lon="25.776282">
<time>2020-09-13T11:41:41Z</time>
</trkpt>
<trkpt lat="61.017708" lon="25.776341">
<time>2020-09-13T11:41:42Z</time>
</trkpt>
<trkpt lat="61.017652" lon="25.776402">
<time>2020-09-13T11:41:43Z</time>
</trkpt>
<trkpt lat="61.017595" lon="25.776464">
<time>2020-09-13T11:41:44Z</time>
</trkpt>
<trkpt lat="61.017533" lon="25.77653">
<time>2020-09-13T11:41:45Z</time>
</trkpt>
<trkpt lat="61.017469" lon="25.776613">
<time>2020-09-13T11:41:46Z</time>
</trkpt>
<trkpt lat="61.017408" lon="25.776712">
<time>2020-09-13T11:41:47Z</time>
</trkpt>
<trkpt lat="61.017353" lon="25.776826">
<time>2020-09-13T11:41:48Z</time>
</trkpt>
<trkpt lat="61.017301" lon="25.776934">
<time>2020-09-13T11:41:49Z</time>
</trkpt>
<trkpt lat="61.017246" lon="25.777037">
<time>2020-09-13T11:41:50Z</time>
</trkpt>
<trkpt lat="61.01719" lon="25.777134">
<time>2020-09-13T11:41:51Z</time>
</trkpt>
<trkpt lat="61.017131" lon="25.777225">
<time>2020-09-13T11:41:52Z</time>
</trkpt>
<trkpt lat="61.01707" lon="25.777317">
<time>2020-09-13T11:41:53Z</time>
</trkpt>
<trkpt lat="61.017004" lon="25.777406">
<time>2020-09-13T11:41:54Z</time>
</trkpt>
<trkpt lat="61.016928" lon="25.777478">
<time>2020-09-13T11:41:55Z</time>
</trkpt>
<trkpt lat="61.016849" lon="25.777537">
<time>2020-09-13T11:41:56Z</time>
</trkpt>
<trkpt lat="61.016771" lon="25.77758">
<time>2020-09-13T11:41:57Z</time>
</trkpt>
<trkpt lat="61.016699" lon="25.777629">
<time>2020-09-13T11:41:58Z</time>
</trkpt>
<trkpt lat="61.016627" lon="25.777688">
<time>2020-09-13T11:41:59Z</time>
</trkpt>
<trkpt lat="61.016552" lon="25.777761">
<time>2020-09-13T11:42:00Z</time>
</trkpt>
<trkpt lat="61.016477" lon="25.777837">
<time>2020-09-13T11:42:01Z</time>
</trkpt>
<trkpt lat="61.0164" lon="25.777907">
<time>2020-09-13T11:42:02Z</time>
</trkpt>
<trkpt lat="61.016323" lon="25.777967">
<time>2020-09-13T11:42:03Z</time>
</trkpt>
<trkpt lat="61.016243" lon="25.778013">
<time>2020-09-13T11:42:04Z</time>
</trkpt>
<trkpt lat="61.01616" lon="25.778035">
<time>2020-09-13T11:42:05Z</time>
</trkpt>
<trkpt lat="61.016074" lon="25.77803">
<time>2020-09-13T11:42:06Z</time>
</trkpt>
<trkpt lat="61.015988" lon="25.778001">
<time>2020-09-13T11:42:07Z</time>
</trkpt>
<trkpt lat="61.015902" lon="25.777954">
<time>2020-09-13T11:42:08Z</time>
</trkpt>
<trkpt lat="61.01582" lon="25.777885">
<time>2020-09-13T11:42:09Z</time>
</trkpt>
<trkpt lat="61.015741" lon="25.777795">
<time>2020-09-13T11:42:10Z</time>
</trkpt>
<trkpt lat="61.015668" lon="25.777688">
<time>2020-09-13T11:42:11Z</time>
</trkpt>
<trkpt lat="61.0156" lon="25.77757">
<time>2020-09-13T11:42:12Z</time>
</trkpt>
<trkpt lat="61.01554" lon="25.777438">
<time>2020-09-13T11:42:13Z</time>
</trkpt>
<trkpt lat="61.015492" lon="25.777293">
<time>2020-09-13T11:42:14Z</time>
</trkpt>
<trkpt lat="61.015448" lon="25.777153">
<time>2020-09-13T11:42:15Z</time>
</trkpt>
<trkpt lat="61.015403" lon="25.777037">
<time>2020-09-13T11:42:16Z</time>
</trkpt>
<trkpt lat="61.015349" lon="25.776962">
<time>2020-09-13T11:42:17Z</time>
</trkpt>
<trkpt lat="61.015302" lon="25.776937">
<time>2020-09-13T11:42:18Z</time>
</trkpt>
<trkpt lat="61.015267" lon="25.776965">
<time>2020-09-13T11:42:19Z</time>
</trkpt>
<trkpt lat="61.015247" lon="25.777027">
<time>2020-09-13T11:42:20Z</time>
</trkpt>
<trkpt lat="61.015227" lon="25.777109">
<time>2020-09-13T11:42:21Z</time>
</trkpt>
<trkpt lat="61.015196" lon="25.777227">
<time>2020-09-13T11:42:22Z</time>
</trkpt>
<trkpt lat="61.015159" lon="25.777368">
<time>2020-09-13T11:42:23Z</time>
</trkpt>
<trkpt lat="61.015119" lon="25.777524">
<time>2020-09-13T11:42:24Z</time>
</trkpt>
<trkpt lat="61.015083" lon="25.777668">
<time>2020-09-13T11:42:25Z</time>
</trkpt>
<trkpt lat="61.015047" lon="25.777816">
<time>2020-09-13T11:42:26Z</time>
</trkpt>
<trkpt lat="61.01501" lon="25.777965">
<time>2020-09-13T11:42:27Z</time>
</trkpt>
<trkpt lat="61.014971" lon="25.778115">
<time>2020-09-13T11:42:28Z</time>
</trkpt>
<trkpt lat="61.014927" lon="25.778267">
<time>2020-09-13T11:42:29Z</time>
</trkpt>
<trkpt lat="61.014881" lon="25.77842">
<time>2020-09-13T11:42:30Z</time>
</trkpt>
<trkpt lat="61.014836" lon="25.778578">
<time>2020-09-13T11:42:31Z</time>
</trkpt>
<trkpt lat="61.014792" lon="25.778739">
<time>2020-09-13T11:42:32Z</time>
</trkpt>
<trkpt lat="61.014748" lon="25.778903">
<time>2020-09-13T11:42:33Z</time>
</trkpt>
<trkpt lat="61.014702" lon="25.779065">
<time>2020-09-13T11:42:34Z</time>
</trkpt>
<trkpt lat="61.014655" lon="25.779226">
<time>2020-09-13T11:42:35Z</time>
</trkpt>
<trkpt lat="61.014611" lon="25.779388">
<time>2020-09-13T11:42:36Z</time>
</trkpt>
<trkpt lat="61.014567" lon="25.779551">
<time>2020-09-13T11:42:37Z</time>
</trkpt>
<trkpt lat="61.014523" lon="25.779712">
<time>2020-09-13T11:42:38Z</time>
</trkpt>
<trkpt lat="61.014476" lon="25.779869">
<time>2020-09-13T11:42:39Z</time>
</trkpt>
<trkpt lat="61.014429" lon="25.780024">
<time>2020-09-13T11:42:40Z</time>
</trkpt>
<trkpt lat="61.014383" lon="25.780179">
<time>2020-09-13T11:42:41Z</time>
</trkpt>
<trkpt lat="61.014336" lon="25.780334">
<time>2020-09-13T11:42:42Z</time>
</trkpt>
<trkpt lat="61.014289" lon="25.780492">
<time>2020-09-13T11:42:43Z</time>
</trkpt>
<trkpt lat="61.014239" lon="25.780651">
<time>2020-09-13T11:42:44Z</time>
</trkpt>
<trkpt lat="61.014187" lon="25.780812">
<time>2020-09-13T11:42:45Z</time>
</trkpt>
<trkpt lat="61.01413" lon="25.780969">
<time>2020-09-13T11:42:46Z</time>
</trkpt>
<trkpt lat="61.014066" lon="25.781119">
<time>2020-09-13T11:42:47Z</time>
</trkpt>
<trkpt lat="61.013994" lon="25.78126">
<time>2020-09-13T11:42:48Z</time>
</trkpt>
<trkpt lat="61.013918" lon="25.781394">
<time>2020-09-13T11:42:49Z</time>
</trkpt>
<trkpt lat="61.01384" lon="25.781523">
<time>2020-09-13T11:42:50Z</time>
</trkpt>
<trkpt lat="61.013761" lon="25.781649">
<time>2020-09-13T11:42:51Z</time>
</trkpt>
<trkpt lat="61.01368" lon="25.781768">
<time>2020-09-13T11:42:52Z</time>
</trkpt>
<trkpt lat="61.013599" lon="25.781881">
<time>2020-09-13T11:42:53Z</time>
</trkpt>
<trkpt lat="61.01352" lon="25.781982">
<time>2020-09-13T11:42:54Z</time>
</trkpt>
<trkpt lat="61.013439" lon="25.782074">
<time>2020-09-13T11:42:55Z</time>
</trkpt>
<trkpt lat="61.013355" lon="25.782155">
<time>2020-09-13T11:42:56Z</time>
</trkpt>
<trkpt lat="61.013268" lon="25.782221">
<time>2020-09-13T11:42:57Z</time>
</trkpt>
<trkpt lat="61.013177" lon="25.782276">
<time>2020-09-13T11:42:58Z</time>
</trkpt>
<trkpt lat="61.013086" lon="25.782323">
<time>2020-09-13T11:42:59Z</time>
</trkpt>
<trkpt lat="61.012998" lon="25.782372">
<time>2020-09-13T11:43:00Z</time>
</trkpt>
<trkpt lat="61.012912" lon="25.782423">
<time>2020-09-13T11:43:01Z</time>
</trkpt>
<trkpt lat="61.012826" lon="25.78247">
<time>2020-09-13T11:43:02Z</time>
</trkpt>
<trkpt lat="61.012742" lon="25.782514">
<time>2020-09-13T11:43:03Z</time>
</trkpt>
<trkpt lat="61.01266" lon="25.782551">
<time>2020-09-13T11:43:04Z</time>
</trkpt>
<trkpt lat="61.012582" lon="25.782588">
<time>2020-09-13T11:43:05Z</time>
</trkpt>
<trkpt lat="61.01251" lon="25.782632">
<time>2020-09-13T11:43:06Z</time>
</trkpt>
<trkpt lat="61.012464" lon="25.782723">
<time>2020-09-13T11:43:07Z</time>
</trkpt>
<trkpt lat="61.012432" lon="25.782849">
<time>2020-09-13T11:43:08Z</time>
</trkpt>
<trkpt lat="61.012427" lon="25.782995">
<time>2020-09-13T11:43:09Z</time>
</trkpt>
<trkpt lat="61.012428" lon="25.783115">
<time>2020-09-13T11:43:10Z</time>
</trkpt>
<trkpt lat="61.012442" lon="25.783229">
<time>2020-09-13T11:43:11Z</time>
</trkpt>
<trkpt lat="61.012464" lon="25.783351">
<time>2020-09-13T11:43:12Z</time>
</trkpt>
<trkpt lat="61.012496" lon="25.783484">
<time>2020-09-13T11:43:13Z</time>
</trkpt>
<trkpt lat="61.012537" lon="25.783622">
<time>2020-09-13T11:43:14Z</time>
</trkpt>
<trkpt lat="61.012576" lon="25.783761">
<time>2020-09-13T11:43:15Z</time>
</trkpt>
<trkpt lat="61.012614" lon="25.783903">
<time>2020-09-13T11:43:16Z</time>
</trkpt>
<trkpt lat="61.012656" lon="25.784043">
<time>2020-09-13T11:43:17Z</time>
</trkpt>
<trkpt lat="61.012701" lon="25.784184">
<time>2020-09-13T11:43:18Z</time>
</trkpt>
<trkpt lat="61.012747" lon="25.784321">
<time>2020-09-13T11:43:19Z</time>
</trkpt>
<trkpt lat="61.012796" lon="25.784446">
<time>2020-09-13T11:43:20Z</time>
</trkpt>
<trkpt lat="61.012852" lon="25.784557">
<time>2020-09-13T11:43:21Z</time>
</trkpt>
<trkpt lat="61.012914" lon="25.784656">
<time>2020-09-13T11:43:22Z</time>
</trkpt>
<trkpt lat="61.012979" lon="25.784751">
<time>2020-09-13T11:43:23Z</time>
</trkpt>
<trkpt lat="61.013047" lon="25.784846">
<time>2020-09-13T11:43:24Z</time>
</trkpt>
<trkpt lat="61.013112" lon="25.784948">
<time>2020-09-13T11:43:25Z</time>
</trkpt>
<trkpt lat="61.01317" lon="25.785054">
<time>2020-09-13T11:43:26Z</time>
</trkpt>
<trkpt lat="61.013226" lon="25.785159">
<time>2020-09-13T11:43:27Z</time>
</trkpt>
<trkpt lat="61.013283" lon="25.785253">
<time>2020-09-13T11:43:28Z</time>
</trkpt>
<trkpt lat="61.013346" lon="25.78534">
<time>2020-09-13T11:43:29Z</time>
</trkpt>
<trkpt lat="61.013411" lon="25.785427">
<time>2020-09-13T11:43:30Z</time>
</trkpt>
<trkpt lat="61.013476" lon="25.785518">
<time>2020-09-13T11:43:31Z</time>
</trkpt>
<trkpt lat="61.013541" lon="25.785614">
<time>2020-09-13T11:43:32Z</time>
</trkpt>
<trkpt lat="61.013605" lon="25.785714">
<time>2020-09-13T11:43:33Z</time>
</trkpt>
<trkpt lat="61.013668" lon="25.785815">
<time>2020-09-13T11:43:34Z</time>
</trkpt>
<trkpt lat="61.013731" lon="25.785917">
<time>2020-09-13T11:43:35Z</time>
</trkpt>
<trkpt lat="61.013791" lon="25.786024">
<time>2020-09-13T11:43:36Z</time>
</trkpt>
<trkpt lat="61.013842" lon="25.786148">
<time>2020-09-13T11:43:37Z</time>
</trkpt>
<trkpt lat="61.013881" lon="25.786288">
<time>2020-09-13T11:43:38Z</time>
</trkpt>
<trkpt lat="61.01391" lon="25.786436">
<time>2020-09-13T11:43:39Z</time>
</trkpt>
<trkpt lat="61.013933" lon="25.786583">
<time>2020-09-13T11:43:40Z</time>
</trkpt>
<trkpt lat="61.013953" lon="25.786726">
<time>2020-09-13T11:43:41Z</time>
</trkpt>
<trkpt lat="61.013971" lon="25.786866">
<time>2020-09-13T11:43:42Z</time>
</trkpt>
<trkpt lat="61.013988" lon="25.787001">
<time>2020-09-13T11:43:43Z</time>
</trkpt>
<trkpt lat="61.014002" lon="25.787128">
<time>2020-09-13T11:43:44Z</time>
</trkpt>
<trkpt lat="61.014003" lon="25.78725">
<time>2020-09-13T11:43:45Z</time>
</trkpt>
<trkpt lat="61.013994" lon="25.787362">
<time>2020-09-13T11:43:46Z</time>
</trkpt>
<trkpt lat="61.013967" lon="25.787449">
<time>2020-09-13T11:43:47Z</time>
</trkpt>
<trkpt lat="61.013941" lon="25.787517">
<time>2020-09-13T11:43:48Z</time>
</trkpt>
<trkpt lat="61.013909" lon="25.78756">
<time>2020-09-13T11:43:49Z</time>
</trkpt>
<trkpt lat="61.013881" lon="25.78758">
<time>2020-09-13T11:43:50Z</time>
</trkpt>
<trkpt lat="61.013844" lon="25.787568">
<time>2020-09-13T11:43:51Z</time>
</trkpt>
<trkpt lat="61.0138" lon="25.787543">
<time>2020-09-13T11:43:52Z</time>
</trkpt>
<trkpt lat="61.01375" lon="25.787524">
<time>2020-09-13T11:43:53Z</time>
</trkpt>
<trkpt lat="61.013695" lon="25.787509">
<time>2020-09-13T11:43:54Z</time>
</trkpt>
<trkpt lat="61.013641" lon="25.787472">
<time>2020-09-13T11:43:55Z</time>
</trkpt>
<trkpt lat="61.013591" lon="25.787425">
<time>2020-09-13T11:43:56Z</time>
</trkpt>
<trkpt lat="61.01355" lon="25.787373">
<time>2020-09-13T11:43:57Z</time>
</trkpt>
<trkpt lat="61.013519" lon="25.787332">
<time>2020-09-13T11:43:58Z</time>
</trkpt>
<trkpt lat="61.013495" lon="25.787255">
<time>2020-09-13T11:43:59Z</time>
</trkpt>
<trkpt lat="61.013469" lon="25.787158">
<time>2020-09-13T11:44:00Z</time>
</trkpt>
<trkpt lat="61.013429" lon="25.787043">
<time>2020-09-13T11:44:01Z</time>
</trkpt>
<trkpt lat="61.013377" lon="25.786945">
<time>2020-09-13T11:44:02Z</time>
</trkpt>
<trkpt lat="61.013324" lon="25.786864">
<time>2020-09-13T11:44:03Z</time>
</trkpt>
<trkpt lat="61.013278" lon="25.786795">
<time>2020-09-13T11:44:04Z</time>
</trkpt>
<trkpt lat="61.013239" lon="25.786743">
<time>2020-09-13T11:44:05Z</time>
</trkpt>
<trkpt lat="61.013206" lon="25.786702">
<time>2020-09-13T11:44:06Z</time>
</trkpt>
<trkpt lat="61.013191" lon="25.786684">
<time>2020-09-13T11:44:07Z</time>
</trkpt>
<trkpt lat="61.013187" lon="25.786682">
<time>2020-09-13T11:44:08Z</time>
</trkpt>
<trkpt lat="61.013182" lon="25.786706">
<time>2020-09-13T11:44:09Z</time>
</trkpt>
<trkpt lat="61.013172" lon="25.786774">
<time>2020-09-13T11:44:10Z</time>
</trkpt>
<trkpt lat="61.013163" lon="25.786868">
<time>2020-09-13T11:44:11Z</time>
</trkpt>
<trkpt lat="61.013166" lon="25.786962">
<time>2020-09-13T11:44:12Z</time>
</trkpt>
<trkpt lat="61.01318" lon="25.787027">
<time>2020-09-13T11:44:13Z</time>
</trkpt>
<trkpt lat="61.013203" lon="25.787076">
<time>2020-09-13T11:44:14Z</time>
</trkpt>
<trkpt lat="61.013248" lon="25.787114">
<time>2020-09-13T11:44:15Z</time>
</trkpt>
<trkpt lat="61.013311" lon="25.787148">
<time>2020-09-13T11:44:16Z</time>
</trkpt>
<trkpt lat="61.01339" lon="25.78718">
<time>2020-09-13T11:44:17Z</time>
</trkpt>
<trkpt lat="61.013461" lon="25.787215">
<time>2020-09-13T11:44:18Z</time>
</trkpt>
<trkpt lat="61.013532" lon="25.787253">
<time>2020-09-13T11:44:19Z</time>
</trkpt>
<trkpt lat="61.013599" lon="25.787297">
<time>2020-09-13T11:44:20Z</time>
</trkpt>
<trkpt lat="61.013664" lon="25.787342">
<time>2020-09-13T11:44:21Z</time>
</trkpt>
<trkpt lat="61.013725" lon="25.787375">
<time>2020-09-13T11:44:22Z</time>
</trkpt>
<trkpt lat="61.013786" lon="25.787388">
<time>2020-09-13T11:44:23Z</time>
</trkpt>
<trkpt lat="61.013843" lon="25.787378">
<time>2020-09-13T11:44:24Z</time>
</trkpt>
<trkpt lat="61.013897" lon="25.78733">
<time>2020-09-13T11:44:25Z</time>
</trkpt>
<trkpt lat="61.01394" lon="25.787242">
<time>2020-09-13T11:44:26Z</time>
</trkpt>
<trkpt lat="61.013964" lon="25.787121">
<time>2020-09-13T11:44:27Z</time>
</trkpt>
<trkpt lat="61.013957" lon="25.786996">
<time>2020-09-13T11:44:28Z</time>
</trkpt>
<trkpt lat="61.013935" lon="25.786872">
<time>2020-09-13T11:44:29Z</time>
</trkpt>
<trkpt lat="61.013914" lon="25.786749">
<time>2020-09-13T11:44:30Z</time>
</trkpt>
<trkpt lat="61.013903" lon="25.78662">
<time>2020-09-13T11:44:31Z</time>
</trkpt>
<trkpt lat="61.013892" lon="25.786485">
<time>2020-09-13T11:44:32Z</time>
</trkpt>
<trkpt lat="61.013876" lon="25.786347">
<time>2020-09-13T11:44:33Z</time>
</trkpt>
<trkpt lat="61.013847" lon="25.786209">
<time>2020-09-13T11:44:34Z</time>
</trkpt>
<trkpt lat="61.013805" lon="25.786076">
<time>2020-09-13T11:44:35Z</time>
</trkpt>
<trkpt lat="61.013754" lon="25.785947">
<time>2020-09-13T11:44:36Z</time>
</trkpt>
<trkpt lat="61.013699" lon="25.785825">
<time>2020-09-13T11:44:37Z</time>
</trkpt>
<trkpt lat="61.013641" lon="25.785708">
<time>2020-09-13T11:44:38Z</time>
</trkpt>
<trkpt lat="61.01358" lon="25.785597">
<time>2020-09-13T11:44:39Z</time>
</trkpt>
<trkpt lat="61.013519" lon="25.78549">
<time>2020-09-13T11:44:40Z</time>
</trkpt>
<trkpt lat="61.013459" lon="25.785385">
<time>2020-09-13T11:44:41Z</time>
</trkpt>
<trkpt lat="61.013398" lon="25.785281">
<time>2020-09-13T11:44:42Z</time>
</trkpt>
<trkpt lat="61.013336" lon="25.785178">
<time>2020-09-13T11:44:43Z</time>
</trkpt>
<trkpt lat="61.013274" lon="25.785076">
<time>2020-09-13T11:44:44Z</time>
</trkpt>
<trkpt lat="61.013212" lon="25.784973">
<time>2020-09-13T11:44:45Z</time>
</trkpt>
<trkpt lat="61.01315" lon="25.784872">
<time>2020-09-13T11:44:46Z</time>
</trkpt>
<trkpt lat="61.013088" lon="25.784771">
<time>2020-09-13T11:44:47Z</time>
</trkpt>
<trkpt lat="61.013026" lon="25.78467">
<time>2020-09-13T11:44:48Z</time>
</trkpt>
<trkpt lat="61.012964" lon="25.78457">
<time>2020-09-13T11:44:49Z</time>
</trkpt>
<trkpt lat="61.012902" lon="25.784471">
<time>2020-09-13T11:44:50Z</time>
</trkpt>
<trkpt lat="61.012843" lon="25.784364">
<time>2020-09-13T11:44:51Z</time>
</trkpt>
<trkpt lat="61.01279" lon="25.784248">
<time>2020-09-13T11:44:52Z</time>
</trkpt>
<trkpt lat="61.012744" lon="25.78412">
<time>2020-09-13T11:44:53Z</time>
</trkpt>
<trkpt lat="61.012704" lon="25.783989">
<time>2020-09-13T11:44:54Z</time>
</trkpt>
<trkpt lat="61.012667" lon="25.783855">
<time>2020-09-13T11:44:55Z</time>
</trkpt>
<trkpt lat="61.012632" lon="25.783722">
<time>2020-09-13T11:44:56Z</time>
</trkpt>
<trkpt lat="61.012596" lon="25.783589">
<time>2020-09-13T11:44:57Z</time>
</trkpt>
<trkpt lat="61.01256" lon="25.783457">
<time>2020-09-13T11:44:58Z</time>
</trkpt>
<trkpt lat="61.012522" lon="25.783325">
<time>2020-09-13T11:44:59Z</time>
</trkpt>
<trkpt lat="61.012485" lon="25.783194">
<time>2020-09-13T11:45:00Z</time>
</trkpt>
<trkpt lat="61.012449" lon="25.783062">
<time>2020-09-13T11:45:01Z</time>
</trkpt>
<trkpt lat="61.012418" lon="25.782929">
<time>2020-09-13T11:45:02Z</time>
</trkpt>
<trkpt lat="61.012403" lon="25.7828">
<time>2020-09-13T11:45:03Z</time>
</trkpt>
<trkpt lat="61.012398" lon="25.782676">
<time>2020-09-13T11:45:04Z</time>
</trkpt>
<trkpt lat="61.012398" lon="25.782565">
<time>2020-09-13T11:45:05Z</time>
</trkpt>
<trkpt lat="61.01239" lon="25.782463">
<time>2020-09-13T11:45:06Z</time>
</trkpt>
<trkpt lat="61.012378" lon="25.782372">
<time>2020-09-13T11:45:07Z</time>
</trkpt>
<trkpt lat="61.012364" lon="25.782282">
<time>2020-09-13T11:45:08Z</time>
</trkpt>
<trkpt lat="61.012346" lon="25.782197">
<time>2020-09-13T11:45:09Z</time>
</trkpt>
<trkpt lat="61.012321" lon="25.782114">
<time>2020-09-13T11:45:10Z</time>
</trkpt>
<trkpt lat="61.012286" lon="25.782029">
<time>2020-09-13T11:45:11Z</time>
</trkpt>
<trkpt lat="61.012251" lon="25.781934">
<time>2020-09-13T11:45:12Z</time>
</trkpt>
<trkpt lat="61.01222" lon="25.781827">
<time>2020-09-13T11:45:13Z</time>
</trkpt>
<trkpt lat="61.012194" lon="25.781718">
<time>2020-09-13T11:45:14Z</time>
</trkpt>
<trkpt lat="61.012166" lon="25.781611">
<time>2020-09-13T11:45:15Z</time>
</trkpt>
<trkpt lat="61.012138" lon="25.781508">
<time>2020-09-13T11:45:16Z</time>
</trkpt>
<trkpt lat="61.012116" lon="25.781408">
<time>2020-09-13T11:45:17Z</time>
</trkpt>
<trkpt lat="61.012094" lon="25.781317">
<time>2020-09-13T11:45:18Z</time>
</trkpt>
<trkpt lat="61.012065" lon="25.78123">
<time>2020-09-13T11:45:19Z</time>
</trkpt>
<trkpt lat="61.012028" lon="25.781143">
<time>2020-09-13T11:45:20Z</time>
</trkpt>
<trkpt lat="61.011992" lon="25.781047">
<time>2020-09-13T11:45:21Z</time>
</trkpt>
<trkpt lat="61.011959" lon="25.780944">
<time>2020-09-13T11:45:22Z</time>
</trkpt>
<trkpt lat="61.011932" lon="25.78083">
<time>2020-09-13T11:45:23Z</time>
</trkpt>
<trkpt lat="61.011918" lon="25.78071">
<time>2020-09-13T11:45:24Z</time>
</trkpt>
<trkpt lat="61.011913" lon="25.780581">
<time>2020-09-13T11:45:25Z</time>
</trkpt>
<trkpt lat="61.011908" lon="25.780454">
<time>2020-09-13T11:45:26Z</time>
</trkpt>
<trkpt lat="61.011887" lon="25.780325">
<time>2020-09-13T11:45:27Z</time>
</trkpt>
<trkpt lat="61.011854" lon="25.780197">
<time>2020-09-13T11:45:28Z</time>
</trkpt>
<trkpt lat="61.011822" lon="25.780061">
<time>2020-09-13T11:45:29Z</time>
</trkpt>
<trkpt lat="61.011799" lon="25.779918">
<time>2020-09-13T11:45:30Z</time>
</trkpt>
<trkpt lat="61.011786" lon="25.77977">
<time>2020-09-13T11:45:31Z</time>
</trkpt>
<trkpt lat="61.011775" lon="25.779621">
<time>2020-09-13T11:45:32Z</time>
</trkpt>
<trkpt lat="61.011764" lon="25.779474">
<time>2020-09-13T11:45:33Z</time>
</trkpt>
<trkpt lat="61.011754" lon="25.779325">
<time>2020-09-13T11:45:34Z</time>
</trkpt>
<trkpt lat="61.011745" lon="25.779174">
<time>2020-09-13T11:45:35Z</time>
</trkpt>
<trkpt lat="61.011734" lon="25.779022">
<time>2020-09-13T11:45:36Z</time>
</trkpt>
<trkpt lat="61.011719" lon="25.778869">
<time>2020-09-13T11:45:37Z</time>
</trkpt>
<trkpt lat="61.0117" lon="25.778715">
<time>2020-09-13T11:45:38Z</time>
</trkpt>
<trkpt lat="61.011676" lon="25.778562">
<time>2020-09-13T11:45:39Z</time>
</trkpt>
<trkpt lat="61.01165" lon="25.778406">
<time>2020-09-13T11:45:40Z</time>
</trkpt>
<trkpt lat="61.011626" lon="25.778249">
<time>2020-09-13T11:45:41Z</time>
</trkpt>
<trkpt lat="61.011601" lon="25.778091">
<time>2020-09-13T11:45:42Z</time>
</trkpt>
<trkpt lat="61.011574" lon="25.777935">
<time>2020-09-13T11:45:43Z</time>
</trkpt>
<trkpt lat="61.011542" lon="25.777781">
<time>2020-09-13T11:45:44Z</time>
</trkpt>
<trkpt lat="61.011508" lon="25.777626">
<time>2020-09-13T11:45:45Z</time>
</trkpt>
<trkpt lat="61.011473" lon="25.777469">
<time>2020-09-13T11:45:46Z</time>
</trkpt>
<trkpt lat="61.011434" lon="25.777309">
<time>2020-09-13T11:45:47Z</time>
</trkpt>
<trkpt lat="61.011392" lon="25.777149">
<time>2020-09-13T11:45:48Z</time>
</trkpt>
<trkpt lat="61.011344" lon="25.776991">
<time>2020-09-13T11:45:49Z</time>
</trkpt>
<trkpt lat="61.011289" lon="25.776836">
<time>2020-09-13T11:45:50Z</time>
</trkpt>
<trkpt lat="61.011229" lon="25.776688">
<time>2020-09-13T11:45:51Z</time>
</trkpt>
<trkpt lat="61.011166" lon="25.776543">
<time>2020-09-13T11:45:52Z</time>
</trkpt>
<trkpt lat="61.011107" lon="25.776402">
<time>2020-09-13T11:45:53Z</time>
</trkpt>
<trkpt lat="61.011051" lon="25.776257">
<time>2020-09-13T11:45:54Z</time>
</trkpt>
<trkpt lat="61.010999" lon="25.776106">
<time>2020-09-13T11:45:55Z</time>
</trkpt>
<trkpt lat="61.010956" lon="25.775942">
<time>2020-09-13T11:45:56Z</time>
</trkpt>
<trkpt lat="61.010929" lon="25.775763">
<time>2020-09-13T11:45:57Z</time>
</trkpt>
<trkpt lat="61.010918" lon="25.775575">
<time>2020-09-13T11:45:58Z</time>
</trkpt>
<trkpt lat="61.010915" lon="25.775381">
<time>2020-09-13T11:45:59Z</time>
</trkpt>
<trkpt lat="61.010911" lon="25.775185">
<time>2020-09-13T11:46:00Z</time>
</trkpt>
<trkpt lat="61.010906" lon="25.774987">
<time>2020-09-13T11:46:01Z</time>
</trkpt>
<trkpt lat="61.010902" lon="25.774787">
<time>2020-09-13T11:46:02Z</time>
</trkpt>
<trkpt lat="61.0109" lon="25.774587">
<time>2020-09-13T11:46:03Z</time>
</trkpt>
<trkpt lat="61.010898" lon="25.774386">
<time>2020-09-13T11:46:04Z</time>
</trkpt>
<trkpt lat="61.010897" lon="25.774186">
<time>2020-09-13T11:46:05Z</time>
</trkpt>
<trkpt lat="61.010901" lon="25.773989">
<time>2020-09-13T11:46:06Z</time>
</trkpt>
<trkpt lat="61.01091" lon="25.773796">
<time>2020-09-13T11:46:07Z</time>
</trkpt>
<trkpt lat="61.010923" lon="25.773608">
<time>2020-09-13T11:46:08Z</time>
</trkpt>
<trkpt lat="61.010939" lon="25.773423">
<time>2020-09-13T11:46:09Z</time>
</trkpt>
<trkpt lat="61.010956" lon="25.773242">
<time>2020-09-13T11:46:10Z</time>
</trkpt>
<trkpt lat="61.010973" lon="25.773066">
<time>2020-09-13T11:46:11Z</time>
</trkpt>
<trkpt lat="61.010988" lon="25.772893">
<time>2020-09-13T11:46:12Z</time>
</trkpt>
<trkpt lat="61.011003" lon="25.772725">
<time>2020-09-13T11:46:13Z</time>
</trkpt>
<trkpt lat="61.01102" lon="25.772562">
<time>2020-09-13T11:46:14Z</time>
</trkpt>
<trkpt lat="61.011031" lon="25.772408">
<time>2020-09-13T11:46:15Z</time>
</trkpt>
<trkpt lat="61.011031" lon="25.772269">
<time>2020-09-13T11:46:16Z</time>
</trkpt>
<trkpt lat="61.011017" lon="25.772141">
<time>2020-09-13T11:46:17Z</time>
</trkpt>
<trkpt lat="61.010987" lon="25.772036">
<time>2020-09-13T11:46:18Z</time>
</trkpt>
<trkpt lat="61.010939" lon="25.771958">
<time>2020-09-13T11:46:19Z</time>
</trkpt>
<trkpt lat="61.010879" lon="25.771905">
<time>2020-09-13T11:46:20Z</time>
</trkpt>
<trkpt lat="61.01081" lon="25.771864">
<time>2020-09-13T11:46:21Z</time>
</trkpt>
<trkpt lat="61.01074" lon="25.771831">
<time>2020-09-13T11:46:22Z</time>
</trkpt>
<trkpt lat="61.010667" lon="25.771804">
<time>2020-09-13T11:46:23Z</time>
</trkpt>
<trkpt lat="61.010593" lon="25.771776">
<time>2020-09-13T11:46:24Z</time>
</trkpt>
<trkpt lat="61.010523" lon="25.771736">
<time>2020-09-13T11:46:25Z</time>
</trkpt>
<trkpt lat="61.010458" lon="25.771689">
<time>2020-09-13T11:46:26Z</time>
</trkpt>
<trkpt lat="61.010397" lon="25.771636">
<time>2020-09-13T11:46:27Z</time>
</trkpt>
<trkpt lat="61.010343" lon="25.771579">
<time>2020-09-13T11:46:28Z</time>
</trkpt>
<trkpt lat="61.010296" lon="25.771522">
<time>2020-09-13T11:46:29Z</time>
</trkpt>
<trkpt lat="61.010251" lon="25.771461">
<time>2020-09-13T11:46:30Z</time>
</trkpt>
<trkpt lat="61.010204" lon="25.771396">
<time>2020-09-13T11:46:31Z</time>
</trkpt>
<trkpt lat="61.010151" lon="25.771323">
<time>2020-09-13T11:46:32Z</time>
</trkpt>
<trkpt lat="61.010095" lon="25.771248">
<time>2020-09-13T11:46:33Z</time>
</trkpt>
<trkpt lat="61.010035" lon="25.771175">
<time>2020-09-13T11:46:34Z</time>
</trkpt>
<trkpt lat="61.009979" lon="25.771087">
<time>2020-09-13T11:46:35Z</time>
</trkpt>
<trkpt lat="61.009932" lon="25.770977">
<time>2020-09-13T11:46:36Z</time>
</trkpt>
<trkpt lat="61.009907" lon="25.770836">
<time>2020-09-13T11:46:37Z</time>
</trkpt>
<trkpt lat="61.009894" lon="25.770682">
<time>2020-09-13T11:46:38Z</time>
</trkpt>
<trkpt lat="61.00989" lon="25.770524">
<time>2020-09-13T11:46:39Z</time>
</trkpt>
<trkpt lat="61.009884" lon="25.770364">
<time>2020-09-13T11:46:40Z</time>
</trkpt>
<trkpt lat="61.00988" lon="25.770201">
<time>2020-09-13T11:46:41Z</time>
</trkpt>
<trkpt lat="61.009875" lon="25.770032">
<time>2020-09-13T11:46:42Z</time>
</trkpt>
<trkpt lat="61.009867" lon="25.769859">
<time>2020-09-13T11:46:43Z</time>
</trkpt>
<trkpt lat="61.009851" lon="25.769685">
<time>2020-09-13T11:46:44Z</time>
</trkpt>
<trkpt lat="61.009818" lon="25.769522">
<time>2020-09-13T11:46:45Z</time>
</trkpt>
<trkpt lat="61.009765" lon="25.769387">
<time>2020-09-13T11:46:46Z</time>
</trkpt>
<trkpt lat="61.009695" lon="25.769281">
<time>2020-09-13T11:46:47Z</time>
</trkpt>
<trkpt lat="61.00962" lon="25.769193">
<time>2020-09-13T11:46:48Z</time>
</trkpt>
<trkpt lat="61.009546" lon="25.769106">
<time>2020-09-13T11:46:49Z</time>
</trkpt>
<trkpt lat="61.009473" lon="25.769021">
<time>2020-09-13T11:46:50Z</time>
</trkpt>
<trkpt lat="61.009399" lon="25.768938">
<time>2020-09-13T11:46:51Z</time>
</trkpt>
<trkpt lat="61.009326" lon="25.768854">
<time>2020-09-13T11:46:52Z</time>
</trkpt>
<trkpt lat="61.009256" lon="25.768762">
<time>2020-09-13T11:46:53Z</time>
</trkpt>
<trkpt lat="61.00919" lon="25.768666">
<time>2020-09-13T11:46:54Z</time>
</trkpt>
<trkpt lat="61.009124" lon="25.768574">
<time>2020-09-13T11:46:55Z</time>
</trkpt>
<trkpt lat="61.009057" lon="25.768495">
<time>2020-09-13T11:46:56Z</time>
</trkpt>
<trkpt lat="61.008986" lon="25.768437">
<time>2020-09-13T11:46:57Z</time>
</trkpt>
<trkpt lat="61.008912" lon="25.768393">
<time>2020-09-13T11:46:58Z</time>
</trkpt>
<trkpt lat="61.008833" lon="25.768362">
<time>2020-09-13T11:46:59Z</time>
</trkpt>
<trkpt lat="61.00875" lon="25.768337">
<time>2020-09-13T11:47:00Z</time>
</trkpt>
<trkpt lat="61.008659" lon="25.768337">
<time>2020-09-13T11:47:01Z</time>
</trkpt>
<trkpt lat="61.008567" lon="25.768356">
<time>2020-09-13T11:47:02Z</time>
</trkpt>
<trkpt lat="61.008473" lon="25.768394">
<time>2020-09-13T11:47:03Z</time>
</trkpt>
<trkpt lat="61.008384" lon="25.768441">
<time>2020-09-13T11:47:04Z</time>
</trkpt>
<trkpt lat="61.008302" lon="25.768502">
<time>2020-09-13T11:47:05Z</time>
</trkpt>
<trkpt lat="61.008227" lon="25.768548">
<time>2020-09-13T11:47:06Z</time>
</trkpt>
<trkpt lat="61.008165" lon="25.768558">
<time>2020-09-13T11:47:07Z</time>
</trkpt>
<trkpt lat="61.008125" lon="25.768552">
<time>2020-09-13T11:47:08Z</time>
</trkpt>
<trkpt lat="61.008105" lon="25.768543">
<time>2020-09-13T11:47:09Z</time>
</trkpt>
<trkpt lat="61.0081" lon="25.768552">
<time>2020-09-13T11:47:10Z</time>
</trkpt>
<trkpt lat="61.00809" lon="25.768561">
<time>2020-09-13T11:47:11Z</time>
</trkpt>
<trkpt lat="61.008079" lon="25.76859">
<time>2020-09-13T11:47:12Z</time>
</trkpt>
<trkpt lat="61.008065" lon="25.768631">
<time>2020-09-13T11:47:13Z</time>
</trkpt>
<trkpt lat="61.008055" lon="25.768685">
<time>2020-09-13T11:47:14Z</time>
</trkpt>
<trkpt lat="61.008046" lon="25.768742">
<time>2020-09-13T11:47:15Z</time>
</trkpt>
<trkpt lat="61.008036" lon="25.768804">
<time>2020-09-13T11:47:16Z</time>
</trkpt>
<trkpt lat="61.008027" lon="25.768868">
<time>2020-09-13T11:47:17Z</time>
</trkpt>
<trkpt lat="61.00802" lon="25.768944">
<time>2020-09-13T11:47:18Z</time>
</trkpt>
<trkpt lat="61.008017" lon="25.769038">
<time>2020-09-13T11:47:19Z</time>
</trkpt>
<trkpt lat="61.008014" lon="25.769163">
<time>2020-09-13T11:47:20Z</time>
</trkpt>
<trkpt lat="61.008009" lon="25.769297">
<time>2020-09-13T11:47:21Z</time>
</trkpt>
<trkpt lat="61.008007" lon="25.769428">
<time>2020-09-13T11:47:22Z</time>
</trkpt>
<trkpt lat="61.008012" lon="25.769539">
<time>2020-09-13T11:47:23Z</time>
</trkpt>
<trkpt lat="61.008031" lon="25.769637">
<time>2020-09-13T11:47:24Z</time>
</trkpt>
<trkpt lat="61.008058" lon="25.769729">
<time>2020-09-13T11:47:25Z</time>
</trkpt>
<trkpt lat="61.00808" lon="25.769823">
<time>2020-09-13T11:47:26Z</time>
</trkpt>
<trkpt lat="61.008086" lon="25.76992">
<time>2020-09-13T11:47:27Z</time>
</trkpt>
<trkpt lat="61.008076" lon="25.770002">
<time>2020-09-13T11:47:28Z</time>
</trkpt>
<trkpt lat="61.008061" lon="25.770054">
<time>2020-09-13T11:47:29Z</time>
</trkpt>
<trkpt lat="61.008046" lon="25.770076">
<time>2020-09-13T11:47:30Z</time>
</trkpt>
<trkpt lat="61.008022" lon="25.770068">
<time>2020-09-13T11:47:31Z</time>
</trkpt>
<trkpt lat="61.007978" lon="25.770041">
<time>2020-09-13T11:47:32Z</time>
</trkpt>
<trkpt lat="61.007917" lon="25.770005">
<time>2020-09-13T11:47:33Z</time>
</trkpt>
<trkpt lat="61.007853" lon="25.769978">
<time>2020-09-13T11:47:34Z</time>
</trkpt>
<trkpt lat="61.007795" lon="25.769955">
<time>2020-09-13T11:47:35Z</time>
</trkpt>
<trkpt lat="61.007744" lon="25.769916">
<time>2020-09-13T11:47:36Z</time>
</trkpt>
<trkpt lat="61.007696" lon="25.769828">
<time>2020-09-13T11:47:37Z</time>
</trkpt>
<trkpt lat="61.007665" lon="25.769697">
<time>2020-09-13T11:47:38Z</time>
</trkpt>
<trkpt lat="61.007647" lon="25.769555">
<time>2020-09-13T11:47:39Z</time>
</trkpt>
<trkpt lat="61.007634" lon="25.769435">
<time>2020-09-13T11:47:40Z</time>
</trkpt>
<trkpt lat="61.007609" lon="25.769336">
<time>2020-09-13T11:47:41Z</time>
</trkpt>
<trkpt lat="61.007573" lon="25.769244">
<time>2020-09-13T11:47:42Z</time>
</trkpt>
<trkpt lat="61.007524" lon="25.769172">
<time>2020-09-13T11:47:43Z</time>
</trkpt>
<trkpt lat="61.00747" lon="25.769113">
<time>2020-09-13T11:47:44Z</time>
</trkpt>
<trkpt lat="61.007412" lon="25.769063">
<time>2020-09-13T11:47:45Z</time>
</trkpt>
<trkpt lat="61.007357" lon="25.76901">
<time>2020-09-13T11:47:46Z</time>
</trkpt>
<trkpt lat="61.007306" lon="25.76895">
<time>2020-09-13T11:47:47Z</time>
</trkpt>
<trkpt lat="61.007257" lon="25.768886">
<time>2020-09-13T11:47:48Z</time>
</trkpt>
<trkpt lat="61.007209" lon="25.768815">
<time>2020-09-13T11:47:49Z</time>
</trkpt>
<trkpt lat="61.007162" lon="25.768739">
<time>2020-09-13T11:47:50Z</time>
</trkpt>
<trkpt lat="61.007114" lon="25.768665">
<time>2020-09-13T11:47:51Z</time>
</trkpt>
<trkpt lat="61.007065" lon="25.768595">
<time>2020-09-13T11:47:52Z</time>
</trkpt>
<trkpt lat="61.007014" lon="25.768531">
<time>2020-09-13T11:47:53Z</time>
</trkpt>
<trkpt lat="61.006966" lon="25.768463">
<time>2020-09-13T11:47:54Z</time>
</trkpt>
<trkpt lat="61.006919" lon="25.768392">
<time>2020-09-13T11:47:55Z</time>
</trkpt>
<trkpt lat="61.006871" lon="25.76832">
<time>2020-09-13T11:47:56Z</time>
</trkpt>
<trkpt lat="61.006821" lon="25.768252">
<time>2020-09-13T11:47:57Z</time>
</trkpt>
<trkpt lat="61.006775" lon="25.768179">
<time>2020-09-13T11:47:58Z</time>
</trkpt>
<trkpt lat="61.006734" lon="25.768101">
<time>2020-09-13T11:47:59Z</time>
</trkpt>
<trkpt lat="61.0067" lon="25.768019">
<time>2020-09-13T11:48:00Z</time>
</trkpt>
<trkpt lat="61.00667" lon="25.767942">
<time>2020-09-13T11:48:01Z</time>
</trkpt>
<trkpt lat="61.006642" lon="25.767872">
<time>2020-09-13T11:48:02Z</time>
</trkpt>
<trkpt lat="61.006613" lon="25.767811">
<time>2020-09-13T11:48:03Z</time>
</trkpt>
<trkpt lat="61.006582" lon="25.767757">
<time>2020-09-13T11:48:04Z</time>
</trkpt>
<trkpt lat="61.006554" lon="25.767716">
<time>2020-09-13T11:48:05Z</time>
</trkpt>
<trkpt lat="61.006532" lon="25.767694">
<time>2020-09-13T11:48:06Z</time>
</trkpt>
<trkpt lat="61.006514" lon="25.767679">
<time>2020-09-13T11:48:07Z</time>
</trkpt>
<trkpt lat="61.006496" lon="25.767665">
<time>2020-09-13T11:48:08Z</time>
</trkpt>
<trkpt lat="61.006476" lon="25.767643">
<time>2020-09-13T11:48:09Z</time>
</trkpt>
<trkpt lat="61.006457" lon="25.767621">
<time>2020-09-13T11:48:10Z</time>
</trkpt>
<trkpt lat="61.006438" lon="25.767597">
<time>2020-09-13T11:48:11Z</time>
</trkpt>
<trkpt lat="61.00642" lon="25.76757">
<time>2020-09-13T11:48:12Z</time>
</trkpt>
<trkpt lat="61.006404" lon="25.767538">
<time>2020-09-13T11:48:13Z</time>
</trkpt>
<trkpt lat="61.00639" lon="25.76751">
<time>2020-09-13T11:48:14Z</time>
</trkpt>
<trkpt lat="61.006371" lon="25.767482">
<time>2020-09-13T11:48:15Z</time>
</trkpt>
<trkpt lat="61.006346" lon="25.767455">
<time>2020-09-13T11:48:16Z</time>
</trkpt>
<trkpt lat="61.006318" lon="25.76742">
<time>2020-09-13T11:48:17Z</time>
</trkpt>
<trkpt lat="61.006295" lon="25.767383">
<time>2020-09-13T11:48:18Z</time>
</trkpt>
<trkpt lat="61.006277" lon="25.767345">
<time>2020-09-13T11:48:19Z</time>
</trkpt>
<trkpt lat="61.006255" lon="25.767311">
<time>2020-09-13T11:48:20Z</time>
</trkpt>
<trkpt lat="61.006227" lon="25.767279">
<time>2020-09-13T11:48:21Z</time>
</trkpt>
<trkpt lat="61.006194" lon="25.767246">
<time>2020-09-13T11:48:22Z</time>
</trkpt>
<trkpt lat="61.006162" lon="25.767212">
<time>2020-09-13T11:48:23Z</time>
</trkpt>
<trkpt lat="61.006134" lon="25.76718">
<time>2020-09-13T11:48:24Z</time>
</trkpt>
<trkpt lat="61.006103" lon="25.76715">
<time>2020-09-13T11:48:25Z</time>
</trkpt>
<trkpt lat="61.006067" lon="25.767123">
<time>2020-09-13T11:48:26Z</time>
</trkpt>
<trkpt lat="61.006027" lon="25.767103">
<time>2020-09-13T11:48:27Z</time>
</trkpt>
<trkpt lat="61.005986" lon="25.767083">
<time>2020-09-13T11:48:28Z</time>
</trkpt>
<trkpt lat="61.005949" lon="25.767061">
<time>2020-09-13T11:48:29Z</time>
</trkpt>
<trkpt lat="61.005912" lon="25.767056">
<time>2020-09-13T11:48:30Z</time>
</trkpt>
<trkpt lat="61.005881" lon="25.767072">
<time>2020-09-13T11:48:31Z</time>
</trkpt>
<trkpt lat="61.005868" lon="25.767128">
<time>2020-09-13T11:48:32Z</time>
</trkpt>
<trkpt lat="61.005867" lon="25.767195">
<time>2020-09-13T11:48:33Z</time>
</trkpt>
<trkpt lat="61.005867" lon="25.767272">
<time>2020-09-13T11:48:34Z</time>
</trkpt>
<trkpt lat="61.00586" lon="25.767344">
<time>2020-09-13T11:48:35Z</time>
</trkpt>
<trkpt lat="61.005852" lon="25.767428">
<time>2020-09-13T11:48:36Z</time>
</trkpt>
<trkpt lat="61.005846" lon="25.76753">
<time>2020-09-13T11:48:37Z</time>
</trkpt>
<trkpt lat="61.005841" lon="25.76765">
<time>2020-09-13T11:48:38Z</time>
</trkpt>
<trkpt lat="61.005834" lon="25.767775">
<time>2020-09-13T11:48:39Z</time>
</trkpt>
<trkpt lat="61.005824" lon="25.767903">
<time>2020-09-13T11:48:40Z</time>
</trkpt>
<trkpt lat="61.005811" lon="25.768028">
<time>2020-09-13T11:48:41Z</time>
</trkpt>
<trkpt lat="61.005799" lon="25.768161">
<time>2020-09-13T11:48:42Z</time>
</trkpt>
<trkpt lat="61.00579" lon="25.768302">
<time>2020-09-13T11:48:43Z</time>
</trkpt>
<trkpt lat="61.005782" lon="25.768451">
<time>2020-09-13T11:48:44Z</time>
</trkpt>
<trkpt lat="61.005775" lon="25.768597">
<time>2020-09-13T11:48:45Z</time>
</trkpt>
<trkpt lat="61.005769" lon="25.768742">
<time>2020-09-13T11:48:46Z</time>
</trkpt>
<trkpt lat="61.005765" lon="25.768887">
<time>2020-09-13T11:48:47Z</time>
</trkpt>
<trkpt lat="61.005764" lon="25.769034">
<time>2020-09-13T11:48:48Z</time>
</trkpt>
<trkpt lat="61.005764" lon="25.769183">
<time>2020-09-13T11:48:49Z</time>
</trkpt>
<trkpt lat="61.005764" lon="25.769334">
<time>2020-09-13T11:48:50Z</time>
</trkpt>
<trkpt lat="61.005766" lon="25.769485">
<time>2020-09-13T11:48:51Z</time>
</trkpt>
<trkpt lat="61.005768" lon="25.769636">
<time>2020-09-13T11:48:52Z</time>
</trkpt>
<trkpt lat="61.005771" lon="25.769788">
<time>2020-09-13T11:48:53Z</time>
</trkpt>
<trkpt lat="61.005772" lon="25.769935">
<time>2020-09-13T11:48:54Z</time>
</trkpt>
<trkpt lat="61.005769" lon="25.770081">
<time>2020-09-13T11:48:55Z</time>
</trkpt>
<trkpt lat="61.00576" lon="25.770225">
<time>2020-09-13T11:48:56Z</time>
</trkpt>
<trkpt lat="61.005745" lon="25.770371">
<time>2020-09-13T11:48:57Z</time>
</trkpt>
<trkpt lat="61.005718" lon="25.770519">
<time>2020-09-13T11:48:58Z</time>
</trkpt>
<trkpt lat="61.005669" lon="25.770658">
<time>2020-09-13T11:48:59Z</time>
</trkpt>
<trkpt lat="61.005615" lon="25.770783">
<time>2020-09-13T11:49:00Z</time>
</trkpt>
<trkpt lat="61.005561" lon="25.770888">
<time>2020-09-13T11:49:01Z</time>
</trkpt>
<trkpt lat="61.005516" lon="25.770983">
<time>2020-09-13T11:49:02Z</time>
</trkpt>
<trkpt lat="61.005468" lon="25.771073">
<time>2020-09-13T11:49:03Z</time>
</trkpt>
<trkpt lat="61.005412" lon="25.771145">
<time>2020-09-13T11:49:04Z</time>
</trkpt>
<trkpt lat="61.005356" lon="25.771203">
<time>2020-09-13T11:49:05Z</time>
</trkpt>
<trkpt lat="61.005297" lon="25.771248">
<time>2020-09-13T11:49:06Z</time>
</trkpt>
<trkpt lat="61.005241" lon="25.771292">
<time>2020-09-13T11:49:07Z</time>
</trkpt>
<trkpt lat="61.005181" lon="25.771329">
<time>2020-09-13T11:49:08Z</time>
</trkpt>
<trkpt lat="61.005119" lon="25.771359">
<time>2020-09-13T11:49:09Z</time>
</trkpt>
<trkpt lat="61.005059" lon="25.771387">
<time>2020-09-13T11:49:10Z</time>
</trkpt>
<trkpt lat="61.005003" lon="25.771422">
<time>2020-09-13T11:49:11Z</time>
</trkpt>
<trkpt lat="61.004947" lon="25.771469">
<time>2020-09-13T11:49:12Z</time>
</trkpt>
<trkpt lat="61.004888" lon="25.771522">
<time>2020-09-13T11:49:13Z</time>
</trkpt>
<trkpt lat="61.004823" lon="25.771559">
<time>2020-09-13T11:49:14Z</time>
</trkpt>
<trkpt lat="61.004754" lon="25.771565">
<time>2020-09-13T11:49:15Z</time>
</trkpt>
<trkpt lat="61.004678" lon="25.77154">
<time>2020-09-13T11:49:16Z</time>
</trkpt>
<trkpt lat="61.004599" lon="25.771509">
<time>2020-09-13T11:49:17Z</time>
</trkpt>
<trkpt lat="61.004518" lon="25.771483">
<time>2020-09-13T11:49:18Z</time>
</trkpt>
</trkseg>
<name>Luca</name>
</trk>
</gpx>